<?xml version="1.0" encoding="UTF-8" standalone="no" ?>
<gpx xmlns="http://www.topografix.com/GPX/1/1" xmlns:xsi="http://www.w3.org/2001/XMLSchema-instance" xsi:schemaLocation="http://www.topografix.com/GPX/1/1 http://www.topografix.com/GPX/1/1/gpx.xsd" version="1.1" creator="VisuGPX - https://www.visugpx.com">
  <metadata>
    <name>Grotte du vieux Mounoï</name>
    <desc><![CDATA[Itinéraire facile.
Départ route de Signe direction (Charnier de Signe) .]]></desc>
  </metadata>
  <trk>
    <name><![CDATA[Grotte du vieux Mounoï_1]]></name>
    <trkseg>
      <trkpt lat="43.26414" lon="5.76526">
        <ele>415</ele>
        <time>2021-10-27T08:27:52Z</time>
      </trkpt>
      <trkpt lat="43.26422" lon="5.76523">
        <ele>414.8</ele>
        <time>2021-10-27T08:28:02Z</time>
      </trkpt>
      <trkpt lat="43.26428" lon="5.7652">
        <ele>414.6</ele>
        <time>2021-10-27T08:28:15Z</time>
      </trkpt>
      <trkpt lat="43.26434" lon="5.76516">
        <ele>414.4</ele>
        <time>2021-10-27T08:28:23Z</time>
      </trkpt>
      <trkpt lat="43.26439" lon="5.76512">
        <ele>414.2</ele>
        <time>2021-10-27T08:28:26Z</time>
      </trkpt>
      <trkpt lat="43.26443" lon="5.76509">
        <ele>414</ele>
        <time>2021-10-27T08:28:33Z</time>
      </trkpt>
      <trkpt lat="43.26448" lon="5.76508">
        <ele>414</ele>
        <time>2021-10-27T08:28:39Z</time>
      </trkpt>
      <trkpt lat="43.26452" lon="5.76505">
        <ele>414</ele>
        <time>2021-10-27T08:28:43Z</time>
      </trkpt>
      <trkpt lat="43.26457" lon="5.76501">
        <ele>414</ele>
        <time>2021-10-27T08:28:49Z</time>
      </trkpt>
      <trkpt lat="43.26461" lon="5.76498">
        <ele>414</ele>
        <time>2021-10-27T08:28:53Z</time>
      </trkpt>
      <trkpt lat="43.26465" lon="5.76495">
        <ele>414</ele>
        <time>2021-10-27T08:29:03Z</time>
      </trkpt>
      <trkpt lat="43.26469" lon="5.76492">
        <ele>414</ele>
        <time>2021-10-27T08:29:08Z</time>
      </trkpt>
      <trkpt lat="43.26473" lon="5.76488">
        <ele>413.9</ele>
        <time>2021-10-27T08:29:12Z</time>
      </trkpt>
      <trkpt lat="43.26478" lon="5.76485">
        <ele>413.7</ele>
        <time>2021-10-27T08:29:16Z</time>
      </trkpt>
      <trkpt lat="43.26483" lon="5.76481">
        <ele>413.5</ele>
        <time>2021-10-27T08:29:21Z</time>
      </trkpt>
      <trkpt lat="43.26488" lon="5.76479">
        <ele>413.3</ele>
        <time>2021-10-27T08:29:27Z</time>
      </trkpt>
      <trkpt lat="43.26493" lon="5.76477">
        <ele>413.1</ele>
        <time>2021-10-27T08:29:31Z</time>
      </trkpt>
      <trkpt lat="43.26497" lon="5.76474">
        <ele>413</ele>
        <time>2021-10-27T08:29:37Z</time>
      </trkpt>
      <trkpt lat="43.26502" lon="5.7647">
        <ele>412.9</ele>
        <time>2021-10-27T08:29:42Z</time>
      </trkpt>
      <trkpt lat="43.26506" lon="5.76466">
        <ele>412.6</ele>
        <time>2021-10-27T08:29:47Z</time>
      </trkpt>
      <trkpt lat="43.2651" lon="5.76463">
        <ele>412.4</ele>
        <time>2021-10-27T08:29:52Z</time>
      </trkpt>
      <trkpt lat="43.26515" lon="5.76459">
        <ele>412.2</ele>
        <time>2021-10-27T08:29:57Z</time>
      </trkpt>
      <trkpt lat="43.26519" lon="5.76455">
        <ele>412.1</ele>
        <time>2021-10-27T08:30:02Z</time>
      </trkpt>
      <trkpt lat="43.26524" lon="5.7645">
        <ele>412</ele>
        <time>2021-10-27T08:30:06Z</time>
      </trkpt>
      <trkpt lat="43.26528" lon="5.76448">
        <ele>411.9</ele>
        <time>2021-10-27T08:30:10Z</time>
      </trkpt>
      <trkpt lat="43.26532" lon="5.76445">
        <ele>411.7</ele>
        <time>2021-10-27T08:30:15Z</time>
      </trkpt>
      <trkpt lat="43.26537" lon="5.7644">
        <ele>411.3</ele>
        <time>2021-10-27T08:30:20Z</time>
      </trkpt>
      <trkpt lat="43.2654" lon="5.76436">
        <ele>411.1</ele>
        <time>2021-10-27T08:30:25Z</time>
      </trkpt>
      <trkpt lat="43.26545" lon="5.76434">
        <ele>410.9</ele>
        <time>2021-10-27T08:30:30Z</time>
      </trkpt>
      <trkpt lat="43.26549" lon="5.76431">
        <ele>410.7</ele>
        <time>2021-10-27T08:30:34Z</time>
      </trkpt>
      <trkpt lat="43.26553" lon="5.76427">
        <ele>410.7</ele>
        <time>2021-10-27T08:30:38Z</time>
      </trkpt>
      <trkpt lat="43.26558" lon="5.76422">
        <ele>410.7</ele>
        <time>2021-10-27T08:30:43Z</time>
      </trkpt>
      <trkpt lat="43.26561" lon="5.76418">
        <ele>410.7</ele>
        <time>2021-10-27T08:30:46Z</time>
      </trkpt>
      <trkpt lat="43.26565" lon="5.76414">
        <ele>410.6</ele>
        <time>2021-10-27T08:30:49Z</time>
      </trkpt>
      <trkpt lat="43.26569" lon="5.7641">
        <ele>410.5</ele>
        <time>2021-10-27T08:30:52Z</time>
      </trkpt>
      <trkpt lat="43.26573" lon="5.76407">
        <ele>410.5</ele>
        <time>2021-10-27T08:30:55Z</time>
      </trkpt>
      <trkpt lat="43.26578" lon="5.76404">
        <ele>410.5</ele>
        <time>2021-10-27T08:31:00Z</time>
      </trkpt>
      <trkpt lat="43.2658" lon="5.76398">
        <ele>410.6</ele>
        <time>2021-10-27T08:31:06Z</time>
      </trkpt>
      <trkpt lat="43.26583" lon="5.76392">
        <ele>410.9</ele>
        <time>2021-10-27T08:31:11Z</time>
      </trkpt>
      <trkpt lat="43.26585" lon="5.76385">
        <ele>410.8</ele>
        <time>2021-10-27T08:31:16Z</time>
      </trkpt>
      <trkpt lat="43.26588" lon="5.76379">
        <ele>410.5</ele>
        <time>2021-10-27T08:31:21Z</time>
      </trkpt>
      <trkpt lat="43.26591" lon="5.76376">
        <ele>410.4</ele>
        <time>2021-10-27T08:31:28Z</time>
      </trkpt>
      <trkpt lat="43.26593" lon="5.76369">
        <ele>410.2</ele>
        <time>2021-10-27T08:31:33Z</time>
      </trkpt>
      <trkpt lat="43.26597" lon="5.76364">
        <ele>410</ele>
        <time>2021-10-27T08:31:37Z</time>
      </trkpt>
      <trkpt lat="43.266" lon="5.76358">
        <ele>409.9</ele>
        <time>2021-10-27T08:31:41Z</time>
      </trkpt>
      <trkpt lat="43.26603" lon="5.76354">
        <ele>409.7</ele>
        <time>2021-10-27T08:31:46Z</time>
      </trkpt>
      <trkpt lat="43.26606" lon="5.76348">
        <ele>409.5</ele>
        <time>2021-10-27T08:31:51Z</time>
      </trkpt>
      <trkpt lat="43.2661" lon="5.76344">
        <ele>409.4</ele>
        <time>2021-10-27T08:31:55Z</time>
      </trkpt>
      <trkpt lat="43.26613" lon="5.76339">
        <ele>409.2</ele>
        <time>2021-10-27T08:31:59Z</time>
      </trkpt>
      <trkpt lat="43.26616" lon="5.76334">
        <ele>409</ele>
        <time>2021-10-27T08:32:03Z</time>
      </trkpt>
      <trkpt lat="43.26618" lon="5.76327">
        <ele>409</ele>
        <time>2021-10-27T08:32:08Z</time>
      </trkpt>
      <trkpt lat="43.2662" lon="5.7632">
        <ele>409</ele>
        <time>2021-10-27T08:32:12Z</time>
      </trkpt>
      <trkpt lat="43.26623" lon="5.76315">
        <ele>409</ele>
        <time>2021-10-27T08:32:17Z</time>
      </trkpt>
      <trkpt lat="43.26626" lon="5.7631">
        <ele>409</ele>
        <time>2021-10-27T08:32:21Z</time>
      </trkpt>
      <trkpt lat="43.26629" lon="5.76304">
        <ele>409</ele>
        <time>2021-10-27T08:32:27Z</time>
      </trkpt>
      <trkpt lat="43.26632" lon="5.76298">
        <ele>409</ele>
        <time>2021-10-27T08:32:32Z</time>
      </trkpt>
      <trkpt lat="43.26634" lon="5.76292">
        <ele>409</ele>
        <time>2021-10-27T08:32:37Z</time>
      </trkpt>
      <trkpt lat="43.26637" lon="5.76287">
        <ele>409</ele>
        <time>2021-10-27T08:32:42Z</time>
      </trkpt>
      <trkpt lat="43.26641" lon="5.76281">
        <ele>409</ele>
        <time>2021-10-27T08:32:46Z</time>
      </trkpt>
      <trkpt lat="43.26643" lon="5.76275">
        <ele>409.1</ele>
        <time>2021-10-27T08:32:50Z</time>
      </trkpt>
      <trkpt lat="43.26646" lon="5.76269">
        <ele>409.2</ele>
        <time>2021-10-27T08:32:54Z</time>
      </trkpt>
      <trkpt lat="43.26649" lon="5.76265">
        <ele>409.3</ele>
        <time>2021-10-27T08:32:58Z</time>
      </trkpt>
      <trkpt lat="43.26653" lon="5.76259">
        <ele>409.3</ele>
        <time>2021-10-27T08:33:02Z</time>
      </trkpt>
      <trkpt lat="43.26656" lon="5.76254">
        <ele>409.3</ele>
        <time>2021-10-27T08:33:06Z</time>
      </trkpt>
      <trkpt lat="43.26659" lon="5.76249">
        <ele>409.3</ele>
        <time>2021-10-27T08:33:11Z</time>
      </trkpt>
      <trkpt lat="43.2666" lon="5.76242">
        <ele>409.2</ele>
        <time>2021-10-27T08:33:15Z</time>
      </trkpt>
      <trkpt lat="43.26662" lon="5.76236">
        <ele>409.2</ele>
        <time>2021-10-27T08:33:19Z</time>
      </trkpt>
      <trkpt lat="43.26662" lon="5.76229">
        <ele>409.2</ele>
        <time>2021-10-27T08:33:23Z</time>
      </trkpt>
      <trkpt lat="43.26663" lon="5.76223">
        <ele>409.1</ele>
        <time>2021-10-27T08:33:27Z</time>
      </trkpt>
      <trkpt lat="43.26663" lon="5.76216">
        <ele>409.1</ele>
        <time>2021-10-27T08:33:33Z</time>
      </trkpt>
      <trkpt lat="43.26663" lon="5.76207">
        <ele>409.1</ele>
        <time>2021-10-27T08:33:38Z</time>
      </trkpt>
      <trkpt lat="43.26664" lon="5.762">
        <ele>409.1</ele>
        <time>2021-10-27T08:33:43Z</time>
      </trkpt>
      <trkpt lat="43.26664" lon="5.76194">
        <ele>409.1</ele>
        <time>2021-10-27T08:33:48Z</time>
      </trkpt>
      <trkpt lat="43.26665" lon="5.76187">
        <ele>409</ele>
        <time>2021-10-27T08:33:52Z</time>
      </trkpt>
      <trkpt lat="43.26667" lon="5.76181">
        <ele>409</ele>
        <time>2021-10-27T08:33:56Z</time>
      </trkpt>
      <trkpt lat="43.26668" lon="5.76173">
        <ele>409.1</ele>
        <time>2021-10-27T08:34:01Z</time>
      </trkpt>
      <trkpt lat="43.26669" lon="5.76167">
        <ele>409.1</ele>
        <time>2021-10-27T08:34:05Z</time>
      </trkpt>
      <trkpt lat="43.26669" lon="5.76159">
        <ele>409.1</ele>
        <time>2021-10-27T08:34:10Z</time>
      </trkpt>
      <trkpt lat="43.26669" lon="5.76152">
        <ele>409.1</ele>
        <time>2021-10-27T08:34:14Z</time>
      </trkpt>
      <trkpt lat="43.26669" lon="5.76144">
        <ele>409.1</ele>
        <time>2021-10-27T08:34:18Z</time>
      </trkpt>
      <trkpt lat="43.2667" lon="5.76138">
        <ele>409.1</ele>
        <time>2021-10-27T08:34:22Z</time>
      </trkpt>
      <trkpt lat="43.2667" lon="5.76132">
        <ele>409.3</ele>
        <time>2021-10-27T08:34:26Z</time>
      </trkpt>
      <trkpt lat="43.2667" lon="5.76125">
        <ele>409.5</ele>
        <time>2021-10-27T08:34:31Z</time>
      </trkpt>
      <trkpt lat="43.2667" lon="5.76118">
        <ele>409.7</ele>
        <time>2021-10-27T08:34:36Z</time>
      </trkpt>
      <trkpt lat="43.26673" lon="5.76111">
        <ele>409.8</ele>
        <time>2021-10-27T08:34:40Z</time>
      </trkpt>
      <trkpt lat="43.26675" lon="5.76106">
        <ele>409.5</ele>
        <time>2021-10-27T08:34:45Z</time>
      </trkpt>
      <trkpt lat="43.26678" lon="5.76099">
        <ele>409.2</ele>
        <time>2021-10-27T08:34:50Z</time>
      </trkpt>
      <trkpt lat="43.2668" lon="5.76093">
        <ele>408.8</ele>
        <time>2021-10-27T08:34:55Z</time>
      </trkpt>
      <trkpt lat="43.26682" lon="5.76086">
        <ele>408.5</ele>
        <time>2021-10-27T08:35:01Z</time>
      </trkpt>
      <trkpt lat="43.26682" lon="5.76079">
        <ele>408.5</ele>
        <time>2021-10-27T08:35:04Z</time>
      </trkpt>
      <trkpt lat="43.26683" lon="5.76073">
        <ele>408.6</ele>
        <time>2021-10-27T08:35:08Z</time>
      </trkpt>
      <trkpt lat="43.26685" lon="5.76065">
        <ele>408.6</ele>
        <time>2021-10-27T08:35:12Z</time>
      </trkpt>
      <trkpt lat="43.26687" lon="5.76059">
        <ele>408.5</ele>
        <time>2021-10-27T08:35:15Z</time>
      </trkpt>
      <trkpt lat="43.26688" lon="5.76053">
        <ele>408.4</ele>
        <time>2021-10-27T08:35:20Z</time>
      </trkpt>
      <trkpt lat="43.2669" lon="5.76046">
        <ele>408.4</ele>
        <time>2021-10-27T08:35:24Z</time>
      </trkpt>
      <trkpt lat="43.26691" lon="5.7604">
        <ele>408.2</ele>
        <time>2021-10-27T08:35:28Z</time>
      </trkpt>
      <trkpt lat="43.26693" lon="5.76034">
        <ele>408.1</ele>
        <time>2021-10-27T08:35:32Z</time>
      </trkpt>
      <trkpt lat="43.26695" lon="5.76028">
        <ele>408</ele>
        <time>2021-10-27T08:35:36Z</time>
      </trkpt>
      <trkpt lat="43.26697" lon="5.76021">
        <ele>407.7</ele>
        <time>2021-10-27T08:35:42Z</time>
      </trkpt>
      <trkpt lat="43.26699" lon="5.76015">
        <ele>407.6</ele>
        <time>2021-10-27T08:35:48Z</time>
      </trkpt>
      <trkpt lat="43.267" lon="5.76007">
        <ele>407.5</ele>
        <time>2021-10-27T08:35:52Z</time>
      </trkpt>
      <trkpt lat="43.26703" lon="5.76001">
        <ele>407.4</ele>
        <time>2021-10-27T08:35:57Z</time>
      </trkpt>
      <trkpt lat="43.26705" lon="5.75994">
        <ele>407.2</ele>
        <time>2021-10-27T08:36:01Z</time>
      </trkpt>
      <trkpt lat="43.26707" lon="5.75987">
        <ele>407.1</ele>
        <time>2021-10-27T08:36:05Z</time>
      </trkpt>
      <trkpt lat="43.26707" lon="5.75981">
        <ele>407.1</ele>
        <time>2021-10-27T08:36:10Z</time>
      </trkpt>
      <trkpt lat="43.26709" lon="5.75974">
        <ele>407</ele>
        <time>2021-10-27T08:36:14Z</time>
      </trkpt>
      <trkpt lat="43.26709" lon="5.75967">
        <ele>406.9</ele>
        <time>2021-10-27T08:36:19Z</time>
      </trkpt>
      <trkpt lat="43.26709" lon="5.75959">
        <ele>406.8</ele>
        <time>2021-10-27T08:36:24Z</time>
      </trkpt>
      <trkpt lat="43.26709" lon="5.75952">
        <ele>406.6</ele>
        <time>2021-10-27T08:36:28Z</time>
      </trkpt>
      <trkpt lat="43.26711" lon="5.75946">
        <ele>406.4</ele>
        <time>2021-10-27T08:36:32Z</time>
      </trkpt>
      <trkpt lat="43.26714" lon="5.75939">
        <ele>406.1</ele>
        <time>2021-10-27T08:36:37Z</time>
      </trkpt>
      <trkpt lat="43.26717" lon="5.75934">
        <ele>405.8</ele>
        <time>2021-10-27T08:36:41Z</time>
      </trkpt>
      <trkpt lat="43.26721" lon="5.75929">
        <ele>405.5</ele>
        <time>2021-10-27T08:36:45Z</time>
      </trkpt>
      <trkpt lat="43.26726" lon="5.75925">
        <ele>405.2</ele>
        <time>2021-10-27T08:36:50Z</time>
      </trkpt>
      <trkpt lat="43.2673" lon="5.75922">
        <ele>405</ele>
        <time>2021-10-27T08:36:56Z</time>
      </trkpt>
      <trkpt lat="43.26735" lon="5.75921">
        <ele>404.7</ele>
        <time>2021-10-27T08:37:02Z</time>
      </trkpt>
      <trkpt lat="43.2674" lon="5.75922">
        <ele>404.7</ele>
        <time>2021-10-27T08:37:07Z</time>
      </trkpt>
      <trkpt lat="43.26745" lon="5.75923">
        <ele>404.6</ele>
        <time>2021-10-27T08:37:13Z</time>
      </trkpt>
      <trkpt lat="43.2675" lon="5.75923">
        <ele>404.5</ele>
        <time>2021-10-27T08:37:18Z</time>
      </trkpt>
      <trkpt lat="43.26756" lon="5.75925">
        <ele>403.6</ele>
        <time>2021-10-27T08:37:22Z</time>
      </trkpt>
      <trkpt lat="43.2676" lon="5.75928">
        <ele>403</ele>
        <time>2021-10-27T08:37:26Z</time>
      </trkpt>
      <trkpt lat="43.26764" lon="5.75933">
        <ele>402.5</ele>
        <time>2021-10-27T08:37:31Z</time>
      </trkpt>
      <trkpt lat="43.26768" lon="5.75937">
        <ele>402</ele>
        <time>2021-10-27T08:37:38Z</time>
      </trkpt>
      <trkpt lat="43.26767" lon="5.75944">
        <ele>402.3</ele>
        <time>2021-10-27T08:37:47Z</time>
      </trkpt>
      <trkpt lat="43.26766" lon="5.75951">
        <ele>402.2</ele>
        <time>2021-10-27T08:37:53Z</time>
      </trkpt>
      <trkpt lat="43.26768" lon="5.75958">
        <ele>401.6</ele>
        <time>2021-10-27T08:37:57Z</time>
      </trkpt>
      <trkpt lat="43.2677" lon="5.75964">
        <ele>401.1</ele>
        <time>2021-10-27T08:38:01Z</time>
      </trkpt>
      <trkpt lat="43.26771" lon="5.75971">
        <ele>400.5</ele>
        <time>2021-10-27T08:38:06Z</time>
      </trkpt>
      <trkpt lat="43.26771" lon="5.75978">
        <ele>400.1</ele>
        <time>2021-10-27T08:38:10Z</time>
      </trkpt>
      <trkpt lat="43.26772" lon="5.75986">
        <ele>399.6</ele>
        <time>2021-10-27T08:38:14Z</time>
      </trkpt>
      <trkpt lat="43.26773" lon="5.75993">
        <ele>399.2</ele>
        <time>2021-10-27T08:38:18Z</time>
      </trkpt>
      <trkpt lat="43.26773" lon="5.75999">
        <ele>399</ele>
        <time>2021-10-27T08:38:25Z</time>
      </trkpt>
      <trkpt lat="43.26775" lon="5.76005">
        <ele>398.2</ele>
        <time>2021-10-27T08:38:41Z</time>
      </trkpt>
      <trkpt lat="43.26773" lon="5.76012">
        <ele>397.9</ele>
        <time>2021-10-27T08:38:47Z</time>
      </trkpt>
      <trkpt lat="43.26772" lon="5.7602">
        <ele>397.6</ele>
        <time>2021-10-27T08:38:51Z</time>
      </trkpt>
      <trkpt lat="43.2677" lon="5.76027">
        <ele>397.4</ele>
        <time>2021-10-27T08:38:56Z</time>
      </trkpt>
      <trkpt lat="43.26775" lon="5.76028">
        <ele>396.5</ele>
        <time>2021-10-27T08:39:05Z</time>
      </trkpt>
      <trkpt lat="43.26779" lon="5.76024">
        <ele>396.2</ele>
        <time>2021-10-27T08:39:09Z</time>
      </trkpt>
      <trkpt lat="43.26783" lon="5.7602">
        <ele>395.8</ele>
        <time>2021-10-27T08:39:16Z</time>
      </trkpt>
      <trkpt lat="43.26788" lon="5.76018">
        <ele>395.2</ele>
        <time>2021-10-27T08:39:21Z</time>
      </trkpt>
      <trkpt lat="43.26792" lon="5.76017">
        <ele>394.4</ele>
        <time>2021-10-27T08:39:26Z</time>
      </trkpt>
      <trkpt lat="43.26797" lon="5.76013">
        <ele>393.9</ele>
        <time>2021-10-27T08:39:31Z</time>
      </trkpt>
      <trkpt lat="43.26801" lon="5.76009">
        <ele>393.4</ele>
        <time>2021-10-27T08:39:34Z</time>
      </trkpt>
      <trkpt lat="43.26805" lon="5.76006">
        <ele>392.8</ele>
        <time>2021-10-27T08:39:37Z</time>
      </trkpt>
      <trkpt lat="43.2681" lon="5.76002">
        <ele>392.1</ele>
        <time>2021-10-27T08:39:40Z</time>
      </trkpt>
      <trkpt lat="43.26813" lon="5.75996">
        <ele>391.5</ele>
        <time>2021-10-27T08:39:43Z</time>
      </trkpt>
      <trkpt lat="43.26815" lon="5.75991">
        <ele>390.9</ele>
        <time>2021-10-27T08:39:47Z</time>
      </trkpt>
      <trkpt lat="43.26819" lon="5.75985">
        <ele>390.1</ele>
        <time>2021-10-27T08:39:52Z</time>
      </trkpt>
      <trkpt lat="43.26823" lon="5.7598">
        <ele>389.3</ele>
        <time>2021-10-27T08:39:56Z</time>
      </trkpt>
      <trkpt lat="43.26825" lon="5.75975">
        <ele>388.8</ele>
        <time>2021-10-27T08:39:59Z</time>
      </trkpt>
      <trkpt lat="43.26826" lon="5.75967">
        <ele>388.4</ele>
        <time>2021-10-27T08:40:04Z</time>
      </trkpt>
      <trkpt lat="43.26828" lon="5.75962">
        <ele>387.5</ele>
        <time>2021-10-27T08:40:09Z</time>
      </trkpt>
      <trkpt lat="43.26832" lon="5.75957">
        <ele>386.2</ele>
        <time>2021-10-27T08:40:13Z</time>
      </trkpt>
      <trkpt lat="43.26833" lon="5.7595">
        <ele>385.4</ele>
        <time>2021-10-27T08:40:17Z</time>
      </trkpt>
      <trkpt lat="43.26833" lon="5.75957">
        <ele>386</ele>
        <time>2021-10-27T08:40:37Z</time>
      </trkpt>
      <trkpt lat="43.26833" lon="5.75964">
        <ele>386.4</ele>
        <time>2021-10-27T08:40:44Z</time>
      </trkpt>
      <trkpt lat="43.26836" lon="5.75969">
        <ele>385.9</ele>
        <time>2021-10-27T08:40:48Z</time>
      </trkpt>
      <trkpt lat="43.26841" lon="5.75972">
        <ele>384.5</ele>
        <time>2021-10-27T08:40:54Z</time>
      </trkpt>
      <trkpt lat="43.26845" lon="5.7597">
        <ele>382.9</ele>
        <time>2021-10-27T08:41:00Z</time>
      </trkpt>
      <trkpt lat="43.26847" lon="5.75963">
        <ele>381.7</ele>
        <time>2021-10-27T08:41:05Z</time>
      </trkpt>
      <trkpt lat="43.26847" lon="5.75957">
        <ele>381.2</ele>
        <time>2021-10-27T08:41:09Z</time>
      </trkpt>
      <trkpt lat="43.26848" lon="5.7595">
        <ele>380.4</ele>
        <time>2021-10-27T08:41:19Z</time>
      </trkpt>
      <trkpt lat="43.26848" lon="5.75944">
        <ele>379.6</ele>
        <time>2021-10-27T08:41:25Z</time>
      </trkpt>
      <trkpt lat="43.26849" lon="5.75936">
        <ele>378.6</ele>
        <time>2021-10-27T08:41:31Z</time>
      </trkpt>
      <trkpt lat="43.26848" lon="5.7593">
        <ele>378</ele>
        <time>2021-10-27T08:41:36Z</time>
      </trkpt>
      <trkpt lat="43.26849" lon="5.75923">
        <ele>377.2</ele>
        <time>2021-10-27T08:41:40Z</time>
      </trkpt>
      <trkpt lat="43.26848" lon="5.75917">
        <ele>376.6</ele>
        <time>2021-10-27T08:41:44Z</time>
      </trkpt>
      <trkpt lat="43.26849" lon="5.7591">
        <ele>375.6</ele>
        <time>2021-10-27T08:41:48Z</time>
      </trkpt>
      <trkpt lat="43.26851" lon="5.75904">
        <ele>374.3</ele>
        <time>2021-10-27T08:41:53Z</time>
      </trkpt>
      <trkpt lat="43.26853" lon="5.75897">
        <ele>373.3</ele>
        <time>2021-10-27T08:42:00Z</time>
      </trkpt>
      <trkpt lat="43.26853" lon="5.7589">
        <ele>372.3</ele>
        <time>2021-10-27T08:42:06Z</time>
      </trkpt>
      <trkpt lat="43.26852" lon="5.75883">
        <ele>372</ele>
        <time>2021-10-27T08:42:11Z</time>
      </trkpt>
      <trkpt lat="43.26852" lon="5.75877">
        <ele>371.6</ele>
        <time>2021-10-27T08:42:16Z</time>
      </trkpt>
      <trkpt lat="43.2685" lon="5.75869">
        <ele>371.4</ele>
        <time>2021-10-27T08:42:22Z</time>
      </trkpt>
      <trkpt lat="43.26852" lon="5.75863">
        <ele>370.5</ele>
        <time>2021-10-27T08:42:37Z</time>
      </trkpt>
      <trkpt lat="43.26856" lon="5.75865">
        <ele>369.6</ele>
        <time>2021-10-27T08:42:45Z</time>
      </trkpt>
      <trkpt lat="43.26861" lon="5.75865">
        <ele>368.4</ele>
        <time>2021-10-27T08:42:51Z</time>
      </trkpt>
      <trkpt lat="43.26866" lon="5.75867">
        <ele>367.9</ele>
        <time>2021-10-27T08:42:56Z</time>
      </trkpt>
      <trkpt lat="43.26872" lon="5.75869">
        <ele>367.3</ele>
        <time>2021-10-27T08:43:00Z</time>
      </trkpt>
      <trkpt lat="43.26876" lon="5.75873">
        <ele>366.7</ele>
        <time>2021-10-27T08:43:07Z</time>
      </trkpt>
      <trkpt lat="43.2688" lon="5.75877">
        <ele>365.8</ele>
        <time>2021-10-27T08:43:14Z</time>
      </trkpt>
      <trkpt lat="43.26885" lon="5.7588">
        <ele>364.7</ele>
        <time>2021-10-27T08:43:18Z</time>
      </trkpt>
      <trkpt lat="43.26889" lon="5.75883">
        <ele>363.6</ele>
        <time>2021-10-27T08:43:23Z</time>
      </trkpt>
      <trkpt lat="43.26893" lon="5.75887">
        <ele>362.7</ele>
        <time>2021-10-27T08:43:28Z</time>
      </trkpt>
      <trkpt lat="43.26896" lon="5.75893">
        <ele>362.2</ele>
        <time>2021-10-27T08:43:36Z</time>
      </trkpt>
      <trkpt lat="43.26899" lon="5.75898">
        <ele>362</ele>
        <time>2021-10-27T08:43:40Z</time>
      </trkpt>
      <trkpt lat="43.269" lon="5.75904">
        <ele>361.9</ele>
        <time>2021-10-27T08:43:43Z</time>
      </trkpt>
      <trkpt lat="43.26901" lon="5.75911">
        <ele>361.9</ele>
        <time>2021-10-27T08:43:47Z</time>
      </trkpt>
      <trkpt lat="43.26902" lon="5.75917">
        <ele>362</ele>
        <time>2021-10-27T08:43:53Z</time>
      </trkpt>
      <trkpt lat="43.26902" lon="5.75924">
        <ele>362.1</ele>
        <time>2021-10-27T08:43:57Z</time>
      </trkpt>
      <trkpt lat="43.26903" lon="5.75932">
        <ele>362.3</ele>
        <time>2021-10-27T08:44:01Z</time>
      </trkpt>
      <trkpt lat="43.26904" lon="5.75938">
        <ele>362.4</ele>
        <time>2021-10-27T08:44:05Z</time>
      </trkpt>
      <trkpt lat="43.26903" lon="5.75945">
        <ele>362.5</ele>
        <time>2021-10-27T08:44:10Z</time>
      </trkpt>
      <trkpt lat="43.26902" lon="5.75952">
        <ele>362.7</ele>
        <time>2021-10-27T08:44:15Z</time>
      </trkpt>
      <trkpt lat="43.26901" lon="5.75959">
        <ele>362.9</ele>
        <time>2021-10-27T08:44:19Z</time>
      </trkpt>
      <trkpt lat="43.26902" lon="5.75965">
        <ele>362.9</ele>
        <time>2021-10-27T08:44:24Z</time>
      </trkpt>
      <trkpt lat="43.26904" lon="5.75971">
        <ele>362.8</ele>
        <time>2021-10-27T08:44:29Z</time>
      </trkpt>
      <trkpt lat="43.26905" lon="5.75978">
        <ele>363.5</ele>
        <time>2021-10-27T08:44:32Z</time>
      </trkpt>
      <trkpt lat="43.26907" lon="5.75984">
        <ele>364.2</ele>
        <time>2021-10-27T08:44:36Z</time>
      </trkpt>
      <trkpt lat="43.26908" lon="5.7599">
        <ele>364.4</ele>
        <time>2021-10-27T08:44:40Z</time>
      </trkpt>
      <trkpt lat="43.26911" lon="5.75996">
        <ele>364.1</ele>
        <time>2021-10-27T08:44:45Z</time>
      </trkpt>
      <trkpt lat="43.26915" lon="5.76">
        <ele>362.7</ele>
        <time>2021-10-27T08:44:50Z</time>
      </trkpt>
      <trkpt lat="43.26918" lon="5.76005">
        <ele>362.4</ele>
        <time>2021-10-27T08:44:54Z</time>
      </trkpt>
      <trkpt lat="43.2692" lon="5.7601">
        <ele>362.8</ele>
        <time>2021-10-27T08:44:58Z</time>
      </trkpt>
      <trkpt lat="43.26923" lon="5.76016">
        <ele>363.1</ele>
        <time>2021-10-27T08:45:03Z</time>
      </trkpt>
      <trkpt lat="43.26926" lon="5.76022">
        <ele>363.4</ele>
        <time>2021-10-27T08:45:08Z</time>
      </trkpt>
      <trkpt lat="43.26928" lon="5.76028">
        <ele>363.4</ele>
        <time>2021-10-27T08:45:14Z</time>
      </trkpt>
      <trkpt lat="43.26929" lon="5.76034">
        <ele>363.5</ele>
        <time>2021-10-27T08:45:22Z</time>
      </trkpt>
      <trkpt lat="43.26931" lon="5.76041">
        <ele>363.5</ele>
        <time>2021-10-27T08:45:27Z</time>
      </trkpt>
      <trkpt lat="43.26933" lon="5.76048">
        <ele>363.6</ele>
        <time>2021-10-27T08:45:31Z</time>
      </trkpt>
      <trkpt lat="43.26934" lon="5.76053">
        <ele>363.6</ele>
        <time>2021-10-27T08:45:34Z</time>
      </trkpt>
      <trkpt lat="43.26935" lon="5.7606">
        <ele>363.6</ele>
        <time>2021-10-27T08:45:37Z</time>
      </trkpt>
      <trkpt lat="43.26936" lon="5.76067">
        <ele>363.4</ele>
        <time>2021-10-27T08:45:41Z</time>
      </trkpt>
      <trkpt lat="43.26937" lon="5.76074">
        <ele>363.3</ele>
        <time>2021-10-27T08:45:46Z</time>
      </trkpt>
      <trkpt lat="43.26939" lon="5.7608">
        <ele>363.1</ele>
        <time>2021-10-27T08:45:50Z</time>
      </trkpt>
      <trkpt lat="43.26941" lon="5.76085">
        <ele>363.1</ele>
        <time>2021-10-27T08:45:55Z</time>
      </trkpt>
      <trkpt lat="43.26944" lon="5.7609">
        <ele>363.3</ele>
        <time>2021-10-27T08:46:00Z</time>
      </trkpt>
      <trkpt lat="43.26948" lon="5.76093">
        <ele>363.4</ele>
        <time>2021-10-27T08:46:04Z</time>
      </trkpt>
      <trkpt lat="43.26953" lon="5.76097">
        <ele>363.6</ele>
        <time>2021-10-27T08:46:08Z</time>
      </trkpt>
      <trkpt lat="43.26958" lon="5.76097">
        <ele>363.8</ele>
        <time>2021-10-27T08:46:13Z</time>
      </trkpt>
      <trkpt lat="43.26963" lon="5.76098">
        <ele>363.8</ele>
        <time>2021-10-27T08:46:16Z</time>
      </trkpt>
      <trkpt lat="43.26968" lon="5.76099">
        <ele>363.9</ele>
        <time>2021-10-27T08:46:20Z</time>
      </trkpt>
      <trkpt lat="43.26973" lon="5.76101">
        <ele>364</ele>
        <time>2021-10-27T08:46:24Z</time>
      </trkpt>
      <trkpt lat="43.26977" lon="5.76104">
        <ele>364</ele>
        <time>2021-10-27T08:46:28Z</time>
      </trkpt>
      <trkpt lat="43.26982" lon="5.76105">
        <ele>364</ele>
        <time>2021-10-27T08:46:35Z</time>
      </trkpt>
      <trkpt lat="43.26987" lon="5.76108">
        <ele>364</ele>
        <time>2021-10-27T08:46:41Z</time>
      </trkpt>
      <trkpt lat="43.26992" lon="5.7611">
        <ele>364</ele>
        <time>2021-10-27T08:46:45Z</time>
      </trkpt>
      <trkpt lat="43.26997" lon="5.76111">
        <ele>364</ele>
        <time>2021-10-27T08:46:50Z</time>
      </trkpt>
      <trkpt lat="43.27002" lon="5.76113">
        <ele>364.5</ele>
        <time>2021-10-27T08:46:55Z</time>
      </trkpt>
      <trkpt lat="43.27007" lon="5.76114">
        <ele>364.7</ele>
        <time>2021-10-27T08:46:59Z</time>
      </trkpt>
      <trkpt lat="43.27012" lon="5.76115">
        <ele>364.9</ele>
        <time>2021-10-27T08:47:05Z</time>
      </trkpt>
      <trkpt lat="43.27016" lon="5.76118">
        <ele>365.3</ele>
        <time>2021-10-27T08:47:18Z</time>
      </trkpt>
      <trkpt lat="43.2702" lon="5.76115">
        <ele>365</ele>
        <time>2021-10-27T08:47:29Z</time>
      </trkpt>
      <trkpt lat="43.27026" lon="5.76115">
        <ele>365</ele>
        <time>2021-10-27T08:47:34Z</time>
      </trkpt>
      <trkpt lat="43.2703" lon="5.76118">
        <ele>365.1</ele>
        <time>2021-10-27T08:48:14Z</time>
      </trkpt>
      <trkpt lat="43.27031" lon="5.76124">
        <ele>365.2</ele>
        <time>2021-10-27T08:48:31Z</time>
      </trkpt>
      <trkpt lat="43.2703" lon="5.76131">
        <ele>365.1</ele>
        <time>2021-10-27T08:48:36Z</time>
      </trkpt>
      <trkpt lat="43.27026" lon="5.76135">
        <ele>365.3</ele>
        <time>2021-10-27T08:48:53Z</time>
      </trkpt>
      <trkpt lat="43.27025" lon="5.76142">
        <ele>365.5</ele>
        <time>2021-10-27T08:48:59Z</time>
      </trkpt>
      <trkpt lat="43.27023" lon="5.76148">
        <ele>365.9</ele>
        <time>2021-10-27T08:49:04Z</time>
      </trkpt>
      <trkpt lat="43.27021" lon="5.76154">
        <ele>366.3</ele>
        <time>2021-10-27T08:49:09Z</time>
      </trkpt>
      <trkpt lat="43.2702" lon="5.76162">
        <ele>366.5</ele>
        <time>2021-10-27T08:49:14Z</time>
      </trkpt>
      <trkpt lat="43.27019" lon="5.76168">
        <ele>366.6</ele>
        <time>2021-10-27T08:49:17Z</time>
      </trkpt>
      <trkpt lat="43.27019" lon="5.76176">
        <ele>366.5</ele>
        <time>2021-10-27T08:49:21Z</time>
      </trkpt>
      <trkpt lat="43.27018" lon="5.76182">
        <ele>366.5</ele>
        <time>2021-10-27T08:49:26Z</time>
      </trkpt>
      <trkpt lat="43.27018" lon="5.76188">
        <ele>366.4</ele>
        <time>2021-10-27T08:49:31Z</time>
      </trkpt>
      <trkpt lat="43.27019" lon="5.76194">
        <ele>366.3</ele>
        <time>2021-10-27T08:49:40Z</time>
      </trkpt>
      <trkpt lat="43.27016" lon="5.762">
        <ele>366.5</ele>
        <time>2021-10-27T08:49:48Z</time>
      </trkpt>
      <trkpt lat="43.27012" lon="5.76205">
        <ele>366.5</ele>
        <time>2021-10-27T08:49:53Z</time>
      </trkpt>
      <trkpt lat="43.27008" lon="5.7621">
        <ele>366.5</ele>
        <time>2021-10-27T08:49:57Z</time>
      </trkpt>
      <trkpt lat="43.27006" lon="5.76215">
        <ele>366.4</ele>
        <time>2021-10-27T08:50:04Z</time>
      </trkpt>
      <trkpt lat="43.27005" lon="5.76222">
        <ele>366.2</ele>
        <time>2021-10-27T08:50:12Z</time>
      </trkpt>
      <trkpt lat="43.27007" lon="5.76228">
        <ele>366.5</ele>
        <time>2021-10-27T08:50:20Z</time>
      </trkpt>
      <trkpt lat="43.2701" lon="5.76232">
        <ele>367.1</ele>
        <time>2021-10-27T08:50:36Z</time>
      </trkpt>
      <trkpt lat="43.27007" lon="5.76237">
        <ele>367.1</ele>
        <time>2021-10-27T08:50:47Z</time>
      </trkpt>
      <trkpt lat="43.27004" lon="5.76243">
        <ele>366.8</ele>
        <time>2021-10-27T08:50:54Z</time>
      </trkpt>
      <trkpt lat="43.27" lon="5.76245">
        <ele>366</ele>
        <time>2021-10-27T08:50:59Z</time>
      </trkpt>
      <trkpt lat="43.26997" lon="5.76251">
        <ele>366.4</ele>
        <time>2021-10-27T08:51:07Z</time>
      </trkpt>
      <trkpt lat="43.26997" lon="5.76257">
        <ele>367</ele>
        <time>2021-10-27T08:51:14Z</time>
      </trkpt>
      <trkpt lat="43.26997" lon="5.76264">
        <ele>367.6</ele>
        <time>2021-10-27T08:51:20Z</time>
      </trkpt>
      <trkpt lat="43.26995" lon="5.7627">
        <ele>368.1</ele>
        <time>2021-10-27T08:51:26Z</time>
      </trkpt>
      <trkpt lat="43.26994" lon="5.76276">
        <ele>368.4</ele>
        <time>2021-10-27T08:51:32Z</time>
      </trkpt>
      <trkpt lat="43.26993" lon="5.76283">
        <ele>368.9</ele>
        <time>2021-10-27T08:51:37Z</time>
      </trkpt>
      <trkpt lat="43.2699" lon="5.76288">
        <ele>369</ele>
        <time>2021-10-27T08:51:45Z</time>
      </trkpt>
      <trkpt lat="43.26986" lon="5.76292">
        <ele>368.7</ele>
        <time>2021-10-27T08:51:49Z</time>
      </trkpt>
      <trkpt lat="43.26982" lon="5.76298">
        <ele>368.5</ele>
        <time>2021-10-27T08:51:53Z</time>
      </trkpt>
      <trkpt lat="43.26981" lon="5.76304">
        <ele>368.5</ele>
        <time>2021-10-27T08:51:57Z</time>
      </trkpt>
      <trkpt lat="43.26979" lon="5.7631">
        <ele>368.3</ele>
        <time>2021-10-27T08:52:01Z</time>
      </trkpt>
      <trkpt lat="43.26978" lon="5.76316">
        <ele>368.1</ele>
        <time>2021-10-27T08:52:10Z</time>
      </trkpt>
      <trkpt lat="43.26977" lon="5.76323">
        <ele>367.9</ele>
        <time>2021-10-27T08:52:17Z</time>
      </trkpt>
      <trkpt lat="43.26976" lon="5.7633">
        <ele>367.8</ele>
        <time>2021-10-27T08:52:21Z</time>
      </trkpt>
      <trkpt lat="43.26976" lon="5.76337">
        <ele>368</ele>
        <time>2021-10-27T08:52:25Z</time>
      </trkpt>
      <trkpt lat="43.26977" lon="5.76344">
        <ele>368.3</ele>
        <time>2021-10-27T08:52:30Z</time>
      </trkpt>
      <trkpt lat="43.26978" lon="5.76351">
        <ele>368.5</ele>
        <time>2021-10-27T08:52:36Z</time>
      </trkpt>
      <trkpt lat="43.26978" lon="5.76357">
        <ele>368.7</ele>
        <time>2021-10-27T08:52:41Z</time>
      </trkpt>
      <trkpt lat="43.26981" lon="5.76363">
        <ele>369.2</ele>
        <time>2021-10-27T08:52:45Z</time>
      </trkpt>
      <trkpt lat="43.26984" lon="5.76368">
        <ele>369.4</ele>
        <time>2021-10-27T08:52:50Z</time>
      </trkpt>
      <trkpt lat="43.26987" lon="5.76373">
        <ele>369.4</ele>
        <time>2021-10-27T08:52:54Z</time>
      </trkpt>
      <trkpt lat="43.26991" lon="5.76378">
        <ele>369.3</ele>
        <time>2021-10-27T08:52:59Z</time>
      </trkpt>
      <trkpt lat="43.26996" lon="5.7638">
        <ele>369.2</ele>
        <time>2021-10-27T08:53:03Z</time>
      </trkpt>
      <trkpt lat="43.27001" lon="5.76383">
        <ele>369</ele>
        <time>2021-10-27T08:53:08Z</time>
      </trkpt>
      <trkpt lat="43.27005" lon="5.76385">
        <ele>369</ele>
        <time>2021-10-27T08:53:14Z</time>
      </trkpt>
      <trkpt lat="43.2701" lon="5.76388">
        <ele>368.9</ele>
        <time>2021-10-27T08:53:21Z</time>
      </trkpt>
      <trkpt lat="43.27013" lon="5.76393">
        <ele>369</ele>
        <time>2021-10-27T08:53:26Z</time>
      </trkpt>
      <trkpt lat="43.27017" lon="5.76398">
        <ele>369.2</ele>
        <time>2021-10-27T08:53:31Z</time>
      </trkpt>
      <trkpt lat="43.27023" lon="5.76399">
        <ele>369.4</ele>
        <time>2021-10-27T08:53:37Z</time>
      </trkpt>
      <trkpt lat="43.27028" lon="5.764">
        <ele>369.6</ele>
        <time>2021-10-27T08:53:43Z</time>
      </trkpt>
      <trkpt lat="43.27032" lon="5.76401">
        <ele>369.8</ele>
        <time>2021-10-27T08:53:48Z</time>
      </trkpt>
      <trkpt lat="43.27036" lon="5.76404">
        <ele>369.9</ele>
        <time>2021-10-27T08:53:53Z</time>
      </trkpt>
      <trkpt lat="43.2704" lon="5.76407">
        <ele>369.8</ele>
        <time>2021-10-27T08:53:58Z</time>
      </trkpt>
      <trkpt lat="43.27044" lon="5.76412">
        <ele>369.5</ele>
        <time>2021-10-27T08:54:03Z</time>
      </trkpt>
      <trkpt lat="43.27048" lon="5.76416">
        <ele>369.1</ele>
        <time>2021-10-27T08:54:09Z</time>
      </trkpt>
      <trkpt lat="43.27051" lon="5.76421">
        <ele>369.8</ele>
        <time>2021-10-27T08:54:14Z</time>
      </trkpt>
      <trkpt lat="43.27055" lon="5.76425">
        <ele>370.5</ele>
        <time>2021-10-27T08:54:20Z</time>
      </trkpt>
      <trkpt lat="43.27058" lon="5.76429">
        <ele>371.2</ele>
        <time>2021-10-27T08:54:26Z</time>
      </trkpt>
      <trkpt lat="43.27063" lon="5.76432">
        <ele>371.6</ele>
        <time>2021-10-27T08:54:33Z</time>
      </trkpt>
      <trkpt lat="43.27067" lon="5.76435">
        <ele>371.9</ele>
        <time>2021-10-27T08:54:37Z</time>
      </trkpt>
      <trkpt lat="43.27071" lon="5.76438">
        <ele>372.2</ele>
        <time>2021-10-27T08:54:42Z</time>
      </trkpt>
      <trkpt lat="43.27077" lon="5.76439">
        <ele>372</ele>
        <time>2021-10-27T08:54:46Z</time>
      </trkpt>
      <trkpt lat="43.27082" lon="5.7644">
        <ele>371.7</ele>
        <time>2021-10-27T08:54:50Z</time>
      </trkpt>
      <trkpt lat="43.27087" lon="5.76441">
        <ele>371.6</ele>
        <time>2021-10-27T08:54:54Z</time>
      </trkpt>
      <trkpt lat="43.27092" lon="5.76444">
        <ele>371.7</ele>
        <time>2021-10-27T08:55:00Z</time>
      </trkpt>
      <trkpt lat="43.27097" lon="5.76446">
        <ele>371.8</ele>
        <time>2021-10-27T08:55:05Z</time>
      </trkpt>
      <trkpt lat="43.27101" lon="5.76449">
        <ele>371.8</ele>
        <time>2021-10-27T08:55:09Z</time>
      </trkpt>
      <trkpt lat="43.27106" lon="5.76452">
        <ele>371.7</ele>
        <time>2021-10-27T08:55:16Z</time>
      </trkpt>
      <trkpt lat="43.2711" lon="5.76455">
        <ele>371.5</ele>
        <time>2021-10-27T08:55:23Z</time>
      </trkpt>
      <trkpt lat="43.27114" lon="5.76457">
        <ele>372.1</ele>
        <time>2021-10-27T08:55:32Z</time>
      </trkpt>
      <trkpt lat="43.27119" lon="5.76457">
        <ele>373.1</ele>
        <time>2021-10-27T08:55:37Z</time>
      </trkpt>
      <trkpt lat="43.27123" lon="5.7646">
        <ele>374</ele>
        <time>2021-10-27T08:55:41Z</time>
      </trkpt>
      <trkpt lat="43.27128" lon="5.76465">
        <ele>374.8</ele>
        <time>2021-10-27T08:55:45Z</time>
      </trkpt>
      <trkpt lat="43.2713" lon="5.7647">
        <ele>375.3</ele>
        <time>2021-10-27T08:55:48Z</time>
      </trkpt>
      <trkpt lat="43.27131" lon="5.76478">
        <ele>374.9</ele>
        <time>2021-10-27T08:55:52Z</time>
      </trkpt>
      <trkpt lat="43.27132" lon="5.76485">
        <ele>374.3</ele>
        <time>2021-10-27T08:55:55Z</time>
      </trkpt>
      <trkpt lat="43.27131" lon="5.76492">
        <ele>373.5</ele>
        <time>2021-10-27T08:56:06Z</time>
      </trkpt>
      <trkpt lat="43.2713" lon="5.76499">
        <ele>372.8</ele>
        <time>2021-10-27T08:56:11Z</time>
      </trkpt>
      <trkpt lat="43.2713" lon="5.76506">
        <ele>372.8</ele>
        <time>2021-10-27T08:56:17Z</time>
      </trkpt>
      <trkpt lat="43.27129" lon="5.76512">
        <ele>372.9</ele>
        <time>2021-10-27T08:56:23Z</time>
      </trkpt>
      <trkpt lat="43.27128" lon="5.76519">
        <ele>373.1</ele>
        <time>2021-10-27T08:56:30Z</time>
      </trkpt>
      <trkpt lat="43.27127" lon="5.76526">
        <ele>373.1</ele>
        <time>2021-10-27T08:56:37Z</time>
      </trkpt>
      <trkpt lat="43.27123" lon="5.76532">
        <ele>373</ele>
        <time>2021-10-27T08:56:43Z</time>
      </trkpt>
      <trkpt lat="43.27121" lon="5.76538">
        <ele>372.9</ele>
        <time>2021-10-27T08:56:49Z</time>
      </trkpt>
      <trkpt lat="43.27118" lon="5.76543">
        <ele>372.8</ele>
        <time>2021-10-27T08:56:55Z</time>
      </trkpt>
      <trkpt lat="43.27115" lon="5.76549">
        <ele>372.5</ele>
        <time>2021-10-27T08:57:00Z</time>
      </trkpt>
      <trkpt lat="43.27113" lon="5.76555">
        <ele>372.2</ele>
        <time>2021-10-27T08:57:05Z</time>
      </trkpt>
      <trkpt lat="43.2711" lon="5.76562">
        <ele>372.3</ele>
        <time>2021-10-27T08:57:09Z</time>
      </trkpt>
      <trkpt lat="43.27108" lon="5.76568">
        <ele>372.6</ele>
        <time>2021-10-27T08:57:12Z</time>
      </trkpt>
      <trkpt lat="43.27106" lon="5.76575">
        <ele>372.9</ele>
        <time>2021-10-27T08:57:15Z</time>
      </trkpt>
      <trkpt lat="43.27102" lon="5.76579">
        <ele>373</ele>
        <time>2021-10-27T08:57:20Z</time>
      </trkpt>
      <trkpt lat="43.27098" lon="5.76584">
        <ele>373.1</ele>
        <time>2021-10-27T08:57:26Z</time>
      </trkpt>
      <trkpt lat="43.27095" lon="5.76589">
        <ele>373.5</ele>
        <time>2021-10-27T08:57:32Z</time>
      </trkpt>
      <trkpt lat="43.27092" lon="5.76594">
        <ele>373.6</ele>
        <time>2021-10-27T08:57:41Z</time>
      </trkpt>
      <trkpt lat="43.27088" lon="5.76599">
        <ele>373.5</ele>
        <time>2021-10-27T08:57:46Z</time>
      </trkpt>
      <trkpt lat="43.27084" lon="5.76605">
        <ele>373.1</ele>
        <time>2021-10-27T08:57:51Z</time>
      </trkpt>
      <trkpt lat="43.2708" lon="5.76609">
        <ele>373.2</ele>
        <time>2021-10-27T08:57:57Z</time>
      </trkpt>
      <trkpt lat="43.27075" lon="5.76613">
        <ele>373.5</ele>
        <time>2021-10-27T08:58:03Z</time>
      </trkpt>
      <trkpt lat="43.27072" lon="5.76618">
        <ele>374.1</ele>
        <time>2021-10-27T08:58:10Z</time>
      </trkpt>
      <trkpt lat="43.2707" lon="5.76623">
        <ele>374.6</ele>
        <time>2021-10-27T08:58:15Z</time>
      </trkpt>
      <trkpt lat="43.27067" lon="5.76629">
        <ele>374.9</ele>
        <time>2021-10-27T08:58:19Z</time>
      </trkpt>
      <trkpt lat="43.27066" lon="5.76635">
        <ele>375.3</ele>
        <time>2021-10-27T08:58:25Z</time>
      </trkpt>
      <trkpt lat="43.27064" lon="5.76641">
        <ele>375.2</ele>
        <time>2021-10-27T08:58:32Z</time>
      </trkpt>
      <trkpt lat="43.2706" lon="5.76646">
        <ele>374.7</ele>
        <time>2021-10-27T08:58:38Z</time>
      </trkpt>
      <trkpt lat="43.27057" lon="5.76652">
        <ele>374.2</ele>
        <time>2021-10-27T08:58:44Z</time>
      </trkpt>
      <trkpt lat="43.27055" lon="5.76658">
        <ele>374.2</ele>
        <time>2021-10-27T08:58:48Z</time>
      </trkpt>
      <trkpt lat="43.27053" lon="5.76664">
        <ele>374.6</ele>
        <time>2021-10-27T08:58:54Z</time>
      </trkpt>
      <trkpt lat="43.27053" lon="5.76672">
        <ele>374.7</ele>
        <time>2021-10-27T08:59:02Z</time>
      </trkpt>
      <trkpt lat="43.27054" lon="5.76679">
        <ele>374.7</ele>
        <time>2021-10-27T08:59:07Z</time>
      </trkpt>
      <trkpt lat="43.27057" lon="5.76684">
        <ele>374.8</ele>
        <time>2021-10-27T08:59:13Z</time>
      </trkpt>
      <trkpt lat="43.27061" lon="5.76688">
        <ele>375.3</ele>
        <time>2021-10-27T08:59:21Z</time>
      </trkpt>
      <trkpt lat="43.27066" lon="5.7669">
        <ele>375.7</ele>
        <time>2021-10-27T08:59:26Z</time>
      </trkpt>
      <trkpt lat="43.2707" lon="5.76693">
        <ele>376.1</ele>
        <time>2021-10-27T08:59:32Z</time>
      </trkpt>
      <trkpt lat="43.27074" lon="5.76698">
        <ele>376.3</ele>
        <time>2021-10-27T08:59:37Z</time>
      </trkpt>
      <trkpt lat="43.27077" lon="5.76703">
        <ele>376.3</ele>
        <time>2021-10-27T08:59:46Z</time>
      </trkpt>
      <trkpt lat="43.27079" lon="5.76709">
        <ele>376</ele>
        <time>2021-10-27T08:59:53Z</time>
      </trkpt>
      <trkpt lat="43.27081" lon="5.76715">
        <ele>375.7</ele>
        <time>2021-10-27T08:59:58Z</time>
      </trkpt>
      <trkpt lat="43.27083" lon="5.7672">
        <ele>375.2</ele>
        <time>2021-10-27T09:00:01Z</time>
      </trkpt>
      <trkpt lat="43.27086" lon="5.76727">
        <ele>375.4</ele>
        <time>2021-10-27T09:00:05Z</time>
      </trkpt>
      <trkpt lat="43.27089" lon="5.76732">
        <ele>375.8</ele>
        <time>2021-10-27T09:00:10Z</time>
      </trkpt>
      <trkpt lat="43.27092" lon="5.76738">
        <ele>375.9</ele>
        <time>2021-10-27T09:00:14Z</time>
      </trkpt>
      <trkpt lat="43.27095" lon="5.76742">
        <ele>375.9</ele>
        <time>2021-10-27T09:00:17Z</time>
      </trkpt>
      <trkpt lat="43.27098" lon="5.76748">
        <ele>375.7</ele>
        <time>2021-10-27T09:00:20Z</time>
      </trkpt>
      <trkpt lat="43.27101" lon="5.76754">
        <ele>376</ele>
        <time>2021-10-27T09:00:26Z</time>
      </trkpt>
      <trkpt lat="43.27105" lon="5.76757">
        <ele>376.2</ele>
        <time>2021-10-27T09:00:31Z</time>
      </trkpt>
      <trkpt lat="43.2711" lon="5.76758">
        <ele>376</ele>
        <time>2021-10-27T09:00:36Z</time>
      </trkpt>
      <trkpt lat="43.27116" lon="5.7676">
        <ele>376.6</ele>
        <time>2021-10-27T09:00:40Z</time>
      </trkpt>
      <trkpt lat="43.2712" lon="5.76765">
        <ele>376.9</ele>
        <time>2021-10-27T09:00:45Z</time>
      </trkpt>
      <trkpt lat="43.27123" lon="5.76769">
        <ele>377</ele>
        <time>2021-10-27T09:00:50Z</time>
      </trkpt>
      <trkpt lat="43.27127" lon="5.76774">
        <ele>376.9</ele>
        <time>2021-10-27T09:00:55Z</time>
      </trkpt>
      <trkpt lat="43.2713" lon="5.76778">
        <ele>376.7</ele>
        <time>2021-10-27T09:01:00Z</time>
      </trkpt>
      <trkpt lat="43.27135" lon="5.76782">
        <ele>376.8</ele>
        <time>2021-10-27T09:01:05Z</time>
      </trkpt>
      <trkpt lat="43.27139" lon="5.76785">
        <ele>376.7</ele>
        <time>2021-10-27T09:01:10Z</time>
      </trkpt>
      <trkpt lat="43.27144" lon="5.76788">
        <ele>376.9</ele>
        <time>2021-10-27T09:01:17Z</time>
      </trkpt>
      <trkpt lat="43.27148" lon="5.76792">
        <ele>376.8</ele>
        <time>2021-10-27T09:01:22Z</time>
      </trkpt>
      <trkpt lat="43.27151" lon="5.76795">
        <ele>376.7</ele>
        <time>2021-10-27T09:01:28Z</time>
      </trkpt>
      <trkpt lat="43.27155" lon="5.76799">
        <ele>376.5</ele>
        <time>2021-10-27T09:01:34Z</time>
      </trkpt>
      <trkpt lat="43.27159" lon="5.76803">
        <ele>376.2</ele>
        <time>2021-10-27T09:01:41Z</time>
      </trkpt>
      <trkpt lat="43.27164" lon="5.76804">
        <ele>376.2</ele>
        <time>2021-10-27T09:01:49Z</time>
      </trkpt>
      <trkpt lat="43.27168" lon="5.76805">
        <ele>376.1</ele>
        <time>2021-10-27T09:01:55Z</time>
      </trkpt>
      <trkpt lat="43.27173" lon="5.76809">
        <ele>376.4</ele>
        <time>2021-10-27T09:01:59Z</time>
      </trkpt>
      <trkpt lat="43.27176" lon="5.76815">
        <ele>376.9</ele>
        <time>2021-10-27T09:02:03Z</time>
      </trkpt>
      <trkpt lat="43.27181" lon="5.76817">
        <ele>377.1</ele>
        <time>2021-10-27T09:02:07Z</time>
      </trkpt>
      <trkpt lat="43.27185" lon="5.7682">
        <ele>377.4</ele>
        <time>2021-10-27T09:02:12Z</time>
      </trkpt>
      <trkpt lat="43.2719" lon="5.76824">
        <ele>377.6</ele>
        <time>2021-10-27T09:02:18Z</time>
      </trkpt>
      <trkpt lat="43.27194" lon="5.76829">
        <ele>377.8</ele>
        <time>2021-10-27T09:02:24Z</time>
      </trkpt>
      <trkpt lat="43.27198" lon="5.76832">
        <ele>378.1</ele>
        <time>2021-10-27T09:02:33Z</time>
      </trkpt>
      <trkpt lat="43.27204" lon="5.76831">
        <ele>378.2</ele>
        <time>2021-10-27T09:02:39Z</time>
      </trkpt>
      <trkpt lat="43.27209" lon="5.76827">
        <ele>378.3</ele>
        <time>2021-10-27T09:02:43Z</time>
      </trkpt>
      <trkpt lat="43.27213" lon="5.76824">
        <ele>378.3</ele>
        <time>2021-10-27T09:02:47Z</time>
      </trkpt>
      <trkpt lat="43.27219" lon="5.7682">
        <ele>378.4</ele>
        <time>2021-10-27T09:02:52Z</time>
      </trkpt>
      <trkpt lat="43.27224" lon="5.76817">
        <ele>378.4</ele>
        <time>2021-10-27T09:02:56Z</time>
      </trkpt>
      <trkpt lat="43.27229" lon="5.76816">
        <ele>378.5</ele>
        <time>2021-10-27T09:03:03Z</time>
      </trkpt>
      <trkpt lat="43.27234" lon="5.76817">
        <ele>378.7</ele>
        <time>2021-10-27T09:03:07Z</time>
      </trkpt>
      <trkpt lat="43.27239" lon="5.76817">
        <ele>378.8</ele>
        <time>2021-10-27T09:03:12Z</time>
      </trkpt>
      <trkpt lat="43.27244" lon="5.76817">
        <ele>378.9</ele>
        <time>2021-10-27T09:03:19Z</time>
      </trkpt>
      <trkpt lat="43.27249" lon="5.7682">
        <ele>379</ele>
        <time>2021-10-27T09:03:25Z</time>
      </trkpt>
      <trkpt lat="43.27253" lon="5.76823">
        <ele>379.2</ele>
        <time>2021-10-27T09:03:28Z</time>
      </trkpt>
      <trkpt lat="43.27257" lon="5.76825">
        <ele>379.3</ele>
        <time>2021-10-27T09:03:32Z</time>
      </trkpt>
      <trkpt lat="43.27262" lon="5.76826">
        <ele>379.5</ele>
        <time>2021-10-27T09:03:36Z</time>
      </trkpt>
      <trkpt lat="43.27266" lon="5.76827">
        <ele>379.5</ele>
        <time>2021-10-27T09:03:40Z</time>
      </trkpt>
      <trkpt lat="43.27271" lon="5.76828">
        <ele>379.6</ele>
        <time>2021-10-27T09:03:45Z</time>
      </trkpt>
      <trkpt lat="43.27276" lon="5.7683">
        <ele>379.4</ele>
        <time>2021-10-27T09:03:51Z</time>
      </trkpt>
      <trkpt lat="43.2728" lon="5.76833">
        <ele>379.1</ele>
        <time>2021-10-27T09:03:55Z</time>
      </trkpt>
      <trkpt lat="43.27283" lon="5.76839">
        <ele>379.9</ele>
        <time>2021-10-27T09:04:00Z</time>
      </trkpt>
      <trkpt lat="43.27284" lon="5.76846">
        <ele>380.7</ele>
        <time>2021-10-27T09:04:05Z</time>
      </trkpt>
      <trkpt lat="43.27287" lon="5.76852">
        <ele>381.1</ele>
        <time>2021-10-27T09:04:12Z</time>
      </trkpt>
      <trkpt lat="43.27291" lon="5.76856">
        <ele>381.2</ele>
        <time>2021-10-27T09:04:15Z</time>
      </trkpt>
      <trkpt lat="43.27294" lon="5.7686">
        <ele>381.2</ele>
        <time>2021-10-27T09:04:21Z</time>
      </trkpt>
      <trkpt lat="43.27296" lon="5.76866">
        <ele>381.2</ele>
        <time>2021-10-27T09:04:26Z</time>
      </trkpt>
      <trkpt lat="43.27296" lon="5.76873">
        <ele>381.3</ele>
        <time>2021-10-27T09:04:32Z</time>
      </trkpt>
      <trkpt lat="43.27297" lon="5.76882">
        <ele>381.4</ele>
        <time>2021-10-27T09:04:39Z</time>
      </trkpt>
      <trkpt lat="43.27299" lon="5.76889">
        <ele>381.3</ele>
        <time>2021-10-27T09:04:43Z</time>
      </trkpt>
      <trkpt lat="43.27301" lon="5.76895">
        <ele>380.8</ele>
        <time>2021-10-27T09:04:48Z</time>
      </trkpt>
      <trkpt lat="43.27303" lon="5.76901">
        <ele>380.3</ele>
        <time>2021-10-27T09:04:57Z</time>
      </trkpt>
      <trkpt lat="43.27304" lon="5.76908">
        <ele>380.1</ele>
        <time>2021-10-27T09:05:01Z</time>
      </trkpt>
      <trkpt lat="43.27308" lon="5.76912">
        <ele>380.2</ele>
        <time>2021-10-27T09:05:09Z</time>
      </trkpt>
      <trkpt lat="43.2731" lon="5.7692">
        <ele>380.4</ele>
        <time>2021-10-27T09:05:14Z</time>
      </trkpt>
      <trkpt lat="43.27312" lon="5.76926">
        <ele>380.7</ele>
        <time>2021-10-27T09:05:18Z</time>
      </trkpt>
      <trkpt lat="43.27314" lon="5.76931">
        <ele>381</ele>
        <time>2021-10-27T09:05:22Z</time>
      </trkpt>
      <trkpt lat="43.27316" lon="5.76938">
        <ele>381.2</ele>
        <time>2021-10-27T09:05:25Z</time>
      </trkpt>
      <trkpt lat="43.27319" lon="5.76943">
        <ele>381.5</ele>
        <time>2021-10-27T09:05:34Z</time>
      </trkpt>
      <trkpt lat="43.2732" lon="5.76949">
        <ele>381.5</ele>
        <time>2021-10-27T09:05:39Z</time>
      </trkpt>
      <trkpt lat="43.27321" lon="5.76955">
        <ele>381.6</ele>
        <time>2021-10-27T09:05:43Z</time>
      </trkpt>
      <trkpt lat="43.27323" lon="5.76963">
        <ele>381.6</ele>
        <time>2021-10-27T09:05:47Z</time>
      </trkpt>
      <trkpt lat="43.27324" lon="5.7697">
        <ele>381.7</ele>
        <time>2021-10-27T09:05:51Z</time>
      </trkpt>
      <trkpt lat="43.27326" lon="5.76976">
        <ele>381.8</ele>
        <time>2021-10-27T09:05:55Z</time>
      </trkpt>
      <trkpt lat="43.27327" lon="5.76983">
        <ele>381.9</ele>
        <time>2021-10-27T09:06:01Z</time>
      </trkpt>
      <trkpt lat="43.2733" lon="5.76989">
        <ele>382</ele>
        <time>2021-10-27T09:06:07Z</time>
      </trkpt>
      <trkpt lat="43.27331" lon="5.76996">
        <ele>382</ele>
        <time>2021-10-27T09:06:12Z</time>
      </trkpt>
      <trkpt lat="43.27331" lon="5.77003">
        <ele>382</ele>
        <time>2021-10-27T09:06:17Z</time>
      </trkpt>
      <trkpt lat="43.27332" lon="5.77009">
        <ele>382</ele>
        <time>2021-10-27T09:06:21Z</time>
      </trkpt>
      <trkpt lat="43.27331" lon="5.77016">
        <ele>382</ele>
        <time>2021-10-27T09:06:27Z</time>
      </trkpt>
      <trkpt lat="43.27327" lon="5.7702">
        <ele>382</ele>
        <time>2021-10-27T09:06:32Z</time>
      </trkpt>
      <trkpt lat="43.27332" lon="5.77023">
        <ele>382</ele>
        <time>2021-10-27T09:06:57Z</time>
      </trkpt>
      <trkpt lat="43.27336" lon="5.77027">
        <ele>382.1</ele>
        <time>2021-10-27T09:07:04Z</time>
      </trkpt>
      <trkpt lat="43.27332" lon="5.77025">
        <ele>382</ele>
        <time>2021-10-27T09:07:25Z</time>
      </trkpt>
      <trkpt lat="43.27327" lon="5.77024">
        <ele>382</ele>
        <time>2021-10-27T09:07:30Z</time>
      </trkpt>
      <trkpt lat="43.27325" lon="5.7703">
        <ele>382.1</ele>
        <time>2021-10-27T09:07:40Z</time>
      </trkpt>
      <trkpt lat="43.27323" lon="5.77036">
        <ele>382.2</ele>
        <time>2021-10-27T09:07:45Z</time>
      </trkpt>
      <trkpt lat="43.27319" lon="5.77042">
        <ele>382.2</ele>
        <time>2021-10-27T09:07:49Z</time>
      </trkpt>
      <trkpt lat="43.27315" lon="5.77047">
        <ele>382.2</ele>
        <time>2021-10-27T09:07:52Z</time>
      </trkpt>
      <trkpt lat="43.27312" lon="5.77053">
        <ele>382.2</ele>
        <time>2021-10-27T09:07:57Z</time>
      </trkpt>
      <trkpt lat="43.27308" lon="5.77058">
        <ele>382.5</ele>
        <time>2021-10-27T09:08:02Z</time>
      </trkpt>
      <trkpt lat="43.27306" lon="5.77064">
        <ele>383.2</ele>
        <time>2021-10-27T09:08:06Z</time>
      </trkpt>
      <trkpt lat="43.27302" lon="5.77068">
        <ele>383.6</ele>
        <time>2021-10-27T09:08:13Z</time>
      </trkpt>
      <trkpt lat="43.27299" lon="5.77074">
        <ele>384</ele>
        <time>2021-10-27T09:08:18Z</time>
      </trkpt>
      <trkpt lat="43.27295" lon="5.77079">
        <ele>384.1</ele>
        <time>2021-10-27T09:08:23Z</time>
      </trkpt>
      <trkpt lat="43.27291" lon="5.77083">
        <ele>383.8</ele>
        <time>2021-10-27T09:08:28Z</time>
      </trkpt>
      <trkpt lat="43.27286" lon="5.77086">
        <ele>383.4</ele>
        <time>2021-10-27T09:08:34Z</time>
      </trkpt>
      <trkpt lat="43.27284" lon="5.77092">
        <ele>383.1</ele>
        <time>2021-10-27T09:08:40Z</time>
      </trkpt>
      <trkpt lat="43.27282" lon="5.77098">
        <ele>382.9</ele>
        <time>2021-10-27T09:08:44Z</time>
      </trkpt>
      <trkpt lat="43.2728" lon="5.77103">
        <ele>382.5</ele>
        <time>2021-10-27T09:08:49Z</time>
      </trkpt>
      <trkpt lat="43.27278" lon="5.7711">
        <ele>382.1</ele>
        <time>2021-10-27T09:08:53Z</time>
      </trkpt>
      <trkpt lat="43.27277" lon="5.77116">
        <ele>382.4</ele>
        <time>2021-10-27T09:08:58Z</time>
      </trkpt>
      <trkpt lat="43.27275" lon="5.77123">
        <ele>382.8</ele>
        <time>2021-10-27T09:09:05Z</time>
      </trkpt>
      <trkpt lat="43.27275" lon="5.77129">
        <ele>383.1</ele>
        <time>2021-10-27T09:09:09Z</time>
      </trkpt>
      <trkpt lat="43.27275" lon="5.77136">
        <ele>383.3</ele>
        <time>2021-10-27T09:09:16Z</time>
      </trkpt>
      <trkpt lat="43.27276" lon="5.77142">
        <ele>383.3</ele>
        <time>2021-10-27T09:09:23Z</time>
      </trkpt>
      <trkpt lat="43.27277" lon="5.77149">
        <ele>383.1</ele>
        <time>2021-10-27T09:09:27Z</time>
      </trkpt>
      <trkpt lat="43.27278" lon="5.77156">
        <ele>383.2</ele>
        <time>2021-10-27T09:09:32Z</time>
      </trkpt>
      <trkpt lat="43.2728" lon="5.77162">
        <ele>383.8</ele>
        <time>2021-10-27T09:09:40Z</time>
      </trkpt>
      <trkpt lat="43.2728" lon="5.77169">
        <ele>383.9</ele>
        <time>2021-10-27T09:09:45Z</time>
      </trkpt>
      <trkpt lat="43.27279" lon="5.77178">
        <ele>383.8</ele>
        <time>2021-10-27T09:09:50Z</time>
      </trkpt>
      <trkpt lat="43.27278" lon="5.77185">
        <ele>383.7</ele>
        <time>2021-10-27T09:09:54Z</time>
      </trkpt>
      <trkpt lat="43.27278" lon="5.77191">
        <ele>383.9</ele>
        <time>2021-10-27T09:09:59Z</time>
      </trkpt>
      <trkpt lat="43.27278" lon="5.77198">
        <ele>384.1</ele>
        <time>2021-10-27T09:10:04Z</time>
      </trkpt>
      <trkpt lat="43.2728" lon="5.77205">
        <ele>384.4</ele>
        <time>2021-10-27T09:10:13Z</time>
      </trkpt>
      <trkpt lat="43.27281" lon="5.77211">
        <ele>384.6</ele>
        <time>2021-10-27T09:10:16Z</time>
      </trkpt>
      <trkpt lat="43.27282" lon="5.77217">
        <ele>384.7</ele>
        <time>2021-10-27T09:10:19Z</time>
      </trkpt>
      <trkpt lat="43.27283" lon="5.77224">
        <ele>384.7</ele>
        <time>2021-10-27T09:10:24Z</time>
      </trkpt>
      <trkpt lat="43.27283" lon="5.7723">
        <ele>384.7</ele>
        <time>2021-10-27T09:10:31Z</time>
      </trkpt>
      <trkpt lat="43.27283" lon="5.77238">
        <ele>384.7</ele>
        <time>2021-10-27T09:10:36Z</time>
      </trkpt>
      <trkpt lat="43.27284" lon="5.77245">
        <ele>384.9</ele>
        <time>2021-10-27T09:10:40Z</time>
      </trkpt>
      <trkpt lat="43.27284" lon="5.77252">
        <ele>385</ele>
        <time>2021-10-27T09:10:45Z</time>
      </trkpt>
      <trkpt lat="43.27284" lon="5.7726">
        <ele>385.1</ele>
        <time>2021-10-27T09:10:50Z</time>
      </trkpt>
      <trkpt lat="43.27284" lon="5.77266">
        <ele>385.3</ele>
        <time>2021-10-27T09:10:53Z</time>
      </trkpt>
      <trkpt lat="43.27284" lon="5.77273">
        <ele>385.5</ele>
        <time>2021-10-27T09:10:58Z</time>
      </trkpt>
      <trkpt lat="43.27282" lon="5.77279">
        <ele>385.5</ele>
        <time>2021-10-27T09:11:12Z</time>
      </trkpt>
      <trkpt lat="43.27282" lon="5.77285">
        <ele>385.5</ele>
        <time>2021-10-27T09:11:20Z</time>
      </trkpt>
      <trkpt lat="43.27282" lon="5.77291">
        <ele>385.5</ele>
        <time>2021-10-27T09:11:26Z</time>
      </trkpt>
      <trkpt lat="43.27283" lon="5.77298">
        <ele>385.8</ele>
        <time>2021-10-27T09:11:30Z</time>
      </trkpt>
      <trkpt lat="43.27283" lon="5.77305">
        <ele>385.7</ele>
        <time>2021-10-27T09:11:34Z</time>
      </trkpt>
      <trkpt lat="43.27286" lon="5.77311">
        <ele>386.1</ele>
        <time>2021-10-27T09:11:45Z</time>
      </trkpt>
      <trkpt lat="43.27287" lon="5.77317">
        <ele>386.4</ele>
        <time>2021-10-27T09:11:50Z</time>
      </trkpt>
      <trkpt lat="43.27287" lon="5.77324">
        <ele>386.3</ele>
        <time>2021-10-27T09:11:57Z</time>
      </trkpt>
      <trkpt lat="43.2729" lon="5.7733">
        <ele>386.7</ele>
        <time>2021-10-27T09:12:04Z</time>
      </trkpt>
      <trkpt lat="43.2729" lon="5.77336">
        <ele>386.8</ele>
        <time>2021-10-27T09:12:11Z</time>
      </trkpt>
      <trkpt lat="43.2729" lon="5.77344">
        <ele>386.9</ele>
        <time>2021-10-27T09:12:15Z</time>
      </trkpt>
      <trkpt lat="43.27292" lon="5.77352">
        <ele>387</ele>
        <time>2021-10-27T09:12:18Z</time>
      </trkpt>
      <trkpt lat="43.27292" lon="5.77359">
        <ele>387</ele>
        <time>2021-10-27T09:12:21Z</time>
      </trkpt>
      <trkpt lat="43.27291" lon="5.77366">
        <ele>387.1</ele>
        <time>2021-10-27T09:12:26Z</time>
      </trkpt>
      <trkpt lat="43.27291" lon="5.77372">
        <ele>387.3</ele>
        <time>2021-10-27T09:12:32Z</time>
      </trkpt>
      <trkpt lat="43.27291" lon="5.77379">
        <ele>387.4</ele>
        <time>2021-10-27T09:12:37Z</time>
      </trkpt>
      <trkpt lat="43.27292" lon="5.77387">
        <ele>387.4</ele>
        <time>2021-10-27T09:12:41Z</time>
      </trkpt>
      <trkpt lat="43.27294" lon="5.77393">
        <ele>387.5</ele>
        <time>2021-10-27T09:12:46Z</time>
      </trkpt>
      <trkpt lat="43.27294" lon="5.774">
        <ele>387.9</ele>
        <time>2021-10-27T09:12:50Z</time>
      </trkpt>
      <trkpt lat="43.27295" lon="5.77406">
        <ele>388.1</ele>
        <time>2021-10-27T09:12:55Z</time>
      </trkpt>
      <trkpt lat="43.27295" lon="5.77413">
        <ele>388.5</ele>
        <time>2021-10-27T09:13:00Z</time>
      </trkpt>
      <trkpt lat="43.27296" lon="5.7742">
        <ele>388.6</ele>
        <time>2021-10-27T09:13:05Z</time>
      </trkpt>
      <trkpt lat="43.27297" lon="5.77427">
        <ele>388.6</ele>
        <time>2021-10-27T09:13:10Z</time>
      </trkpt>
      <trkpt lat="43.27299" lon="5.77433">
        <ele>388.2</ele>
        <time>2021-10-27T09:13:14Z</time>
      </trkpt>
      <trkpt lat="43.27298" lon="5.77439">
        <ele>388.6</ele>
        <time>2021-10-27T09:13:20Z</time>
      </trkpt>
      <trkpt lat="43.27298" lon="5.77446">
        <ele>388.9</ele>
        <time>2021-10-27T09:13:25Z</time>
      </trkpt>
      <trkpt lat="43.27295" lon="5.77452">
        <ele>389.4</ele>
        <time>2021-10-27T09:13:31Z</time>
      </trkpt>
      <trkpt lat="43.27294" lon="5.77459">
        <ele>389.5</ele>
        <time>2021-10-27T09:13:36Z</time>
      </trkpt>
      <trkpt lat="43.27293" lon="5.77465">
        <ele>389.5</ele>
        <time>2021-10-27T09:13:40Z</time>
      </trkpt>
      <trkpt lat="43.27293" lon="5.77473">
        <ele>389.2</ele>
        <time>2021-10-27T09:13:45Z</time>
      </trkpt>
      <trkpt lat="43.27293" lon="5.77479">
        <ele>389.1</ele>
        <time>2021-10-27T09:13:52Z</time>
      </trkpt>
      <trkpt lat="43.27292" lon="5.77486">
        <ele>388.9</ele>
        <time>2021-10-27T09:13:58Z</time>
      </trkpt>
      <trkpt lat="43.27292" lon="5.77493">
        <ele>388.7</ele>
        <time>2021-10-27T09:14:03Z</time>
      </trkpt>
      <trkpt lat="43.2729" lon="5.77501">
        <ele>388.5</ele>
        <time>2021-10-27T09:14:08Z</time>
      </trkpt>
      <trkpt lat="43.27289" lon="5.77507">
        <ele>388.4</ele>
        <time>2021-10-27T09:14:13Z</time>
      </trkpt>
      <trkpt lat="43.27291" lon="5.77513">
        <ele>388.3</ele>
        <time>2021-10-27T09:14:23Z</time>
      </trkpt>
      <trkpt lat="43.27293" lon="5.77519">
        <ele>388.1</ele>
        <time>2021-10-27T09:14:30Z</time>
      </trkpt>
      <trkpt lat="43.27294" lon="5.77525">
        <ele>388</ele>
        <time>2021-10-27T09:14:41Z</time>
      </trkpt>
      <trkpt lat="43.27296" lon="5.77531">
        <ele>388.1</ele>
        <time>2021-10-27T09:14:48Z</time>
      </trkpt>
      <trkpt lat="43.27297" lon="5.77537">
        <ele>388.3</ele>
        <time>2021-10-27T09:14:54Z</time>
      </trkpt>
      <trkpt lat="43.27296" lon="5.77544">
        <ele>388.6</ele>
        <time>2021-10-27T09:15:01Z</time>
      </trkpt>
      <trkpt lat="43.27292" lon="5.77548">
        <ele>388.7</ele>
        <time>2021-10-27T09:15:10Z</time>
      </trkpt>
      <trkpt lat="43.27288" lon="5.77551">
        <ele>388.8</ele>
        <time>2021-10-27T09:15:31Z</time>
      </trkpt>
      <trkpt lat="43.27291" lon="5.77555">
        <ele>389</ele>
        <time>2021-10-27T09:15:43Z</time>
      </trkpt>
      <trkpt lat="43.2729" lon="5.77561">
        <ele>389.1</ele>
        <time>2021-10-27T09:15:47Z</time>
      </trkpt>
      <trkpt lat="43.27289" lon="5.77567">
        <ele>389.2</ele>
        <time>2021-10-27T09:16:01Z</time>
      </trkpt>
      <trkpt lat="43.27291" lon="5.77574">
        <ele>389.3</ele>
        <time>2021-10-27T09:16:08Z</time>
      </trkpt>
      <trkpt lat="43.2729" lon="5.7758">
        <ele>389.4</ele>
        <time>2021-10-27T09:16:20Z</time>
      </trkpt>
      <trkpt lat="43.27288" lon="5.77587">
        <ele>389.5</ele>
        <time>2021-10-27T09:16:26Z</time>
      </trkpt>
      <trkpt lat="43.2729" lon="5.77594">
        <ele>389.8</ele>
        <time>2021-10-27T09:16:32Z</time>
      </trkpt>
      <trkpt lat="43.27291" lon="5.776">
        <ele>390.1</ele>
        <time>2021-10-27T09:16:36Z</time>
      </trkpt>
      <trkpt lat="43.27291" lon="5.77607">
        <ele>390.3</ele>
        <time>2021-10-27T09:16:42Z</time>
      </trkpt>
      <trkpt lat="43.27286" lon="5.77607">
        <ele>390.2</ele>
        <time>2021-10-27T09:16:50Z</time>
      </trkpt>
      <trkpt lat="43.27286" lon="5.77613">
        <ele>390.3</ele>
        <time>2021-10-27T09:17:09Z</time>
      </trkpt>
      <trkpt lat="43.27281" lon="5.7761">
        <ele>390.1</ele>
        <time>2021-10-27T09:17:29Z</time>
      </trkpt>
      <trkpt lat="43.27285" lon="5.77605">
        <ele>390</ele>
        <time>2021-10-27T09:17:40Z</time>
      </trkpt>
      <trkpt lat="43.2729" lon="5.77605">
        <ele>390.2</ele>
        <time>2021-10-27T09:17:52Z</time>
      </trkpt>
      <trkpt lat="43.27293" lon="5.77609">
        <ele>390.5</ele>
        <time>2021-10-27T09:18:11Z</time>
      </trkpt>
      <trkpt lat="43.27295" lon="5.77603">
        <ele>390.3</ele>
        <time>2021-10-27T09:20:36Z</time>
      </trkpt>
      <trkpt lat="43.27297" lon="5.77596">
        <ele>390.1</ele>
        <time>2021-10-27T09:20:42Z</time>
      </trkpt>
      <trkpt lat="43.273" lon="5.77592">
        <ele>390.1</ele>
        <time>2021-10-27T09:20:53Z</time>
      </trkpt>
      <trkpt lat="43.27305" lon="5.7759">
        <ele>390.2</ele>
        <time>2021-10-27T09:21:06Z</time>
      </trkpt>
      <trkpt lat="43.27307" lon="5.77596">
        <ele>390.8</ele>
        <time>2021-10-27T09:21:19Z</time>
      </trkpt>
      <trkpt lat="43.27308" lon="5.77602">
        <ele>391.2</ele>
        <time>2021-10-27T09:21:26Z</time>
      </trkpt>
      <trkpt lat="43.27312" lon="5.776">
        <ele>392.2</ele>
        <time>2021-10-27T09:22:15Z</time>
      </trkpt>
      <trkpt lat="43.2731" lon="5.77593">
        <ele>391.4</ele>
        <time>2021-10-27T09:22:41Z</time>
      </trkpt>
      <trkpt lat="43.27314" lon="5.7759">
        <ele>392</ele>
        <time>2021-10-27T09:23:14Z</time>
      </trkpt>
      <trkpt lat="43.27318" lon="5.77588">
        <ele>392.7</ele>
        <time>2021-10-27T09:23:24Z</time>
      </trkpt>
      <trkpt lat="43.2732" lon="5.77582">
        <ele>392.6</ele>
        <time>2021-10-27T09:23:54Z</time>
      </trkpt>
      <trkpt lat="43.27325" lon="5.77579">
        <ele>393.3</ele>
        <time>2021-10-27T09:24:02Z</time>
      </trkpt>
      <trkpt lat="43.27329" lon="5.77579">
        <ele>394.1</ele>
        <time>2021-10-27T09:24:18Z</time>
      </trkpt>
      <trkpt lat="43.27334" lon="5.77577">
        <ele>395</ele>
        <time>2021-10-27T09:24:28Z</time>
      </trkpt>
      <trkpt lat="43.27339" lon="5.77574">
        <ele>396.3</ele>
        <time>2021-10-27T09:24:31Z</time>
      </trkpt>
      <trkpt lat="43.27344" lon="5.77572">
        <ele>397.8</ele>
        <time>2021-10-27T09:24:36Z</time>
      </trkpt>
      <trkpt lat="43.27348" lon="5.77572">
        <ele>399.2</ele>
        <time>2021-10-27T09:24:41Z</time>
      </trkpt>
      <trkpt lat="43.27352" lon="5.77566">
        <ele>400</ele>
        <time>2021-10-27T09:24:48Z</time>
      </trkpt>
      <trkpt lat="43.27354" lon="5.7756">
        <ele>400.4</ele>
        <time>2021-10-27T09:24:55Z</time>
      </trkpt>
      <trkpt lat="43.27359" lon="5.77558">
        <ele>401.5</ele>
        <time>2021-10-27T09:25:08Z</time>
      </trkpt>
      <trkpt lat="43.27364" lon="5.77558">
        <ele>403</ele>
        <time>2021-10-27T09:25:21Z</time>
      </trkpt>
      <trkpt lat="43.27369" lon="5.77556">
        <ele>404.4</ele>
        <time>2021-10-27T09:25:27Z</time>
      </trkpt>
      <trkpt lat="43.27374" lon="5.77555">
        <ele>405.7</ele>
        <time>2021-10-27T09:25:34Z</time>
      </trkpt>
      <trkpt lat="43.27379" lon="5.77556">
        <ele>407.1</ele>
        <time>2021-10-27T09:25:56Z</time>
      </trkpt>
      <trkpt lat="43.27382" lon="5.77551">
        <ele>407.7</ele>
        <time>2021-10-27T09:26:07Z</time>
      </trkpt>
      <trkpt lat="43.27386" lon="5.77547">
        <ele>408.5</ele>
        <time>2021-10-27T09:26:11Z</time>
      </trkpt>
      <trkpt lat="43.2739" lon="5.77544">
        <ele>409.5</ele>
        <time>2021-10-27T09:26:18Z</time>
      </trkpt>
      <trkpt lat="43.27394" lon="5.7754">
        <ele>410.4</ele>
        <time>2021-10-27T09:26:36Z</time>
      </trkpt>
      <trkpt lat="43.27396" lon="5.77535">
        <ele>410.9</ele>
        <time>2021-10-27T09:26:46Z</time>
      </trkpt>
      <trkpt lat="43.274" lon="5.77531">
        <ele>411.9</ele>
        <time>2021-10-27T09:26:55Z</time>
      </trkpt>
      <trkpt lat="43.27404" lon="5.77529">
        <ele>413.1</ele>
        <time>2021-10-27T09:27:04Z</time>
      </trkpt>
      <trkpt lat="43.27409" lon="5.77525">
        <ele>414.4</ele>
        <time>2021-10-27T09:27:11Z</time>
      </trkpt>
      <trkpt lat="43.27413" lon="5.77521">
        <ele>415.6</ele>
        <time>2021-10-27T09:27:18Z</time>
      </trkpt>
      <trkpt lat="43.27418" lon="5.7752">
        <ele>417.2</ele>
        <time>2021-10-27T09:27:27Z</time>
      </trkpt>
      <trkpt lat="43.27422" lon="5.77517">
        <ele>418.1</ele>
        <time>2021-10-27T09:27:33Z</time>
      </trkpt>
      <trkpt lat="43.27426" lon="5.77514">
        <ele>418.9</ele>
        <time>2021-10-27T09:27:38Z</time>
      </trkpt>
      <trkpt lat="43.27431" lon="5.77511">
        <ele>419.7</ele>
        <time>2021-10-27T09:27:44Z</time>
      </trkpt>
      <trkpt lat="43.27435" lon="5.77506">
        <ele>420.4</ele>
        <time>2021-10-27T09:27:54Z</time>
      </trkpt>
      <trkpt lat="43.27438" lon="5.7751">
        <ele>421.2</ele>
        <time>2021-10-27T09:28:06Z</time>
      </trkpt>
      <trkpt lat="43.27441" lon="5.77516">
        <ele>421.8</ele>
        <time>2021-10-27T09:28:17Z</time>
      </trkpt>
      <trkpt lat="43.27443" lon="5.77521">
        <ele>422.5</ele>
        <time>2021-10-27T09:28:36Z</time>
      </trkpt>
      <trkpt lat="43.27444" lon="5.77527">
        <ele>422.8</ele>
        <time>2021-10-27T09:28:52Z</time>
      </trkpt>
      <trkpt lat="43.27442" lon="5.77534">
        <ele>422.8</ele>
        <time>2021-10-27T09:29:03Z</time>
      </trkpt>
      <trkpt lat="43.27438" lon="5.77538">
        <ele>422.2</ele>
        <time>2021-10-27T09:29:23Z</time>
      </trkpt>
      <trkpt lat="43.27438" lon="5.77544">
        <ele>422.4</ele>
        <time>2021-10-27T09:29:30Z</time>
      </trkpt>
      <trkpt lat="43.27435" lon="5.77549">
        <ele>422.2</ele>
        <time>2021-10-27T09:29:37Z</time>
      </trkpt>
      <trkpt lat="43.27434" lon="5.77555">
        <ele>422.4</ele>
        <time>2021-10-27T09:29:43Z</time>
      </trkpt>
      <trkpt lat="43.27433" lon="5.77562">
        <ele>422.7</ele>
        <time>2021-10-27T09:29:49Z</time>
      </trkpt>
      <trkpt lat="43.27432" lon="5.77568">
        <ele>423.1</ele>
        <time>2021-10-27T09:29:56Z</time>
      </trkpt>
      <trkpt lat="43.2743" lon="5.77574">
        <ele>423.2</ele>
        <time>2021-10-27T09:30:02Z</time>
      </trkpt>
      <trkpt lat="43.27428" lon="5.7758">
        <ele>423.6</ele>
        <time>2021-10-27T09:30:08Z</time>
      </trkpt>
      <trkpt lat="43.27428" lon="5.77587">
        <ele>423.9</ele>
        <time>2021-10-27T09:30:15Z</time>
      </trkpt>
      <trkpt lat="43.27428" lon="5.77593">
        <ele>424</ele>
        <time>2021-10-27T09:30:22Z</time>
      </trkpt>
      <trkpt lat="43.27428" lon="5.77599">
        <ele>424.2</ele>
        <time>2021-10-27T09:30:32Z</time>
      </trkpt>
      <trkpt lat="43.2743" lon="5.77606">
        <ele>424.4</ele>
        <time>2021-10-27T09:30:41Z</time>
      </trkpt>
      <trkpt lat="43.27433" lon="5.77613">
        <ele>424.6</ele>
        <time>2021-10-27T09:30:45Z</time>
      </trkpt>
      <trkpt lat="43.27436" lon="5.77618">
        <ele>424.9</ele>
        <time>2021-10-27T09:30:49Z</time>
      </trkpt>
      <trkpt lat="43.27438" lon="5.77625">
        <ele>425.1</ele>
        <time>2021-10-27T09:30:59Z</time>
      </trkpt>
      <trkpt lat="43.27439" lon="5.77631">
        <ele>425.4</ele>
        <time>2021-10-27T09:31:04Z</time>
      </trkpt>
      <trkpt lat="43.2744" lon="5.77637">
        <ele>425.7</ele>
        <time>2021-10-27T09:31:09Z</time>
      </trkpt>
      <trkpt lat="43.27444" lon="5.77642">
        <ele>425.9</ele>
        <time>2021-10-27T09:31:16Z</time>
      </trkpt>
      <trkpt lat="43.27447" lon="5.77647">
        <ele>426</ele>
        <time>2021-10-27T09:31:22Z</time>
      </trkpt>
      <trkpt lat="43.27449" lon="5.77654">
        <ele>426</ele>
        <time>2021-10-27T09:31:31Z</time>
      </trkpt>
      <trkpt lat="43.27451" lon="5.77659">
        <ele>426</ele>
        <time>2021-10-27T09:31:35Z</time>
      </trkpt>
      <trkpt lat="43.27454" lon="5.77664">
        <ele>426</ele>
        <time>2021-10-27T09:31:41Z</time>
      </trkpt>
      <trkpt lat="43.27457" lon="5.77669">
        <ele>426</ele>
        <time>2021-10-27T09:31:48Z</time>
      </trkpt>
      <trkpt lat="43.27459" lon="5.77675">
        <ele>426.2</ele>
        <time>2021-10-27T09:31:56Z</time>
      </trkpt>
      <trkpt lat="43.27461" lon="5.77682">
        <ele>426.3</ele>
        <time>2021-10-27T09:32:03Z</time>
      </trkpt>
      <trkpt lat="43.27462" lon="5.77688">
        <ele>426.5</ele>
        <time>2021-10-27T09:32:12Z</time>
      </trkpt>
      <trkpt lat="43.27461" lon="5.77695">
        <ele>426.6</ele>
        <time>2021-10-27T09:32:17Z</time>
      </trkpt>
      <trkpt lat="43.27465" lon="5.77698">
        <ele>426.8</ele>
        <time>2021-10-27T09:32:28Z</time>
      </trkpt>
      <trkpt lat="43.27468" lon="5.77703">
        <ele>426.9</ele>
        <time>2021-10-27T09:32:37Z</time>
      </trkpt>
      <trkpt lat="43.2747" lon="5.77709">
        <ele>427</ele>
        <time>2021-10-27T09:32:46Z</time>
      </trkpt>
      <trkpt lat="43.27474" lon="5.77714">
        <ele>427</ele>
        <time>2021-10-27T09:32:52Z</time>
      </trkpt>
      <trkpt lat="43.27479" lon="5.77715">
        <ele>427.2</ele>
        <time>2021-10-27T09:33:03Z</time>
      </trkpt>
      <trkpt lat="43.27483" lon="5.77717">
        <ele>427.3</ele>
        <time>2021-10-27T09:33:20Z</time>
      </trkpt>
      <trkpt lat="43.27486" lon="5.77723">
        <ele>427.5</ele>
        <time>2021-10-27T09:33:39Z</time>
      </trkpt>
      <trkpt lat="43.2749" lon="5.77725">
        <ele>427.6</ele>
        <time>2021-10-27T09:33:46Z</time>
      </trkpt>
      <trkpt lat="43.27493" lon="5.7773">
        <ele>427.8</ele>
        <time>2021-10-27T09:33:50Z</time>
      </trkpt>
      <trkpt lat="43.27495" lon="5.77736">
        <ele>427.8</ele>
        <time>2021-10-27T09:33:59Z</time>
      </trkpt>
      <trkpt lat="43.27494" lon="5.77742">
        <ele>427.8</ele>
        <time>2021-10-27T09:34:09Z</time>
      </trkpt>
      <trkpt lat="43.27493" lon="5.77748">
        <ele>427.8</ele>
        <time>2021-10-27T09:34:20Z</time>
      </trkpt>
      <trkpt lat="43.27489" lon="5.77751">
        <ele>427.6</ele>
        <time>2021-10-27T09:34:41Z</time>
      </trkpt>
      <trkpt lat="43.27485" lon="5.77748">
        <ele>427.5</ele>
        <time>2021-10-27T09:35:03Z</time>
      </trkpt>
      <trkpt lat="43.27481" lon="5.77745">
        <ele>427.3</ele>
        <time>2021-10-27T09:35:10Z</time>
      </trkpt>
      <trkpt lat="43.27476" lon="5.77746">
        <ele>427.1</ele>
        <time>2021-10-27T09:35:29Z</time>
      </trkpt>
      <trkpt lat="43.27471" lon="5.77744">
        <ele>427</ele>
        <time>2021-10-27T09:35:38Z</time>
      </trkpt>
      <trkpt lat="43.27466" lon="5.77743">
        <ele>427</ele>
        <time>2021-10-27T09:35:47Z</time>
      </trkpt>
      <trkpt lat="43.27462" lon="5.77747">
        <ele>427</ele>
        <time>2021-10-27T09:35:56Z</time>
      </trkpt>
      <trkpt lat="43.27462" lon="5.77755">
        <ele>427.1</ele>
        <time>2021-10-27T09:36:04Z</time>
      </trkpt>
      <trkpt lat="43.27463" lon="5.77763">
        <ele>427.3</ele>
        <time>2021-10-27T09:36:07Z</time>
      </trkpt>
      <trkpt lat="43.27466" lon="5.77768">
        <ele>427.5</ele>
        <time>2021-10-27T09:36:11Z</time>
      </trkpt>
      <trkpt lat="43.2747" lon="5.77772">
        <ele>427.7</ele>
        <time>2021-10-27T09:36:17Z</time>
      </trkpt>
      <trkpt lat="43.27475" lon="5.77774">
        <ele>427.9</ele>
        <time>2021-10-27T09:36:24Z</time>
      </trkpt>
      <trkpt lat="43.2748" lon="5.77776">
        <ele>428</ele>
        <time>2021-10-27T09:36:35Z</time>
      </trkpt>
      <trkpt lat="43.27484" lon="5.77772">
        <ele>427.9</ele>
        <time>2021-10-27T09:36:41Z</time>
      </trkpt>
      <trkpt lat="43.27486" lon="5.77766">
        <ele>427.8</ele>
        <time>2021-10-27T09:36:49Z</time>
      </trkpt>
      <trkpt lat="43.27485" lon="5.77759">
        <ele>427.6</ele>
        <time>2021-10-27T09:37:00Z</time>
      </trkpt>
      <trkpt lat="43.27481" lon="5.77755">
        <ele>427.5</ele>
        <time>2021-10-27T09:37:07Z</time>
      </trkpt>
      <trkpt lat="43.27491" lon="5.7776">
        <ele>427.8</ele>
        <time>2021-10-27T09:39:55Z</time>
      </trkpt>
      <trkpt lat="43.27486" lon="5.77759">
        <ele>427.6</ele>
        <time>2021-10-27T09:41:15Z</time>
      </trkpt>
      <trkpt lat="43.27483" lon="5.77764">
        <ele>427.7</ele>
        <time>2021-10-27T09:42:20Z</time>
      </trkpt>
      <trkpt lat="43.27483" lon="5.77771">
        <ele>427.8</ele>
        <time>2021-10-27T09:45:24Z</time>
      </trkpt>
      <trkpt lat="43.27481" lon="5.77777">
        <ele>428</ele>
        <time>2021-10-27T09:45:36Z</time>
      </trkpt>
      <trkpt lat="43.27478" lon="5.77782">
        <ele>428</ele>
        <time>2021-10-27T09:45:58Z</time>
      </trkpt>
      <trkpt lat="43.27479" lon="5.77788">
        <ele>428</ele>
        <time>2021-10-27T09:46:59Z</time>
      </trkpt>
      <trkpt lat="43.27481" lon="5.77794">
        <ele>428</ele>
        <time>2021-10-27T09:47:12Z</time>
      </trkpt>
      <trkpt lat="43.27478" lon="5.77799">
        <ele>428</ele>
        <time>2021-10-27T09:47:33Z</time>
      </trkpt>
      <trkpt lat="43.27481" lon="5.77805">
        <ele>428</ele>
        <time>2021-10-27T09:49:12Z</time>
      </trkpt>
      <trkpt lat="43.27485" lon="5.77808">
        <ele>428</ele>
        <time>2021-10-27T09:49:20Z</time>
      </trkpt>
      <trkpt lat="43.27487" lon="5.77814">
        <ele>428</ele>
        <time>2021-10-27T09:49:26Z</time>
      </trkpt>
      <trkpt lat="43.27488" lon="5.7782">
        <ele>428</ele>
        <time>2021-10-27T09:49:31Z</time>
      </trkpt>
      <trkpt lat="43.2749" lon="5.77826">
        <ele>428</ele>
        <time>2021-10-27T09:49:37Z</time>
      </trkpt>
      <trkpt lat="43.2749" lon="5.77832">
        <ele>428</ele>
        <time>2021-10-27T09:49:43Z</time>
      </trkpt>
      <trkpt lat="43.27492" lon="5.77838">
        <ele>427.8</ele>
        <time>2021-10-27T09:49:49Z</time>
      </trkpt>
      <trkpt lat="43.27496" lon="5.77843">
        <ele>427.6</ele>
        <time>2021-10-27T09:49:56Z</time>
      </trkpt>
      <trkpt lat="43.27499" lon="5.77849">
        <ele>427.4</ele>
        <time>2021-10-27T09:50:00Z</time>
      </trkpt>
      <trkpt lat="43.27501" lon="5.77855">
        <ele>427.2</ele>
        <time>2021-10-27T09:50:05Z</time>
      </trkpt>
      <trkpt lat="43.27503" lon="5.77861">
        <ele>427</ele>
        <time>2021-10-27T09:50:11Z</time>
      </trkpt>
      <trkpt lat="43.27507" lon="5.77864">
        <ele>426.9</ele>
        <time>2021-10-27T09:50:18Z</time>
      </trkpt>
      <trkpt lat="43.27511" lon="5.77869">
        <ele>426.6</ele>
        <time>2021-10-27T09:50:26Z</time>
      </trkpt>
      <trkpt lat="43.27513" lon="5.77874">
        <ele>426.3</ele>
        <time>2021-10-27T09:50:29Z</time>
      </trkpt>
      <trkpt lat="43.27517" lon="5.7788">
        <ele>425.9</ele>
        <time>2021-10-27T09:50:32Z</time>
      </trkpt>
      <trkpt lat="43.27521" lon="5.77884">
        <ele>425.6</ele>
        <time>2021-10-27T09:50:39Z</time>
      </trkpt>
      <trkpt lat="43.27523" lon="5.7789">
        <ele>425.1</ele>
        <time>2021-10-27T09:50:47Z</time>
      </trkpt>
      <trkpt lat="43.27525" lon="5.77896">
        <ele>424.6</ele>
        <time>2021-10-27T09:50:53Z</time>
      </trkpt>
      <trkpt lat="43.27527" lon="5.77902">
        <ele>424.1</ele>
        <time>2021-10-27T09:51:00Z</time>
      </trkpt>
      <trkpt lat="43.27528" lon="5.77909">
        <ele>423.6</ele>
        <time>2021-10-27T09:51:06Z</time>
      </trkpt>
      <trkpt lat="43.2753" lon="5.77914">
        <ele>422.8</ele>
        <time>2021-10-27T09:51:11Z</time>
      </trkpt>
      <trkpt lat="43.27533" lon="5.7792">
        <ele>422.2</ele>
        <time>2021-10-27T09:51:16Z</time>
      </trkpt>
      <trkpt lat="43.27536" lon="5.77924">
        <ele>421.6</ele>
        <time>2021-10-27T09:51:20Z</time>
      </trkpt>
      <trkpt lat="43.2754" lon="5.77928">
        <ele>421</ele>
        <time>2021-10-27T09:51:24Z</time>
      </trkpt>
      <trkpt lat="43.27545" lon="5.77932">
        <ele>420.3</ele>
        <time>2021-10-27T09:51:28Z</time>
      </trkpt>
      <trkpt lat="43.27549" lon="5.77936">
        <ele>419.7</ele>
        <time>2021-10-27T09:51:34Z</time>
      </trkpt>
      <trkpt lat="43.27554" lon="5.77935">
        <ele>419.2</ele>
        <time>2021-10-27T09:51:43Z</time>
      </trkpt>
      <trkpt lat="43.27558" lon="5.77931">
        <ele>418.7</ele>
        <time>2021-10-27T09:51:49Z</time>
      </trkpt>
      <trkpt lat="43.27563" lon="5.77929">
        <ele>417.9</ele>
        <time>2021-10-27T09:51:55Z</time>
      </trkpt>
      <trkpt lat="43.27568" lon="5.7793">
        <ele>417.2</ele>
        <time>2021-10-27T09:52:00Z</time>
      </trkpt>
      <trkpt lat="43.27572" lon="5.77927">
        <ele>416.4</ele>
        <time>2021-10-27T09:52:13Z</time>
      </trkpt>
      <trkpt lat="43.27577" lon="5.77927">
        <ele>415.7</ele>
        <time>2021-10-27T09:52:21Z</time>
      </trkpt>
      <trkpt lat="43.27582" lon="5.77926">
        <ele>414.8</ele>
        <time>2021-10-27T09:52:31Z</time>
      </trkpt>
      <trkpt lat="43.27587" lon="5.77924">
        <ele>413.9</ele>
        <time>2021-10-27T09:52:39Z</time>
      </trkpt>
      <trkpt lat="43.27592" lon="5.77924">
        <ele>413</ele>
        <time>2021-10-27T09:52:48Z</time>
      </trkpt>
      <trkpt lat="43.27596" lon="5.77922">
        <ele>412</ele>
        <time>2021-10-27T09:52:55Z</time>
      </trkpt>
      <trkpt lat="43.276" lon="5.77918">
        <ele>410.6</ele>
        <time>2021-10-27T09:53:05Z</time>
      </trkpt>
      <trkpt lat="43.27605" lon="5.77917">
        <ele>409.4</ele>
        <time>2021-10-27T09:53:11Z</time>
      </trkpt>
      <trkpt lat="43.2761" lon="5.77914">
        <ele>408.1</ele>
        <time>2021-10-27T09:53:18Z</time>
      </trkpt>
      <trkpt lat="43.27614" lon="5.77911">
        <ele>407.4</ele>
        <time>2021-10-27T09:53:25Z</time>
      </trkpt>
      <trkpt lat="43.27619" lon="5.77906">
        <ele>406.8</ele>
        <time>2021-10-27T09:53:31Z</time>
      </trkpt>
      <trkpt lat="43.27622" lon="5.77902">
        <ele>406</ele>
        <time>2021-10-27T09:53:37Z</time>
      </trkpt>
      <trkpt lat="43.27623" lon="5.77896">
        <ele>404.9</ele>
        <time>2021-10-27T09:53:47Z</time>
      </trkpt>
      <trkpt lat="43.27623" lon="5.7789">
        <ele>403.9</ele>
        <time>2021-10-27T09:53:53Z</time>
      </trkpt>
      <trkpt lat="43.27623" lon="5.77883">
        <ele>402.9</ele>
        <time>2021-10-27T09:54:00Z</time>
      </trkpt>
      <trkpt lat="43.27624" lon="5.77876">
        <ele>402</ele>
        <time>2021-10-27T09:54:08Z</time>
      </trkpt>
      <trkpt lat="43.27623" lon="5.77869">
        <ele>401.2</ele>
        <time>2021-10-27T09:54:13Z</time>
      </trkpt>
      <trkpt lat="43.27626" lon="5.77863">
        <ele>400.2</ele>
        <time>2021-10-27T09:54:18Z</time>
      </trkpt>
      <trkpt lat="43.27631" lon="5.77865">
        <ele>400.1</ele>
        <time>2021-10-27T09:54:24Z</time>
      </trkpt>
      <trkpt lat="43.27636" lon="5.77865">
        <ele>399.7</ele>
        <time>2021-10-27T09:54:28Z</time>
      </trkpt>
      <trkpt lat="43.27641" lon="5.77865">
        <ele>399.4</ele>
        <time>2021-10-27T09:54:32Z</time>
      </trkpt>
      <trkpt lat="43.27646" lon="5.77863">
        <ele>399.2</ele>
        <time>2021-10-27T09:54:39Z</time>
      </trkpt>
      <trkpt lat="43.27651" lon="5.77862">
        <ele>399.1</ele>
        <time>2021-10-27T09:54:46Z</time>
      </trkpt>
      <trkpt lat="43.27655" lon="5.77863">
        <ele>399.1</ele>
        <time>2021-10-27T09:54:53Z</time>
      </trkpt>
      <trkpt lat="43.27659" lon="5.77865">
        <ele>399.2</ele>
        <time>2021-10-27T09:54:57Z</time>
      </trkpt>
      <trkpt lat="43.27664" lon="5.77868">
        <ele>399.3</ele>
        <time>2021-10-27T09:55:03Z</time>
      </trkpt>
      <trkpt lat="43.27668" lon="5.77873">
        <ele>399.5</ele>
        <time>2021-10-27T09:55:10Z</time>
      </trkpt>
      <trkpt lat="43.27671" lon="5.77877">
        <ele>399.7</ele>
        <time>2021-10-27T09:55:15Z</time>
      </trkpt>
      <trkpt lat="43.27675" lon="5.77882">
        <ele>399.8</ele>
        <time>2021-10-27T09:55:21Z</time>
      </trkpt>
      <trkpt lat="43.27679" lon="5.77885">
        <ele>399.6</ele>
        <time>2021-10-27T09:55:27Z</time>
      </trkpt>
      <trkpt lat="43.27683" lon="5.7789">
        <ele>399.5</ele>
        <time>2021-10-27T09:55:34Z</time>
      </trkpt>
      <trkpt lat="43.27688" lon="5.77892">
        <ele>399.4</ele>
        <time>2021-10-27T09:55:40Z</time>
      </trkpt>
      <trkpt lat="43.27692" lon="5.77897">
        <ele>399.2</ele>
        <time>2021-10-27T09:55:45Z</time>
      </trkpt>
      <trkpt lat="43.27696" lon="5.77902">
        <ele>399.2</ele>
        <time>2021-10-27T09:55:50Z</time>
      </trkpt>
      <trkpt lat="43.27698" lon="5.77907">
        <ele>399.6</ele>
        <time>2021-10-27T09:55:54Z</time>
      </trkpt>
      <trkpt lat="43.277" lon="5.77913">
        <ele>399.7</ele>
        <time>2021-10-27T09:55:58Z</time>
      </trkpt>
      <trkpt lat="43.27703" lon="5.77919">
        <ele>400</ele>
        <time>2021-10-27T09:56:04Z</time>
      </trkpt>
      <trkpt lat="43.27705" lon="5.77926">
        <ele>400.1</ele>
        <time>2021-10-27T09:56:08Z</time>
      </trkpt>
      <trkpt lat="43.27704" lon="5.77932">
        <ele>400</ele>
        <time>2021-10-27T09:56:15Z</time>
      </trkpt>
      <trkpt lat="43.27706" lon="5.77939">
        <ele>400</ele>
        <time>2021-10-27T09:56:20Z</time>
      </trkpt>
      <trkpt lat="43.27708" lon="5.77945">
        <ele>400</ele>
        <time>2021-10-27T09:56:23Z</time>
      </trkpt>
      <trkpt lat="43.27711" lon="5.77951">
        <ele>400</ele>
        <time>2021-10-27T09:56:27Z</time>
      </trkpt>
      <trkpt lat="43.27713" lon="5.77958">
        <ele>400</ele>
        <time>2021-10-27T09:56:32Z</time>
      </trkpt>
      <trkpt lat="43.27713" lon="5.77966">
        <ele>400</ele>
        <time>2021-10-27T09:56:38Z</time>
      </trkpt>
      <trkpt lat="43.27714" lon="5.77972">
        <ele>399.9</ele>
        <time>2021-10-27T09:56:43Z</time>
      </trkpt>
      <trkpt lat="43.27716" lon="5.77979">
        <ele>400</ele>
        <time>2021-10-27T09:56:49Z</time>
      </trkpt>
      <trkpt lat="43.27719" lon="5.77984">
        <ele>399.9</ele>
        <time>2021-10-27T09:56:54Z</time>
      </trkpt>
      <trkpt lat="43.27723" lon="5.77989">
        <ele>399.7</ele>
        <time>2021-10-27T09:56:59Z</time>
      </trkpt>
      <trkpt lat="43.27728" lon="5.77993">
        <ele>400.1</ele>
        <time>2021-10-27T09:57:04Z</time>
      </trkpt>
      <trkpt lat="43.27731" lon="5.77997">
        <ele>400.1</ele>
        <time>2021-10-27T09:57:10Z</time>
      </trkpt>
      <trkpt lat="43.27735" lon="5.78002">
        <ele>400.1</ele>
        <time>2021-10-27T09:57:15Z</time>
      </trkpt>
      <trkpt lat="43.27739" lon="5.78008">
        <ele>400.2</ele>
        <time>2021-10-27T09:57:18Z</time>
      </trkpt>
      <trkpt lat="43.27742" lon="5.78013">
        <ele>400.3</ele>
        <time>2021-10-27T09:57:23Z</time>
      </trkpt>
      <trkpt lat="43.27745" lon="5.78018">
        <ele>400.2</ele>
        <time>2021-10-27T09:57:27Z</time>
      </trkpt>
      <trkpt lat="43.27749" lon="5.78021">
        <ele>400.1</ele>
        <time>2021-10-27T09:57:33Z</time>
      </trkpt>
      <trkpt lat="43.27753" lon="5.78025">
        <ele>400.2</ele>
        <time>2021-10-27T09:57:39Z</time>
      </trkpt>
      <trkpt lat="43.27757" lon="5.7803">
        <ele>400.4</ele>
        <time>2021-10-27T09:57:44Z</time>
      </trkpt>
      <trkpt lat="43.27761" lon="5.78035">
        <ele>400.9</ele>
        <time>2021-10-27T09:57:49Z</time>
      </trkpt>
      <trkpt lat="43.27765" lon="5.78039">
        <ele>401.1</ele>
        <time>2021-10-27T09:57:55Z</time>
      </trkpt>
      <trkpt lat="43.27769" lon="5.78043">
        <ele>401.2</ele>
        <time>2021-10-27T09:58:02Z</time>
      </trkpt>
      <trkpt lat="43.27773" lon="5.78047">
        <ele>401.2</ele>
        <time>2021-10-27T09:58:09Z</time>
      </trkpt>
      <trkpt lat="43.27777" lon="5.78052">
        <ele>401</ele>
        <time>2021-10-27T09:58:14Z</time>
      </trkpt>
      <trkpt lat="43.2778" lon="5.78058">
        <ele>401.4</ele>
        <time>2021-10-27T09:58:17Z</time>
      </trkpt>
      <trkpt lat="43.27783" lon="5.78063">
        <ele>401.8</ele>
        <time>2021-10-27T09:58:23Z</time>
      </trkpt>
      <trkpt lat="43.27787" lon="5.78067">
        <ele>402.2</ele>
        <time>2021-10-27T09:58:28Z</time>
      </trkpt>
      <trkpt lat="43.2779" lon="5.78073">
        <ele>402.3</ele>
        <time>2021-10-27T09:58:34Z</time>
      </trkpt>
      <trkpt lat="43.27792" lon="5.78079">
        <ele>402.2</ele>
        <time>2021-10-27T09:58:37Z</time>
      </trkpt>
      <trkpt lat="43.27795" lon="5.78084">
        <ele>402.1</ele>
        <time>2021-10-27T09:58:42Z</time>
      </trkpt>
      <trkpt lat="43.27799" lon="5.78089">
        <ele>402.2</ele>
        <time>2021-10-27T09:58:50Z</time>
      </trkpt>
      <trkpt lat="43.27802" lon="5.78095">
        <ele>402.1</ele>
        <time>2021-10-27T09:58:55Z</time>
      </trkpt>
      <trkpt lat="43.27805" lon="5.781">
        <ele>401.6</ele>
        <time>2021-10-27T09:58:59Z</time>
      </trkpt>
      <trkpt lat="43.27808" lon="5.78106">
        <ele>401.7</ele>
        <time>2021-10-27T09:59:04Z</time>
      </trkpt>
      <trkpt lat="43.2781" lon="5.78112">
        <ele>401.9</ele>
        <time>2021-10-27T09:59:09Z</time>
      </trkpt>
      <trkpt lat="43.27812" lon="5.78119">
        <ele>402.8</ele>
        <time>2021-10-27T09:59:13Z</time>
      </trkpt>
      <trkpt lat="43.27814" lon="5.78126">
        <ele>403.5</ele>
        <time>2021-10-27T09:59:18Z</time>
      </trkpt>
      <trkpt lat="43.27815" lon="5.78132">
        <ele>403.9</ele>
        <time>2021-10-27T09:59:22Z</time>
      </trkpt>
      <trkpt lat="43.27818" lon="5.78138">
        <ele>404.1</ele>
        <time>2021-10-27T09:59:27Z</time>
      </trkpt>
      <trkpt lat="43.27821" lon="5.78144">
        <ele>404.1</ele>
        <time>2021-10-27T09:59:33Z</time>
      </trkpt>
      <trkpt lat="43.27825" lon="5.78149">
        <ele>403.9</ele>
        <time>2021-10-27T09:59:37Z</time>
      </trkpt>
      <trkpt lat="43.27827" lon="5.78155">
        <ele>403.5</ele>
        <time>2021-10-27T09:59:41Z</time>
      </trkpt>
      <trkpt lat="43.27829" lon="5.78162">
        <ele>403</ele>
        <time>2021-10-27T09:59:46Z</time>
      </trkpt>
      <trkpt lat="43.2783" lon="5.78168">
        <ele>402.9</ele>
        <time>2021-10-27T09:59:50Z</time>
      </trkpt>
      <trkpt lat="43.2783" lon="5.78175">
        <ele>402.9</ele>
        <time>2021-10-27T09:59:54Z</time>
      </trkpt>
      <trkpt lat="43.27832" lon="5.78182">
        <ele>402.5</ele>
        <time>2021-10-27T09:59:59Z</time>
      </trkpt>
      <trkpt lat="43.27832" lon="5.7819">
        <ele>402.6</ele>
        <time>2021-10-27T10:00:04Z</time>
      </trkpt>
      <trkpt lat="43.27831" lon="5.78196">
        <ele>402.7</ele>
        <time>2021-10-27T10:00:08Z</time>
      </trkpt>
      <trkpt lat="43.27832" lon="5.78203">
        <ele>402.7</ele>
        <time>2021-10-27T10:00:13Z</time>
      </trkpt>
      <trkpt lat="43.27832" lon="5.78211">
        <ele>402.5</ele>
        <time>2021-10-27T10:00:17Z</time>
      </trkpt>
      <trkpt lat="43.27833" lon="5.78219">
        <ele>402.3</ele>
        <time>2021-10-27T10:00:21Z</time>
      </trkpt>
      <trkpt lat="43.27833" lon="5.78226">
        <ele>402.3</ele>
        <time>2021-10-27T10:00:26Z</time>
      </trkpt>
      <trkpt lat="43.27832" lon="5.78232">
        <ele>402.7</ele>
        <time>2021-10-27T10:00:30Z</time>
      </trkpt>
      <trkpt lat="43.27831" lon="5.78239">
        <ele>403.4</ele>
        <time>2021-10-27T10:00:35Z</time>
      </trkpt>
      <trkpt lat="43.2783" lon="5.78246">
        <ele>403.8</ele>
        <time>2021-10-27T10:00:40Z</time>
      </trkpt>
      <trkpt lat="43.27827" lon="5.78251">
        <ele>404.7</ele>
        <time>2021-10-27T10:00:44Z</time>
      </trkpt>
      <trkpt lat="43.27824" lon="5.78255">
        <ele>405.2</ele>
        <time>2021-10-27T10:00:49Z</time>
      </trkpt>
      <trkpt lat="43.27819" lon="5.78259">
        <ele>405.7</ele>
        <time>2021-10-27T10:00:53Z</time>
      </trkpt>
      <trkpt lat="43.27816" lon="5.78263">
        <ele>405.6</ele>
        <time>2021-10-27T10:00:58Z</time>
      </trkpt>
      <trkpt lat="43.27811" lon="5.78262">
        <ele>406.6</ele>
        <time>2021-10-27T10:01:18Z</time>
      </trkpt>
      <trkpt lat="43.27807" lon="5.78265">
        <ele>406.4</ele>
        <time>2021-10-27T10:01:42Z</time>
      </trkpt>
      <trkpt lat="43.27801" lon="5.78268">
        <ele>406.9</ele>
        <time>2021-10-27T10:58:08Z</time>
      </trkpt>
      <trkpt lat="43.27796" lon="5.78271">
        <ele>407.2</ele>
        <time>2021-10-27T10:58:12Z</time>
      </trkpt>
      <trkpt lat="43.27791" lon="5.78272">
        <ele>408.1</ele>
        <time>2021-10-27T10:58:16Z</time>
      </trkpt>
      <trkpt lat="43.27786" lon="5.78273">
        <ele>409.1</ele>
        <time>2021-10-27T10:58:24Z</time>
      </trkpt>
      <trkpt lat="43.27781" lon="5.78273">
        <ele>410.1</ele>
        <time>2021-10-27T10:58:33Z</time>
      </trkpt>
      <trkpt lat="43.27777" lon="5.78275">
        <ele>410.9</ele>
        <time>2021-10-27T10:58:44Z</time>
      </trkpt>
      <trkpt lat="43.27772" lon="5.78278">
        <ele>411.4</ele>
        <time>2021-10-27T10:58:51Z</time>
      </trkpt>
      <trkpt lat="43.27769" lon="5.78282">
        <ele>412.5</ele>
        <time>2021-10-27T10:58:59Z</time>
      </trkpt>
      <trkpt lat="43.27764" lon="5.78279">
        <ele>413.4</ele>
        <time>2021-10-27T10:59:10Z</time>
      </trkpt>
      <trkpt lat="43.2776" lon="5.78276">
        <ele>414.9</ele>
        <time>2021-10-27T10:59:16Z</time>
      </trkpt>
      <trkpt lat="43.27755" lon="5.78276">
        <ele>416.2</ele>
        <time>2021-10-27T10:59:23Z</time>
      </trkpt>
      <trkpt lat="43.2775" lon="5.78274">
        <ele>417.7</ele>
        <time>2021-10-27T10:59:29Z</time>
      </trkpt>
      <trkpt lat="43.27745" lon="5.78271">
        <ele>419</ele>
        <time>2021-10-27T10:59:36Z</time>
      </trkpt>
      <trkpt lat="43.27741" lon="5.78268">
        <ele>420.2</ele>
        <time>2021-10-27T10:59:43Z</time>
      </trkpt>
      <trkpt lat="43.27737" lon="5.78266">
        <ele>421.2</ele>
        <time>2021-10-27T10:59:49Z</time>
      </trkpt>
      <trkpt lat="43.27732" lon="5.78263">
        <ele>422.1</ele>
        <time>2021-10-27T10:59:58Z</time>
      </trkpt>
      <trkpt lat="43.27727" lon="5.78263">
        <ele>422.9</ele>
        <time>2021-10-27T11:00:04Z</time>
      </trkpt>
      <trkpt lat="43.27721" lon="5.78264">
        <ele>423.6</ele>
        <time>2021-10-27T11:00:09Z</time>
      </trkpt>
      <trkpt lat="43.27716" lon="5.78266">
        <ele>424.3</ele>
        <time>2021-10-27T11:00:13Z</time>
      </trkpt>
      <trkpt lat="43.27711" lon="5.78267">
        <ele>424.9</ele>
        <time>2021-10-27T11:00:18Z</time>
      </trkpt>
      <trkpt lat="43.27705" lon="5.78266">
        <ele>425.6</ele>
        <time>2021-10-27T11:00:24Z</time>
      </trkpt>
      <trkpt lat="43.27701" lon="5.78265">
        <ele>426.2</ele>
        <time>2021-10-27T11:00:32Z</time>
      </trkpt>
      <trkpt lat="43.27697" lon="5.7826">
        <ele>426.7</ele>
        <time>2021-10-27T11:00:39Z</time>
      </trkpt>
      <trkpt lat="43.27694" lon="5.78256">
        <ele>427</ele>
        <time>2021-10-27T11:00:47Z</time>
      </trkpt>
      <trkpt lat="43.27689" lon="5.78257">
        <ele>427.4</ele>
        <time>2021-10-27T11:00:52Z</time>
      </trkpt>
      <trkpt lat="43.27685" lon="5.78257">
        <ele>427.7</ele>
        <time>2021-10-27T11:00:57Z</time>
      </trkpt>
      <trkpt lat="43.2768" lon="5.78258">
        <ele>428.1</ele>
        <time>2021-10-27T11:01:03Z</time>
      </trkpt>
      <trkpt lat="43.27675" lon="5.78259">
        <ele>428.4</ele>
        <time>2021-10-27T11:01:07Z</time>
      </trkpt>
      <trkpt lat="43.27669" lon="5.78258">
        <ele>428.8</ele>
        <time>2021-10-27T11:01:12Z</time>
      </trkpt>
      <trkpt lat="43.27665" lon="5.78257">
        <ele>429.1</ele>
        <time>2021-10-27T11:01:16Z</time>
      </trkpt>
      <trkpt lat="43.2766" lon="5.78258">
        <ele>429.2</ele>
        <time>2021-10-27T11:01:20Z</time>
      </trkpt>
      <trkpt lat="43.27657" lon="5.78263">
        <ele>429.4</ele>
        <time>2021-10-27T11:01:26Z</time>
      </trkpt>
      <trkpt lat="43.27653" lon="5.78267">
        <ele>429.5</ele>
        <time>2021-10-27T11:01:32Z</time>
      </trkpt>
      <trkpt lat="43.2765" lon="5.78273">
        <ele>429.6</ele>
        <time>2021-10-27T11:01:35Z</time>
      </trkpt>
      <trkpt lat="43.27647" lon="5.78278">
        <ele>429.7</ele>
        <time>2021-10-27T11:01:39Z</time>
      </trkpt>
      <trkpt lat="43.27644" lon="5.78281">
        <ele>429.9</ele>
        <time>2021-10-27T11:01:44Z</time>
      </trkpt>
      <trkpt lat="43.2764" lon="5.78285">
        <ele>430.2</ele>
        <time>2021-10-27T11:01:50Z</time>
      </trkpt>
      <trkpt lat="43.27638" lon="5.78291">
        <ele>430.5</ele>
        <time>2021-10-27T11:01:56Z</time>
      </trkpt>
      <trkpt lat="43.27635" lon="5.78296">
        <ele>430.8</ele>
        <time>2021-10-27T11:02:01Z</time>
      </trkpt>
      <trkpt lat="43.27632" lon="5.78301">
        <ele>431.1</ele>
        <time>2021-10-27T11:02:05Z</time>
      </trkpt>
      <trkpt lat="43.2763" lon="5.78307">
        <ele>431.4</ele>
        <time>2021-10-27T11:02:10Z</time>
      </trkpt>
      <trkpt lat="43.27627" lon="5.78313">
        <ele>431.7</ele>
        <time>2021-10-27T11:02:15Z</time>
      </trkpt>
      <trkpt lat="43.27624" lon="5.78319">
        <ele>432</ele>
        <time>2021-10-27T11:02:21Z</time>
      </trkpt>
      <trkpt lat="43.27621" lon="5.78324">
        <ele>432.3</ele>
        <time>2021-10-27T11:02:27Z</time>
      </trkpt>
      <trkpt lat="43.27618" lon="5.78329">
        <ele>432.6</ele>
        <time>2021-10-27T11:02:32Z</time>
      </trkpt>
      <trkpt lat="43.27616" lon="5.78334">
        <ele>432.8</ele>
        <time>2021-10-27T11:02:37Z</time>
      </trkpt>
      <trkpt lat="43.27613" lon="5.7834">
        <ele>432.9</ele>
        <time>2021-10-27T11:02:44Z</time>
      </trkpt>
      <trkpt lat="43.2761" lon="5.78346">
        <ele>433</ele>
        <time>2021-10-27T11:03:01Z</time>
      </trkpt>
      <trkpt lat="43.27609" lon="5.78352">
        <ele>433</ele>
        <time>2021-10-27T11:03:07Z</time>
      </trkpt>
      <trkpt lat="43.27606" lon="5.78358">
        <ele>433</ele>
        <time>2021-10-27T11:03:12Z</time>
      </trkpt>
      <trkpt lat="43.27601" lon="5.78361">
        <ele>433</ele>
        <time>2021-10-27T11:03:19Z</time>
      </trkpt>
      <trkpt lat="43.27597" lon="5.78366">
        <ele>433.2</ele>
        <time>2021-10-27T11:03:26Z</time>
      </trkpt>
      <trkpt lat="43.27595" lon="5.78372">
        <ele>433.4</ele>
        <time>2021-10-27T11:03:31Z</time>
      </trkpt>
      <trkpt lat="43.27597" lon="5.78379">
        <ele>433.6</ele>
        <time>2021-10-27T11:03:35Z</time>
      </trkpt>
      <trkpt lat="43.27598" lon="5.78385">
        <ele>433.9</ele>
        <time>2021-10-27T11:03:41Z</time>
      </trkpt>
      <trkpt lat="43.27596" lon="5.78391">
        <ele>434</ele>
        <time>2021-10-27T11:03:47Z</time>
      </trkpt>
      <trkpt lat="43.27595" lon="5.78397">
        <ele>434</ele>
        <time>2021-10-27T11:03:53Z</time>
      </trkpt>
      <trkpt lat="43.27592" lon="5.78403">
        <ele>434</ele>
        <time>2021-10-27T11:03:59Z</time>
      </trkpt>
      <trkpt lat="43.27588" lon="5.78407">
        <ele>434</ele>
        <time>2021-10-27T11:04:05Z</time>
      </trkpt>
      <trkpt lat="43.27585" lon="5.78413">
        <ele>434</ele>
        <time>2021-10-27T11:04:12Z</time>
      </trkpt>
      <trkpt lat="43.2758" lon="5.78413">
        <ele>434</ele>
        <time>2021-10-27T11:04:19Z</time>
      </trkpt>
      <trkpt lat="43.27576" lon="5.78415">
        <ele>434</ele>
        <time>2021-10-27T11:04:25Z</time>
      </trkpt>
      <trkpt lat="43.27571" lon="5.78416">
        <ele>434</ele>
        <time>2021-10-27T11:04:30Z</time>
      </trkpt>
      <trkpt lat="43.27566" lon="5.78417">
        <ele>434</ele>
        <time>2021-10-27T11:04:34Z</time>
      </trkpt>
      <trkpt lat="43.27561" lon="5.7842">
        <ele>434.1</ele>
        <time>2021-10-27T11:04:41Z</time>
      </trkpt>
      <trkpt lat="43.27557" lon="5.78424">
        <ele>434.3</ele>
        <time>2021-10-27T11:04:45Z</time>
      </trkpt>
      <trkpt lat="43.27554" lon="5.78429">
        <ele>434.5</ele>
        <time>2021-10-27T11:04:50Z</time>
      </trkpt>
      <trkpt lat="43.27549" lon="5.78433">
        <ele>434.7</ele>
        <time>2021-10-27T11:04:56Z</time>
      </trkpt>
      <trkpt lat="43.27546" lon="5.78436">
        <ele>434.8</ele>
        <time>2021-10-27T11:05:00Z</time>
      </trkpt>
      <trkpt lat="43.27543" lon="5.78442">
        <ele>435</ele>
        <time>2021-10-27T11:05:06Z</time>
      </trkpt>
      <trkpt lat="43.27539" lon="5.78448">
        <ele>435.1</ele>
        <time>2021-10-27T11:05:11Z</time>
      </trkpt>
      <trkpt lat="43.27536" lon="5.78454">
        <ele>435.2</ele>
        <time>2021-10-27T11:05:16Z</time>
      </trkpt>
      <trkpt lat="43.27532" lon="5.78456">
        <ele>435.3</ele>
        <time>2021-10-27T11:05:23Z</time>
      </trkpt>
      <trkpt lat="43.27528" lon="5.78453">
        <ele>435.3</ele>
        <time>2021-10-27T11:05:32Z</time>
      </trkpt>
      <trkpt lat="43.27523" lon="5.7845">
        <ele>435.3</ele>
        <time>2021-10-27T11:05:39Z</time>
      </trkpt>
      <trkpt lat="43.27517" lon="5.78449">
        <ele>435.5</ele>
        <time>2021-10-27T11:05:43Z</time>
      </trkpt>
      <trkpt lat="43.27512" lon="5.78449">
        <ele>435.7</ele>
        <time>2021-10-27T11:05:48Z</time>
      </trkpt>
      <trkpt lat="43.27506" lon="5.78449">
        <ele>435.8</ele>
        <time>2021-10-27T11:05:53Z</time>
      </trkpt>
      <trkpt lat="43.27502" lon="5.78451">
        <ele>436</ele>
        <time>2021-10-27T11:05:58Z</time>
      </trkpt>
      <trkpt lat="43.27497" lon="5.78454">
        <ele>436</ele>
        <time>2021-10-27T11:06:04Z</time>
      </trkpt>
      <trkpt lat="43.27493" lon="5.78456">
        <ele>436.1</ele>
        <time>2021-10-27T11:06:09Z</time>
      </trkpt>
      <trkpt lat="43.27487" lon="5.78456">
        <ele>436.2</ele>
        <time>2021-10-27T11:06:18Z</time>
      </trkpt>
      <trkpt lat="43.27483" lon="5.78458">
        <ele>436.3</ele>
        <time>2021-10-27T11:06:22Z</time>
      </trkpt>
      <trkpt lat="43.27478" lon="5.78461">
        <ele>436.5</ele>
        <time>2021-10-27T11:06:27Z</time>
      </trkpt>
      <trkpt lat="43.27473" lon="5.78463">
        <ele>436.6</ele>
        <time>2021-10-27T11:06:32Z</time>
      </trkpt>
      <trkpt lat="43.27468" lon="5.78462">
        <ele>436.5</ele>
        <time>2021-10-27T11:06:38Z</time>
      </trkpt>
      <trkpt lat="43.27463" lon="5.7846">
        <ele>436.4</ele>
        <time>2021-10-27T11:06:43Z</time>
      </trkpt>
      <trkpt lat="43.27458" lon="5.78459">
        <ele>436.2</ele>
        <time>2021-10-27T11:06:48Z</time>
      </trkpt>
      <trkpt lat="43.27453" lon="5.78456">
        <ele>436.1</ele>
        <time>2021-10-27T11:06:53Z</time>
      </trkpt>
      <trkpt lat="43.27448" lon="5.78457">
        <ele>436.1</ele>
        <time>2021-10-27T11:06:58Z</time>
      </trkpt>
      <trkpt lat="43.27444" lon="5.78462">
        <ele>436</ele>
        <time>2021-10-27T11:07:03Z</time>
      </trkpt>
      <trkpt lat="43.27441" lon="5.78466">
        <ele>436</ele>
        <time>2021-10-27T11:07:08Z</time>
      </trkpt>
      <trkpt lat="43.27438" lon="5.78472">
        <ele>436</ele>
        <time>2021-10-27T11:07:16Z</time>
      </trkpt>
      <trkpt lat="43.27434" lon="5.78478">
        <ele>436.2</ele>
        <time>2021-10-27T11:07:21Z</time>
      </trkpt>
      <trkpt lat="43.2743" lon="5.78482">
        <ele>436.4</ele>
        <time>2021-10-27T11:07:25Z</time>
      </trkpt>
      <trkpt lat="43.27427" lon="5.78487">
        <ele>436.5</ele>
        <time>2021-10-27T11:07:30Z</time>
      </trkpt>
      <trkpt lat="43.27424" lon="5.78492">
        <ele>436.7</ele>
        <time>2021-10-27T11:07:36Z</time>
      </trkpt>
      <trkpt lat="43.27423" lon="5.78499">
        <ele>437</ele>
        <time>2021-10-27T11:07:41Z</time>
      </trkpt>
      <trkpt lat="43.27419" lon="5.78502">
        <ele>437.1</ele>
        <time>2021-10-27T11:07:45Z</time>
      </trkpt>
      <trkpt lat="43.27416" lon="5.78507">
        <ele>437.3</ele>
        <time>2021-10-27T11:07:51Z</time>
      </trkpt>
      <trkpt lat="43.27412" lon="5.78512">
        <ele>437.4</ele>
        <time>2021-10-27T11:07:59Z</time>
      </trkpt>
      <trkpt lat="43.27408" lon="5.78516">
        <ele>437.6</ele>
        <time>2021-10-27T11:08:04Z</time>
      </trkpt>
      <trkpt lat="43.27404" lon="5.78521">
        <ele>437.8</ele>
        <time>2021-10-27T11:08:10Z</time>
      </trkpt>
      <trkpt lat="43.27402" lon="5.78527">
        <ele>438</ele>
        <time>2021-10-27T11:08:16Z</time>
      </trkpt>
      <trkpt lat="43.27398" lon="5.78532">
        <ele>438.2</ele>
        <time>2021-10-27T11:08:22Z</time>
      </trkpt>
      <trkpt lat="43.27396" lon="5.78538">
        <ele>438.4</ele>
        <time>2021-10-27T11:08:31Z</time>
      </trkpt>
      <trkpt lat="43.27392" lon="5.78543">
        <ele>438.5</ele>
        <time>2021-10-27T11:08:36Z</time>
      </trkpt>
      <trkpt lat="43.27389" lon="5.78548">
        <ele>438.7</ele>
        <time>2021-10-27T11:08:40Z</time>
      </trkpt>
      <trkpt lat="43.27385" lon="5.78553">
        <ele>438.9</ele>
        <time>2021-10-27T11:08:45Z</time>
      </trkpt>
      <trkpt lat="43.27382" lon="5.78558">
        <ele>439.1</ele>
        <time>2021-10-27T11:08:50Z</time>
      </trkpt>
      <trkpt lat="43.27378" lon="5.78563">
        <ele>439.3</ele>
        <time>2021-10-27T11:08:55Z</time>
      </trkpt>
      <trkpt lat="43.27374" lon="5.78567">
        <ele>439.4</ele>
        <time>2021-10-27T11:09:00Z</time>
      </trkpt>
      <trkpt lat="43.27371" lon="5.78572">
        <ele>439.6</ele>
        <time>2021-10-27T11:09:05Z</time>
      </trkpt>
      <trkpt lat="43.27369" lon="5.78578">
        <ele>439.8</ele>
        <time>2021-10-27T11:09:10Z</time>
      </trkpt>
      <trkpt lat="43.27368" lon="5.78584">
        <ele>440</ele>
        <time>2021-10-27T11:09:16Z</time>
      </trkpt>
      <trkpt lat="43.27366" lon="5.78591">
        <ele>440</ele>
        <time>2021-10-27T11:09:22Z</time>
      </trkpt>
      <trkpt lat="43.27365" lon="5.78597">
        <ele>440.1</ele>
        <time>2021-10-27T11:09:27Z</time>
      </trkpt>
      <trkpt lat="43.27362" lon="5.78604">
        <ele>440</ele>
        <time>2021-10-27T11:09:33Z</time>
      </trkpt>
      <trkpt lat="43.2736" lon="5.7861">
        <ele>440</ele>
        <time>2021-10-27T11:09:38Z</time>
      </trkpt>
      <trkpt lat="43.27356" lon="5.78615">
        <ele>440.3</ele>
        <time>2021-10-27T11:09:43Z</time>
      </trkpt>
      <trkpt lat="43.27353" lon="5.7862">
        <ele>440.6</ele>
        <time>2021-10-27T11:09:47Z</time>
      </trkpt>
      <trkpt lat="43.27352" lon="5.78626">
        <ele>440.9</ele>
        <time>2021-10-27T11:09:53Z</time>
      </trkpt>
      <trkpt lat="43.2735" lon="5.78632">
        <ele>441.2</ele>
        <time>2021-10-27T11:09:58Z</time>
      </trkpt>
      <trkpt lat="43.27347" lon="5.78637">
        <ele>441.5</ele>
        <time>2021-10-27T11:10:04Z</time>
      </trkpt>
      <trkpt lat="43.27342" lon="5.78642">
        <ele>441.7</ele>
        <time>2021-10-27T11:10:10Z</time>
      </trkpt>
      <trkpt lat="43.2734" lon="5.78647">
        <ele>441.8</ele>
        <time>2021-10-27T11:10:15Z</time>
      </trkpt>
      <trkpt lat="43.27338" lon="5.78654">
        <ele>441.8</ele>
        <time>2021-10-27T11:10:21Z</time>
      </trkpt>
      <trkpt lat="43.27338" lon="5.78661">
        <ele>441.8</ele>
        <time>2021-10-27T11:10:26Z</time>
      </trkpt>
      <trkpt lat="43.27335" lon="5.78668">
        <ele>441.9</ele>
        <time>2021-10-27T11:10:31Z</time>
      </trkpt>
      <trkpt lat="43.27334" lon="5.78674">
        <ele>442</ele>
        <time>2021-10-27T11:10:36Z</time>
      </trkpt>
      <trkpt lat="43.27333" lon="5.78681">
        <ele>442</ele>
        <time>2021-10-27T11:10:42Z</time>
      </trkpt>
      <trkpt lat="43.27331" lon="5.78688">
        <ele>442.1</ele>
        <time>2021-10-27T11:10:47Z</time>
      </trkpt>
      <trkpt lat="43.27331" lon="5.78694">
        <ele>442.1</ele>
        <time>2021-10-27T11:10:51Z</time>
      </trkpt>
      <trkpt lat="43.2733" lon="5.78701">
        <ele>442.1</ele>
        <time>2021-10-27T11:10:56Z</time>
      </trkpt>
      <trkpt lat="43.2733" lon="5.78708">
        <ele>442.1</ele>
        <time>2021-10-27T11:11:02Z</time>
      </trkpt>
      <trkpt lat="43.2733" lon="5.78716">
        <ele>442</ele>
        <time>2021-10-27T11:11:07Z</time>
      </trkpt>
      <trkpt lat="43.27332" lon="5.78721">
        <ele>442</ele>
        <time>2021-10-27T11:11:13Z</time>
      </trkpt>
      <trkpt lat="43.27335" lon="5.78728">
        <ele>442</ele>
        <time>2021-10-27T11:11:18Z</time>
      </trkpt>
      <trkpt lat="43.27338" lon="5.78734">
        <ele>442.1</ele>
        <time>2021-10-27T11:11:22Z</time>
      </trkpt>
      <trkpt lat="43.27338" lon="5.7874">
        <ele>442.1</ele>
        <time>2021-10-27T11:11:28Z</time>
      </trkpt>
      <trkpt lat="43.27339" lon="5.78747">
        <ele>442.2</ele>
        <time>2021-10-27T11:11:33Z</time>
      </trkpt>
      <trkpt lat="43.27341" lon="5.78752">
        <ele>442.3</ele>
        <time>2021-10-27T11:11:37Z</time>
      </trkpt>
      <trkpt lat="43.27344" lon="5.78758">
        <ele>442.5</ele>
        <time>2021-10-27T11:11:42Z</time>
      </trkpt>
      <trkpt lat="43.27347" lon="5.78763">
        <ele>442.7</ele>
        <time>2021-10-27T11:11:49Z</time>
      </trkpt>
      <trkpt lat="43.27351" lon="5.78767">
        <ele>442.9</ele>
        <time>2021-10-27T11:11:55Z</time>
      </trkpt>
      <trkpt lat="43.27354" lon="5.78772">
        <ele>442.9</ele>
        <time>2021-10-27T11:12:00Z</time>
      </trkpt>
      <trkpt lat="43.27358" lon="5.78775">
        <ele>443</ele>
        <time>2021-10-27T11:12:05Z</time>
      </trkpt>
      <trkpt lat="43.27361" lon="5.78781">
        <ele>443</ele>
        <time>2021-10-27T11:12:09Z</time>
      </trkpt>
      <trkpt lat="43.27364" lon="5.78787">
        <ele>443</ele>
        <time>2021-10-27T11:12:13Z</time>
      </trkpt>
      <trkpt lat="43.27367" lon="5.78791">
        <ele>443</ele>
        <time>2021-10-27T11:12:17Z</time>
      </trkpt>
      <trkpt lat="43.27368" lon="5.78798">
        <ele>443</ele>
        <time>2021-10-27T11:12:23Z</time>
      </trkpt>
      <trkpt lat="43.2737" lon="5.78804">
        <ele>443</ele>
        <time>2021-10-27T11:12:30Z</time>
      </trkpt>
      <trkpt lat="43.27371" lon="5.78811">
        <ele>443.1</ele>
        <time>2021-10-27T11:12:35Z</time>
      </trkpt>
      <trkpt lat="43.2737" lon="5.78818">
        <ele>443.3</ele>
        <time>2021-10-27T11:12:41Z</time>
      </trkpt>
      <trkpt lat="43.27371" lon="5.78825">
        <ele>443.4</ele>
        <time>2021-10-27T11:12:48Z</time>
      </trkpt>
      <trkpt lat="43.27374" lon="5.7883">
        <ele>443.5</ele>
        <time>2021-10-27T11:12:51Z</time>
      </trkpt>
      <trkpt lat="43.27376" lon="5.78836">
        <ele>443.5</ele>
        <time>2021-10-27T11:12:55Z</time>
      </trkpt>
      <trkpt lat="43.27379" lon="5.78839">
        <ele>443.5</ele>
        <time>2021-10-27T11:13:00Z</time>
      </trkpt>
      <trkpt lat="43.27383" lon="5.78843">
        <ele>443.5</ele>
        <time>2021-10-27T11:13:04Z</time>
      </trkpt>
      <trkpt lat="43.27388" lon="5.78846">
        <ele>443.5</ele>
        <time>2021-10-27T11:13:09Z</time>
      </trkpt>
      <trkpt lat="43.27392" lon="5.78851">
        <ele>443.6</ele>
        <time>2021-10-27T11:13:14Z</time>
      </trkpt>
      <trkpt lat="43.27395" lon="5.78855">
        <ele>443.8</ele>
        <time>2021-10-27T11:13:18Z</time>
      </trkpt>
      <trkpt lat="43.274" lon="5.78859">
        <ele>443.9</ele>
        <time>2021-10-27T11:13:23Z</time>
      </trkpt>
      <trkpt lat="43.27403" lon="5.78863">
        <ele>444</ele>
        <time>2021-10-27T11:13:29Z</time>
      </trkpt>
      <trkpt lat="43.27407" lon="5.78868">
        <ele>444</ele>
        <time>2021-10-27T11:13:34Z</time>
      </trkpt>
      <trkpt lat="43.2741" lon="5.78873">
        <ele>444</ele>
        <time>2021-10-27T11:13:40Z</time>
      </trkpt>
      <trkpt lat="43.27411" lon="5.7888">
        <ele>444</ele>
        <time>2021-10-27T11:13:46Z</time>
      </trkpt>
      <trkpt lat="43.27413" lon="5.78887">
        <ele>444</ele>
        <time>2021-10-27T11:13:51Z</time>
      </trkpt>
      <trkpt lat="43.27415" lon="5.78895">
        <ele>444</ele>
        <time>2021-10-27T11:13:55Z</time>
      </trkpt>
      <trkpt lat="43.27417" lon="5.789">
        <ele>444</ele>
        <time>2021-10-27T11:14:00Z</time>
      </trkpt>
      <trkpt lat="43.27418" lon="5.78906">
        <ele>444</ele>
        <time>2021-10-27T11:14:05Z</time>
      </trkpt>
      <trkpt lat="43.2742" lon="5.78913">
        <ele>444</ele>
        <time>2021-10-27T11:14:10Z</time>
      </trkpt>
      <trkpt lat="43.27419" lon="5.78919">
        <ele>444</ele>
        <time>2021-10-27T11:14:15Z</time>
      </trkpt>
      <trkpt lat="43.27419" lon="5.78926">
        <ele>444</ele>
        <time>2021-10-27T11:14:21Z</time>
      </trkpt>
      <trkpt lat="43.27421" lon="5.78932">
        <ele>444</ele>
        <time>2021-10-27T11:14:25Z</time>
      </trkpt>
      <trkpt lat="43.27424" lon="5.78937">
        <ele>444</ele>
        <time>2021-10-27T11:14:30Z</time>
      </trkpt>
      <trkpt lat="43.27426" lon="5.78943">
        <ele>444</ele>
        <time>2021-10-27T11:14:34Z</time>
      </trkpt>
      <trkpt lat="43.27428" lon="5.78949">
        <ele>444.1</ele>
        <time>2021-10-27T11:14:39Z</time>
      </trkpt>
      <trkpt lat="43.2743" lon="5.78954">
        <ele>444.2</ele>
        <time>2021-10-27T11:14:45Z</time>
      </trkpt>
      <trkpt lat="43.27432" lon="5.7896">
        <ele>444.3</ele>
        <time>2021-10-27T11:14:51Z</time>
      </trkpt>
      <trkpt lat="43.27435" lon="5.78966">
        <ele>444.3</ele>
        <time>2021-10-27T11:14:55Z</time>
      </trkpt>
      <trkpt lat="43.27438" lon="5.78971">
        <ele>444.2</ele>
        <time>2021-10-27T11:14:59Z</time>
      </trkpt>
      <trkpt lat="43.27442" lon="5.78974">
        <ele>444.1</ele>
        <time>2021-10-27T11:15:04Z</time>
      </trkpt>
      <trkpt lat="43.27445" lon="5.78979">
        <ele>444</ele>
        <time>2021-10-27T11:15:09Z</time>
      </trkpt>
      <trkpt lat="43.2745" lon="5.78983">
        <ele>444</ele>
        <time>2021-10-27T11:15:16Z</time>
      </trkpt>
      <trkpt lat="43.27452" lon="5.7899">
        <ele>444</ele>
        <time>2021-10-27T11:15:20Z</time>
      </trkpt>
      <trkpt lat="43.27454" lon="5.78995">
        <ele>444</ele>
        <time>2021-10-27T11:15:24Z</time>
      </trkpt>
      <trkpt lat="43.27458" lon="5.79001">
        <ele>444</ele>
        <time>2021-10-27T11:15:29Z</time>
      </trkpt>
      <trkpt lat="43.2746" lon="5.79006">
        <ele>444.2</ele>
        <time>2021-10-27T11:15:34Z</time>
      </trkpt>
      <trkpt lat="43.27462" lon="5.79013">
        <ele>444.5</ele>
        <time>2021-10-27T11:15:39Z</time>
      </trkpt>
      <trkpt lat="43.27464" lon="5.79019">
        <ele>444.7</ele>
        <time>2021-10-27T11:15:43Z</time>
      </trkpt>
      <trkpt lat="43.27465" lon="5.79025">
        <ele>444.9</ele>
        <time>2021-10-27T11:15:48Z</time>
      </trkpt>
      <trkpt lat="43.27465" lon="5.79031">
        <ele>445</ele>
        <time>2021-10-27T11:15:52Z</time>
      </trkpt>
      <trkpt lat="43.27465" lon="5.79038">
        <ele>445</ele>
        <time>2021-10-27T11:15:56Z</time>
      </trkpt>
      <trkpt lat="43.27468" lon="5.79044">
        <ele>445</ele>
        <time>2021-10-27T11:16:01Z</time>
      </trkpt>
      <trkpt lat="43.27469" lon="5.79051">
        <ele>445</ele>
        <time>2021-10-27T11:16:06Z</time>
      </trkpt>
      <trkpt lat="43.27469" lon="5.79057">
        <ele>445</ele>
        <time>2021-10-27T11:16:11Z</time>
      </trkpt>
      <trkpt lat="43.27469" lon="5.79064">
        <ele>445</ele>
        <time>2021-10-27T11:16:16Z</time>
      </trkpt>
      <trkpt lat="43.27469" lon="5.79071">
        <ele>445.1</ele>
        <time>2021-10-27T11:16:21Z</time>
      </trkpt>
      <trkpt lat="43.27469" lon="5.79078">
        <ele>445.1</ele>
        <time>2021-10-27T11:16:29Z</time>
      </trkpt>
      <trkpt lat="43.2747" lon="5.79085">
        <ele>445.1</ele>
        <time>2021-10-27T11:16:34Z</time>
      </trkpt>
      <trkpt lat="43.2747" lon="5.79092">
        <ele>445.4</ele>
        <time>2021-10-27T11:16:39Z</time>
      </trkpt>
      <trkpt lat="43.27471" lon="5.791">
        <ele>445.6</ele>
        <time>2021-10-27T11:16:44Z</time>
      </trkpt>
      <trkpt lat="43.2747" lon="5.79107">
        <ele>445.9</ele>
        <time>2021-10-27T11:16:49Z</time>
      </trkpt>
      <trkpt lat="43.2747" lon="5.79113">
        <ele>446</ele>
        <time>2021-10-27T11:16:54Z</time>
      </trkpt>
      <trkpt lat="43.27471" lon="5.7912">
        <ele>446</ele>
        <time>2021-10-27T11:16:59Z</time>
      </trkpt>
      <trkpt lat="43.27472" lon="5.79128">
        <ele>446</ele>
        <time>2021-10-27T11:17:04Z</time>
      </trkpt>
      <trkpt lat="43.27471" lon="5.79135">
        <ele>446</ele>
        <time>2021-10-27T11:17:10Z</time>
      </trkpt>
      <trkpt lat="43.27471" lon="5.79142">
        <ele>446.2</ele>
        <time>2021-10-27T11:17:15Z</time>
      </trkpt>
      <trkpt lat="43.27471" lon="5.79148">
        <ele>446.4</ele>
        <time>2021-10-27T11:17:20Z</time>
      </trkpt>
      <trkpt lat="43.27472" lon="5.79155">
        <ele>446.6</ele>
        <time>2021-10-27T11:17:24Z</time>
      </trkpt>
      <trkpt lat="43.27472" lon="5.79162">
        <ele>446.8</ele>
        <time>2021-10-27T11:17:30Z</time>
      </trkpt>
      <trkpt lat="43.27472" lon="5.79169">
        <ele>447</ele>
        <time>2021-10-27T11:17:35Z</time>
      </trkpt>
      <trkpt lat="43.27472" lon="5.79175">
        <ele>447</ele>
        <time>2021-10-27T11:17:40Z</time>
      </trkpt>
      <trkpt lat="43.27473" lon="5.79181">
        <ele>447</ele>
        <time>2021-10-27T11:17:45Z</time>
      </trkpt>
      <trkpt lat="43.27474" lon="5.79188">
        <ele>447</ele>
        <time>2021-10-27T11:17:50Z</time>
      </trkpt>
      <trkpt lat="43.27475" lon="5.79195">
        <ele>447</ele>
        <time>2021-10-27T11:17:54Z</time>
      </trkpt>
      <trkpt lat="43.27476" lon="5.79201">
        <ele>447</ele>
        <time>2021-10-27T11:17:58Z</time>
      </trkpt>
      <trkpt lat="43.27476" lon="5.79208">
        <ele>447</ele>
        <time>2021-10-27T11:18:02Z</time>
      </trkpt>
      <trkpt lat="43.27477" lon="5.79215">
        <ele>447</ele>
        <time>2021-10-27T11:18:07Z</time>
      </trkpt>
      <trkpt lat="43.27478" lon="5.79221">
        <ele>447</ele>
        <time>2021-10-27T11:18:11Z</time>
      </trkpt>
      <trkpt lat="43.27477" lon="5.79227">
        <ele>447</ele>
        <time>2021-10-27T11:18:16Z</time>
      </trkpt>
      <trkpt lat="43.27476" lon="5.79234">
        <ele>447</ele>
        <time>2021-10-27T11:18:22Z</time>
      </trkpt>
      <trkpt lat="43.27473" lon="5.7924">
        <ele>447</ele>
        <time>2021-10-27T11:18:25Z</time>
      </trkpt>
      <trkpt lat="43.27471" lon="5.79246">
        <ele>447</ele>
        <time>2021-10-27T11:18:29Z</time>
      </trkpt>
      <trkpt lat="43.27471" lon="5.79253">
        <ele>447</ele>
        <time>2021-10-27T11:18:34Z</time>
      </trkpt>
      <trkpt lat="43.27472" lon="5.7926">
        <ele>447</ele>
        <time>2021-10-27T11:18:39Z</time>
      </trkpt>
      <trkpt lat="43.27472" lon="5.79267">
        <ele>447</ele>
        <time>2021-10-27T11:18:44Z</time>
      </trkpt>
      <trkpt lat="43.27474" lon="5.79274">
        <ele>447</ele>
        <time>2021-10-27T11:18:48Z</time>
      </trkpt>
      <trkpt lat="43.27476" lon="5.7928">
        <ele>446.9</ele>
        <time>2021-10-27T11:18:52Z</time>
      </trkpt>
      <trkpt lat="43.27477" lon="5.79286">
        <ele>446.7</ele>
        <time>2021-10-27T11:18:56Z</time>
      </trkpt>
      <trkpt lat="43.27478" lon="5.79293">
        <ele>446.5</ele>
        <time>2021-10-27T11:19:01Z</time>
      </trkpt>
      <trkpt lat="43.2748" lon="5.79299">
        <ele>446.3</ele>
        <time>2021-10-27T11:19:05Z</time>
      </trkpt>
      <trkpt lat="43.27484" lon="5.79304">
        <ele>446.1</ele>
        <time>2021-10-27T11:19:09Z</time>
      </trkpt>
      <trkpt lat="43.27487" lon="5.7931">
        <ele>445.9</ele>
        <time>2021-10-27T11:19:14Z</time>
      </trkpt>
      <trkpt lat="43.27489" lon="5.79316">
        <ele>445.9</ele>
        <time>2021-10-27T11:19:18Z</time>
      </trkpt>
      <trkpt lat="43.27491" lon="5.79322">
        <ele>445.8</ele>
        <time>2021-10-27T11:19:23Z</time>
      </trkpt>
      <trkpt lat="43.2749" lon="5.79329">
        <ele>445.7</ele>
        <time>2021-10-27T11:19:27Z</time>
      </trkpt>
      <trkpt lat="43.27488" lon="5.79335">
        <ele>445.6</ele>
        <time>2021-10-27T11:19:32Z</time>
      </trkpt>
      <trkpt lat="43.27487" lon="5.79342">
        <ele>445.5</ele>
        <time>2021-10-27T11:19:36Z</time>
      </trkpt>
      <trkpt lat="43.27484" lon="5.79347">
        <ele>445.4</ele>
        <time>2021-10-27T11:19:41Z</time>
      </trkpt>
      <trkpt lat="43.27482" lon="5.79354">
        <ele>445.3</ele>
        <time>2021-10-27T11:19:47Z</time>
      </trkpt>
      <trkpt lat="43.27479" lon="5.79359">
        <ele>445.2</ele>
        <time>2021-10-27T11:19:52Z</time>
      </trkpt>
      <trkpt lat="43.27482" lon="5.79363">
        <ele>445.4</ele>
        <time>2021-10-27T11:20:52Z</time>
      </trkpt>
      <trkpt lat="43.2748" lon="5.79369">
        <ele>445.3</ele>
        <time>2021-10-27T11:22:56Z</time>
      </trkpt>
      <trkpt lat="43.27479" lon="5.79375">
        <ele>445.2</ele>
        <time>2021-10-27T11:24:03Z</time>
      </trkpt>
      <trkpt lat="43.27478" lon="5.79382">
        <ele>445.2</ele>
        <time>2021-10-27T11:24:37Z</time>
      </trkpt>
      <trkpt lat="43.27476" lon="5.79388">
        <ele>445.1</ele>
        <time>2021-10-27T11:24:43Z</time>
      </trkpt>
      <trkpt lat="43.27473" lon="5.79395">
        <ele>445.3</ele>
        <time>2021-10-27T11:26:14Z</time>
      </trkpt>
      <trkpt lat="43.27474" lon="5.79403">
        <ele>445.6</ele>
        <time>2021-10-27T11:26:18Z</time>
      </trkpt>
      <trkpt lat="43.27474" lon="5.7941">
        <ele>445.9</ele>
        <time>2021-10-27T11:26:23Z</time>
      </trkpt>
      <trkpt lat="43.27475" lon="5.79418">
        <ele>446.2</ele>
        <time>2021-10-27T11:26:28Z</time>
      </trkpt>
      <trkpt lat="43.27475" lon="5.79425">
        <ele>446.2</ele>
        <time>2021-10-27T11:26:34Z</time>
      </trkpt>
      <trkpt lat="43.27476" lon="5.79432">
        <ele>446.3</ele>
        <time>2021-10-27T11:26:38Z</time>
      </trkpt>
      <trkpt lat="43.27478" lon="5.79438">
        <ele>446.4</ele>
        <time>2021-10-27T11:26:43Z</time>
      </trkpt>
      <trkpt lat="43.27478" lon="5.79445">
        <ele>446.4</ele>
        <time>2021-10-27T11:26:48Z</time>
      </trkpt>
      <trkpt lat="43.27478" lon="5.79452">
        <ele>446.7</ele>
        <time>2021-10-27T11:26:53Z</time>
      </trkpt>
      <trkpt lat="43.27481" lon="5.79458">
        <ele>447</ele>
        <time>2021-10-27T11:26:59Z</time>
      </trkpt>
      <trkpt lat="43.27482" lon="5.79466">
        <ele>447.2</ele>
        <time>2021-10-27T11:27:03Z</time>
      </trkpt>
      <trkpt lat="43.27484" lon="5.79472">
        <ele>447.4</ele>
        <time>2021-10-27T11:27:09Z</time>
      </trkpt>
      <trkpt lat="43.27485" lon="5.79479">
        <ele>447.5</ele>
        <time>2021-10-27T11:27:15Z</time>
      </trkpt>
      <trkpt lat="43.27486" lon="5.79485">
        <ele>447.5</ele>
        <time>2021-10-27T11:27:19Z</time>
      </trkpt>
      <trkpt lat="43.27487" lon="5.79492">
        <ele>447.5</ele>
        <time>2021-10-27T11:27:23Z</time>
      </trkpt>
      <trkpt lat="43.27488" lon="5.79498">
        <ele>447.6</ele>
        <time>2021-10-27T11:27:29Z</time>
      </trkpt>
      <trkpt lat="43.27489" lon="5.79504">
        <ele>447.5</ele>
        <time>2021-10-27T11:27:34Z</time>
      </trkpt>
      <trkpt lat="43.2749" lon="5.7951">
        <ele>447.4</ele>
        <time>2021-10-27T11:27:38Z</time>
      </trkpt>
      <trkpt lat="43.27492" lon="5.79517">
        <ele>447.3</ele>
        <time>2021-10-27T11:27:44Z</time>
      </trkpt>
      <trkpt lat="43.27495" lon="5.79523">
        <ele>447.1</ele>
        <time>2021-10-27T11:27:49Z</time>
      </trkpt>
      <trkpt lat="43.27497" lon="5.79529">
        <ele>447</ele>
        <time>2021-10-27T11:27:53Z</time>
      </trkpt>
      <trkpt lat="43.27499" lon="5.79536">
        <ele>447</ele>
        <time>2021-10-27T11:27:58Z</time>
      </trkpt>
      <trkpt lat="43.27501" lon="5.79543">
        <ele>447</ele>
        <time>2021-10-27T11:28:02Z</time>
      </trkpt>
      <trkpt lat="43.27502" lon="5.7955">
        <ele>447.1</ele>
        <time>2021-10-27T11:28:06Z</time>
      </trkpt>
      <trkpt lat="43.27504" lon="5.79556">
        <ele>447.2</ele>
        <time>2021-10-27T11:28:10Z</time>
      </trkpt>
      <trkpt lat="43.27505" lon="5.79563">
        <ele>447.4</ele>
        <time>2021-10-27T11:28:15Z</time>
      </trkpt>
      <trkpt lat="43.27508" lon="5.79569">
        <ele>447.5</ele>
        <time>2021-10-27T11:28:21Z</time>
      </trkpt>
      <trkpt lat="43.27509" lon="5.79576">
        <ele>447.6</ele>
        <time>2021-10-27T11:28:26Z</time>
      </trkpt>
      <trkpt lat="43.2751" lon="5.79582">
        <ele>447.6</ele>
        <time>2021-10-27T11:28:30Z</time>
      </trkpt>
      <trkpt lat="43.2751" lon="5.79589">
        <ele>447.7</ele>
        <time>2021-10-27T11:28:35Z</time>
      </trkpt>
      <trkpt lat="43.27509" lon="5.79596">
        <ele>447.8</ele>
        <time>2021-10-27T11:28:40Z</time>
      </trkpt>
      <trkpt lat="43.27508" lon="5.79604">
        <ele>447.9</ele>
        <time>2021-10-27T11:28:45Z</time>
      </trkpt>
      <trkpt lat="43.27509" lon="5.79611">
        <ele>448</ele>
        <time>2021-10-27T11:28:50Z</time>
      </trkpt>
      <trkpt lat="43.2751" lon="5.79619">
        <ele>448</ele>
        <time>2021-10-27T11:28:54Z</time>
      </trkpt>
      <trkpt lat="43.2751" lon="5.79626">
        <ele>448</ele>
        <time>2021-10-27T11:28:58Z</time>
      </trkpt>
      <trkpt lat="43.2751" lon="5.79634">
        <ele>448</ele>
        <time>2021-10-27T11:29:03Z</time>
      </trkpt>
      <trkpt lat="43.27508" lon="5.7964">
        <ele>448</ele>
        <time>2021-10-27T11:29:08Z</time>
      </trkpt>
      <trkpt lat="43.27507" lon="5.79647">
        <ele>448.1</ele>
        <time>2021-10-27T11:29:15Z</time>
      </trkpt>
      <trkpt lat="43.27508" lon="5.79654">
        <ele>448.2</ele>
        <time>2021-10-27T11:29:19Z</time>
      </trkpt>
      <trkpt lat="43.27506" lon="5.7966">
        <ele>448.2</ele>
        <time>2021-10-27T11:29:24Z</time>
      </trkpt>
      <trkpt lat="43.27505" lon="5.79667">
        <ele>448.2</ele>
        <time>2021-10-27T11:29:29Z</time>
      </trkpt>
      <trkpt lat="43.27504" lon="5.79674">
        <ele>447.9</ele>
        <time>2021-10-27T11:29:33Z</time>
      </trkpt>
      <trkpt lat="43.27502" lon="5.7968">
        <ele>447.7</ele>
        <time>2021-10-27T11:29:37Z</time>
      </trkpt>
      <trkpt lat="43.27501" lon="5.79686">
        <ele>447.4</ele>
        <time>2021-10-27T11:29:41Z</time>
      </trkpt>
      <trkpt lat="43.27501" lon="5.79693">
        <ele>447.2</ele>
        <time>2021-10-27T11:29:46Z</time>
      </trkpt>
      <trkpt lat="43.27502" lon="5.797">
        <ele>447.4</ele>
        <time>2021-10-27T11:29:51Z</time>
      </trkpt>
      <trkpt lat="43.27502" lon="5.79707">
        <ele>447.6</ele>
        <time>2021-10-27T11:29:56Z</time>
      </trkpt>
      <trkpt lat="43.275" lon="5.79715">
        <ele>447.8</ele>
        <time>2021-10-27T11:30:02Z</time>
      </trkpt>
      <trkpt lat="43.275" lon="5.79721">
        <ele>448</ele>
        <time>2021-10-27T11:30:06Z</time>
      </trkpt>
      <trkpt lat="43.275" lon="5.79728">
        <ele>448</ele>
        <time>2021-10-27T11:30:10Z</time>
      </trkpt>
      <trkpt lat="43.275" lon="5.79734">
        <ele>448</ele>
        <time>2021-10-27T11:30:16Z</time>
      </trkpt>
      <trkpt lat="43.27501" lon="5.79742">
        <ele>448.1</ele>
        <time>2021-10-27T11:30:22Z</time>
      </trkpt>
      <trkpt lat="43.275" lon="5.79748">
        <ele>448</ele>
        <time>2021-10-27T11:30:27Z</time>
      </trkpt>
      <trkpt lat="43.27499" lon="5.79755">
        <ele>448.1</ele>
        <time>2021-10-27T11:30:33Z</time>
      </trkpt>
      <trkpt lat="43.27497" lon="5.7976">
        <ele>448.2</ele>
        <time>2021-10-27T11:30:37Z</time>
      </trkpt>
      <trkpt lat="43.27496" lon="5.79767">
        <ele>448.2</ele>
        <time>2021-10-27T11:30:41Z</time>
      </trkpt>
      <trkpt lat="43.27499" lon="5.79772">
        <ele>448.1</ele>
        <time>2021-10-27T11:30:45Z</time>
      </trkpt>
      <trkpt lat="43.27502" lon="5.79777">
        <ele>448.1</ele>
        <time>2021-10-27T11:30:50Z</time>
      </trkpt>
      <trkpt lat="43.27503" lon="5.79783">
        <ele>448.2</ele>
        <time>2021-10-27T11:30:55Z</time>
      </trkpt>
      <trkpt lat="43.27504" lon="5.7979">
        <ele>448.3</ele>
        <time>2021-10-27T11:31:01Z</time>
      </trkpt>
      <trkpt lat="43.27505" lon="5.79798">
        <ele>448.4</ele>
        <time>2021-10-27T11:31:06Z</time>
      </trkpt>
      <trkpt lat="43.27507" lon="5.79804">
        <ele>448.5</ele>
        <time>2021-10-27T11:31:10Z</time>
      </trkpt>
      <trkpt lat="43.27508" lon="5.79811">
        <ele>448.7</ele>
        <time>2021-10-27T11:31:15Z</time>
      </trkpt>
      <trkpt lat="43.27509" lon="5.79818">
        <ele>448.8</ele>
        <time>2021-10-27T11:31:21Z</time>
      </trkpt>
      <trkpt lat="43.2751" lon="5.79824">
        <ele>448.9</ele>
        <time>2021-10-27T11:31:25Z</time>
      </trkpt>
      <trkpt lat="43.27512" lon="5.79831">
        <ele>449</ele>
        <time>2021-10-27T11:31:29Z</time>
      </trkpt>
      <trkpt lat="43.27514" lon="5.79837">
        <ele>449</ele>
        <time>2021-10-27T11:31:33Z</time>
      </trkpt>
      <trkpt lat="43.27516" lon="5.79843">
        <ele>449</ele>
        <time>2021-10-27T11:31:38Z</time>
      </trkpt>
      <trkpt lat="43.27516" lon="5.79849">
        <ele>448.9</ele>
        <time>2021-10-27T11:31:44Z</time>
      </trkpt>
      <trkpt lat="43.27518" lon="5.79856">
        <ele>448.7</ele>
        <time>2021-10-27T11:31:50Z</time>
      </trkpt>
      <trkpt lat="43.27521" lon="5.79861">
        <ele>448.5</ele>
        <time>2021-10-27T11:31:54Z</time>
      </trkpt>
      <trkpt lat="43.27523" lon="5.79868">
        <ele>448.4</ele>
        <time>2021-10-27T11:31:59Z</time>
      </trkpt>
      <trkpt lat="43.27526" lon="5.79875">
        <ele>448.2</ele>
        <time>2021-10-27T11:32:03Z</time>
      </trkpt>
      <trkpt lat="43.27527" lon="5.79881">
        <ele>448.1</ele>
        <time>2021-10-27T11:32:08Z</time>
      </trkpt>
      <trkpt lat="43.27528" lon="5.79887">
        <ele>448</ele>
        <time>2021-10-27T11:32:12Z</time>
      </trkpt>
      <trkpt lat="43.2753" lon="5.79893">
        <ele>448.2</ele>
        <time>2021-10-27T11:32:17Z</time>
      </trkpt>
      <trkpt lat="43.27532" lon="5.79901">
        <ele>448.4</ele>
        <time>2021-10-27T11:32:22Z</time>
      </trkpt>
      <trkpt lat="43.27533" lon="5.79907">
        <ele>448.4</ele>
        <time>2021-10-27T11:32:26Z</time>
      </trkpt>
      <trkpt lat="43.27534" lon="5.79913">
        <ele>448.4</ele>
        <time>2021-10-27T11:32:31Z</time>
      </trkpt>
      <trkpt lat="43.27534" lon="5.7992">
        <ele>448.5</ele>
        <time>2021-10-27T11:32:35Z</time>
      </trkpt>
      <trkpt lat="43.27536" lon="5.79926">
        <ele>448.7</ele>
        <time>2021-10-27T11:32:40Z</time>
      </trkpt>
      <trkpt lat="43.27537" lon="5.79933">
        <ele>448.9</ele>
        <time>2021-10-27T11:32:45Z</time>
      </trkpt>
      <trkpt lat="43.27538" lon="5.7994">
        <ele>449.1</ele>
        <time>2021-10-27T11:32:49Z</time>
      </trkpt>
      <trkpt lat="43.27538" lon="5.79947">
        <ele>449.1</ele>
        <time>2021-10-27T11:32:53Z</time>
      </trkpt>
      <trkpt lat="43.27538" lon="5.79954">
        <ele>449.1</ele>
        <time>2021-10-27T11:32:58Z</time>
      </trkpt>
      <trkpt lat="43.27537" lon="5.7996">
        <ele>449</ele>
        <time>2021-10-27T11:33:04Z</time>
      </trkpt>
      <trkpt lat="43.27537" lon="5.79967">
        <ele>449</ele>
        <time>2021-10-27T11:33:08Z</time>
      </trkpt>
      <trkpt lat="43.27538" lon="5.79974">
        <ele>449.1</ele>
        <time>2021-10-27T11:33:13Z</time>
      </trkpt>
      <trkpt lat="43.27537" lon="5.79981">
        <ele>449.2</ele>
        <time>2021-10-27T11:33:18Z</time>
      </trkpt>
      <trkpt lat="43.27537" lon="5.79988">
        <ele>449.3</ele>
        <time>2021-10-27T11:33:23Z</time>
      </trkpt>
      <trkpt lat="43.27537" lon="5.79995">
        <ele>449.5</ele>
        <time>2021-10-27T11:33:27Z</time>
      </trkpt>
      <trkpt lat="43.27537" lon="5.80002">
        <ele>449.6</ele>
        <time>2021-10-27T11:33:32Z</time>
      </trkpt>
      <trkpt lat="43.27538" lon="5.80009">
        <ele>449.7</ele>
        <time>2021-10-27T11:33:37Z</time>
      </trkpt>
      <trkpt lat="43.27539" lon="5.80015">
        <ele>449.8</ele>
        <time>2021-10-27T11:33:42Z</time>
      </trkpt>
      <trkpt lat="43.27539" lon="5.80023">
        <ele>449.8</ele>
        <time>2021-10-27T11:33:47Z</time>
      </trkpt>
      <trkpt lat="43.27539" lon="5.8003">
        <ele>449.8</ele>
        <time>2021-10-27T11:33:52Z</time>
      </trkpt>
      <trkpt lat="43.27539" lon="5.80037">
        <ele>449.7</ele>
        <time>2021-10-27T11:33:57Z</time>
      </trkpt>
      <trkpt lat="43.27538" lon="5.80044">
        <ele>449.5</ele>
        <time>2021-10-27T11:34:01Z</time>
      </trkpt>
      <trkpt lat="43.27538" lon="5.80051">
        <ele>449.4</ele>
        <time>2021-10-27T11:34:06Z</time>
      </trkpt>
      <trkpt lat="43.27539" lon="5.80057">
        <ele>449.4</ele>
        <time>2021-10-27T11:34:11Z</time>
      </trkpt>
      <trkpt lat="43.27539" lon="5.80064">
        <ele>449.6</ele>
        <time>2021-10-27T11:34:16Z</time>
      </trkpt>
      <trkpt lat="43.27539" lon="5.80072">
        <ele>449.7</ele>
        <time>2021-10-27T11:34:21Z</time>
      </trkpt>
      <trkpt lat="43.2754" lon="5.80078">
        <ele>449.9</ele>
        <time>2021-10-27T11:34:25Z</time>
      </trkpt>
      <trkpt lat="43.27541" lon="5.80085">
        <ele>450</ele>
        <time>2021-10-27T11:34:30Z</time>
      </trkpt>
      <trkpt lat="43.27541" lon="5.80092">
        <ele>450</ele>
        <time>2021-10-27T11:34:34Z</time>
      </trkpt>
      <trkpt lat="43.27541" lon="5.80099">
        <ele>450</ele>
        <time>2021-10-27T11:34:39Z</time>
      </trkpt>
      <trkpt lat="43.27542" lon="5.80105">
        <ele>450</ele>
        <time>2021-10-27T11:34:43Z</time>
      </trkpt>
      <trkpt lat="43.27543" lon="5.80112">
        <ele>450</ele>
        <time>2021-10-27T11:34:47Z</time>
      </trkpt>
      <trkpt lat="43.27543" lon="5.80119">
        <ele>450</ele>
        <time>2021-10-27T11:34:51Z</time>
      </trkpt>
      <trkpt lat="43.27544" lon="5.80126">
        <ele>450</ele>
        <time>2021-10-27T11:34:56Z</time>
      </trkpt>
      <trkpt lat="43.27544" lon="5.80132">
        <ele>450</ele>
        <time>2021-10-27T11:35:01Z</time>
      </trkpt>
      <trkpt lat="43.27544" lon="5.80139">
        <ele>450</ele>
        <time>2021-10-27T11:35:06Z</time>
      </trkpt>
      <trkpt lat="43.27543" lon="5.80145">
        <ele>450.1</ele>
        <time>2021-10-27T11:35:11Z</time>
      </trkpt>
      <trkpt lat="43.27543" lon="5.80152">
        <ele>450.3</ele>
        <time>2021-10-27T11:35:15Z</time>
      </trkpt>
      <trkpt lat="43.27543" lon="5.80158">
        <ele>450.4</ele>
        <time>2021-10-27T11:35:19Z</time>
      </trkpt>
      <trkpt lat="43.27542" lon="5.80164">
        <ele>450.5</ele>
        <time>2021-10-27T11:35:25Z</time>
      </trkpt>
      <trkpt lat="43.27542" lon="5.80171">
        <ele>450.4</ele>
        <time>2021-10-27T11:35:31Z</time>
      </trkpt>
      <trkpt lat="43.27543" lon="5.80178">
        <ele>450.3</ele>
        <time>2021-10-27T11:35:35Z</time>
      </trkpt>
      <trkpt lat="43.27545" lon="5.80184">
        <ele>450.2</ele>
        <time>2021-10-27T11:35:42Z</time>
      </trkpt>
      <trkpt lat="43.27547" lon="5.80191">
        <ele>450.1</ele>
        <time>2021-10-27T11:35:48Z</time>
      </trkpt>
      <trkpt lat="43.2755" lon="5.80196">
        <ele>450</ele>
        <time>2021-10-27T11:35:52Z</time>
      </trkpt>
      <trkpt lat="43.27552" lon="5.80202">
        <ele>450.3</ele>
        <time>2021-10-27T11:35:58Z</time>
      </trkpt>
      <trkpt lat="43.27553" lon="5.8021">
        <ele>450.5</ele>
        <time>2021-10-27T11:36:04Z</time>
      </trkpt>
      <trkpt lat="43.27555" lon="5.80217">
        <ele>450.8</ele>
        <time>2021-10-27T11:36:09Z</time>
      </trkpt>
      <trkpt lat="43.27555" lon="5.80223">
        <ele>451</ele>
        <time>2021-10-27T11:36:13Z</time>
      </trkpt>
      <trkpt lat="43.27556" lon="5.8023">
        <ele>451</ele>
        <time>2021-10-27T11:36:19Z</time>
      </trkpt>
      <trkpt lat="43.27558" lon="5.80237">
        <ele>451.1</ele>
        <time>2021-10-27T11:36:24Z</time>
      </trkpt>
      <trkpt lat="43.2756" lon="5.80244">
        <ele>451.3</ele>
        <time>2021-10-27T11:36:29Z</time>
      </trkpt>
      <trkpt lat="43.27563" lon="5.80249">
        <ele>451.6</ele>
        <time>2021-10-27T11:36:34Z</time>
      </trkpt>
      <trkpt lat="43.27568" lon="5.80253">
        <ele>452</ele>
        <time>2021-10-27T11:36:39Z</time>
      </trkpt>
      <trkpt lat="43.27573" lon="5.80254">
        <ele>452.3</ele>
        <time>2021-10-27T11:36:44Z</time>
      </trkpt>
      <trkpt lat="43.27578" lon="5.80253">
        <ele>452.6</ele>
        <time>2021-10-27T11:36:50Z</time>
      </trkpt>
      <trkpt lat="43.27583" lon="5.80251">
        <ele>452.9</ele>
        <time>2021-10-27T11:36:55Z</time>
      </trkpt>
      <trkpt lat="43.27587" lon="5.80249">
        <ele>453</ele>
        <time>2021-10-27T11:36:59Z</time>
      </trkpt>
      <trkpt lat="43.27592" lon="5.80247">
        <ele>452.9</ele>
        <time>2021-10-27T11:37:05Z</time>
      </trkpt>
      <trkpt lat="43.27596" lon="5.80246">
        <ele>452.9</ele>
        <time>2021-10-27T11:37:09Z</time>
      </trkpt>
      <trkpt lat="43.27601" lon="5.80243">
        <ele>452.9</ele>
        <time>2021-10-27T11:37:15Z</time>
      </trkpt>
      <trkpt lat="43.27605" lon="5.80241">
        <ele>452.9</ele>
        <time>2021-10-27T11:37:20Z</time>
      </trkpt>
      <trkpt lat="43.2761" lon="5.8024">
        <ele>453</ele>
        <time>2021-10-27T11:37:25Z</time>
      </trkpt>
      <trkpt lat="43.27614" lon="5.80238">
        <ele>453</ele>
        <time>2021-10-27T11:37:31Z</time>
      </trkpt>
      <trkpt lat="43.2762" lon="5.80237">
        <ele>453</ele>
        <time>2021-10-27T11:37:38Z</time>
      </trkpt>
      <trkpt lat="43.27625" lon="5.80235">
        <ele>453</ele>
        <time>2021-10-27T11:37:43Z</time>
      </trkpt>
      <trkpt lat="43.2763" lon="5.80232">
        <ele>453</ele>
        <time>2021-10-27T11:37:48Z</time>
      </trkpt>
      <trkpt lat="43.27635" lon="5.8023">
        <ele>453</ele>
        <time>2021-10-27T11:37:53Z</time>
      </trkpt>
      <trkpt lat="43.2764" lon="5.80228">
        <ele>453</ele>
        <time>2021-10-27T11:37:57Z</time>
      </trkpt>
      <trkpt lat="43.27645" lon="5.80226">
        <ele>452.8</ele>
        <time>2021-10-27T11:38:02Z</time>
      </trkpt>
      <trkpt lat="43.27649" lon="5.80224">
        <ele>452.6</ele>
        <time>2021-10-27T11:38:08Z</time>
      </trkpt>
      <trkpt lat="43.27654" lon="5.80223">
        <ele>452.4</ele>
        <time>2021-10-27T11:38:14Z</time>
      </trkpt>
      <trkpt lat="43.27659" lon="5.80222">
        <ele>452.3</ele>
        <time>2021-10-27T11:38:19Z</time>
      </trkpt>
      <trkpt lat="43.27664" lon="5.80219">
        <ele>452</ele>
        <time>2021-10-27T11:38:23Z</time>
      </trkpt>
      <trkpt lat="43.27669" lon="5.80217">
        <ele>451.8</ele>
        <time>2021-10-27T11:38:27Z</time>
      </trkpt>
      <trkpt lat="43.27674" lon="5.80217">
        <ele>451.8</ele>
        <time>2021-10-27T11:38:34Z</time>
      </trkpt>
      <trkpt lat="43.27679" lon="5.80217">
        <ele>451.8</ele>
        <time>2021-10-27T11:38:40Z</time>
      </trkpt>
      <trkpt lat="43.27683" lon="5.80219">
        <ele>451.9</ele>
        <time>2021-10-27T11:38:49Z</time>
      </trkpt>
      <trkpt lat="43.27687" lon="5.80224">
        <ele>452</ele>
        <time>2021-10-27T11:38:53Z</time>
      </trkpt>
      <trkpt lat="43.27691" lon="5.80227">
        <ele>451.8</ele>
        <time>2021-10-27T11:38:59Z</time>
      </trkpt>
      <trkpt lat="43.27696" lon="5.80228">
        <ele>451.7</ele>
        <time>2021-10-27T11:39:32Z</time>
      </trkpt>
      <trkpt lat="43.27701" lon="5.80228">
        <ele>451.3</ele>
        <time>2021-10-27T11:39:38Z</time>
      </trkpt>
      <trkpt lat="43.27705" lon="5.80228">
        <ele>451</ele>
        <time>2021-10-27T11:39:44Z</time>
      </trkpt>
      <trkpt lat="43.2771" lon="5.80227">
        <ele>450.7</ele>
        <time>2021-10-27T11:39:51Z</time>
      </trkpt>
      <trkpt lat="43.27715" lon="5.80226">
        <ele>450.4</ele>
        <time>2021-10-27T11:39:57Z</time>
      </trkpt>
      <trkpt lat="43.2772" lon="5.80224">
        <ele>450.1</ele>
        <time>2021-10-27T11:40:02Z</time>
      </trkpt>
      <trkpt lat="43.27723" lon="5.8022">
        <ele>449.8</ele>
        <time>2021-10-27T11:40:08Z</time>
      </trkpt>
      <trkpt lat="43.27727" lon="5.80216">
        <ele>449.4</ele>
        <time>2021-10-27T11:40:12Z</time>
      </trkpt>
      <trkpt lat="43.27731" lon="5.80212">
        <ele>449</ele>
        <time>2021-10-27T11:40:15Z</time>
      </trkpt>
      <trkpt lat="43.27734" lon="5.80207">
        <ele>448.8</ele>
        <time>2021-10-27T11:40:19Z</time>
      </trkpt>
      <trkpt lat="43.27737" lon="5.80202">
        <ele>448.7</ele>
        <time>2021-10-27T11:40:24Z</time>
      </trkpt>
      <trkpt lat="43.2774" lon="5.80197">
        <ele>448.6</ele>
        <time>2021-10-27T11:40:29Z</time>
      </trkpt>
      <trkpt lat="43.27743" lon="5.80191">
        <ele>448.6</ele>
        <time>2021-10-27T11:40:34Z</time>
      </trkpt>
      <trkpt lat="43.27746" lon="5.80186">
        <ele>448.6</ele>
        <time>2021-10-27T11:40:39Z</time>
      </trkpt>
      <trkpt lat="43.27749" lon="5.80181">
        <ele>448.6</ele>
        <time>2021-10-27T11:40:44Z</time>
      </trkpt>
      <trkpt lat="43.27752" lon="5.80176">
        <ele>448.2</ele>
        <time>2021-10-27T11:40:48Z</time>
      </trkpt>
      <trkpt lat="43.27756" lon="5.80172">
        <ele>447.7</ele>
        <time>2021-10-27T11:40:53Z</time>
      </trkpt>
      <trkpt lat="43.2776" lon="5.80167">
        <ele>446.8</ele>
        <time>2021-10-27T11:40:58Z</time>
      </trkpt>
      <trkpt lat="43.27765" lon="5.80163">
        <ele>445.9</ele>
        <time>2021-10-27T11:41:03Z</time>
      </trkpt>
      <trkpt lat="43.27769" lon="5.80159">
        <ele>445.1</ele>
        <time>2021-10-27T11:41:07Z</time>
      </trkpt>
      <trkpt lat="43.27771" lon="5.80152">
        <ele>444.5</ele>
        <time>2021-10-27T11:41:15Z</time>
      </trkpt>
      <trkpt lat="43.27772" lon="5.80146">
        <ele>444.3</ele>
        <time>2021-10-27T11:41:20Z</time>
      </trkpt>
      <trkpt lat="43.27774" lon="5.80139">
        <ele>444.1</ele>
        <time>2021-10-27T11:41:25Z</time>
      </trkpt>
      <trkpt lat="43.27775" lon="5.80133">
        <ele>443.8</ele>
        <time>2021-10-27T11:41:30Z</time>
      </trkpt>
      <trkpt lat="43.27775" lon="5.80126">
        <ele>443.6</ele>
        <time>2021-10-27T11:41:35Z</time>
      </trkpt>
      <trkpt lat="43.27776" lon="5.80118">
        <ele>443.3</ele>
        <time>2021-10-27T11:41:41Z</time>
      </trkpt>
      <trkpt lat="43.27779" lon="5.80111">
        <ele>443</ele>
        <time>2021-10-27T11:41:45Z</time>
      </trkpt>
      <trkpt lat="43.27782" lon="5.80106">
        <ele>443.9</ele>
        <time>2021-10-27T11:41:50Z</time>
      </trkpt>
      <trkpt lat="43.27786" lon="5.80102">
        <ele>444</ele>
        <time>2021-10-27T11:41:56Z</time>
      </trkpt>
      <trkpt lat="43.2779" lon="5.80098">
        <ele>443.7</ele>
        <time>2021-10-27T11:42:01Z</time>
      </trkpt>
      <trkpt lat="43.27794" lon="5.80095">
        <ele>443</ele>
        <time>2021-10-27T11:42:07Z</time>
      </trkpt>
      <trkpt lat="43.27798" lon="5.80089">
        <ele>442</ele>
        <time>2021-10-27T11:42:12Z</time>
      </trkpt>
      <trkpt lat="43.27801" lon="5.80083">
        <ele>440.6</ele>
        <time>2021-10-27T11:42:17Z</time>
      </trkpt>
      <trkpt lat="43.27803" lon="5.80077">
        <ele>440.6</ele>
        <time>2021-10-27T11:42:25Z</time>
      </trkpt>
      <trkpt lat="43.27805" lon="5.80071">
        <ele>440.9</ele>
        <time>2021-10-27T11:42:31Z</time>
      </trkpt>
      <trkpt lat="43.27807" lon="5.80066">
        <ele>441.6</ele>
        <time>2021-10-27T11:42:36Z</time>
      </trkpt>
      <trkpt lat="43.27811" lon="5.80062">
        <ele>442.1</ele>
        <time>2021-10-27T11:42:41Z</time>
      </trkpt>
      <trkpt lat="43.27814" lon="5.80057">
        <ele>442.3</ele>
        <time>2021-10-27T11:42:46Z</time>
      </trkpt>
      <trkpt lat="43.27817" lon="5.80052">
        <ele>442.2</ele>
        <time>2021-10-27T11:42:51Z</time>
      </trkpt>
      <trkpt lat="43.27819" lon="5.80047">
        <ele>441.7</ele>
        <time>2021-10-27T11:42:56Z</time>
      </trkpt>
      <trkpt lat="43.27821" lon="5.8004">
        <ele>441</ele>
        <time>2021-10-27T11:43:01Z</time>
      </trkpt>
      <trkpt lat="43.27824" lon="5.80034">
        <ele>439.9</ele>
        <time>2021-10-27T11:43:07Z</time>
      </trkpt>
      <trkpt lat="43.27828" lon="5.80031">
        <ele>438.3</ele>
        <time>2021-10-27T11:43:13Z</time>
      </trkpt>
      <trkpt lat="43.27831" lon="5.80025">
        <ele>437</ele>
        <time>2021-10-27T11:43:18Z</time>
      </trkpt>
      <trkpt lat="43.27833" lon="5.8002">
        <ele>436.3</ele>
        <time>2021-10-27T11:43:23Z</time>
      </trkpt>
      <trkpt lat="43.27836" lon="5.80014">
        <ele>437</ele>
        <time>2021-10-27T11:43:27Z</time>
      </trkpt>
      <trkpt lat="43.2784" lon="5.80009">
        <ele>437.6</ele>
        <time>2021-10-27T11:43:31Z</time>
      </trkpt>
      <trkpt lat="43.27843" lon="5.80003">
        <ele>438</ele>
        <time>2021-10-27T11:43:38Z</time>
      </trkpt>
      <trkpt lat="43.27845" lon="5.79997">
        <ele>438.3</ele>
        <time>2021-10-27T11:43:43Z</time>
      </trkpt>
      <trkpt lat="43.27847" lon="5.7999">
        <ele>438.5</ele>
        <time>2021-10-27T11:43:48Z</time>
      </trkpt>
      <trkpt lat="43.27848" lon="5.79984">
        <ele>438.5</ele>
        <time>2021-10-27T11:43:53Z</time>
      </trkpt>
      <trkpt lat="43.27847" lon="5.79976">
        <ele>438.5</ele>
        <time>2021-10-27T11:44:00Z</time>
      </trkpt>
      <trkpt lat="43.27848" lon="5.79969">
        <ele>438.4</ele>
        <time>2021-10-27T11:44:06Z</time>
      </trkpt>
      <trkpt lat="43.27849" lon="5.79962">
        <ele>437.9</ele>
        <time>2021-10-27T11:44:11Z</time>
      </trkpt>
      <trkpt lat="43.27851" lon="5.79956">
        <ele>437.4</ele>
        <time>2021-10-27T11:44:16Z</time>
      </trkpt>
      <trkpt lat="43.27854" lon="5.79949">
        <ele>436.3</ele>
        <time>2021-10-27T11:44:21Z</time>
      </trkpt>
      <trkpt lat="43.27857" lon="5.79945">
        <ele>435.1</ele>
        <time>2021-10-27T11:44:26Z</time>
      </trkpt>
      <trkpt lat="43.2786" lon="5.79938">
        <ele>434.6</ele>
        <time>2021-10-27T11:44:31Z</time>
      </trkpt>
      <trkpt lat="43.27863" lon="5.79933">
        <ele>434.3</ele>
        <time>2021-10-27T11:44:36Z</time>
      </trkpt>
      <trkpt lat="43.27867" lon="5.79929">
        <ele>434</ele>
        <time>2021-10-27T11:44:40Z</time>
      </trkpt>
      <trkpt lat="43.27871" lon="5.79925">
        <ele>433.4</ele>
        <time>2021-10-27T11:44:45Z</time>
      </trkpt>
      <trkpt lat="43.27875" lon="5.79921">
        <ele>432.4</ele>
        <time>2021-10-27T11:44:50Z</time>
      </trkpt>
      <trkpt lat="43.2788" lon="5.79918">
        <ele>431.1</ele>
        <time>2021-10-27T11:44:56Z</time>
      </trkpt>
      <trkpt lat="43.27884" lon="5.79915">
        <ele>430.4</ele>
        <time>2021-10-27T11:45:03Z</time>
      </trkpt>
      <trkpt lat="43.27889" lon="5.79913">
        <ele>429.7</ele>
        <time>2021-10-27T11:45:09Z</time>
      </trkpt>
      <trkpt lat="43.27894" lon="5.79911">
        <ele>429.8</ele>
        <time>2021-10-27T11:45:15Z</time>
      </trkpt>
      <trkpt lat="43.27898" lon="5.79912">
        <ele>429.5</ele>
        <time>2021-10-27T11:45:27Z</time>
      </trkpt>
      <trkpt lat="43.27903" lon="5.79913">
        <ele>429.3</ele>
        <time>2021-10-27T11:45:34Z</time>
      </trkpt>
      <trkpt lat="43.27908" lon="5.79912">
        <ele>429.2</ele>
        <time>2021-10-27T11:45:41Z</time>
      </trkpt>
      <trkpt lat="43.27912" lon="5.79911">
        <ele>429</ele>
        <time>2021-10-27T11:45:46Z</time>
      </trkpt>
      <trkpt lat="43.27917" lon="5.79909">
        <ele>428.7</ele>
        <time>2021-10-27T11:45:50Z</time>
      </trkpt>
      <trkpt lat="43.27922" lon="5.79909">
        <ele>428.2</ele>
        <time>2021-10-27T11:45:56Z</time>
      </trkpt>
      <trkpt lat="43.27926" lon="5.7991">
        <ele>427.8</ele>
        <time>2021-10-27T11:46:01Z</time>
      </trkpt>
      <trkpt lat="43.27931" lon="5.79912">
        <ele>427.3</ele>
        <time>2021-10-27T11:46:05Z</time>
      </trkpt>
      <trkpt lat="43.27935" lon="5.79915">
        <ele>427</ele>
        <time>2021-10-27T11:46:10Z</time>
      </trkpt>
      <trkpt lat="43.27938" lon="5.7992">
        <ele>427.4</ele>
        <time>2021-10-27T11:46:15Z</time>
      </trkpt>
      <trkpt lat="43.27942" lon="5.79924">
        <ele>428.1</ele>
        <time>2021-10-27T11:46:18Z</time>
      </trkpt>
      <trkpt lat="43.27946" lon="5.79929">
        <ele>428.6</ele>
        <time>2021-10-27T11:46:22Z</time>
      </trkpt>
      <trkpt lat="43.2795" lon="5.79933">
        <ele>428.8</ele>
        <time>2021-10-27T11:46:27Z</time>
      </trkpt>
      <trkpt lat="43.27954" lon="5.79938">
        <ele>429.1</ele>
        <time>2021-10-27T11:46:32Z</time>
      </trkpt>
      <trkpt lat="43.27957" lon="5.79943">
        <ele>429</ele>
        <time>2021-10-27T11:46:38Z</time>
      </trkpt>
      <trkpt lat="43.2796" lon="5.79948">
        <ele>429.1</ele>
        <time>2021-10-27T11:46:44Z</time>
      </trkpt>
      <trkpt lat="43.27963" lon="5.79954">
        <ele>429.1</ele>
        <time>2021-10-27T11:46:53Z</time>
      </trkpt>
      <trkpt lat="43.27967" lon="5.7996">
        <ele>428.5</ele>
        <time>2021-10-27T11:46:57Z</time>
      </trkpt>
      <trkpt lat="43.27971" lon="5.79965">
        <ele>427.8</ele>
        <time>2021-10-27T11:47:01Z</time>
      </trkpt>
      <trkpt lat="43.27975" lon="5.7997">
        <ele>427.7</ele>
        <time>2021-10-27T11:47:05Z</time>
      </trkpt>
      <trkpt lat="43.27979" lon="5.79975">
        <ele>428.2</ele>
        <time>2021-10-27T11:47:11Z</time>
      </trkpt>
      <trkpt lat="43.27983" lon="5.79978">
        <ele>428.7</ele>
        <time>2021-10-27T11:47:17Z</time>
      </trkpt>
      <trkpt lat="43.27987" lon="5.79982">
        <ele>429.2</ele>
        <time>2021-10-27T11:47:23Z</time>
      </trkpt>
      <trkpt lat="43.27991" lon="5.79986">
        <ele>429.6</ele>
        <time>2021-10-27T11:47:27Z</time>
      </trkpt>
      <trkpt lat="43.27995" lon="5.79989">
        <ele>429.8</ele>
        <time>2021-10-27T11:47:33Z</time>
      </trkpt>
      <trkpt lat="43.27999" lon="5.79992">
        <ele>429.8</ele>
        <time>2021-10-27T11:47:40Z</time>
      </trkpt>
      <trkpt lat="43.28004" lon="5.79994">
        <ele>429.7</ele>
        <time>2021-10-27T11:47:46Z</time>
      </trkpt>
      <trkpt lat="43.2801" lon="5.79996">
        <ele>429.7</ele>
        <time>2021-10-27T11:47:49Z</time>
      </trkpt>
      <trkpt lat="43.28015" lon="5.79996">
        <ele>429.4</ele>
        <time>2021-10-27T11:47:57Z</time>
      </trkpt>
      <trkpt lat="43.2802" lon="5.79996">
        <ele>429.2</ele>
        <time>2021-10-27T11:48:04Z</time>
      </trkpt>
      <trkpt lat="43.28024" lon="5.79999">
        <ele>429.2</ele>
        <time>2021-10-27T11:48:10Z</time>
      </trkpt>
      <trkpt lat="43.28028" lon="5.80003">
        <ele>429.8</ele>
        <time>2021-10-27T11:48:15Z</time>
      </trkpt>
      <trkpt lat="43.28032" lon="5.80006">
        <ele>430.6</ele>
        <time>2021-10-27T11:48:20Z</time>
      </trkpt>
      <trkpt lat="43.28036" lon="5.8001">
        <ele>431.2</ele>
        <time>2021-10-27T11:48:25Z</time>
      </trkpt>
      <trkpt lat="43.28041" lon="5.8001">
        <ele>431</ele>
        <time>2021-10-27T11:48:37Z</time>
      </trkpt>
      <trkpt lat="43.28045" lon="5.80014">
        <ele>431.5</ele>
        <time>2021-10-27T11:48:45Z</time>
      </trkpt>
      <trkpt lat="43.28049" lon="5.80016">
        <ele>431.4</ele>
        <time>2021-10-27T11:48:50Z</time>
      </trkpt>
      <trkpt lat="43.28055" lon="5.80017">
        <ele>431.2</ele>
        <time>2021-10-27T11:48:55Z</time>
      </trkpt>
      <trkpt lat="43.2806" lon="5.80017">
        <ele>430.8</ele>
        <time>2021-10-27T11:49:00Z</time>
      </trkpt>
      <trkpt lat="43.28064" lon="5.80019">
        <ele>430.9</ele>
        <time>2021-10-27T11:49:06Z</time>
      </trkpt>
      <trkpt lat="43.28069" lon="5.80021">
        <ele>430.7</ele>
        <time>2021-10-27T11:49:10Z</time>
      </trkpt>
      <trkpt lat="43.28075" lon="5.80022">
        <ele>430.5</ele>
        <time>2021-10-27T11:49:14Z</time>
      </trkpt>
      <trkpt lat="43.28079" lon="5.80024">
        <ele>430.3</ele>
        <time>2021-10-27T11:49:18Z</time>
      </trkpt>
      <trkpt lat="43.28084" lon="5.80027">
        <ele>429.9</ele>
        <time>2021-10-27T11:49:22Z</time>
      </trkpt>
      <trkpt lat="43.28087" lon="5.80031">
        <ele>430.7</ele>
        <time>2021-10-27T11:49:27Z</time>
      </trkpt>
      <trkpt lat="43.2809" lon="5.80037">
        <ele>431.7</ele>
        <time>2021-10-27T11:49:32Z</time>
      </trkpt>
      <trkpt lat="43.28093" lon="5.80043">
        <ele>432.5</ele>
        <time>2021-10-27T11:49:37Z</time>
      </trkpt>
      <trkpt lat="43.28095" lon="5.80049">
        <ele>432.9</ele>
        <time>2021-10-27T11:49:42Z</time>
      </trkpt>
      <trkpt lat="43.28097" lon="5.80054">
        <ele>433.3</ele>
        <time>2021-10-27T11:49:47Z</time>
      </trkpt>
      <trkpt lat="43.28101" lon="5.80059">
        <ele>433.4</ele>
        <time>2021-10-27T11:49:52Z</time>
      </trkpt>
      <trkpt lat="43.28105" lon="5.80062">
        <ele>433.2</ele>
        <time>2021-10-27T11:49:57Z</time>
      </trkpt>
      <trkpt lat="43.28109" lon="5.80066">
        <ele>433.2</ele>
        <time>2021-10-27T11:50:02Z</time>
      </trkpt>
      <trkpt lat="43.28113" lon="5.80071">
        <ele>433.7</ele>
        <time>2021-10-27T11:50:07Z</time>
      </trkpt>
      <trkpt lat="43.28118" lon="5.80075">
        <ele>434.4</ele>
        <time>2021-10-27T11:50:13Z</time>
      </trkpt>
      <trkpt lat="43.28122" lon="5.80078">
        <ele>434.7</ele>
        <time>2021-10-27T11:50:18Z</time>
      </trkpt>
      <trkpt lat="43.28127" lon="5.80081">
        <ele>435</ele>
        <time>2021-10-27T11:50:23Z</time>
      </trkpt>
      <trkpt lat="43.28131" lon="5.80083">
        <ele>434.8</ele>
        <time>2021-10-27T11:50:27Z</time>
      </trkpt>
      <trkpt lat="43.28136" lon="5.80085">
        <ele>434.8</ele>
        <time>2021-10-27T11:50:31Z</time>
      </trkpt>
      <trkpt lat="43.2814" lon="5.80085">
        <ele>434.7</ele>
        <time>2021-10-27T11:50:36Z</time>
      </trkpt>
      <trkpt lat="43.28145" lon="5.80087">
        <ele>435.1</ele>
        <time>2021-10-27T11:50:41Z</time>
      </trkpt>
      <trkpt lat="43.28151" lon="5.80087">
        <ele>435.2</ele>
        <time>2021-10-27T11:50:46Z</time>
      </trkpt>
      <trkpt lat="43.28156" lon="5.80088">
        <ele>435.4</ele>
        <time>2021-10-27T11:50:50Z</time>
      </trkpt>
      <trkpt lat="43.28162" lon="5.80088">
        <ele>435.5</ele>
        <time>2021-10-27T11:50:54Z</time>
      </trkpt>
      <trkpt lat="43.28166" lon="5.80088">
        <ele>435.4</ele>
        <time>2021-10-27T11:50:59Z</time>
      </trkpt>
      <trkpt lat="43.28171" lon="5.80088">
        <ele>436</ele>
        <time>2021-10-27T11:51:06Z</time>
      </trkpt>
      <trkpt lat="43.28177" lon="5.80087">
        <ele>436.4</ele>
        <time>2021-10-27T11:51:11Z</time>
      </trkpt>
      <trkpt lat="43.28183" lon="5.80085">
        <ele>436.4</ele>
        <time>2021-10-27T11:51:14Z</time>
      </trkpt>
      <trkpt lat="43.28187" lon="5.80084">
        <ele>436.5</ele>
        <time>2021-10-27T11:51:17Z</time>
      </trkpt>
      <trkpt lat="43.28193" lon="5.80083">
        <ele>436.7</ele>
        <time>2021-10-27T11:51:21Z</time>
      </trkpt>
      <trkpt lat="43.28197" lon="5.80082">
        <ele>436.7</ele>
        <time>2021-10-27T11:51:25Z</time>
      </trkpt>
      <trkpt lat="43.28202" lon="5.80082">
        <ele>436.5</ele>
        <time>2021-10-27T11:51:30Z</time>
      </trkpt>
      <trkpt lat="43.28207" lon="5.80083">
        <ele>436.5</ele>
        <time>2021-10-27T11:51:35Z</time>
      </trkpt>
      <trkpt lat="43.28212" lon="5.80084">
        <ele>436.4</ele>
        <time>2021-10-27T11:51:39Z</time>
      </trkpt>
      <trkpt lat="43.28217" lon="5.80084">
        <ele>436.4</ele>
        <time>2021-10-27T11:51:43Z</time>
      </trkpt>
      <trkpt lat="43.28222" lon="5.80083">
        <ele>435.9</ele>
        <time>2021-10-27T11:51:47Z</time>
      </trkpt>
      <trkpt lat="43.28226" lon="5.80083">
        <ele>435.9</ele>
        <time>2021-10-27T11:51:51Z</time>
      </trkpt>
      <trkpt lat="43.28232" lon="5.80083">
        <ele>435.9</ele>
        <time>2021-10-27T11:51:56Z</time>
      </trkpt>
      <trkpt lat="43.28237" lon="5.80084">
        <ele>436.1</ele>
        <time>2021-10-27T11:52:01Z</time>
      </trkpt>
      <trkpt lat="43.28242" lon="5.80083">
        <ele>435.9</ele>
        <time>2021-10-27T11:52:06Z</time>
      </trkpt>
      <trkpt lat="43.28247" lon="5.80082">
        <ele>435.8</ele>
        <time>2021-10-27T11:52:13Z</time>
      </trkpt>
      <trkpt lat="43.28252" lon="5.80081">
        <ele>435.9</ele>
        <time>2021-10-27T11:52:18Z</time>
      </trkpt>
      <trkpt lat="43.28257" lon="5.8008">
        <ele>435.9</ele>
        <time>2021-10-27T11:52:23Z</time>
      </trkpt>
      <trkpt lat="43.28263" lon="5.80081">
        <ele>436.2</ele>
        <time>2021-10-27T11:52:29Z</time>
      </trkpt>
      <trkpt lat="43.28267" lon="5.8008">
        <ele>436.3</ele>
        <time>2021-10-27T11:52:32Z</time>
      </trkpt>
      <trkpt lat="43.28273" lon="5.8008">
        <ele>436.4</ele>
        <time>2021-10-27T11:52:37Z</time>
      </trkpt>
      <trkpt lat="43.28278" lon="5.80078">
        <ele>436.4</ele>
        <time>2021-10-27T11:52:42Z</time>
      </trkpt>
      <trkpt lat="43.28283" lon="5.80078">
        <ele>436.4</ele>
        <time>2021-10-27T11:52:46Z</time>
      </trkpt>
      <trkpt lat="43.28288" lon="5.8008">
        <ele>436.5</ele>
        <time>2021-10-27T11:52:52Z</time>
      </trkpt>
      <trkpt lat="43.28292" lon="5.80082">
        <ele>436.5</ele>
        <time>2021-10-27T11:52:57Z</time>
      </trkpt>
      <trkpt lat="43.28297" lon="5.80085">
        <ele>436.5</ele>
        <time>2021-10-27T11:53:03Z</time>
      </trkpt>
      <trkpt lat="43.28301" lon="5.80088">
        <ele>436.8</ele>
        <time>2021-10-27T11:53:09Z</time>
      </trkpt>
      <trkpt lat="43.28306" lon="5.80091">
        <ele>436.8</ele>
        <time>2021-10-27T11:53:16Z</time>
      </trkpt>
      <trkpt lat="43.28309" lon="5.80095">
        <ele>437.2</ele>
        <time>2021-10-27T11:53:22Z</time>
      </trkpt>
      <trkpt lat="43.28313" lon="5.801">
        <ele>437.6</ele>
        <time>2021-10-27T11:53:27Z</time>
      </trkpt>
      <trkpt lat="43.28317" lon="5.80103">
        <ele>437.8</ele>
        <time>2021-10-27T11:53:31Z</time>
      </trkpt>
      <trkpt lat="43.28322" lon="5.80107">
        <ele>438</ele>
        <time>2021-10-27T11:53:36Z</time>
      </trkpt>
      <trkpt lat="43.28326" lon="5.80109">
        <ele>438.1</ele>
        <time>2021-10-27T11:53:40Z</time>
      </trkpt>
      <trkpt lat="43.28331" lon="5.8011">
        <ele>438</ele>
        <time>2021-10-27T11:53:46Z</time>
      </trkpt>
      <trkpt lat="43.28335" lon="5.80112">
        <ele>438.1</ele>
        <time>2021-10-27T11:53:49Z</time>
      </trkpt>
      <trkpt lat="43.2834" lon="5.80114">
        <ele>438.5</ele>
        <time>2021-10-27T11:53:56Z</time>
      </trkpt>
      <trkpt lat="43.28346" lon="5.80116">
        <ele>438.7</ele>
        <time>2021-10-27T11:54:01Z</time>
      </trkpt>
      <trkpt lat="43.2835" lon="5.80119">
        <ele>439.1</ele>
        <time>2021-10-27T11:54:05Z</time>
      </trkpt>
      <trkpt lat="43.28355" lon="5.80121">
        <ele>439.4</ele>
        <time>2021-10-27T11:54:09Z</time>
      </trkpt>
      <trkpt lat="43.28359" lon="5.80123">
        <ele>439.6</ele>
        <time>2021-10-27T11:54:14Z</time>
      </trkpt>
      <trkpt lat="43.28364" lon="5.80126">
        <ele>440</ele>
        <time>2021-10-27T11:54:19Z</time>
      </trkpt>
      <trkpt lat="43.28368" lon="5.80129">
        <ele>440.3</ele>
        <time>2021-10-27T11:54:23Z</time>
      </trkpt>
      <trkpt lat="43.28373" lon="5.80131">
        <ele>440.2</ele>
        <time>2021-10-27T11:54:28Z</time>
      </trkpt>
      <trkpt lat="43.28378" lon="5.80133">
        <ele>440</ele>
        <time>2021-10-27T11:54:33Z</time>
      </trkpt>
      <trkpt lat="43.28383" lon="5.80136">
        <ele>439.7</ele>
        <time>2021-10-27T11:54:38Z</time>
      </trkpt>
      <trkpt lat="43.28386" lon="5.80142">
        <ele>440</ele>
        <time>2021-10-27T11:54:44Z</time>
      </trkpt>
      <trkpt lat="43.28391" lon="5.80146">
        <ele>440.5</ele>
        <time>2021-10-27T11:54:48Z</time>
      </trkpt>
      <trkpt lat="43.28396" lon="5.8015">
        <ele>441.1</ele>
        <time>2021-10-27T11:54:52Z</time>
      </trkpt>
      <trkpt lat="43.284" lon="5.80152">
        <ele>441.3</ele>
        <time>2021-10-27T11:55:00Z</time>
      </trkpt>
      <trkpt lat="43.28405" lon="5.80155">
        <ele>441.4</ele>
        <time>2021-10-27T11:55:06Z</time>
      </trkpt>
      <trkpt lat="43.28409" lon="5.80158">
        <ele>441.3</ele>
        <time>2021-10-27T11:55:10Z</time>
      </trkpt>
      <trkpt lat="43.28413" lon="5.80163">
        <ele>441.3</ele>
        <time>2021-10-27T11:55:15Z</time>
      </trkpt>
      <trkpt lat="43.28418" lon="5.80168">
        <ele>441.3</ele>
        <time>2021-10-27T11:55:20Z</time>
      </trkpt>
      <trkpt lat="43.28422" lon="5.80172">
        <ele>442.3</ele>
        <time>2021-10-27T11:55:25Z</time>
      </trkpt>
      <trkpt lat="43.28426" lon="5.80175">
        <ele>442.9</ele>
        <time>2021-10-27T11:55:30Z</time>
      </trkpt>
      <trkpt lat="43.2843" lon="5.80179">
        <ele>443.4</ele>
        <time>2021-10-27T11:55:34Z</time>
      </trkpt>
      <trkpt lat="43.28432" lon="5.80186">
        <ele>443.9</ele>
        <time>2021-10-27T11:55:39Z</time>
      </trkpt>
      <trkpt lat="43.28437" lon="5.80189">
        <ele>443.8</ele>
        <time>2021-10-27T11:55:43Z</time>
      </trkpt>
      <trkpt lat="43.2844" lon="5.80194">
        <ele>443.6</ele>
        <time>2021-10-27T11:55:49Z</time>
      </trkpt>
      <trkpt lat="43.28444" lon="5.80199">
        <ele>443.8</ele>
        <time>2021-10-27T11:55:54Z</time>
      </trkpt>
      <trkpt lat="43.28449" lon="5.80202">
        <ele>444.4</ele>
        <time>2021-10-27T11:55:59Z</time>
      </trkpt>
      <trkpt lat="43.28453" lon="5.80206">
        <ele>445</ele>
        <time>2021-10-27T11:56:04Z</time>
      </trkpt>
      <trkpt lat="43.28455" lon="5.80211">
        <ele>445.6</ele>
        <time>2021-10-27T11:56:09Z</time>
      </trkpt>
      <trkpt lat="43.28459" lon="5.80215">
        <ele>445.9</ele>
        <time>2021-10-27T11:56:16Z</time>
      </trkpt>
      <trkpt lat="43.28462" lon="5.8022">
        <ele>445.9</ele>
        <time>2021-10-27T11:56:21Z</time>
      </trkpt>
      <trkpt lat="43.28466" lon="5.80224">
        <ele>446.1</ele>
        <time>2021-10-27T11:56:26Z</time>
      </trkpt>
      <trkpt lat="43.28467" lon="5.80231">
        <ele>447.5</ele>
        <time>2021-10-27T11:56:31Z</time>
      </trkpt>
      <trkpt lat="43.28471" lon="5.80235">
        <ele>448</ele>
        <time>2021-10-27T11:56:37Z</time>
      </trkpt>
      <trkpt lat="43.28476" lon="5.80238">
        <ele>448.3</ele>
        <time>2021-10-27T11:56:42Z</time>
      </trkpt>
      <trkpt lat="43.2848" lon="5.80242">
        <ele>448.6</ele>
        <time>2021-10-27T11:56:47Z</time>
      </trkpt>
      <trkpt lat="43.28484" lon="5.80246">
        <ele>448.8</ele>
        <time>2021-10-27T11:56:54Z</time>
      </trkpt>
      <trkpt lat="43.28488" lon="5.80249">
        <ele>448.6</ele>
        <time>2021-10-27T11:56:59Z</time>
      </trkpt>
      <trkpt lat="43.28493" lon="5.80252">
        <ele>448.6</ele>
        <time>2021-10-27T11:57:05Z</time>
      </trkpt>
      <trkpt lat="43.28498" lon="5.80252">
        <ele>447.9</ele>
        <time>2021-10-27T11:57:10Z</time>
      </trkpt>
      <trkpt lat="43.28503" lon="5.80255">
        <ele>448.3</ele>
        <time>2021-10-27T11:57:15Z</time>
      </trkpt>
      <trkpt lat="43.28507" lon="5.80258">
        <ele>449</ele>
        <time>2021-10-27T11:57:19Z</time>
      </trkpt>
      <trkpt lat="43.28512" lon="5.80261">
        <ele>449.5</ele>
        <time>2021-10-27T11:57:24Z</time>
      </trkpt>
      <trkpt lat="43.28516" lon="5.80265">
        <ele>449.7</ele>
        <time>2021-10-27T11:57:29Z</time>
      </trkpt>
      <trkpt lat="43.28518" lon="5.8027">
        <ele>450.1</ele>
        <time>2021-10-27T11:57:34Z</time>
      </trkpt>
      <trkpt lat="43.28521" lon="5.80275">
        <ele>450.1</ele>
        <time>2021-10-27T11:57:39Z</time>
      </trkpt>
      <trkpt lat="43.28525" lon="5.8028">
        <ele>449.9</ele>
        <time>2021-10-27T11:57:45Z</time>
      </trkpt>
      <trkpt lat="43.28528" lon="5.80285">
        <ele>450.3</ele>
        <time>2021-10-27T11:57:51Z</time>
      </trkpt>
      <trkpt lat="43.2853" lon="5.80291">
        <ele>451.4</ele>
        <time>2021-10-27T11:57:56Z</time>
      </trkpt>
      <trkpt lat="43.28534" lon="5.80296">
        <ele>452.2</ele>
        <time>2021-10-27T11:58:01Z</time>
      </trkpt>
      <trkpt lat="43.28539" lon="5.80299">
        <ele>452.4</ele>
        <time>2021-10-27T11:58:05Z</time>
      </trkpt>
      <trkpt lat="43.28544" lon="5.80301">
        <ele>452.4</ele>
        <time>2021-10-27T11:58:12Z</time>
      </trkpt>
      <trkpt lat="43.28548" lon="5.80304">
        <ele>452.4</ele>
        <time>2021-10-27T11:58:18Z</time>
      </trkpt>
      <trkpt lat="43.28552" lon="5.80308">
        <ele>452.6</ele>
        <time>2021-10-27T11:58:24Z</time>
      </trkpt>
      <trkpt lat="43.28556" lon="5.80311">
        <ele>453</ele>
        <time>2021-10-27T11:58:29Z</time>
      </trkpt>
      <trkpt lat="43.28561" lon="5.80315">
        <ele>453.8</ele>
        <time>2021-10-27T11:58:34Z</time>
      </trkpt>
      <trkpt lat="43.28565" lon="5.80317">
        <ele>454.1</ele>
        <time>2021-10-27T11:58:39Z</time>
      </trkpt>
      <trkpt lat="43.2857" lon="5.8032">
        <ele>454.3</ele>
        <time>2021-10-27T11:58:45Z</time>
      </trkpt>
      <trkpt lat="43.28573" lon="5.80325">
        <ele>454.5</ele>
        <time>2021-10-27T11:58:52Z</time>
      </trkpt>
      <trkpt lat="43.28577" lon="5.80328">
        <ele>454.5</ele>
        <time>2021-10-27T11:58:57Z</time>
      </trkpt>
      <trkpt lat="43.28581" lon="5.80331">
        <ele>454.2</ele>
        <time>2021-10-27T11:59:01Z</time>
      </trkpt>
      <trkpt lat="43.28585" lon="5.80334">
        <ele>454.2</ele>
        <time>2021-10-27T11:59:07Z</time>
      </trkpt>
      <trkpt lat="43.28589" lon="5.80338">
        <ele>455.2</ele>
        <time>2021-10-27T11:59:14Z</time>
      </trkpt>
      <trkpt lat="43.28593" lon="5.80341">
        <ele>456</ele>
        <time>2021-10-27T11:59:19Z</time>
      </trkpt>
      <trkpt lat="43.28599" lon="5.80344">
        <ele>456.5</ele>
        <time>2021-10-27T11:59:24Z</time>
      </trkpt>
      <trkpt lat="43.28603" lon="5.80347">
        <ele>456.9</ele>
        <time>2021-10-27T11:59:31Z</time>
      </trkpt>
      <trkpt lat="43.28609" lon="5.80348">
        <ele>457.1</ele>
        <time>2021-10-27T11:59:37Z</time>
      </trkpt>
      <trkpt lat="43.28613" lon="5.8035">
        <ele>457.4</ele>
        <time>2021-10-27T11:59:42Z</time>
      </trkpt>
      <trkpt lat="43.28618" lon="5.80351">
        <ele>457.9</ele>
        <time>2021-10-27T11:59:48Z</time>
      </trkpt>
      <trkpt lat="43.28623" lon="5.80353">
        <ele>458.3</ele>
        <time>2021-10-27T11:59:54Z</time>
      </trkpt>
      <trkpt lat="43.28627" lon="5.80355">
        <ele>458.6</ele>
        <time>2021-10-27T12:00:00Z</time>
      </trkpt>
      <trkpt lat="43.28632" lon="5.80356">
        <ele>458.9</ele>
        <time>2021-10-27T12:00:06Z</time>
      </trkpt>
      <trkpt lat="43.28637" lon="5.80358">
        <ele>459.1</ele>
        <time>2021-10-27T12:00:12Z</time>
      </trkpt>
      <trkpt lat="43.28642" lon="5.80358">
        <ele>459.9</ele>
        <time>2021-10-27T12:00:15Z</time>
      </trkpt>
      <trkpt lat="43.28647" lon="5.80358">
        <ele>460.9</ele>
        <time>2021-10-27T12:00:20Z</time>
      </trkpt>
      <trkpt lat="43.28652" lon="5.80356">
        <ele>462</ele>
        <time>2021-10-27T12:00:26Z</time>
      </trkpt>
      <trkpt lat="43.28657" lon="5.80355">
        <ele>463</ele>
        <time>2021-10-27T12:00:36Z</time>
      </trkpt>
      <trkpt lat="43.28661" lon="5.80355">
        <ele>464</ele>
        <time>2021-10-27T12:00:44Z</time>
      </trkpt>
      <trkpt lat="43.28666" lon="5.80355">
        <ele>465</ele>
        <time>2021-10-27T12:00:50Z</time>
      </trkpt>
      <trkpt lat="43.28672" lon="5.80355">
        <ele>465.3</ele>
        <time>2021-10-27T12:00:58Z</time>
      </trkpt>
      <trkpt lat="43.28676" lon="5.80356">
        <ele>465.6</ele>
        <time>2021-10-27T12:01:03Z</time>
      </trkpt>
      <trkpt lat="43.28681" lon="5.80354">
        <ele>466</ele>
        <time>2021-10-27T12:01:09Z</time>
      </trkpt>
      <trkpt lat="43.28685" lon="5.80354">
        <ele>466.3</ele>
        <time>2021-10-27T12:01:16Z</time>
      </trkpt>
      <trkpt lat="43.2869" lon="5.80354">
        <ele>466.7</ele>
        <time>2021-10-27T12:01:22Z</time>
      </trkpt>
      <trkpt lat="43.28695" lon="5.80356">
        <ele>466.8</ele>
        <time>2021-10-27T12:01:28Z</time>
      </trkpt>
      <trkpt lat="43.28699" lon="5.80358">
        <ele>467.5</ele>
        <time>2021-10-27T12:01:33Z</time>
      </trkpt>
      <trkpt lat="43.28704" lon="5.80361">
        <ele>467.8</ele>
        <time>2021-10-27T12:01:37Z</time>
      </trkpt>
      <trkpt lat="43.28708" lon="5.80364">
        <ele>468.6</ele>
        <time>2021-10-27T12:01:43Z</time>
      </trkpt>
      <trkpt lat="43.28711" lon="5.8037">
        <ele>469.1</ele>
        <time>2021-10-27T12:01:51Z</time>
      </trkpt>
      <trkpt lat="43.28715" lon="5.80375">
        <ele>469.5</ele>
        <time>2021-10-27T12:01:58Z</time>
      </trkpt>
      <trkpt lat="43.2872" lon="5.80377">
        <ele>469.7</ele>
        <time>2021-10-27T12:02:02Z</time>
      </trkpt>
      <trkpt lat="43.28724" lon="5.80381">
        <ele>469.9</ele>
        <time>2021-10-27T12:02:06Z</time>
      </trkpt>
      <trkpt lat="43.28727" lon="5.80384">
        <ele>470.2</ele>
        <time>2021-10-27T12:02:13Z</time>
      </trkpt>
      <trkpt lat="43.28732" lon="5.80388">
        <ele>470.5</ele>
        <time>2021-10-27T12:02:19Z</time>
      </trkpt>
      <trkpt lat="43.28736" lon="5.80392">
        <ele>470.9</ele>
        <time>2021-10-27T12:02:25Z</time>
      </trkpt>
      <trkpt lat="43.2874" lon="5.80394">
        <ele>471.4</ele>
        <time>2021-10-27T12:02:32Z</time>
      </trkpt>
      <trkpt lat="43.28744" lon="5.80397">
        <ele>471.7</ele>
        <time>2021-10-27T12:02:37Z</time>
      </trkpt>
      <trkpt lat="43.28749" lon="5.80401">
        <ele>472</ele>
        <time>2021-10-27T12:02:41Z</time>
      </trkpt>
      <trkpt lat="43.28752" lon="5.80405">
        <ele>472.1</ele>
        <time>2021-10-27T12:02:44Z</time>
      </trkpt>
      <trkpt lat="43.28756" lon="5.8041">
        <ele>472.1</ele>
        <time>2021-10-27T12:02:50Z</time>
      </trkpt>
      <trkpt lat="43.2876" lon="5.80413">
        <ele>472.1</ele>
        <time>2021-10-27T12:02:57Z</time>
      </trkpt>
      <trkpt lat="43.28764" lon="5.80416">
        <ele>472.1</ele>
        <time>2021-10-27T12:03:03Z</time>
      </trkpt>
      <trkpt lat="43.28768" lon="5.80421">
        <ele>472.2</ele>
        <time>2021-10-27T12:03:11Z</time>
      </trkpt>
      <trkpt lat="43.28772" lon="5.80424">
        <ele>472.4</ele>
        <time>2021-10-27T12:03:15Z</time>
      </trkpt>
      <trkpt lat="43.28776" lon="5.80427">
        <ele>472.5</ele>
        <time>2021-10-27T12:03:19Z</time>
      </trkpt>
      <trkpt lat="43.28781" lon="5.8043">
        <ele>472.8</ele>
        <time>2021-10-27T12:03:23Z</time>
      </trkpt>
      <trkpt lat="43.28785" lon="5.80434">
        <ele>473.1</ele>
        <time>2021-10-27T12:03:29Z</time>
      </trkpt>
      <trkpt lat="43.2879" lon="5.80434">
        <ele>473.5</ele>
        <time>2021-10-27T12:03:42Z</time>
      </trkpt>
      <trkpt lat="43.28786" lon="5.8043">
        <ele>473.5</ele>
        <time>2021-10-27T12:04:38Z</time>
      </trkpt>
      <trkpt lat="43.28791" lon="5.80432">
        <ele>473.8</ele>
        <time>2021-10-27T12:05:20Z</time>
      </trkpt>
      <trkpt lat="43.28795" lon="5.80432">
        <ele>474.2</ele>
        <time>2021-10-27T12:05:43Z</time>
      </trkpt>
      <trkpt lat="43.28796" lon="5.80439">
        <ele>473.7</ele>
        <time>2021-10-27T12:06:18Z</time>
      </trkpt>
      <trkpt lat="43.28799" lon="5.80444">
        <ele>473.5</ele>
        <time>2021-10-27T12:06:26Z</time>
      </trkpt>
      <trkpt lat="43.28803" lon="5.80448">
        <ele>474.1</ele>
        <time>2021-10-27T12:06:32Z</time>
      </trkpt>
      <trkpt lat="43.28807" lon="5.80453">
        <ele>474.7</ele>
        <time>2021-10-27T12:06:37Z</time>
      </trkpt>
      <trkpt lat="43.28811" lon="5.80457">
        <ele>475.1</ele>
        <time>2021-10-27T12:06:43Z</time>
      </trkpt>
      <trkpt lat="43.28814" lon="5.80462">
        <ele>475.4</ele>
        <time>2021-10-27T12:06:49Z</time>
      </trkpt>
      <trkpt lat="43.28818" lon="5.80467">
        <ele>475.5</ele>
        <time>2021-10-27T12:06:54Z</time>
      </trkpt>
      <trkpt lat="43.28822" lon="5.8047">
        <ele>475.4</ele>
        <time>2021-10-27T12:06:59Z</time>
      </trkpt>
      <trkpt lat="43.28826" lon="5.80474">
        <ele>475.4</ele>
        <time>2021-10-27T12:07:04Z</time>
      </trkpt>
      <trkpt lat="43.28831" lon="5.80477">
        <ele>475.6</ele>
        <time>2021-10-27T12:07:09Z</time>
      </trkpt>
      <trkpt lat="43.28836" lon="5.80479">
        <ele>475.9</ele>
        <time>2021-10-27T12:07:14Z</time>
      </trkpt>
      <trkpt lat="43.28841" lon="5.80483">
        <ele>476.6</ele>
        <time>2021-10-27T12:07:20Z</time>
      </trkpt>
      <trkpt lat="43.28845" lon="5.80486">
        <ele>476.9</ele>
        <time>2021-10-27T12:07:24Z</time>
      </trkpt>
      <trkpt lat="43.28849" lon="5.8049">
        <ele>477.2</ele>
        <time>2021-10-27T12:07:30Z</time>
      </trkpt>
      <trkpt lat="43.28853" lon="5.80493">
        <ele>477.3</ele>
        <time>2021-10-27T12:07:35Z</time>
      </trkpt>
      <trkpt lat="43.28858" lon="5.80496">
        <ele>477.2</ele>
        <time>2021-10-27T12:07:41Z</time>
      </trkpt>
      <trkpt lat="43.28863" lon="5.80499">
        <ele>477.1</ele>
        <time>2021-10-27T12:07:46Z</time>
      </trkpt>
      <trkpt lat="43.28868" lon="5.80501">
        <ele>477.4</ele>
        <time>2021-10-27T12:07:50Z</time>
      </trkpt>
      <trkpt lat="43.28872" lon="5.80502">
        <ele>477.7</ele>
        <time>2021-10-27T12:07:54Z</time>
      </trkpt>
      <trkpt lat="43.28877" lon="5.80504">
        <ele>478.1</ele>
        <time>2021-10-27T12:07:59Z</time>
      </trkpt>
      <trkpt lat="43.28881" lon="5.80506">
        <ele>478.6</ele>
        <time>2021-10-27T12:08:03Z</time>
      </trkpt>
      <trkpt lat="43.28886" lon="5.80508">
        <ele>479.1</ele>
        <time>2021-10-27T12:08:08Z</time>
      </trkpt>
      <trkpt lat="43.2889" lon="5.80512">
        <ele>479.7</ele>
        <time>2021-10-27T12:08:14Z</time>
      </trkpt>
      <trkpt lat="43.28895" lon="5.80514">
        <ele>480</ele>
        <time>2021-10-27T12:08:18Z</time>
      </trkpt>
      <trkpt lat="43.28899" lon="5.80518">
        <ele>480.1</ele>
        <time>2021-10-27T12:08:23Z</time>
      </trkpt>
      <trkpt lat="43.28904" lon="5.8052">
        <ele>480</ele>
        <time>2021-10-27T12:08:29Z</time>
      </trkpt>
      <trkpt lat="43.28909" lon="5.80523">
        <ele>479.8</ele>
        <time>2021-10-27T12:08:34Z</time>
      </trkpt>
      <trkpt lat="43.28913" lon="5.80526">
        <ele>479.4</ele>
        <time>2021-10-27T12:08:38Z</time>
      </trkpt>
      <trkpt lat="43.28918" lon="5.8053">
        <ele>479.3</ele>
        <time>2021-10-27T12:08:43Z</time>
      </trkpt>
      <trkpt lat="43.28922" lon="5.80534">
        <ele>479.6</ele>
        <time>2021-10-27T12:08:47Z</time>
      </trkpt>
      <trkpt lat="43.28926" lon="5.80539">
        <ele>479.9</ele>
        <time>2021-10-27T12:08:53Z</time>
      </trkpt>
      <trkpt lat="43.28928" lon="5.80544">
        <ele>479.9</ele>
        <time>2021-10-27T12:08:58Z</time>
      </trkpt>
      <trkpt lat="43.2893" lon="5.80551">
        <ele>480</ele>
        <time>2021-10-27T12:09:03Z</time>
      </trkpt>
      <trkpt lat="43.28933" lon="5.80557">
        <ele>479.6</ele>
        <time>2021-10-27T12:09:08Z</time>
      </trkpt>
      <trkpt lat="43.28937" lon="5.80562">
        <ele>479.2</ele>
        <time>2021-10-27T12:09:12Z</time>
      </trkpt>
      <trkpt lat="43.28939" lon="5.80568">
        <ele>478.7</ele>
        <time>2021-10-27T12:09:18Z</time>
      </trkpt>
      <trkpt lat="43.28941" lon="5.80574">
        <ele>478.3</ele>
        <time>2021-10-27T12:09:22Z</time>
      </trkpt>
      <trkpt lat="43.28943" lon="5.8058">
        <ele>477.6</ele>
        <time>2021-10-27T12:09:26Z</time>
      </trkpt>
      <trkpt lat="43.28944" lon="5.80587">
        <ele>477</ele>
        <time>2021-10-27T12:09:31Z</time>
      </trkpt>
      <trkpt lat="43.28944" lon="5.80594">
        <ele>476.8</ele>
        <time>2021-10-27T12:09:36Z</time>
      </trkpt>
      <trkpt lat="43.28945" lon="5.80602">
        <ele>476.3</ele>
        <time>2021-10-27T12:09:42Z</time>
      </trkpt>
      <trkpt lat="43.28945" lon="5.80609">
        <ele>476.2</ele>
        <time>2021-10-27T12:09:47Z</time>
      </trkpt>
      <trkpt lat="43.28946" lon="5.80616">
        <ele>476</ele>
        <time>2021-10-27T12:09:52Z</time>
      </trkpt>
      <trkpt lat="43.28948" lon="5.80623">
        <ele>476.1</ele>
        <time>2021-10-27T12:09:57Z</time>
      </trkpt>
      <trkpt lat="43.28949" lon="5.8063">
        <ele>476</ele>
        <time>2021-10-27T12:10:02Z</time>
      </trkpt>
      <trkpt lat="43.2895" lon="5.80637">
        <ele>476</ele>
        <time>2021-10-27T12:10:06Z</time>
      </trkpt>
      <trkpt lat="43.2895" lon="5.80643">
        <ele>476</ele>
        <time>2021-10-27T12:10:10Z</time>
      </trkpt>
      <trkpt lat="43.2895" lon="5.8065">
        <ele>476.2</ele>
        <time>2021-10-27T12:10:17Z</time>
      </trkpt>
      <trkpt lat="43.28951" lon="5.80657">
        <ele>476.4</ele>
        <time>2021-10-27T12:10:22Z</time>
      </trkpt>
      <trkpt lat="43.28952" lon="5.80663">
        <ele>476.8</ele>
        <time>2021-10-27T12:10:26Z</time>
      </trkpt>
      <trkpt lat="43.28953" lon="5.8067">
        <ele>477.1</ele>
        <time>2021-10-27T12:10:30Z</time>
      </trkpt>
      <trkpt lat="43.28953" lon="5.80676">
        <ele>477.3</ele>
        <time>2021-10-27T12:10:36Z</time>
      </trkpt>
      <trkpt lat="43.28954" lon="5.80684">
        <ele>477.7</ele>
        <time>2021-10-27T12:10:41Z</time>
      </trkpt>
      <trkpt lat="43.28956" lon="5.8069">
        <ele>478.2</ele>
        <time>2021-10-27T12:10:45Z</time>
      </trkpt>
      <trkpt lat="43.28956" lon="5.80698">
        <ele>478.2</ele>
        <time>2021-10-27T12:10:50Z</time>
      </trkpt>
      <trkpt lat="43.28956" lon="5.80705">
        <ele>477.7</ele>
        <time>2021-10-27T12:10:55Z</time>
      </trkpt>
      <trkpt lat="43.28956" lon="5.80712">
        <ele>477.5</ele>
        <time>2021-10-27T12:11:00Z</time>
      </trkpt>
      <trkpt lat="43.28956" lon="5.80718">
        <ele>477.2</ele>
        <time>2021-10-27T12:11:05Z</time>
      </trkpt>
      <trkpt lat="43.28956" lon="5.80725">
        <ele>476.8</ele>
        <time>2021-10-27T12:11:11Z</time>
      </trkpt>
      <trkpt lat="43.28956" lon="5.80731">
        <ele>476.3</ele>
        <time>2021-10-27T12:11:17Z</time>
      </trkpt>
      <trkpt lat="43.28955" lon="5.80738">
        <ele>475.8</ele>
        <time>2021-10-27T12:11:22Z</time>
      </trkpt>
      <trkpt lat="43.28956" lon="5.80744">
        <ele>475.4</ele>
        <time>2021-10-27T12:11:26Z</time>
      </trkpt>
      <trkpt lat="43.28958" lon="5.80752">
        <ele>475.4</ele>
        <time>2021-10-27T12:11:29Z</time>
      </trkpt>
      <trkpt lat="43.2896" lon="5.80758">
        <ele>475.3</ele>
        <time>2021-10-27T12:11:34Z</time>
      </trkpt>
      <trkpt lat="43.28963" lon="5.80764">
        <ele>475.4</ele>
        <time>2021-10-27T12:11:39Z</time>
      </trkpt>
      <trkpt lat="43.28966" lon="5.80771">
        <ele>475.5</ele>
        <time>2021-10-27T12:11:44Z</time>
      </trkpt>
      <trkpt lat="43.28969" lon="5.80777">
        <ele>475.6</ele>
        <time>2021-10-27T12:11:48Z</time>
      </trkpt>
      <trkpt lat="43.28973" lon="5.80784">
        <ele>475.4</ele>
        <time>2021-10-27T12:11:52Z</time>
      </trkpt>
      <trkpt lat="43.28976" lon="5.80789">
        <ele>475.4</ele>
        <time>2021-10-27T12:11:57Z</time>
      </trkpt>
      <trkpt lat="43.2898" lon="5.80792">
        <ele>475.5</ele>
        <time>2021-10-27T12:12:03Z</time>
      </trkpt>
      <trkpt lat="43.28985" lon="5.80795">
        <ele>475.4</ele>
        <time>2021-10-27T12:12:07Z</time>
      </trkpt>
      <trkpt lat="43.28988" lon="5.80799">
        <ele>475</ele>
        <time>2021-10-27T12:12:13Z</time>
      </trkpt>
      <trkpt lat="43.28991" lon="5.80804">
        <ele>474</ele>
        <time>2021-10-27T12:12:19Z</time>
      </trkpt>
      <trkpt lat="43.28994" lon="5.8081">
        <ele>473.7</ele>
        <time>2021-10-27T12:12:23Z</time>
      </trkpt>
      <trkpt lat="43.28997" lon="5.80817">
        <ele>473.8</ele>
        <time>2021-10-27T12:12:27Z</time>
      </trkpt>
      <trkpt lat="43.29" lon="5.80823">
        <ele>474</ele>
        <time>2021-10-27T12:12:31Z</time>
      </trkpt>
      <trkpt lat="43.29002" lon="5.80829">
        <ele>474.9</ele>
        <time>2021-10-27T12:12:35Z</time>
      </trkpt>
      <trkpt lat="43.29005" lon="5.80835">
        <ele>475.4</ele>
        <time>2021-10-27T12:12:39Z</time>
      </trkpt>
      <trkpt lat="43.29008" lon="5.8084">
        <ele>475.8</ele>
        <time>2021-10-27T12:12:43Z</time>
      </trkpt>
      <trkpt lat="43.29011" lon="5.80846">
        <ele>475.9</ele>
        <time>2021-10-27T12:12:47Z</time>
      </trkpt>
      <trkpt lat="43.29014" lon="5.8085">
        <ele>475.6</ele>
        <time>2021-10-27T12:12:52Z</time>
      </trkpt>
      <trkpt lat="43.29018" lon="5.80854">
        <ele>475.5</ele>
        <time>2021-10-27T12:13:03Z</time>
      </trkpt>
      <trkpt lat="43.29022" lon="5.80859">
        <ele>474.9</ele>
        <time>2021-10-27T12:13:07Z</time>
      </trkpt>
      <trkpt lat="43.29027" lon="5.80863">
        <ele>474.8</ele>
        <time>2021-10-27T12:13:11Z</time>
      </trkpt>
      <trkpt lat="43.29031" lon="5.80866">
        <ele>475.5</ele>
        <time>2021-10-27T12:13:15Z</time>
      </trkpt>
      <trkpt lat="43.29036" lon="5.80869">
        <ele>476.1</ele>
        <time>2021-10-27T12:13:23Z</time>
      </trkpt>
      <trkpt lat="43.29039" lon="5.80874">
        <ele>476.2</ele>
        <time>2021-10-27T12:13:29Z</time>
      </trkpt>
      <trkpt lat="43.29044" lon="5.80878">
        <ele>476.5</ele>
        <time>2021-10-27T12:13:36Z</time>
      </trkpt>
      <trkpt lat="43.2905" lon="5.8088">
        <ele>476.9</ele>
        <time>2021-10-27T12:13:39Z</time>
      </trkpt>
      <trkpt lat="43.29053" lon="5.80886">
        <ele>476.4</ele>
        <time>2021-10-27T12:13:44Z</time>
      </trkpt>
      <trkpt lat="43.29058" lon="5.8089">
        <ele>476.6</ele>
        <time>2021-10-27T12:13:49Z</time>
      </trkpt>
      <trkpt lat="43.29064" lon="5.80893">
        <ele>478</ele>
        <time>2021-10-27T12:13:52Z</time>
      </trkpt>
      <trkpt lat="43.29068" lon="5.80895">
        <ele>478.9</ele>
        <time>2021-10-27T12:13:56Z</time>
      </trkpt>
      <trkpt lat="43.29073" lon="5.80897">
        <ele>479.8</ele>
        <time>2021-10-27T12:14:00Z</time>
      </trkpt>
      <trkpt lat="43.29079" lon="5.80896">
        <ele>480.3</ele>
        <time>2021-10-27T12:14:08Z</time>
      </trkpt>
      <trkpt lat="43.29084" lon="5.80897">
        <ele>481</ele>
        <time>2021-10-27T12:14:12Z</time>
      </trkpt>
      <trkpt lat="43.29089" lon="5.80897">
        <ele>482</ele>
        <time>2021-10-27T12:14:18Z</time>
      </trkpt>
      <trkpt lat="43.29094" lon="5.809">
        <ele>482.9</ele>
        <time>2021-10-27T12:14:25Z</time>
      </trkpt>
      <trkpt lat="43.29099" lon="5.80901">
        <ele>483.7</ele>
        <time>2021-10-27T12:14:29Z</time>
      </trkpt>
      <trkpt lat="43.29103" lon="5.80902">
        <ele>484.4</ele>
        <time>2021-10-27T12:14:33Z</time>
      </trkpt>
      <trkpt lat="43.29108" lon="5.80904">
        <ele>484.9</ele>
        <time>2021-10-27T12:14:39Z</time>
      </trkpt>
      <trkpt lat="43.29112" lon="5.80908">
        <ele>485.1</ele>
        <time>2021-10-27T12:14:45Z</time>
      </trkpt>
      <trkpt lat="43.29117" lon="5.80912">
        <ele>485.3</ele>
        <time>2021-10-27T12:14:51Z</time>
      </trkpt>
      <trkpt lat="43.29121" lon="5.80915">
        <ele>485.3</ele>
        <time>2021-10-27T12:14:55Z</time>
      </trkpt>
      <trkpt lat="43.29125" lon="5.8092">
        <ele>485.8</ele>
        <time>2021-10-27T12:15:01Z</time>
      </trkpt>
      <trkpt lat="43.29129" lon="5.80925">
        <ele>486.4</ele>
        <time>2021-10-27T12:15:06Z</time>
      </trkpt>
      <trkpt lat="43.29132" lon="5.8093">
        <ele>486.6</ele>
        <time>2021-10-27T12:15:10Z</time>
      </trkpt>
      <trkpt lat="43.29135" lon="5.80934">
        <ele>486.6</ele>
        <time>2021-10-27T12:15:17Z</time>
      </trkpt>
      <trkpt lat="43.29138" lon="5.80939">
        <ele>486.2</ele>
        <time>2021-10-27T12:15:22Z</time>
      </trkpt>
      <trkpt lat="43.29141" lon="5.80946">
        <ele>486.6</ele>
        <time>2021-10-27T12:15:26Z</time>
      </trkpt>
      <trkpt lat="43.29142" lon="5.80953">
        <ele>487.5</ele>
        <time>2021-10-27T12:15:31Z</time>
      </trkpt>
      <trkpt lat="43.29143" lon="5.80959">
        <ele>488.2</ele>
        <time>2021-10-27T12:15:36Z</time>
      </trkpt>
      <trkpt lat="43.29146" lon="5.80965">
        <ele>488.8</ele>
        <time>2021-10-27T12:15:40Z</time>
      </trkpt>
      <trkpt lat="43.29148" lon="5.80971">
        <ele>489.3</ele>
        <time>2021-10-27T12:15:46Z</time>
      </trkpt>
      <trkpt lat="43.29148" lon="5.80979">
        <ele>489.2</ele>
        <time>2021-10-27T12:15:51Z</time>
      </trkpt>
      <trkpt lat="43.29149" lon="5.80986">
        <ele>489</ele>
        <time>2021-10-27T12:15:56Z</time>
      </trkpt>
      <trkpt lat="43.29149" lon="5.80993">
        <ele>488.9</ele>
        <time>2021-10-27T12:16:01Z</time>
      </trkpt>
      <trkpt lat="43.29149" lon="5.81">
        <ele>488.7</ele>
        <time>2021-10-27T12:16:06Z</time>
      </trkpt>
      <trkpt lat="43.29148" lon="5.81008">
        <ele>488.9</ele>
        <time>2021-10-27T12:16:11Z</time>
      </trkpt>
      <trkpt lat="43.29148" lon="5.81014">
        <ele>489</ele>
        <time>2021-10-27T12:16:16Z</time>
      </trkpt>
      <trkpt lat="43.29148" lon="5.81021">
        <ele>489.1</ele>
        <time>2021-10-27T12:16:21Z</time>
      </trkpt>
      <trkpt lat="43.29148" lon="5.81028">
        <ele>489.4</ele>
        <time>2021-10-27T12:16:25Z</time>
      </trkpt>
      <trkpt lat="43.29151" lon="5.81035">
        <ele>490.1</ele>
        <time>2021-10-27T12:16:30Z</time>
      </trkpt>
      <trkpt lat="43.29152" lon="5.81041">
        <ele>490.7</ele>
        <time>2021-10-27T12:16:34Z</time>
      </trkpt>
      <trkpt lat="43.29154" lon="5.81048">
        <ele>491.3</ele>
        <time>2021-10-27T12:16:38Z</time>
      </trkpt>
      <trkpt lat="43.29156" lon="5.81054">
        <ele>491.9</ele>
        <time>2021-10-27T12:16:42Z</time>
      </trkpt>
      <trkpt lat="43.29157" lon="5.81059">
        <ele>492</ele>
        <time>2021-10-27T12:16:46Z</time>
      </trkpt>
      <trkpt lat="43.29159" lon="5.81065">
        <ele>491.7</ele>
        <time>2021-10-27T12:16:50Z</time>
      </trkpt>
      <trkpt lat="43.29162" lon="5.8107">
        <ele>491.4</ele>
        <time>2021-10-27T12:16:54Z</time>
      </trkpt>
      <trkpt lat="43.29165" lon="5.81076">
        <ele>490.9</ele>
        <time>2021-10-27T12:16:59Z</time>
      </trkpt>
      <trkpt lat="43.29169" lon="5.81082">
        <ele>490.9</ele>
        <time>2021-10-27T12:17:04Z</time>
      </trkpt>
      <trkpt lat="43.2917" lon="5.81089">
        <ele>491.2</ele>
        <time>2021-10-27T12:17:09Z</time>
      </trkpt>
      <trkpt lat="43.29171" lon="5.81095">
        <ele>491.8</ele>
        <time>2021-10-27T12:17:14Z</time>
      </trkpt>
      <trkpt lat="43.29175" lon="5.811">
        <ele>492.8</ele>
        <time>2021-10-27T12:17:20Z</time>
      </trkpt>
      <trkpt lat="43.29178" lon="5.81106">
        <ele>493.2</ele>
        <time>2021-10-27T12:17:26Z</time>
      </trkpt>
      <trkpt lat="43.2918" lon="5.81112">
        <ele>493.4</ele>
        <time>2021-10-27T12:17:30Z</time>
      </trkpt>
      <trkpt lat="43.29182" lon="5.81119">
        <ele>493.8</ele>
        <time>2021-10-27T12:17:35Z</time>
      </trkpt>
      <trkpt lat="43.29184" lon="5.81125">
        <ele>494.1</ele>
        <time>2021-10-27T12:17:39Z</time>
      </trkpt>
      <trkpt lat="43.29187" lon="5.81131">
        <ele>494.2</ele>
        <time>2021-10-27T12:17:45Z</time>
      </trkpt>
      <trkpt lat="43.2919" lon="5.81135">
        <ele>494.2</ele>
        <time>2021-10-27T12:17:49Z</time>
      </trkpt>
      <trkpt lat="43.29193" lon="5.81142">
        <ele>494.2</ele>
        <time>2021-10-27T12:17:54Z</time>
      </trkpt>
      <trkpt lat="43.29195" lon="5.81148">
        <ele>494.8</ele>
        <time>2021-10-27T12:17:59Z</time>
      </trkpt>
      <trkpt lat="43.29198" lon="5.81153">
        <ele>495.6</ele>
        <time>2021-10-27T12:18:03Z</time>
      </trkpt>
      <trkpt lat="43.29201" lon="5.8116">
        <ele>496.1</ele>
        <time>2021-10-27T12:18:08Z</time>
      </trkpt>
      <trkpt lat="43.29203" lon="5.81166">
        <ele>496.3</ele>
        <time>2021-10-27T12:18:13Z</time>
      </trkpt>
      <trkpt lat="43.29207" lon="5.8117">
        <ele>496.7</ele>
        <time>2021-10-27T12:18:17Z</time>
      </trkpt>
      <trkpt lat="43.2921" lon="5.81176">
        <ele>497.1</ele>
        <time>2021-10-27T12:18:23Z</time>
      </trkpt>
      <trkpt lat="43.29213" lon="5.81181">
        <ele>497</ele>
        <time>2021-10-27T12:18:27Z</time>
      </trkpt>
      <trkpt lat="43.29219" lon="5.81185">
        <ele>496.2</ele>
        <time>2021-10-27T12:18:31Z</time>
      </trkpt>
      <trkpt lat="43.29224" lon="5.81187">
        <ele>495.8</ele>
        <time>2021-10-27T12:18:33Z</time>
      </trkpt>
      <trkpt lat="43.29227" lon="5.81192">
        <ele>496</ele>
        <time>2021-10-27T12:18:37Z</time>
      </trkpt>
      <trkpt lat="43.29231" lon="5.81196">
        <ele>496.4</ele>
        <time>2021-10-27T12:18:41Z</time>
      </trkpt>
      <trkpt lat="43.29236" lon="5.812">
        <ele>497.1</ele>
        <time>2021-10-27T12:18:47Z</time>
      </trkpt>
      <trkpt lat="43.29239" lon="5.81205">
        <ele>497.4</ele>
        <time>2021-10-27T12:18:53Z</time>
      </trkpt>
      <trkpt lat="43.29241" lon="5.81211">
        <ele>497.5</ele>
        <time>2021-10-27T12:18:58Z</time>
      </trkpt>
      <trkpt lat="43.29244" lon="5.81216">
        <ele>497.4</ele>
        <time>2021-10-27T12:19:02Z</time>
      </trkpt>
      <trkpt lat="43.29246" lon="5.81222">
        <ele>497.2</ele>
        <time>2021-10-27T12:19:05Z</time>
      </trkpt>
      <trkpt lat="43.29248" lon="5.81228">
        <ele>497.2</ele>
        <time>2021-10-27T12:19:08Z</time>
      </trkpt>
      <trkpt lat="43.29251" lon="5.81234">
        <ele>497.1</ele>
        <time>2021-10-27T12:19:14Z</time>
      </trkpt>
      <trkpt lat="43.29253" lon="5.81241">
        <ele>497.3</ele>
        <time>2021-10-27T12:19:20Z</time>
      </trkpt>
      <trkpt lat="43.29256" lon="5.81245">
        <ele>497.4</ele>
        <time>2021-10-27T12:19:24Z</time>
      </trkpt>
      <trkpt lat="43.2926" lon="5.81249">
        <ele>497.4</ele>
        <time>2021-10-27T12:19:27Z</time>
      </trkpt>
      <trkpt lat="43.29263" lon="5.81253">
        <ele>497.9</ele>
        <time>2021-10-27T12:19:30Z</time>
      </trkpt>
      <trkpt lat="43.29267" lon="5.81259">
        <ele>498.4</ele>
        <time>2021-10-27T12:19:34Z</time>
      </trkpt>
      <trkpt lat="43.29271" lon="5.81263">
        <ele>498.6</ele>
        <time>2021-10-27T12:19:38Z</time>
      </trkpt>
      <trkpt lat="43.29276" lon="5.81266">
        <ele>498.7</ele>
        <time>2021-10-27T12:19:42Z</time>
      </trkpt>
      <trkpt lat="43.29279" lon="5.81271">
        <ele>499</ele>
        <time>2021-10-27T12:19:47Z</time>
      </trkpt>
      <trkpt lat="43.29281" lon="5.81278">
        <ele>499.4</ele>
        <time>2021-10-27T12:19:53Z</time>
      </trkpt>
      <trkpt lat="43.29284" lon="5.81283">
        <ele>500.1</ele>
        <time>2021-10-27T12:19:58Z</time>
      </trkpt>
      <trkpt lat="43.29286" lon="5.81289">
        <ele>500.7</ele>
        <time>2021-10-27T12:20:02Z</time>
      </trkpt>
      <trkpt lat="43.29288" lon="5.81294">
        <ele>501.2</ele>
        <time>2021-10-27T12:20:06Z</time>
      </trkpt>
      <trkpt lat="43.2929" lon="5.81301">
        <ele>501.8</ele>
        <time>2021-10-27T12:20:11Z</time>
      </trkpt>
      <trkpt lat="43.29292" lon="5.81308">
        <ele>502</ele>
        <time>2021-10-27T12:20:16Z</time>
      </trkpt>
      <trkpt lat="43.29294" lon="5.81315">
        <ele>502</ele>
        <time>2021-10-27T12:20:20Z</time>
      </trkpt>
      <trkpt lat="43.29296" lon="5.81322">
        <ele>502</ele>
        <time>2021-10-27T12:20:24Z</time>
      </trkpt>
      <trkpt lat="43.29297" lon="5.81328">
        <ele>502</ele>
        <time>2021-10-27T12:20:28Z</time>
      </trkpt>
      <trkpt lat="43.29299" lon="5.81335">
        <ele>501.9</ele>
        <time>2021-10-27T12:20:33Z</time>
      </trkpt>
      <trkpt lat="43.29302" lon="5.81342">
        <ele>501.7</ele>
        <time>2021-10-27T12:20:37Z</time>
      </trkpt>
      <trkpt lat="43.29302" lon="5.81349">
        <ele>501.4</ele>
        <time>2021-10-27T12:20:42Z</time>
      </trkpt>
      <trkpt lat="43.29302" lon="5.81356">
        <ele>501.2</ele>
        <time>2021-10-27T12:20:46Z</time>
      </trkpt>
      <trkpt lat="43.293" lon="5.81363">
        <ele>501</ele>
        <time>2021-10-27T12:20:51Z</time>
      </trkpt>
      <trkpt lat="43.29298" lon="5.81369">
        <ele>500.8</ele>
        <time>2021-10-27T12:20:55Z</time>
      </trkpt>
      <trkpt lat="43.29296" lon="5.81375">
        <ele>500.6</ele>
        <time>2021-10-27T12:20:59Z</time>
      </trkpt>
      <trkpt lat="43.29294" lon="5.81381">
        <ele>500.4</ele>
        <time>2021-10-27T12:21:03Z</time>
      </trkpt>
      <trkpt lat="43.29292" lon="5.81388">
        <ele>500.1</ele>
        <time>2021-10-27T12:21:07Z</time>
      </trkpt>
      <trkpt lat="43.29289" lon="5.81395">
        <ele>499.8</ele>
        <time>2021-10-27T12:21:11Z</time>
      </trkpt>
      <trkpt lat="43.29287" lon="5.81402">
        <ele>499.5</ele>
        <time>2021-10-27T12:21:16Z</time>
      </trkpt>
      <trkpt lat="43.29285" lon="5.81408">
        <ele>499.2</ele>
        <time>2021-10-27T12:21:20Z</time>
      </trkpt>
      <trkpt lat="43.29283" lon="5.81414">
        <ele>498.8</ele>
        <time>2021-10-27T12:21:24Z</time>
      </trkpt>
      <trkpt lat="43.29281" lon="5.81421">
        <ele>498.5</ele>
        <time>2021-10-27T12:21:29Z</time>
      </trkpt>
      <trkpt lat="43.29279" lon="5.81427">
        <ele>498.3</ele>
        <time>2021-10-27T12:21:33Z</time>
      </trkpt>
      <trkpt lat="43.29279" lon="5.81434">
        <ele>498.2</ele>
        <time>2021-10-27T12:21:36Z</time>
      </trkpt>
      <trkpt lat="43.29278" lon="5.81441">
        <ele>498</ele>
        <time>2021-10-27T12:21:40Z</time>
      </trkpt>
      <trkpt lat="43.29278" lon="5.81448">
        <ele>498</ele>
        <time>2021-10-27T12:21:44Z</time>
      </trkpt>
      <trkpt lat="43.29276" lon="5.81456">
        <ele>497.9</ele>
        <time>2021-10-27T12:21:48Z</time>
      </trkpt>
      <trkpt lat="43.29276" lon="5.81463">
        <ele>497.9</ele>
        <time>2021-10-27T12:21:52Z</time>
      </trkpt>
      <trkpt lat="43.29274" lon="5.8147">
        <ele>497.8</ele>
        <time>2021-10-27T12:21:56Z</time>
      </trkpt>
      <trkpt lat="43.29272" lon="5.81476">
        <ele>497.6</ele>
        <time>2021-10-27T12:22:01Z</time>
      </trkpt>
      <trkpt lat="43.29274" lon="5.81482">
        <ele>497.8</ele>
        <time>2021-10-27T12:22:22Z</time>
      </trkpt>
      <trkpt lat="43.29269" lon="5.81486">
        <ele>497.5</ele>
        <time>2021-10-27T12:23:00Z</time>
      </trkpt>
      <trkpt lat="43.29255" lon="5.81483">
        <ele>496.7</ele>
        <time>2021-10-27T12:23:10Z</time>
      </trkpt>
      <trkpt lat="43.29259" lon="5.81486">
        <ele>497</ele>
        <time>2021-10-27T12:23:16Z</time>
      </trkpt>
      <trkpt lat="43.29262" lon="5.81491">
        <ele>497.2</ele>
        <time>2021-10-27T12:23:21Z</time>
      </trkpt>
      <trkpt lat="43.29265" lon="5.81497">
        <ele>497.5</ele>
        <time>2021-10-27T12:23:25Z</time>
      </trkpt>
      <trkpt lat="43.29268" lon="5.81502">
        <ele>497.7</ele>
        <time>2021-10-27T12:23:29Z</time>
      </trkpt>
      <trkpt lat="43.29271" lon="5.81508">
        <ele>497.8</ele>
        <time>2021-10-27T12:23:36Z</time>
      </trkpt>
      <trkpt lat="43.29275" lon="5.81515">
        <ele>497.9</ele>
        <time>2021-10-27T12:23:41Z</time>
      </trkpt>
      <trkpt lat="43.29278" lon="5.8152">
        <ele>498</ele>
        <time>2021-10-27T12:23:45Z</time>
      </trkpt>
      <trkpt lat="43.2928" lon="5.81526">
        <ele>498.5</ele>
        <time>2021-10-27T12:23:51Z</time>
      </trkpt>
      <trkpt lat="43.29282" lon="5.81533">
        <ele>498.7</ele>
        <time>2021-10-27T12:23:56Z</time>
      </trkpt>
      <trkpt lat="43.29284" lon="5.81539">
        <ele>499</ele>
        <time>2021-10-27T12:24:00Z</time>
      </trkpt>
      <trkpt lat="43.29285" lon="5.81546">
        <ele>499.1</ele>
        <time>2021-10-27T12:24:05Z</time>
      </trkpt>
      <trkpt lat="43.29286" lon="5.81553">
        <ele>499.2</ele>
        <time>2021-10-27T12:24:10Z</time>
      </trkpt>
      <trkpt lat="43.29286" lon="5.81559">
        <ele>499.2</ele>
        <time>2021-10-27T12:24:16Z</time>
      </trkpt>
      <trkpt lat="43.29287" lon="5.81566">
        <ele>499.3</ele>
        <time>2021-10-27T12:24:20Z</time>
      </trkpt>
      <trkpt lat="43.29288" lon="5.81574">
        <ele>499.4</ele>
        <time>2021-10-27T12:24:24Z</time>
      </trkpt>
      <trkpt lat="43.29289" lon="5.81581">
        <ele>499.6</ele>
        <time>2021-10-27T12:24:31Z</time>
      </trkpt>
      <trkpt lat="43.2929" lon="5.81588">
        <ele>499.6</ele>
        <time>2021-10-27T12:24:36Z</time>
      </trkpt>
      <trkpt lat="43.2929" lon="5.81596">
        <ele>499.6</ele>
        <time>2021-10-27T12:24:40Z</time>
      </trkpt>
      <trkpt lat="43.29291" lon="5.81602">
        <ele>499.6</ele>
        <time>2021-10-27T12:24:44Z</time>
      </trkpt>
      <trkpt lat="43.29293" lon="5.81609">
        <ele>499.7</ele>
        <time>2021-10-27T12:24:50Z</time>
      </trkpt>
      <trkpt lat="43.29295" lon="5.81615">
        <ele>499.7</ele>
        <time>2021-10-27T12:24:54Z</time>
      </trkpt>
      <trkpt lat="43.29296" lon="5.81621">
        <ele>499.7</ele>
        <time>2021-10-27T12:24:58Z</time>
      </trkpt>
      <trkpt lat="43.29297" lon="5.81628">
        <ele>499.7</ele>
        <time>2021-10-27T12:25:02Z</time>
      </trkpt>
      <trkpt lat="43.29298" lon="5.81634">
        <ele>499.6</ele>
        <time>2021-10-27T12:25:06Z</time>
      </trkpt>
      <trkpt lat="43.29299" lon="5.8164">
        <ele>499.5</ele>
        <time>2021-10-27T12:25:10Z</time>
      </trkpt>
      <trkpt lat="43.293" lon="5.81647">
        <ele>499.6</ele>
        <time>2021-10-27T12:25:15Z</time>
      </trkpt>
      <trkpt lat="43.293" lon="5.81654">
        <ele>499.6</ele>
        <time>2021-10-27T12:25:19Z</time>
      </trkpt>
      <trkpt lat="43.293" lon="5.81661">
        <ele>499.6</ele>
        <time>2021-10-27T12:25:23Z</time>
      </trkpt>
      <trkpt lat="43.29299" lon="5.81667">
        <ele>499.5</ele>
        <time>2021-10-27T12:25:27Z</time>
      </trkpt>
      <trkpt lat="43.29299" lon="5.81674">
        <ele>499.6</ele>
        <time>2021-10-27T12:25:32Z</time>
      </trkpt>
      <trkpt lat="43.293" lon="5.81681">
        <ele>499.6</ele>
        <time>2021-10-27T12:25:37Z</time>
      </trkpt>
      <trkpt lat="43.29301" lon="5.81688">
        <ele>499.7</ele>
        <time>2021-10-27T12:25:41Z</time>
      </trkpt>
      <trkpt lat="43.29302" lon="5.81695">
        <ele>499.7</ele>
        <time>2021-10-27T12:25:46Z</time>
      </trkpt>
      <trkpt lat="43.29302" lon="5.81702">
        <ele>499.5</ele>
        <time>2021-10-27T12:25:50Z</time>
      </trkpt>
      <trkpt lat="43.29303" lon="5.81708">
        <ele>499.4</ele>
        <time>2021-10-27T12:25:54Z</time>
      </trkpt>
      <trkpt lat="43.29304" lon="5.81715">
        <ele>499.2</ele>
        <time>2021-10-27T12:25:58Z</time>
      </trkpt>
      <trkpt lat="43.29305" lon="5.81723">
        <ele>499</ele>
        <time>2021-10-27T12:26:03Z</time>
      </trkpt>
      <trkpt lat="43.29305" lon="5.81729">
        <ele>499</ele>
        <time>2021-10-27T12:26:07Z</time>
      </trkpt>
      <trkpt lat="43.29306" lon="5.81735">
        <ele>499.1</ele>
        <time>2021-10-27T12:26:11Z</time>
      </trkpt>
      <trkpt lat="43.29308" lon="5.81742">
        <ele>499.3</ele>
        <time>2021-10-27T12:26:16Z</time>
      </trkpt>
      <trkpt lat="43.29311" lon="5.8175">
        <ele>499.6</ele>
        <time>2021-10-27T12:26:20Z</time>
      </trkpt>
      <trkpt lat="43.29312" lon="5.81756">
        <ele>499.7</ele>
        <time>2021-10-27T12:26:24Z</time>
      </trkpt>
      <trkpt lat="43.29313" lon="5.81762">
        <ele>499.7</ele>
        <time>2021-10-27T12:26:28Z</time>
      </trkpt>
      <trkpt lat="43.29315" lon="5.81768">
        <ele>499.8</ele>
        <time>2021-10-27T12:26:32Z</time>
      </trkpt>
      <trkpt lat="43.29316" lon="5.81775">
        <ele>499.8</ele>
        <time>2021-10-27T12:26:37Z</time>
      </trkpt>
      <trkpt lat="43.29317" lon="5.81782">
        <ele>499.9</ele>
        <time>2021-10-27T12:26:41Z</time>
      </trkpt>
      <trkpt lat="43.2932" lon="5.81789">
        <ele>500.2</ele>
        <time>2021-10-27T12:26:46Z</time>
      </trkpt>
      <trkpt lat="43.29322" lon="5.81796">
        <ele>500.4</ele>
        <time>2021-10-27T12:26:51Z</time>
      </trkpt>
      <trkpt lat="43.29323" lon="5.81803">
        <ele>500.6</ele>
        <time>2021-10-27T12:26:55Z</time>
      </trkpt>
      <trkpt lat="43.29325" lon="5.81809">
        <ele>500.6</ele>
        <time>2021-10-27T12:27:00Z</time>
      </trkpt>
      <trkpt lat="43.29326" lon="5.81816">
        <ele>500.5</ele>
        <time>2021-10-27T12:27:05Z</time>
      </trkpt>
      <trkpt lat="43.29327" lon="5.81822">
        <ele>500.3</ele>
        <time>2021-10-27T12:27:09Z</time>
      </trkpt>
      <trkpt lat="43.2933" lon="5.81828">
        <ele>500.2</ele>
        <time>2021-10-27T12:27:14Z</time>
      </trkpt>
      <trkpt lat="43.29333" lon="5.81835">
        <ele>500</ele>
        <time>2021-10-27T12:27:18Z</time>
      </trkpt>
      <trkpt lat="43.29334" lon="5.81842">
        <ele>500.4</ele>
        <time>2021-10-27T12:27:23Z</time>
      </trkpt>
      <trkpt lat="43.29335" lon="5.81848">
        <ele>500.7</ele>
        <time>2021-10-27T12:27:28Z</time>
      </trkpt>
      <trkpt lat="43.29338" lon="5.81853">
        <ele>501.1</ele>
        <time>2021-10-27T12:27:33Z</time>
      </trkpt>
      <trkpt lat="43.29342" lon="5.81856">
        <ele>501.5</ele>
        <time>2021-10-27T12:27:38Z</time>
      </trkpt>
      <trkpt lat="43.29346" lon="5.81857">
        <ele>501.9</ele>
        <time>2021-10-27T12:27:47Z</time>
      </trkpt>
      <trkpt lat="43.29351" lon="5.81855">
        <ele>502.2</ele>
        <time>2021-10-27T12:28:07Z</time>
      </trkpt>
      <trkpt lat="43.29353" lon="5.81849">
        <ele>502.3</ele>
        <time>2021-10-27T12:28:25Z</time>
      </trkpt>
      <trkpt lat="43.29354" lon="5.81843">
        <ele>502.4</ele>
        <time>2021-10-27T12:29:10Z</time>
      </trkpt>
      <trkpt lat="43.29355" lon="5.81836">
        <ele>502.4</ele>
        <time>2021-10-27T12:29:16Z</time>
      </trkpt>
      <trkpt lat="43.29356" lon="5.8183">
        <ele>502.6</ele>
        <time>2021-10-27T12:29:22Z</time>
      </trkpt>
      <trkpt lat="43.29358" lon="5.81824">
        <ele>503</ele>
        <time>2021-10-27T12:29:29Z</time>
      </trkpt>
      <trkpt lat="43.29359" lon="5.81818">
        <ele>503.4</ele>
        <time>2021-10-27T12:29:34Z</time>
      </trkpt>
      <trkpt lat="43.2936" lon="5.81811">
        <ele>503.7</ele>
        <time>2021-10-27T12:29:40Z</time>
      </trkpt>
      <trkpt lat="43.29361" lon="5.81805">
        <ele>504.1</ele>
        <time>2021-10-27T12:29:47Z</time>
      </trkpt>
      <trkpt lat="43.29363" lon="5.81798">
        <ele>504.8</ele>
        <time>2021-10-27T12:29:53Z</time>
      </trkpt>
      <trkpt lat="43.29364" lon="5.81792">
        <ele>505.5</ele>
        <time>2021-10-27T12:29:59Z</time>
      </trkpt>
      <trkpt lat="43.29364" lon="5.81786">
        <ele>505.7</ele>
        <time>2021-10-27T12:30:13Z</time>
      </trkpt>
      <trkpt lat="43.29365" lon="5.8178">
        <ele>506.2</ele>
        <time>2021-10-27T12:30:22Z</time>
      </trkpt>
      <trkpt lat="43.29368" lon="5.81774">
        <ele>507.1</ele>
        <time>2021-10-27T12:30:28Z</time>
      </trkpt>
      <trkpt lat="43.29373" lon="5.81772">
        <ele>508.3</ele>
        <time>2021-10-27T12:30:36Z</time>
      </trkpt>
      <trkpt lat="43.29375" lon="5.81777">
        <ele>509.1</ele>
        <time>2021-10-27T12:31:56Z</time>
      </trkpt>
      <trkpt lat="43.29378" lon="5.81782">
        <ele>509.8</ele>
        <time>2021-10-27T12:32:18Z</time>
      </trkpt>
      <trkpt lat="43.29374" lon="5.8178">
        <ele>508.6</ele>
        <time>2021-10-27T13:17:17Z</time>
      </trkpt>
      <trkpt lat="43.29375" lon="5.81774">
        <ele>508.9</ele>
        <time>2021-10-27T13:29:22Z</time>
      </trkpt>
      <trkpt lat="43.29373" lon="5.81768">
        <ele>508.3</ele>
        <time>2021-10-27T13:32:12Z</time>
      </trkpt>
      <trkpt lat="43.29369" lon="5.81765">
        <ele>507.1</ele>
        <time>2021-10-27T13:33:18Z</time>
      </trkpt>
      <trkpt lat="43.29367" lon="5.81772">
        <ele>506.6</ele>
        <time>2021-10-27T13:33:24Z</time>
      </trkpt>
      <trkpt lat="43.29362" lon="5.81775">
        <ele>505.3</ele>
        <time>2021-10-27T13:33:37Z</time>
      </trkpt>
      <trkpt lat="43.29365" lon="5.81768">
        <ele>506</ele>
        <time>2021-10-27T13:33:50Z</time>
      </trkpt>
      <trkpt lat="43.29365" lon="5.81762">
        <ele>506.1</ele>
        <time>2021-10-27T13:34:08Z</time>
      </trkpt>
      <trkpt lat="43.29367" lon="5.81756">
        <ele>506.6</ele>
        <time>2021-10-27T13:34:30Z</time>
      </trkpt>
      <trkpt lat="43.2937" lon="5.81751">
        <ele>507.4</ele>
        <time>2021-10-27T13:34:37Z</time>
      </trkpt>
      <trkpt lat="43.29372" lon="5.81745">
        <ele>508.1</ele>
        <time>2021-10-27T13:34:50Z</time>
      </trkpt>
      <trkpt lat="43.29374" lon="5.81738">
        <ele>508.6</ele>
        <time>2021-10-27T13:34:57Z</time>
      </trkpt>
      <trkpt lat="43.29375" lon="5.81732">
        <ele>509.2</ele>
        <time>2021-10-27T13:35:06Z</time>
      </trkpt>
      <trkpt lat="43.29376" lon="5.81725">
        <ele>509.7</ele>
        <time>2021-10-27T13:35:17Z</time>
      </trkpt>
      <trkpt lat="43.29377" lon="5.81719">
        <ele>510.3</ele>
        <time>2021-10-27T13:35:23Z</time>
      </trkpt>
      <trkpt lat="43.29377" lon="5.81713">
        <ele>511.1</ele>
        <time>2021-10-27T13:35:31Z</time>
      </trkpt>
      <trkpt lat="43.29379" lon="5.81707">
        <ele>512.1</ele>
        <time>2021-10-27T13:35:38Z</time>
      </trkpt>
      <trkpt lat="43.29381" lon="5.81701">
        <ele>513.1</ele>
        <time>2021-10-27T13:35:45Z</time>
      </trkpt>
      <trkpt lat="43.29383" lon="5.81694">
        <ele>513.9</ele>
        <time>2021-10-27T13:35:52Z</time>
      </trkpt>
      <trkpt lat="43.29383" lon="5.81687">
        <ele>513.9</ele>
        <time>2021-10-27T13:35:58Z</time>
      </trkpt>
      <trkpt lat="43.29384" lon="5.81679">
        <ele>514.3</ele>
        <time>2021-10-27T13:36:03Z</time>
      </trkpt>
      <trkpt lat="43.29386" lon="5.81672">
        <ele>514.5</ele>
        <time>2021-10-27T13:36:08Z</time>
      </trkpt>
      <trkpt lat="43.29387" lon="5.81666">
        <ele>514.8</ele>
        <time>2021-10-27T13:36:13Z</time>
      </trkpt>
      <trkpt lat="43.29389" lon="5.8166">
        <ele>515</ele>
        <time>2021-10-27T13:36:19Z</time>
      </trkpt>
      <trkpt lat="43.2939" lon="5.81653">
        <ele>515.2</ele>
        <time>2021-10-27T13:36:25Z</time>
      </trkpt>
      <trkpt lat="43.2939" lon="5.81647">
        <ele>515.2</ele>
        <time>2021-10-27T13:36:30Z</time>
      </trkpt>
      <trkpt lat="43.29391" lon="5.81639">
        <ele>515.3</ele>
        <time>2021-10-27T13:36:34Z</time>
      </trkpt>
      <trkpt lat="43.29393" lon="5.81633">
        <ele>515.6</ele>
        <time>2021-10-27T13:36:39Z</time>
      </trkpt>
      <trkpt lat="43.29395" lon="5.81628">
        <ele>515.9</ele>
        <time>2021-10-27T13:36:44Z</time>
      </trkpt>
      <trkpt lat="43.29397" lon="5.81622">
        <ele>516.2</ele>
        <time>2021-10-27T13:36:49Z</time>
      </trkpt>
      <trkpt lat="43.29397" lon="5.81614">
        <ele>516.1</ele>
        <time>2021-10-27T13:36:54Z</time>
      </trkpt>
      <trkpt lat="43.29397" lon="5.81608">
        <ele>516.2</ele>
        <time>2021-10-27T13:37:00Z</time>
      </trkpt>
      <trkpt lat="43.29398" lon="5.81601">
        <ele>516.4</ele>
        <time>2021-10-27T13:37:06Z</time>
      </trkpt>
      <trkpt lat="43.29399" lon="5.81594">
        <ele>516.7</ele>
        <time>2021-10-27T13:37:11Z</time>
      </trkpt>
      <trkpt lat="43.294" lon="5.81587">
        <ele>517</ele>
        <time>2021-10-27T13:37:14Z</time>
      </trkpt>
      <trkpt lat="43.29402" lon="5.81581">
        <ele>517.4</ele>
        <time>2021-10-27T13:37:19Z</time>
      </trkpt>
      <trkpt lat="43.29404" lon="5.81574">
        <ele>518</ele>
        <time>2021-10-27T13:37:24Z</time>
      </trkpt>
      <trkpt lat="43.29407" lon="5.81568">
        <ele>518.5</ele>
        <time>2021-10-27T13:37:28Z</time>
      </trkpt>
      <trkpt lat="43.29408" lon="5.81562">
        <ele>519</ele>
        <time>2021-10-27T13:37:32Z</time>
      </trkpt>
      <trkpt lat="43.29409" lon="5.81556">
        <ele>519.3</ele>
        <time>2021-10-27T13:37:36Z</time>
      </trkpt>
      <trkpt lat="43.29409" lon="5.81549">
        <ele>519.1</ele>
        <time>2021-10-27T13:37:40Z</time>
      </trkpt>
      <trkpt lat="43.2941" lon="5.81542">
        <ele>519.1</ele>
        <time>2021-10-27T13:37:45Z</time>
      </trkpt>
      <trkpt lat="43.29411" lon="5.81535">
        <ele>519.1</ele>
        <time>2021-10-27T13:37:49Z</time>
      </trkpt>
      <trkpt lat="43.29412" lon="5.81528">
        <ele>519.1</ele>
        <time>2021-10-27T13:37:54Z</time>
      </trkpt>
      <trkpt lat="43.29414" lon="5.81521">
        <ele>519.2</ele>
        <time>2021-10-27T13:37:59Z</time>
      </trkpt>
      <trkpt lat="43.29414" lon="5.81515">
        <ele>519</ele>
        <time>2021-10-27T13:38:03Z</time>
      </trkpt>
      <trkpt lat="43.29415" lon="5.81508">
        <ele>519</ele>
        <time>2021-10-27T13:38:07Z</time>
      </trkpt>
      <trkpt lat="43.29417" lon="5.81502">
        <ele>519</ele>
        <time>2021-10-27T13:38:12Z</time>
      </trkpt>
      <trkpt lat="43.29418" lon="5.81495">
        <ele>519.4</ele>
        <time>2021-10-27T13:38:17Z</time>
      </trkpt>
      <trkpt lat="43.2942" lon="5.81489">
        <ele>519.8</ele>
        <time>2021-10-27T13:38:21Z</time>
      </trkpt>
      <trkpt lat="43.2942" lon="5.81482">
        <ele>519.6</ele>
        <time>2021-10-27T13:38:27Z</time>
      </trkpt>
      <trkpt lat="43.2942" lon="5.81476">
        <ele>519.8</ele>
        <time>2021-10-27T13:38:31Z</time>
      </trkpt>
      <trkpt lat="43.2942" lon="5.81469">
        <ele>519.9</ele>
        <time>2021-10-27T13:38:35Z</time>
      </trkpt>
      <trkpt lat="43.29421" lon="5.81462">
        <ele>520.2</ele>
        <time>2021-10-27T13:38:39Z</time>
      </trkpt>
      <trkpt lat="43.2942" lon="5.81454">
        <ele>520.4</ele>
        <time>2021-10-27T13:38:43Z</time>
      </trkpt>
      <trkpt lat="43.29421" lon="5.81448">
        <ele>520.8</ele>
        <time>2021-10-27T13:38:46Z</time>
      </trkpt>
      <trkpt lat="43.29422" lon="5.81441">
        <ele>521</ele>
        <time>2021-10-27T13:38:52Z</time>
      </trkpt>
      <trkpt lat="43.29424" lon="5.81434">
        <ele>521.4</ele>
        <time>2021-10-27T13:38:58Z</time>
      </trkpt>
      <trkpt lat="43.29425" lon="5.81427">
        <ele>521.7</ele>
        <time>2021-10-27T13:39:02Z</time>
      </trkpt>
      <trkpt lat="43.29425" lon="5.8142">
        <ele>521.8</ele>
        <time>2021-10-27T13:39:07Z</time>
      </trkpt>
      <trkpt lat="43.29426" lon="5.81412">
        <ele>522</ele>
        <time>2021-10-27T13:39:11Z</time>
      </trkpt>
      <trkpt lat="43.29427" lon="5.81406">
        <ele>522.3</ele>
        <time>2021-10-27T13:39:17Z</time>
      </trkpt>
      <trkpt lat="43.29429" lon="5.814">
        <ele>522.7</ele>
        <time>2021-10-27T13:39:22Z</time>
      </trkpt>
      <trkpt lat="43.29431" lon="5.81393">
        <ele>523.1</ele>
        <time>2021-10-27T13:39:26Z</time>
      </trkpt>
      <trkpt lat="43.29433" lon="5.81386">
        <ele>523.4</ele>
        <time>2021-10-27T13:39:30Z</time>
      </trkpt>
      <trkpt lat="43.29435" lon="5.81379">
        <ele>523.9</ele>
        <time>2021-10-27T13:39:35Z</time>
      </trkpt>
      <trkpt lat="43.29436" lon="5.81373">
        <ele>524.2</ele>
        <time>2021-10-27T13:39:39Z</time>
      </trkpt>
      <trkpt lat="43.29436" lon="5.81366">
        <ele>524.3</ele>
        <time>2021-10-27T13:39:47Z</time>
      </trkpt>
      <trkpt lat="43.29438" lon="5.8136">
        <ele>524.6</ele>
        <time>2021-10-27T13:39:52Z</time>
      </trkpt>
      <trkpt lat="43.29439" lon="5.81353">
        <ele>524.9</ele>
        <time>2021-10-27T13:39:56Z</time>
      </trkpt>
      <trkpt lat="43.29442" lon="5.81347">
        <ele>525.6</ele>
        <time>2021-10-27T13:40:00Z</time>
      </trkpt>
      <trkpt lat="43.29444" lon="5.8134">
        <ele>525.9</ele>
        <time>2021-10-27T13:40:05Z</time>
      </trkpt>
      <trkpt lat="43.29445" lon="5.81333">
        <ele>526</ele>
        <time>2021-10-27T13:40:11Z</time>
      </trkpt>
      <trkpt lat="43.29446" lon="5.81326">
        <ele>526.1</ele>
        <time>2021-10-27T13:40:17Z</time>
      </trkpt>
      <trkpt lat="43.29446" lon="5.81318">
        <ele>526.1</ele>
        <time>2021-10-27T13:40:22Z</time>
      </trkpt>
      <trkpt lat="43.29447" lon="5.81312">
        <ele>526.2</ele>
        <time>2021-10-27T13:40:26Z</time>
      </trkpt>
      <trkpt lat="43.29449" lon="5.81306">
        <ele>526.3</ele>
        <time>2021-10-27T13:40:30Z</time>
      </trkpt>
      <trkpt lat="43.29451" lon="5.813">
        <ele>526.7</ele>
        <time>2021-10-27T13:40:34Z</time>
      </trkpt>
      <trkpt lat="43.29453" lon="5.81294">
        <ele>527.1</ele>
        <time>2021-10-27T13:40:38Z</time>
      </trkpt>
      <trkpt lat="43.29456" lon="5.81287">
        <ele>527.5</ele>
        <time>2021-10-27T13:40:43Z</time>
      </trkpt>
      <trkpt lat="43.29457" lon="5.81281">
        <ele>527.8</ele>
        <time>2021-10-27T13:40:47Z</time>
      </trkpt>
      <trkpt lat="43.29458" lon="5.81274">
        <ele>528</ele>
        <time>2021-10-27T13:40:51Z</time>
      </trkpt>
      <trkpt lat="43.29459" lon="5.81268">
        <ele>528</ele>
        <time>2021-10-27T13:40:54Z</time>
      </trkpt>
      <trkpt lat="43.2946" lon="5.81262">
        <ele>528.1</ele>
        <time>2021-10-27T13:40:58Z</time>
      </trkpt>
      <trkpt lat="43.29459" lon="5.81255">
        <ele>528.1</ele>
        <time>2021-10-27T13:41:03Z</time>
      </trkpt>
      <trkpt lat="43.29459" lon="5.81248">
        <ele>528</ele>
        <time>2021-10-27T13:41:08Z</time>
      </trkpt>
      <trkpt lat="43.29459" lon="5.81241">
        <ele>528.1</ele>
        <time>2021-10-27T13:41:13Z</time>
      </trkpt>
      <trkpt lat="43.29461" lon="5.81235">
        <ele>528.2</ele>
        <time>2021-10-27T13:41:17Z</time>
      </trkpt>
      <trkpt lat="43.29464" lon="5.81229">
        <ele>528.4</ele>
        <time>2021-10-27T13:41:21Z</time>
      </trkpt>
      <trkpt lat="43.29467" lon="5.81224">
        <ele>528.7</ele>
        <time>2021-10-27T13:41:25Z</time>
      </trkpt>
      <trkpt lat="43.29469" lon="5.81217">
        <ele>528.8</ele>
        <time>2021-10-27T13:41:29Z</time>
      </trkpt>
      <trkpt lat="43.2947" lon="5.8121">
        <ele>528.9</ele>
        <time>2021-10-27T13:41:33Z</time>
      </trkpt>
      <trkpt lat="43.29472" lon="5.81202">
        <ele>529</ele>
        <time>2021-10-27T13:41:39Z</time>
      </trkpt>
      <trkpt lat="43.29473" lon="5.81196">
        <ele>529</ele>
        <time>2021-10-27T13:41:43Z</time>
      </trkpt>
      <trkpt lat="43.29474" lon="5.81189">
        <ele>529.1</ele>
        <time>2021-10-27T13:41:48Z</time>
      </trkpt>
      <trkpt lat="43.29474" lon="5.81182">
        <ele>529.1</ele>
        <time>2021-10-27T13:41:52Z</time>
      </trkpt>
      <trkpt lat="43.29475" lon="5.81176">
        <ele>529.1</ele>
        <time>2021-10-27T13:41:57Z</time>
      </trkpt>
      <trkpt lat="43.29477" lon="5.8117">
        <ele>529.2</ele>
        <time>2021-10-27T13:42:02Z</time>
      </trkpt>
      <trkpt lat="43.29477" lon="5.81163">
        <ele>529.3</ele>
        <time>2021-10-27T13:42:06Z</time>
      </trkpt>
      <trkpt lat="43.29478" lon="5.81156">
        <ele>529.6</ele>
        <time>2021-10-27T13:42:10Z</time>
      </trkpt>
      <trkpt lat="43.29479" lon="5.81148">
        <ele>529.9</ele>
        <time>2021-10-27T13:42:15Z</time>
      </trkpt>
      <trkpt lat="43.2948" lon="5.81142">
        <ele>530.2</ele>
        <time>2021-10-27T13:42:19Z</time>
      </trkpt>
      <trkpt lat="43.29481" lon="5.81135">
        <ele>530.5</ele>
        <time>2021-10-27T13:42:24Z</time>
      </trkpt>
      <trkpt lat="43.29483" lon="5.81128">
        <ele>530.8</ele>
        <time>2021-10-27T13:42:29Z</time>
      </trkpt>
      <trkpt lat="43.29484" lon="5.81122">
        <ele>531</ele>
        <time>2021-10-27T13:42:34Z</time>
      </trkpt>
      <trkpt lat="43.29485" lon="5.81115">
        <ele>531.3</ele>
        <time>2021-10-27T13:42:39Z</time>
      </trkpt>
      <trkpt lat="43.29486" lon="5.81108">
        <ele>531.6</ele>
        <time>2021-10-27T13:42:44Z</time>
      </trkpt>
      <trkpt lat="43.29485" lon="5.81101">
        <ele>531.8</ele>
        <time>2021-10-27T13:42:48Z</time>
      </trkpt>
      <trkpt lat="43.29486" lon="5.81095">
        <ele>532.1</ele>
        <time>2021-10-27T13:42:52Z</time>
      </trkpt>
      <trkpt lat="43.29486" lon="5.81088">
        <ele>532.3</ele>
        <time>2021-10-27T13:42:56Z</time>
      </trkpt>
      <trkpt lat="43.29487" lon="5.81081">
        <ele>532.6</ele>
        <time>2021-10-27T13:43:00Z</time>
      </trkpt>
      <trkpt lat="43.29489" lon="5.81075">
        <ele>532.8</ele>
        <time>2021-10-27T13:43:04Z</time>
      </trkpt>
      <trkpt lat="43.2949" lon="5.81068">
        <ele>533</ele>
        <time>2021-10-27T13:43:08Z</time>
      </trkpt>
      <trkpt lat="43.29491" lon="5.81062">
        <ele>533.2</ele>
        <time>2021-10-27T13:43:12Z</time>
      </trkpt>
      <trkpt lat="43.29493" lon="5.81056">
        <ele>533.5</ele>
        <time>2021-10-27T13:43:16Z</time>
      </trkpt>
      <trkpt lat="43.29494" lon="5.8105">
        <ele>533.6</ele>
        <time>2021-10-27T13:43:20Z</time>
      </trkpt>
      <trkpt lat="43.29495" lon="5.81044">
        <ele>533.7</ele>
        <time>2021-10-27T13:43:24Z</time>
      </trkpt>
      <trkpt lat="43.29496" lon="5.81037">
        <ele>533.8</ele>
        <time>2021-10-27T13:43:28Z</time>
      </trkpt>
      <trkpt lat="43.29497" lon="5.81031">
        <ele>533.9</ele>
        <time>2021-10-27T13:43:33Z</time>
      </trkpt>
      <trkpt lat="43.295" lon="5.81025">
        <ele>534.1</ele>
        <time>2021-10-27T13:43:37Z</time>
      </trkpt>
      <trkpt lat="43.29502" lon="5.81018">
        <ele>534.4</ele>
        <time>2021-10-27T13:43:41Z</time>
      </trkpt>
      <trkpt lat="43.29502" lon="5.81012">
        <ele>534.7</ele>
        <time>2021-10-27T13:43:45Z</time>
      </trkpt>
      <trkpt lat="43.29503" lon="5.81006">
        <ele>534.9</ele>
        <time>2021-10-27T13:43:50Z</time>
      </trkpt>
      <trkpt lat="43.29503" lon="5.80999">
        <ele>535.1</ele>
        <time>2021-10-27T13:43:55Z</time>
      </trkpt>
      <trkpt lat="43.29505" lon="5.80992">
        <ele>535.2</ele>
        <time>2021-10-27T13:43:59Z</time>
      </trkpt>
      <trkpt lat="43.29506" lon="5.80984">
        <ele>535.2</ele>
        <time>2021-10-27T13:44:03Z</time>
      </trkpt>
      <trkpt lat="43.29507" lon="5.80977">
        <ele>535.2</ele>
        <time>2021-10-27T13:44:07Z</time>
      </trkpt>
      <trkpt lat="43.29507" lon="5.8097">
        <ele>535.3</ele>
        <time>2021-10-27T13:44:11Z</time>
      </trkpt>
      <trkpt lat="43.29508" lon="5.80963">
        <ele>535.3</ele>
        <time>2021-10-27T13:44:15Z</time>
      </trkpt>
      <trkpt lat="43.2951" lon="5.80956">
        <ele>535.3</ele>
        <time>2021-10-27T13:44:20Z</time>
      </trkpt>
      <trkpt lat="43.29511" lon="5.8095">
        <ele>535.4</ele>
        <time>2021-10-27T13:44:24Z</time>
      </trkpt>
      <trkpt lat="43.29512" lon="5.80943">
        <ele>535.4</ele>
        <time>2021-10-27T13:44:28Z</time>
      </trkpt>
      <trkpt lat="43.29514" lon="5.80937">
        <ele>535.5</ele>
        <time>2021-10-27T13:44:33Z</time>
      </trkpt>
      <trkpt lat="43.29515" lon="5.80931">
        <ele>535.6</ele>
        <time>2021-10-27T13:44:37Z</time>
      </trkpt>
      <trkpt lat="43.29517" lon="5.80924">
        <ele>535.6</ele>
        <time>2021-10-27T13:44:41Z</time>
      </trkpt>
      <trkpt lat="43.29518" lon="5.80917">
        <ele>535.6</ele>
        <time>2021-10-27T13:44:46Z</time>
      </trkpt>
      <trkpt lat="43.2952" lon="5.80912">
        <ele>535.7</ele>
        <time>2021-10-27T13:44:50Z</time>
      </trkpt>
      <trkpt lat="43.29521" lon="5.80906">
        <ele>535.8</ele>
        <time>2021-10-27T13:44:54Z</time>
      </trkpt>
      <trkpt lat="43.29523" lon="5.80899">
        <ele>535.8</ele>
        <time>2021-10-27T13:44:58Z</time>
      </trkpt>
      <trkpt lat="43.29524" lon="5.80892">
        <ele>535.9</ele>
        <time>2021-10-27T13:45:02Z</time>
      </trkpt>
      <trkpt lat="43.29526" lon="5.80885">
        <ele>535.9</ele>
        <time>2021-10-27T13:45:07Z</time>
      </trkpt>
      <trkpt lat="43.29528" lon="5.80878">
        <ele>536</ele>
        <time>2021-10-27T13:45:11Z</time>
      </trkpt>
      <trkpt lat="43.2953" lon="5.80872">
        <ele>536.1</ele>
        <time>2021-10-27T13:45:15Z</time>
      </trkpt>
      <trkpt lat="43.29532" lon="5.80865">
        <ele>536.2</ele>
        <time>2021-10-27T13:45:20Z</time>
      </trkpt>
      <trkpt lat="43.29535" lon="5.80858">
        <ele>536.3</ele>
        <time>2021-10-27T13:45:24Z</time>
      </trkpt>
      <trkpt lat="43.29537" lon="5.80851">
        <ele>536.5</ele>
        <time>2021-10-27T13:45:29Z</time>
      </trkpt>
      <trkpt lat="43.29539" lon="5.80844">
        <ele>536.7</ele>
        <time>2021-10-27T13:45:34Z</time>
      </trkpt>
      <trkpt lat="43.29541" lon="5.80838">
        <ele>536.9</ele>
        <time>2021-10-27T13:45:39Z</time>
      </trkpt>
      <trkpt lat="43.29543" lon="5.8083">
        <ele>537.1</ele>
        <time>2021-10-27T13:45:44Z</time>
      </trkpt>
      <trkpt lat="43.29545" lon="5.80824">
        <ele>537.3</ele>
        <time>2021-10-27T13:45:48Z</time>
      </trkpt>
      <trkpt lat="43.29547" lon="5.80818">
        <ele>537.4</ele>
        <time>2021-10-27T13:45:52Z</time>
      </trkpt>
      <trkpt lat="43.29549" lon="5.80812">
        <ele>537.5</ele>
        <time>2021-10-27T13:45:57Z</time>
      </trkpt>
      <trkpt lat="43.29551" lon="5.80806">
        <ele>537.7</ele>
        <time>2021-10-27T13:46:01Z</time>
      </trkpt>
      <trkpt lat="43.29554" lon="5.808">
        <ele>537.9</ele>
        <time>2021-10-27T13:46:07Z</time>
      </trkpt>
      <trkpt lat="43.29555" lon="5.80794">
        <ele>537.9</ele>
        <time>2021-10-27T13:46:12Z</time>
      </trkpt>
      <trkpt lat="43.29557" lon="5.80787">
        <ele>538.1</ele>
        <time>2021-10-27T13:46:16Z</time>
      </trkpt>
      <trkpt lat="43.29559" lon="5.80781">
        <ele>538.1</ele>
        <time>2021-10-27T13:46:20Z</time>
      </trkpt>
      <trkpt lat="43.29561" lon="5.80775">
        <ele>538.2</ele>
        <time>2021-10-27T13:46:24Z</time>
      </trkpt>
      <trkpt lat="43.29562" lon="5.80768">
        <ele>538.2</ele>
        <time>2021-10-27T13:46:29Z</time>
      </trkpt>
      <trkpt lat="43.29563" lon="5.8076">
        <ele>538.3</ele>
        <time>2021-10-27T13:46:33Z</time>
      </trkpt>
      <trkpt lat="43.29565" lon="5.80753">
        <ele>538.3</ele>
        <time>2021-10-27T13:46:37Z</time>
      </trkpt>
      <trkpt lat="43.29567" lon="5.80746">
        <ele>538.4</ele>
        <time>2021-10-27T13:46:42Z</time>
      </trkpt>
      <trkpt lat="43.29569" lon="5.80739">
        <ele>538.5</ele>
        <time>2021-10-27T13:46:46Z</time>
      </trkpt>
      <trkpt lat="43.29571" lon="5.80733">
        <ele>538.6</ele>
        <time>2021-10-27T13:46:50Z</time>
      </trkpt>
      <trkpt lat="43.29573" lon="5.80726">
        <ele>538.6</ele>
        <time>2021-10-27T13:46:56Z</time>
      </trkpt>
      <trkpt lat="43.29574" lon="5.80719">
        <ele>538.7</ele>
        <time>2021-10-27T13:46:59Z</time>
      </trkpt>
      <trkpt lat="43.29575" lon="5.80712">
        <ele>538.7</ele>
        <time>2021-10-27T13:47:04Z</time>
      </trkpt>
      <trkpt lat="43.29576" lon="5.80705">
        <ele>538.7</ele>
        <time>2021-10-27T13:47:08Z</time>
      </trkpt>
      <trkpt lat="43.29578" lon="5.80698">
        <ele>538.8</ele>
        <time>2021-10-27T13:47:13Z</time>
      </trkpt>
      <trkpt lat="43.2958" lon="5.80692">
        <ele>539</ele>
        <time>2021-10-27T13:47:18Z</time>
      </trkpt>
      <trkpt lat="43.29582" lon="5.80685">
        <ele>539.3</ele>
        <time>2021-10-27T13:47:22Z</time>
      </trkpt>
      <trkpt lat="43.29583" lon="5.80678">
        <ele>539.6</ele>
        <time>2021-10-27T13:47:26Z</time>
      </trkpt>
      <trkpt lat="43.29583" lon="5.80671">
        <ele>539.8</ele>
        <time>2021-10-27T13:47:30Z</time>
      </trkpt>
      <trkpt lat="43.29584" lon="5.80665">
        <ele>540</ele>
        <time>2021-10-27T13:47:35Z</time>
      </trkpt>
      <trkpt lat="43.29585" lon="5.80658">
        <ele>540.1</ele>
        <time>2021-10-27T13:47:39Z</time>
      </trkpt>
      <trkpt lat="43.29586" lon="5.80652">
        <ele>540.2</ele>
        <time>2021-10-27T13:47:44Z</time>
      </trkpt>
      <trkpt lat="43.29587" lon="5.80646">
        <ele>540.2</ele>
        <time>2021-10-27T13:47:48Z</time>
      </trkpt>
      <trkpt lat="43.29588" lon="5.80638">
        <ele>540.3</ele>
        <time>2021-10-27T13:47:53Z</time>
      </trkpt>
      <trkpt lat="43.29589" lon="5.80632">
        <ele>540.6</ele>
        <time>2021-10-27T13:47:57Z</time>
      </trkpt>
      <trkpt lat="43.29591" lon="5.80625">
        <ele>540.9</ele>
        <time>2021-10-27T13:48:01Z</time>
      </trkpt>
      <trkpt lat="43.29592" lon="5.80617">
        <ele>541.2</ele>
        <time>2021-10-27T13:48:06Z</time>
      </trkpt>
      <trkpt lat="43.29594" lon="5.8061">
        <ele>541.4</ele>
        <time>2021-10-27T13:48:10Z</time>
      </trkpt>
      <trkpt lat="43.29596" lon="5.80604">
        <ele>541.5</ele>
        <time>2021-10-27T13:48:15Z</time>
      </trkpt>
      <trkpt lat="43.29597" lon="5.80597">
        <ele>541.5</ele>
        <time>2021-10-27T13:48:19Z</time>
      </trkpt>
      <trkpt lat="43.29598" lon="5.80591">
        <ele>541.5</ele>
        <time>2021-10-27T13:48:23Z</time>
      </trkpt>
      <trkpt lat="43.29599" lon="5.80584">
        <ele>541.6</ele>
        <time>2021-10-27T13:48:29Z</time>
      </trkpt>
      <trkpt lat="43.29602" lon="5.80578">
        <ele>541.9</ele>
        <time>2021-10-27T13:48:33Z</time>
      </trkpt>
      <trkpt lat="43.29603" lon="5.8057">
        <ele>542.2</ele>
        <time>2021-10-27T13:48:37Z</time>
      </trkpt>
      <trkpt lat="43.29602" lon="5.80564">
        <ele>542.4</ele>
        <time>2021-10-27T13:48:41Z</time>
      </trkpt>
      <trkpt lat="43.29604" lon="5.80557">
        <ele>542.7</ele>
        <time>2021-10-27T13:48:45Z</time>
      </trkpt>
      <trkpt lat="43.29604" lon="5.80551">
        <ele>542.9</ele>
        <time>2021-10-27T13:48:49Z</time>
      </trkpt>
      <trkpt lat="43.29606" lon="5.80544">
        <ele>543.2</ele>
        <time>2021-10-27T13:48:54Z</time>
      </trkpt>
      <trkpt lat="43.29606" lon="5.80538">
        <ele>543.4</ele>
        <time>2021-10-27T13:48:59Z</time>
      </trkpt>
      <trkpt lat="43.29607" lon="5.80532">
        <ele>543.7</ele>
        <time>2021-10-27T13:49:03Z</time>
      </trkpt>
      <trkpt lat="43.29608" lon="5.80525">
        <ele>544</ele>
        <time>2021-10-27T13:49:08Z</time>
      </trkpt>
      <trkpt lat="43.29608" lon="5.80518">
        <ele>544.2</ele>
        <time>2021-10-27T13:49:14Z</time>
      </trkpt>
      <trkpt lat="43.2961" lon="5.80511">
        <ele>544.5</ele>
        <time>2021-10-27T13:49:19Z</time>
      </trkpt>
      <trkpt lat="43.29609" lon="5.80505">
        <ele>544.8</ele>
        <time>2021-10-27T13:49:23Z</time>
      </trkpt>
      <trkpt lat="43.2961" lon="5.80498">
        <ele>545</ele>
        <time>2021-10-27T13:49:27Z</time>
      </trkpt>
      <trkpt lat="43.29612" lon="5.80492">
        <ele>545.3</ele>
        <time>2021-10-27T13:49:32Z</time>
      </trkpt>
      <trkpt lat="43.29614" lon="5.80486">
        <ele>545.4</ele>
        <time>2021-10-27T13:49:37Z</time>
      </trkpt>
      <trkpt lat="43.29616" lon="5.8048">
        <ele>545.6</ele>
        <time>2021-10-27T13:49:42Z</time>
      </trkpt>
      <trkpt lat="43.29618" lon="5.80473">
        <ele>545.7</ele>
        <time>2021-10-27T13:49:46Z</time>
      </trkpt>
      <trkpt lat="43.29619" lon="5.80466">
        <ele>545.9</ele>
        <time>2021-10-27T13:49:50Z</time>
      </trkpt>
      <trkpt lat="43.29622" lon="5.80459">
        <ele>546.1</ele>
        <time>2021-10-27T13:49:55Z</time>
      </trkpt>
      <trkpt lat="43.29623" lon="5.80452">
        <ele>546.3</ele>
        <time>2021-10-27T13:50:02Z</time>
      </trkpt>
      <trkpt lat="43.29624" lon="5.80445">
        <ele>546.5</ele>
        <time>2021-10-27T13:50:05Z</time>
      </trkpt>
      <trkpt lat="43.29624" lon="5.80438">
        <ele>546.8</ele>
        <time>2021-10-27T13:50:09Z</time>
      </trkpt>
      <trkpt lat="43.29625" lon="5.80431">
        <ele>547</ele>
        <time>2021-10-27T13:50:13Z</time>
      </trkpt>
      <trkpt lat="43.29626" lon="5.80425">
        <ele>547.2</ele>
        <time>2021-10-27T13:50:17Z</time>
      </trkpt>
      <trkpt lat="43.29628" lon="5.80419">
        <ele>547.3</ele>
        <time>2021-10-27T13:50:21Z</time>
      </trkpt>
      <trkpt lat="43.2963" lon="5.80413">
        <ele>547.3</ele>
        <time>2021-10-27T13:50:26Z</time>
      </trkpt>
      <trkpt lat="43.29631" lon="5.80407">
        <ele>547.3</ele>
        <time>2021-10-27T13:50:30Z</time>
      </trkpt>
      <trkpt lat="43.29631" lon="5.80399">
        <ele>547.3</ele>
        <time>2021-10-27T13:50:35Z</time>
      </trkpt>
      <trkpt lat="43.29633" lon="5.80392">
        <ele>547.2</ele>
        <time>2021-10-27T13:50:40Z</time>
      </trkpt>
      <trkpt lat="43.29635" lon="5.80386">
        <ele>547.3</ele>
        <time>2021-10-27T13:50:45Z</time>
      </trkpt>
      <trkpt lat="43.29637" lon="5.8038">
        <ele>547.4</ele>
        <time>2021-10-27T13:50:49Z</time>
      </trkpt>
      <trkpt lat="43.29638" lon="5.80373">
        <ele>547.6</ele>
        <time>2021-10-27T13:50:53Z</time>
      </trkpt>
      <trkpt lat="43.29639" lon="5.80366">
        <ele>547.8</ele>
        <time>2021-10-27T13:50:58Z</time>
      </trkpt>
      <trkpt lat="43.29642" lon="5.8036">
        <ele>547.9</ele>
        <time>2021-10-27T13:51:03Z</time>
      </trkpt>
      <trkpt lat="43.29644" lon="5.80354">
        <ele>548</ele>
        <time>2021-10-27T13:51:07Z</time>
      </trkpt>
      <trkpt lat="43.29646" lon="5.80348">
        <ele>548.2</ele>
        <time>2021-10-27T13:51:12Z</time>
      </trkpt>
      <trkpt lat="43.29647" lon="5.80341">
        <ele>548.4</ele>
        <time>2021-10-27T13:51:16Z</time>
      </trkpt>
      <trkpt lat="43.29648" lon="5.80334">
        <ele>548.7</ele>
        <time>2021-10-27T13:51:20Z</time>
      </trkpt>
      <trkpt lat="43.29649" lon="5.80327">
        <ele>548.7</ele>
        <time>2021-10-27T13:51:26Z</time>
      </trkpt>
      <trkpt lat="43.2965" lon="5.8032">
        <ele>548.8</ele>
        <time>2021-10-27T13:51:30Z</time>
      </trkpt>
      <trkpt lat="43.29652" lon="5.80313">
        <ele>548.9</ele>
        <time>2021-10-27T13:51:35Z</time>
      </trkpt>
      <trkpt lat="43.29654" lon="5.80306">
        <ele>549</ele>
        <time>2021-10-27T13:51:40Z</time>
      </trkpt>
      <trkpt lat="43.29656" lon="5.803">
        <ele>549.1</ele>
        <time>2021-10-27T13:51:44Z</time>
      </trkpt>
      <trkpt lat="43.29657" lon="5.80293">
        <ele>549.2</ele>
        <time>2021-10-27T13:51:49Z</time>
      </trkpt>
      <trkpt lat="43.29659" lon="5.80286">
        <ele>549.2</ele>
        <time>2021-10-27T13:51:54Z</time>
      </trkpt>
      <trkpt lat="43.2966" lon="5.80279">
        <ele>549.2</ele>
        <time>2021-10-27T13:52:00Z</time>
      </trkpt>
      <trkpt lat="43.29661" lon="5.80273">
        <ele>549.3</ele>
        <time>2021-10-27T13:52:04Z</time>
      </trkpt>
      <trkpt lat="43.29662" lon="5.80265">
        <ele>549.5</ele>
        <time>2021-10-27T13:52:08Z</time>
      </trkpt>
      <trkpt lat="43.29663" lon="5.80259">
        <ele>549.7</ele>
        <time>2021-10-27T13:52:14Z</time>
      </trkpt>
      <trkpt lat="43.29664" lon="5.80253">
        <ele>549.9</ele>
        <time>2021-10-27T13:52:18Z</time>
      </trkpt>
      <trkpt lat="43.29665" lon="5.80246">
        <ele>550.1</ele>
        <time>2021-10-27T13:52:22Z</time>
      </trkpt>
      <trkpt lat="43.29668" lon="5.8024">
        <ele>550.4</ele>
        <time>2021-10-27T13:52:26Z</time>
      </trkpt>
      <trkpt lat="43.29669" lon="5.80233">
        <ele>550.6</ele>
        <time>2021-10-27T13:52:31Z</time>
      </trkpt>
      <trkpt lat="43.29669" lon="5.80226">
        <ele>550.9</ele>
        <time>2021-10-27T13:52:36Z</time>
      </trkpt>
      <trkpt lat="43.29669" lon="5.80219">
        <ele>551</ele>
        <time>2021-10-27T13:52:39Z</time>
      </trkpt>
      <trkpt lat="43.2967" lon="5.80213">
        <ele>551</ele>
        <time>2021-10-27T13:52:43Z</time>
      </trkpt>
      <trkpt lat="43.29672" lon="5.80206">
        <ele>551</ele>
        <time>2021-10-27T13:52:48Z</time>
      </trkpt>
      <trkpt lat="43.29674" lon="5.802">
        <ele>551</ele>
        <time>2021-10-27T13:52:52Z</time>
      </trkpt>
      <trkpt lat="43.29676" lon="5.80195">
        <ele>551</ele>
        <time>2021-10-27T13:52:56Z</time>
      </trkpt>
      <trkpt lat="43.29677" lon="5.80188">
        <ele>551</ele>
        <time>2021-10-27T13:53:00Z</time>
      </trkpt>
      <trkpt lat="43.29678" lon="5.80181">
        <ele>551</ele>
        <time>2021-10-27T13:53:04Z</time>
      </trkpt>
      <trkpt lat="43.2968" lon="5.80174">
        <ele>551</ele>
        <time>2021-10-27T13:53:09Z</time>
      </trkpt>
      <trkpt lat="43.29682" lon="5.80168">
        <ele>551</ele>
        <time>2021-10-27T13:53:14Z</time>
      </trkpt>
      <trkpt lat="43.29684" lon="5.80161">
        <ele>551.1</ele>
        <time>2021-10-27T13:53:19Z</time>
      </trkpt>
      <trkpt lat="43.29686" lon="5.80155">
        <ele>551.1</ele>
        <time>2021-10-27T13:53:23Z</time>
      </trkpt>
      <trkpt lat="43.29687" lon="5.80149">
        <ele>551.2</ele>
        <time>2021-10-27T13:53:27Z</time>
      </trkpt>
      <trkpt lat="43.29689" lon="5.80143">
        <ele>551.2</ele>
        <time>2021-10-27T13:53:31Z</time>
      </trkpt>
      <trkpt lat="43.2969" lon="5.80136">
        <ele>551.3</ele>
        <time>2021-10-27T13:53:37Z</time>
      </trkpt>
      <trkpt lat="43.29691" lon="5.80129">
        <ele>551.5</ele>
        <time>2021-10-27T13:53:42Z</time>
      </trkpt>
      <trkpt lat="43.29691" lon="5.80122">
        <ele>551.7</ele>
        <time>2021-10-27T13:53:46Z</time>
      </trkpt>
      <trkpt lat="43.29694" lon="5.80116">
        <ele>551.8</ele>
        <time>2021-10-27T13:53:52Z</time>
      </trkpt>
      <trkpt lat="43.29696" lon="5.80111">
        <ele>551.9</ele>
        <time>2021-10-27T13:53:56Z</time>
      </trkpt>
      <trkpt lat="43.29698" lon="5.80103">
        <ele>551.9</ele>
        <time>2021-10-27T13:54:00Z</time>
      </trkpt>
      <trkpt lat="43.29699" lon="5.80096">
        <ele>551.8</ele>
        <time>2021-10-27T13:54:05Z</time>
      </trkpt>
      <trkpt lat="43.297" lon="5.8009">
        <ele>551.8</ele>
        <time>2021-10-27T13:54:10Z</time>
      </trkpt>
      <trkpt lat="43.29701" lon="5.80083">
        <ele>551.8</ele>
        <time>2021-10-27T13:54:16Z</time>
      </trkpt>
      <trkpt lat="43.29703" lon="5.80076">
        <ele>551.9</ele>
        <time>2021-10-27T13:54:20Z</time>
      </trkpt>
      <trkpt lat="43.29702" lon="5.80068">
        <ele>552.1</ele>
        <time>2021-10-27T13:54:24Z</time>
      </trkpt>
      <trkpt lat="43.29704" lon="5.80061">
        <ele>552.2</ele>
        <time>2021-10-27T13:54:28Z</time>
      </trkpt>
      <trkpt lat="43.29705" lon="5.80054">
        <ele>552.3</ele>
        <time>2021-10-27T13:54:33Z</time>
      </trkpt>
      <trkpt lat="43.29706" lon="5.80048">
        <ele>552.3</ele>
        <time>2021-10-27T13:54:38Z</time>
      </trkpt>
      <trkpt lat="43.29708" lon="5.80042">
        <ele>552.2</ele>
        <time>2021-10-27T13:54:42Z</time>
      </trkpt>
      <trkpt lat="43.2971" lon="5.80036">
        <ele>552.3</ele>
        <time>2021-10-27T13:54:46Z</time>
      </trkpt>
      <trkpt lat="43.29713" lon="5.80029">
        <ele>552.3</ele>
        <time>2021-10-27T13:54:50Z</time>
      </trkpt>
      <trkpt lat="43.29715" lon="5.80022">
        <ele>552.3</ele>
        <time>2021-10-27T13:54:54Z</time>
      </trkpt>
      <trkpt lat="43.29716" lon="5.80015">
        <ele>552.2</ele>
        <time>2021-10-27T13:54:58Z</time>
      </trkpt>
      <trkpt lat="43.29717" lon="5.80008">
        <ele>552.2</ele>
        <time>2021-10-27T13:55:02Z</time>
      </trkpt>
      <trkpt lat="43.29717" lon="5.8">
        <ele>552.2</ele>
        <time>2021-10-27T13:55:07Z</time>
      </trkpt>
      <trkpt lat="43.29718" lon="5.79993">
        <ele>552.4</ele>
        <time>2021-10-27T13:55:12Z</time>
      </trkpt>
      <trkpt lat="43.29718" lon="5.79987">
        <ele>552.5</ele>
        <time>2021-10-27T13:55:16Z</time>
      </trkpt>
      <trkpt lat="43.2972" lon="5.7998">
        <ele>552.8</ele>
        <time>2021-10-27T13:55:21Z</time>
      </trkpt>
      <trkpt lat="43.29722" lon="5.79974">
        <ele>552.9</ele>
        <time>2021-10-27T13:55:28Z</time>
      </trkpt>
      <trkpt lat="43.29724" lon="5.79968">
        <ele>552.9</ele>
        <time>2021-10-27T13:55:33Z</time>
      </trkpt>
      <trkpt lat="43.29726" lon="5.79962">
        <ele>552.9</ele>
        <time>2021-10-27T13:55:37Z</time>
      </trkpt>
      <trkpt lat="43.29727" lon="5.79955">
        <ele>552.9</ele>
        <time>2021-10-27T13:55:40Z</time>
      </trkpt>
      <trkpt lat="43.29729" lon="5.79947">
        <ele>553</ele>
        <time>2021-10-27T13:55:44Z</time>
      </trkpt>
      <trkpt lat="43.2973" lon="5.79941">
        <ele>553.1</ele>
        <time>2021-10-27T13:55:47Z</time>
      </trkpt>
      <trkpt lat="43.29733" lon="5.79935">
        <ele>553.2</ele>
        <time>2021-10-27T13:55:51Z</time>
      </trkpt>
      <trkpt lat="43.29734" lon="5.79929">
        <ele>553.3</ele>
        <time>2021-10-27T13:55:55Z</time>
      </trkpt>
      <trkpt lat="43.29736" lon="5.79922">
        <ele>553.4</ele>
        <time>2021-10-27T13:55:59Z</time>
      </trkpt>
      <trkpt lat="43.29737" lon="5.79916">
        <ele>553.5</ele>
        <time>2021-10-27T13:56:03Z</time>
      </trkpt>
      <trkpt lat="43.29738" lon="5.79909">
        <ele>553.4</ele>
        <time>2021-10-27T13:56:07Z</time>
      </trkpt>
      <trkpt lat="43.2974" lon="5.79902">
        <ele>553.4</ele>
        <time>2021-10-27T13:56:12Z</time>
      </trkpt>
      <trkpt lat="43.2974" lon="5.79894">
        <ele>553.4</ele>
        <time>2021-10-27T13:56:17Z</time>
      </trkpt>
      <trkpt lat="43.29739" lon="5.79887">
        <ele>553.4</ele>
        <time>2021-10-27T13:56:21Z</time>
      </trkpt>
      <trkpt lat="43.2974" lon="5.79881">
        <ele>553.5</ele>
        <time>2021-10-27T13:56:25Z</time>
      </trkpt>
      <trkpt lat="43.29742" lon="5.79873">
        <ele>553.7</ele>
        <time>2021-10-27T13:56:29Z</time>
      </trkpt>
      <trkpt lat="43.29743" lon="5.79867">
        <ele>553.9</ele>
        <time>2021-10-27T13:56:33Z</time>
      </trkpt>
      <trkpt lat="43.29744" lon="5.7986">
        <ele>554</ele>
        <time>2021-10-27T13:56:37Z</time>
      </trkpt>
      <trkpt lat="43.29744" lon="5.79854">
        <ele>553.9</ele>
        <time>2021-10-27T13:56:41Z</time>
      </trkpt>
      <trkpt lat="43.29744" lon="5.79847">
        <ele>553.9</ele>
        <time>2021-10-27T13:56:45Z</time>
      </trkpt>
      <trkpt lat="43.29745" lon="5.7984">
        <ele>553.9</ele>
        <time>2021-10-27T13:56:50Z</time>
      </trkpt>
      <trkpt lat="43.29746" lon="5.79833">
        <ele>553.9</ele>
        <time>2021-10-27T13:56:54Z</time>
      </trkpt>
      <trkpt lat="43.29748" lon="5.79827">
        <ele>553.9</ele>
        <time>2021-10-27T13:56:58Z</time>
      </trkpt>
      <trkpt lat="43.2975" lon="5.79821">
        <ele>554</ele>
        <time>2021-10-27T13:57:03Z</time>
      </trkpt>
      <trkpt lat="43.29752" lon="5.79815">
        <ele>554</ele>
        <time>2021-10-27T13:57:09Z</time>
      </trkpt>
      <trkpt lat="43.29753" lon="5.79808">
        <ele>554</ele>
        <time>2021-10-27T13:57:13Z</time>
      </trkpt>
      <trkpt lat="43.29755" lon="5.798">
        <ele>554</ele>
        <time>2021-10-27T13:57:18Z</time>
      </trkpt>
      <trkpt lat="43.29758" lon="5.79795">
        <ele>554.1</ele>
        <time>2021-10-27T13:57:22Z</time>
      </trkpt>
      <trkpt lat="43.29762" lon="5.7979">
        <ele>554.2</ele>
        <time>2021-10-27T13:57:26Z</time>
      </trkpt>
      <trkpt lat="43.29764" lon="5.79784">
        <ele>554.4</ele>
        <time>2021-10-27T13:57:29Z</time>
      </trkpt>
      <trkpt lat="43.29766" lon="5.79778">
        <ele>554.6</ele>
        <time>2021-10-27T13:57:34Z</time>
      </trkpt>
      <trkpt lat="43.2977" lon="5.79772">
        <ele>554.8</ele>
        <time>2021-10-27T13:57:40Z</time>
      </trkpt>
      <trkpt lat="43.29772" lon="5.79766">
        <ele>555.1</ele>
        <time>2021-10-27T13:57:45Z</time>
      </trkpt>
      <trkpt lat="43.29773" lon="5.79759">
        <ele>555.4</ele>
        <time>2021-10-27T13:57:50Z</time>
      </trkpt>
      <trkpt lat="43.29775" lon="5.79752">
        <ele>555.7</ele>
        <time>2021-10-27T13:57:55Z</time>
      </trkpt>
      <trkpt lat="43.29775" lon="5.79744">
        <ele>556</ele>
        <time>2021-10-27T13:58:00Z</time>
      </trkpt>
      <trkpt lat="43.29776" lon="5.79738">
        <ele>556.3</ele>
        <time>2021-10-27T13:58:04Z</time>
      </trkpt>
      <trkpt lat="43.29775" lon="5.79731">
        <ele>556.5</ele>
        <time>2021-10-27T13:58:09Z</time>
      </trkpt>
      <trkpt lat="43.29775" lon="5.79724">
        <ele>556.7</ele>
        <time>2021-10-27T13:58:15Z</time>
      </trkpt>
      <trkpt lat="43.29775" lon="5.79718">
        <ele>556.7</ele>
        <time>2021-10-27T13:58:19Z</time>
      </trkpt>
      <trkpt lat="43.29777" lon="5.79712">
        <ele>556.5</ele>
        <time>2021-10-27T13:58:22Z</time>
      </trkpt>
      <trkpt lat="43.29779" lon="5.79705">
        <ele>556.4</ele>
        <time>2021-10-27T13:58:27Z</time>
      </trkpt>
      <trkpt lat="43.29782" lon="5.79698">
        <ele>556.3</ele>
        <time>2021-10-27T13:58:31Z</time>
      </trkpt>
      <trkpt lat="43.29785" lon="5.79693">
        <ele>556.2</ele>
        <time>2021-10-27T13:58:34Z</time>
      </trkpt>
      <trkpt lat="43.29788" lon="5.79688">
        <ele>555.9</ele>
        <time>2021-10-27T13:58:39Z</time>
      </trkpt>
      <trkpt lat="43.29791" lon="5.79683">
        <ele>555.7</ele>
        <time>2021-10-27T13:58:43Z</time>
      </trkpt>
      <trkpt lat="43.29793" lon="5.79676">
        <ele>555.2</ele>
        <time>2021-10-27T13:58:47Z</time>
      </trkpt>
      <trkpt lat="43.29796" lon="5.79669">
        <ele>554.8</ele>
        <time>2021-10-27T13:58:51Z</time>
      </trkpt>
      <trkpt lat="43.29796" lon="5.79662">
        <ele>554.4</ele>
        <time>2021-10-27T13:58:57Z</time>
      </trkpt>
      <trkpt lat="43.29795" lon="5.79656">
        <ele>554</ele>
        <time>2021-10-27T13:59:06Z</time>
      </trkpt>
      <trkpt lat="43.29797" lon="5.7965">
        <ele>553.7</ele>
        <time>2021-10-27T13:59:10Z</time>
      </trkpt>
      <trkpt lat="43.29797" lon="5.79643">
        <ele>553.3</ele>
        <time>2021-10-27T13:59:16Z</time>
      </trkpt>
      <trkpt lat="43.29797" lon="5.79637">
        <ele>552.8</ele>
        <time>2021-10-27T13:59:23Z</time>
      </trkpt>
      <trkpt lat="43.29798" lon="5.7963">
        <ele>552.2</ele>
        <time>2021-10-27T13:59:30Z</time>
      </trkpt>
      <trkpt lat="43.29799" lon="5.79622">
        <ele>551.5</ele>
        <time>2021-10-27T13:59:35Z</time>
      </trkpt>
      <trkpt lat="43.29799" lon="5.79615">
        <ele>550.8</ele>
        <time>2021-10-27T13:59:40Z</time>
      </trkpt>
      <trkpt lat="43.29797" lon="5.79608">
        <ele>550.4</ele>
        <time>2021-10-27T13:59:45Z</time>
      </trkpt>
      <trkpt lat="43.29796" lon="5.79601">
        <ele>550</ele>
        <time>2021-10-27T13:59:48Z</time>
      </trkpt>
      <trkpt lat="43.29796" lon="5.79594">
        <ele>549.5</ele>
        <time>2021-10-27T13:59:51Z</time>
      </trkpt>
      <trkpt lat="43.29797" lon="5.79587">
        <ele>548.9</ele>
        <time>2021-10-27T13:59:56Z</time>
      </trkpt>
      <trkpt lat="43.29799" lon="5.79582">
        <ele>548.4</ele>
        <time>2021-10-27T14:00:00Z</time>
      </trkpt>
      <trkpt lat="43.29801" lon="5.79574">
        <ele>548.2</ele>
        <time>2021-10-27T14:00:04Z</time>
      </trkpt>
      <trkpt lat="43.29802" lon="5.79568">
        <ele>548</ele>
        <time>2021-10-27T14:00:07Z</time>
      </trkpt>
      <trkpt lat="43.29804" lon="5.79562">
        <ele>548</ele>
        <time>2021-10-27T09:00:00Z</time>
      </trkpt>
      <trkpt lat="43.29805" lon="5.79555">
        <ele>548</ele>
        <time>2021-10-27T14:00:18Z</time>
      </trkpt>
      <trkpt lat="43.29804" lon="5.79549">
        <ele>548</ele>
        <time>2021-10-27T14:00:23Z</time>
      </trkpt>
      <trkpt lat="43.29803" lon="5.79543">
        <ele>547.9</ele>
        <time>2021-10-27T14:00:27Z</time>
      </trkpt>
      <trkpt lat="43.29802" lon="5.79536">
        <ele>548</ele>
        <time>2021-10-27T14:00:31Z</time>
      </trkpt>
      <trkpt lat="43.29798" lon="5.7953">
        <ele>548</ele>
        <time>2021-10-27T14:00:36Z</time>
      </trkpt>
      <trkpt lat="43.29796" lon="5.79524">
        <ele>548.2</ele>
        <time>2021-10-27T14:00:40Z</time>
      </trkpt>
      <trkpt lat="43.29792" lon="5.79518">
        <ele>548.5</ele>
        <time>2021-10-27T14:00:44Z</time>
      </trkpt>
      <trkpt lat="43.29788" lon="5.79513">
        <ele>548.7</ele>
        <time>2021-10-27T14:00:47Z</time>
      </trkpt>
      <trkpt lat="43.29786" lon="5.79508">
        <ele>548.9</ele>
        <time>2021-10-27T14:00:50Z</time>
      </trkpt>
      <trkpt lat="43.29782" lon="5.79503">
        <ele>549.1</ele>
        <time>2021-10-27T14:00:55Z</time>
      </trkpt>
      <trkpt lat="43.29779" lon="5.79497">
        <ele>549.2</ele>
        <time>2021-10-27T14:00:59Z</time>
      </trkpt>
      <trkpt lat="43.29775" lon="5.79494">
        <ele>549.5</ele>
        <time>2021-10-27T14:01:04Z</time>
      </trkpt>
      <trkpt lat="43.29773" lon="5.79488">
        <ele>549.9</ele>
        <time>2021-10-27T14:01:09Z</time>
      </trkpt>
      <trkpt lat="43.29774" lon="5.79481">
        <ele>550.4</ele>
        <time>2021-10-27T14:01:14Z</time>
      </trkpt>
      <trkpt lat="43.29775" lon="5.79474">
        <ele>550.9</ele>
        <time>2021-10-27T14:01:19Z</time>
      </trkpt>
      <trkpt lat="43.29776" lon="5.79466">
        <ele>551.2</ele>
        <time>2021-10-27T14:01:23Z</time>
      </trkpt>
      <trkpt lat="43.29776" lon="5.7946">
        <ele>551.4</ele>
        <time>2021-10-27T14:01:27Z</time>
      </trkpt>
      <trkpt lat="43.29775" lon="5.79453">
        <ele>551.6</ele>
        <time>2021-10-27T14:01:32Z</time>
      </trkpt>
      <trkpt lat="43.29773" lon="5.79447">
        <ele>551.8</ele>
        <time>2021-10-27T14:01:37Z</time>
      </trkpt>
      <trkpt lat="43.29771" lon="5.79441">
        <ele>551.9</ele>
        <time>2021-10-27T14:01:42Z</time>
      </trkpt>
      <trkpt lat="43.29771" lon="5.79433">
        <ele>552.1</ele>
        <time>2021-10-27T14:01:47Z</time>
      </trkpt>
      <trkpt lat="43.2977" lon="5.79426">
        <ele>552.2</ele>
        <time>2021-10-27T14:01:51Z</time>
      </trkpt>
      <trkpt lat="43.2977" lon="5.7942">
        <ele>552.3</ele>
        <time>2021-10-27T14:01:54Z</time>
      </trkpt>
      <trkpt lat="43.2977" lon="5.79413">
        <ele>552.5</ele>
        <time>2021-10-27T14:01:58Z</time>
      </trkpt>
      <trkpt lat="43.29771" lon="5.79406">
        <ele>552.5</ele>
        <time>2021-10-27T14:02:03Z</time>
      </trkpt>
      <trkpt lat="43.29771" lon="5.79399">
        <ele>552.5</ele>
        <time>2021-10-27T14:02:09Z</time>
      </trkpt>
      <trkpt lat="43.29771" lon="5.79392">
        <ele>552.5</ele>
        <time>2021-10-27T14:02:13Z</time>
      </trkpt>
      <trkpt lat="43.29772" lon="5.79386">
        <ele>552.7</ele>
        <time>2021-10-27T14:02:17Z</time>
      </trkpt>
      <trkpt lat="43.29773" lon="5.79378">
        <ele>552.9</ele>
        <time>2021-10-27T14:02:22Z</time>
      </trkpt>
      <trkpt lat="43.29774" lon="5.79372">
        <ele>553.2</ele>
        <time>2021-10-27T14:02:26Z</time>
      </trkpt>
      <trkpt lat="43.29776" lon="5.79364">
        <ele>553.6</ele>
        <time>2021-10-27T14:02:31Z</time>
      </trkpt>
      <trkpt lat="43.29776" lon="5.79357">
        <ele>553.6</ele>
        <time>2021-10-27T14:02:35Z</time>
      </trkpt>
      <trkpt lat="43.29778" lon="5.7935">
        <ele>553.6</ele>
        <time>2021-10-27T14:02:39Z</time>
      </trkpt>
      <trkpt lat="43.2978" lon="5.79343">
        <ele>553.5</ele>
        <time>2021-10-27T14:02:44Z</time>
      </trkpt>
      <trkpt lat="43.2978" lon="5.79337">
        <ele>553.4</ele>
        <time>2021-10-27T14:02:47Z</time>
      </trkpt>
      <trkpt lat="43.2978" lon="5.79329">
        <ele>553.2</ele>
        <time>2021-10-27T14:02:52Z</time>
      </trkpt>
      <trkpt lat="43.29779" lon="5.79322">
        <ele>553.2</ele>
        <time>2021-10-27T14:02:56Z</time>
      </trkpt>
      <trkpt lat="43.29779" lon="5.79316">
        <ele>553.1</ele>
        <time>2021-10-27T14:03:00Z</time>
      </trkpt>
      <trkpt lat="43.29779" lon="5.79309">
        <ele>553.1</ele>
        <time>2021-10-27T14:03:04Z</time>
      </trkpt>
      <trkpt lat="43.29778" lon="5.79302">
        <ele>553.2</ele>
        <time>2021-10-27T14:03:09Z</time>
      </trkpt>
      <trkpt lat="43.29777" lon="5.79295">
        <ele>553.4</ele>
        <time>2021-10-27T14:03:14Z</time>
      </trkpt>
      <trkpt lat="43.29777" lon="5.79288">
        <ele>553.5</ele>
        <time>2021-10-27T14:03:19Z</time>
      </trkpt>
      <trkpt lat="43.29777" lon="5.79282">
        <ele>553.7</ele>
        <time>2021-10-27T14:03:23Z</time>
      </trkpt>
      <trkpt lat="43.29776" lon="5.79274">
        <ele>554</ele>
        <time>2021-10-27T14:03:27Z</time>
      </trkpt>
      <trkpt lat="43.29775" lon="5.79268">
        <ele>554.1</ele>
        <time>2021-10-27T14:03:31Z</time>
      </trkpt>
      <trkpt lat="43.29774" lon="5.79262">
        <ele>554.1</ele>
        <time>2021-10-27T14:03:35Z</time>
      </trkpt>
      <trkpt lat="43.29773" lon="5.79256">
        <ele>554.1</ele>
        <time>2021-10-27T14:03:40Z</time>
      </trkpt>
      <trkpt lat="43.29773" lon="5.79248">
        <ele>554.3</ele>
        <time>2021-10-27T14:03:45Z</time>
      </trkpt>
      <trkpt lat="43.29773" lon="5.79241">
        <ele>554.4</ele>
        <time>2021-10-27T14:03:49Z</time>
      </trkpt>
      <trkpt lat="43.29773" lon="5.79234">
        <ele>554.4</ele>
        <time>2021-10-27T14:03:53Z</time>
      </trkpt>
      <trkpt lat="43.29773" lon="5.79228">
        <ele>554.4</ele>
        <time>2021-10-27T14:03:57Z</time>
      </trkpt>
      <trkpt lat="43.29773" lon="5.79221">
        <ele>554.5</ele>
        <time>2021-10-27T14:04:02Z</time>
      </trkpt>
      <trkpt lat="43.2977" lon="5.79216">
        <ele>554.4</ele>
        <time>2021-10-27T14:04:09Z</time>
      </trkpt>
      <trkpt lat="43.29766" lon="5.79212">
        <ele>554.1</ele>
        <time>2021-10-27T14:04:15Z</time>
      </trkpt>
      <trkpt lat="43.29764" lon="5.79206">
        <ele>554.1</ele>
        <time>2021-10-27T14:04:42Z</time>
      </trkpt>
      <trkpt lat="43.29762" lon="5.79201">
        <ele>554.1</ele>
        <time>2021-10-27T14:05:08Z</time>
      </trkpt>
      <trkpt lat="43.29761" lon="5.79194">
        <ele>554.2</ele>
        <time>2021-10-27T14:05:16Z</time>
      </trkpt>
      <trkpt lat="43.29763" lon="5.79189">
        <ele>554.6</ele>
        <time>2021-10-27T14:05:48Z</time>
      </trkpt>
      <trkpt lat="43.2976" lon="5.79185">
        <ele>554.4</ele>
        <time>2021-10-27T14:06:09Z</time>
      </trkpt>
      <trkpt lat="43.2976" lon="5.79179">
        <ele>554.7</ele>
        <time>2021-10-27T14:06:18Z</time>
      </trkpt>
      <trkpt lat="43.2976" lon="5.79172">
        <ele>554.9</ele>
        <time>2021-10-27T14:06:25Z</time>
      </trkpt>
      <trkpt lat="43.29761" lon="5.79165">
        <ele>555.3</ele>
        <time>2021-10-27T14:06:31Z</time>
      </trkpt>
      <trkpt lat="43.29762" lon="5.79158">
        <ele>555.6</ele>
        <time>2021-10-27T14:06:35Z</time>
      </trkpt>
      <trkpt lat="43.29763" lon="5.79151">
        <ele>555.9</ele>
        <time>2021-10-27T14:06:40Z</time>
      </trkpt>
      <trkpt lat="43.29762" lon="5.79145">
        <ele>556.1</ele>
        <time>2021-10-27T14:06:47Z</time>
      </trkpt>
      <trkpt lat="43.29762" lon="5.79138">
        <ele>556.4</ele>
        <time>2021-10-27T14:07:05Z</time>
      </trkpt>
      <trkpt lat="43.29763" lon="5.79131">
        <ele>556.5</ele>
        <time>2021-10-27T14:07:11Z</time>
      </trkpt>
      <trkpt lat="43.29763" lon="5.79125">
        <ele>556.6</ele>
        <time>2021-10-27T14:07:16Z</time>
      </trkpt>
      <trkpt lat="43.29763" lon="5.79119">
        <ele>556.8</ele>
        <time>2021-10-27T14:07:23Z</time>
      </trkpt>
      <trkpt lat="43.29766" lon="5.79113">
        <ele>557.2</ele>
        <time>2021-10-27T14:07:29Z</time>
      </trkpt>
      <trkpt lat="43.29765" lon="5.79106">
        <ele>557.3</ele>
        <time>2021-10-27T14:07:34Z</time>
      </trkpt>
      <trkpt lat="43.29764" lon="5.79098">
        <ele>557.3</ele>
        <time>2021-10-27T14:07:40Z</time>
      </trkpt>
      <trkpt lat="43.29763" lon="5.79092">
        <ele>557.2</ele>
        <time>2021-10-27T14:07:45Z</time>
      </trkpt>
      <trkpt lat="43.29762" lon="5.79086">
        <ele>557.2</ele>
        <time>2021-10-27T14:07:50Z</time>
      </trkpt>
      <trkpt lat="43.29759" lon="5.79081">
        <ele>557</ele>
        <time>2021-10-27T14:07:56Z</time>
      </trkpt>
      <trkpt lat="43.29755" lon="5.79076">
        <ele>556.8</ele>
        <time>2021-10-27T14:08:02Z</time>
      </trkpt>
      <trkpt lat="43.29753" lon="5.7907">
        <ele>556.8</ele>
        <time>2021-10-27T14:08:07Z</time>
      </trkpt>
      <trkpt lat="43.29751" lon="5.79064">
        <ele>556.8</ele>
        <time>2021-10-27T14:08:12Z</time>
      </trkpt>
      <trkpt lat="43.29749" lon="5.79058">
        <ele>556.8</ele>
        <time>2021-10-27T14:08:17Z</time>
      </trkpt>
      <trkpt lat="43.29747" lon="5.79052">
        <ele>556.7</ele>
        <time>2021-10-27T14:08:23Z</time>
      </trkpt>
      <trkpt lat="43.29744" lon="5.79046">
        <ele>556.6</ele>
        <time>2021-10-27T14:08:28Z</time>
      </trkpt>
      <trkpt lat="43.29744" lon="5.79039">
        <ele>556.8</ele>
        <time>2021-10-27T14:08:34Z</time>
      </trkpt>
      <trkpt lat="43.29743" lon="5.79032">
        <ele>557.1</ele>
        <time>2021-10-27T14:08:39Z</time>
      </trkpt>
      <trkpt lat="43.29742" lon="5.79026">
        <ele>557.2</ele>
        <time>2021-10-27T14:08:44Z</time>
      </trkpt>
      <trkpt lat="43.2974" lon="5.79019">
        <ele>557.2</ele>
        <time>2021-10-27T14:08:48Z</time>
      </trkpt>
      <trkpt lat="43.29738" lon="5.79014">
        <ele>557.3</ele>
        <time>2021-10-27T14:08:54Z</time>
      </trkpt>
      <trkpt lat="43.29736" lon="5.79008">
        <ele>557.2</ele>
        <time>2021-10-27T14:09:01Z</time>
      </trkpt>
      <trkpt lat="43.29734" lon="5.79002">
        <ele>557.2</ele>
        <time>2021-10-27T14:09:10Z</time>
      </trkpt>
      <trkpt lat="43.29732" lon="5.78995">
        <ele>557.1</ele>
        <time>2021-10-27T14:09:15Z</time>
      </trkpt>
      <trkpt lat="43.29731" lon="5.78989">
        <ele>556.9</ele>
        <time>2021-10-27T14:09:21Z</time>
      </trkpt>
      <trkpt lat="43.29729" lon="5.78983">
        <ele>556.8</ele>
        <time>2021-10-27T14:09:26Z</time>
      </trkpt>
      <trkpt lat="43.29726" lon="5.78978">
        <ele>556.4</ele>
        <time>2021-10-27T14:09:33Z</time>
      </trkpt>
      <trkpt lat="43.29723" lon="5.78973">
        <ele>556</ele>
        <time>2021-10-27T14:09:37Z</time>
      </trkpt>
      <trkpt lat="43.2972" lon="5.78968">
        <ele>556</ele>
        <time>2021-10-27T14:09:42Z</time>
      </trkpt>
      <trkpt lat="43.29717" lon="5.78962">
        <ele>555.9</ele>
        <time>2021-10-27T14:09:47Z</time>
      </trkpt>
      <trkpt lat="43.29716" lon="5.78955">
        <ele>556</ele>
        <time>2021-10-27T14:09:52Z</time>
      </trkpt>
      <trkpt lat="43.29714" lon="5.78949">
        <ele>556</ele>
        <time>2021-10-27T14:09:56Z</time>
      </trkpt>
      <trkpt lat="43.29711" lon="5.78944">
        <ele>555.8</ele>
        <time>2021-10-27T14:10:01Z</time>
      </trkpt>
      <trkpt lat="43.29707" lon="5.78939">
        <ele>555.5</ele>
        <time>2021-10-27T14:10:05Z</time>
      </trkpt>
      <trkpt lat="43.29702" lon="5.78936">
        <ele>555.1</ele>
        <time>2021-10-27T14:10:10Z</time>
      </trkpt>
      <trkpt lat="43.29699" lon="5.78932">
        <ele>554.9</ele>
        <time>2021-10-27T14:10:16Z</time>
      </trkpt>
      <trkpt lat="43.29696" lon="5.78927">
        <ele>554.7</ele>
        <time>2021-10-27T14:10:20Z</time>
      </trkpt>
      <trkpt lat="43.29692" lon="5.78923">
        <ele>554.8</ele>
        <time>2021-10-27T14:10:26Z</time>
      </trkpt>
      <trkpt lat="43.29688" lon="5.78919">
        <ele>554.9</ele>
        <time>2021-10-27T14:10:32Z</time>
      </trkpt>
      <trkpt lat="43.29688" lon="5.78925">
        <ele>554.6</ele>
        <time>2021-10-27T14:11:06Z</time>
      </trkpt>
      <trkpt lat="43.2969" lon="5.7893">
        <ele>554.5</ele>
        <time>2021-10-27T14:11:33Z</time>
      </trkpt>
      <trkpt lat="43.29689" lon="5.78924">
        <ele>554.7</ele>
        <time>2021-10-27T14:11:52Z</time>
      </trkpt>
      <trkpt lat="43.29686" lon="5.78919">
        <ele>554.9</ele>
        <time>2021-10-27T14:12:38Z</time>
      </trkpt>
      <trkpt lat="43.29682" lon="5.78916">
        <ele>555</ele>
        <time>2021-10-27T14:12:44Z</time>
      </trkpt>
      <trkpt lat="43.29677" lon="5.78913">
        <ele>555.1</ele>
        <time>2021-10-27T14:12:49Z</time>
      </trkpt>
      <trkpt lat="43.29672" lon="5.78912">
        <ele>555.2</ele>
        <time>2021-10-27T14:12:54Z</time>
      </trkpt>
      <trkpt lat="43.29667" lon="5.78909">
        <ele>555.3</ele>
        <time>2021-10-27T14:13:01Z</time>
      </trkpt>
      <trkpt lat="43.29663" lon="5.78905">
        <ele>555.4</ele>
        <time>2021-10-27T14:13:09Z</time>
      </trkpt>
      <trkpt lat="43.29659" lon="5.78902">
        <ele>555.5</ele>
        <time>2021-10-27T14:13:14Z</time>
      </trkpt>
      <trkpt lat="43.29654" lon="5.789">
        <ele>555.6</ele>
        <time>2021-10-27T14:13:18Z</time>
      </trkpt>
      <trkpt lat="43.2965" lon="5.78897">
        <ele>555.7</ele>
        <time>2021-10-27T14:13:21Z</time>
      </trkpt>
      <trkpt lat="43.29645" lon="5.78895">
        <ele>555.8</ele>
        <time>2021-10-27T14:13:25Z</time>
      </trkpt>
      <trkpt lat="43.2964" lon="5.78893">
        <ele>555.8</ele>
        <time>2021-10-27T14:13:29Z</time>
      </trkpt>
      <trkpt lat="43.29636" lon="5.7889">
        <ele>555.9</ele>
        <time>2021-10-27T14:13:33Z</time>
      </trkpt>
      <trkpt lat="43.29632" lon="5.78888">
        <ele>555.8</ele>
        <time>2021-10-27T14:13:38Z</time>
      </trkpt>
      <trkpt lat="43.29627" lon="5.78887">
        <ele>555.7</ele>
        <time>2021-10-27T14:13:42Z</time>
      </trkpt>
      <trkpt lat="43.29623" lon="5.78883">
        <ele>555.6</ele>
        <time>2021-10-27T14:13:46Z</time>
      </trkpt>
      <trkpt lat="43.29618" lon="5.78881">
        <ele>555.6</ele>
        <time>2021-10-27T14:13:52Z</time>
      </trkpt>
      <trkpt lat="43.29614" lon="5.78877">
        <ele>555.5</ele>
        <time>2021-10-27T14:13:57Z</time>
      </trkpt>
      <trkpt lat="43.29609" lon="5.78873">
        <ele>555.4</ele>
        <time>2021-10-27T14:14:01Z</time>
      </trkpt>
      <trkpt lat="43.29606" lon="5.78869">
        <ele>555.4</ele>
        <time>2021-10-27T14:14:06Z</time>
      </trkpt>
      <trkpt lat="43.29603" lon="5.78863">
        <ele>555.3</ele>
        <time>2021-10-27T14:14:12Z</time>
      </trkpt>
      <trkpt lat="43.29599" lon="5.78858">
        <ele>555.3</ele>
        <time>2021-10-27T14:14:17Z</time>
      </trkpt>
      <trkpt lat="43.29596" lon="5.78852">
        <ele>555.3</ele>
        <time>2021-10-27T14:14:23Z</time>
      </trkpt>
      <trkpt lat="43.29593" lon="5.78847">
        <ele>555.2</ele>
        <time>2021-10-27T14:14:28Z</time>
      </trkpt>
      <trkpt lat="43.29589" lon="5.78842">
        <ele>555.1</ele>
        <time>2021-10-27T14:14:33Z</time>
      </trkpt>
      <trkpt lat="43.29586" lon="5.78837">
        <ele>555.1</ele>
        <time>2021-10-27T14:14:38Z</time>
      </trkpt>
      <trkpt lat="43.29583" lon="5.78832">
        <ele>555.1</ele>
        <time>2021-10-27T14:14:43Z</time>
      </trkpt>
      <trkpt lat="43.2958" lon="5.78826">
        <ele>555.3</ele>
        <time>2021-10-27T14:14:48Z</time>
      </trkpt>
      <trkpt lat="43.29578" lon="5.78819">
        <ele>555.5</ele>
        <time>2021-10-27T14:14:53Z</time>
      </trkpt>
      <trkpt lat="43.29577" lon="5.78812">
        <ele>555.9</ele>
        <time>2021-10-27T14:14:59Z</time>
      </trkpt>
      <trkpt lat="43.29575" lon="5.78806">
        <ele>556.1</ele>
        <time>2021-10-27T14:15:03Z</time>
      </trkpt>
      <trkpt lat="43.29574" lon="5.788">
        <ele>556.3</ele>
        <time>2021-10-27T14:15:08Z</time>
      </trkpt>
      <trkpt lat="43.29571" lon="5.78794">
        <ele>556.3</ele>
        <time>2021-10-27T14:15:16Z</time>
      </trkpt>
      <trkpt lat="43.29569" lon="5.78788">
        <ele>556.4</ele>
        <time>2021-10-27T14:15:20Z</time>
      </trkpt>
      <trkpt lat="43.29566" lon="5.78783">
        <ele>556.5</ele>
        <time>2021-10-27T14:15:25Z</time>
      </trkpt>
      <trkpt lat="43.29562" lon="5.78777">
        <ele>556.5</ele>
        <time>2021-10-27T14:15:31Z</time>
      </trkpt>
      <trkpt lat="43.29559" lon="5.78772">
        <ele>556.4</ele>
        <time>2021-10-27T14:15:34Z</time>
      </trkpt>
      <trkpt lat="43.29555" lon="5.78768">
        <ele>556.3</ele>
        <time>2021-10-27T14:15:38Z</time>
      </trkpt>
      <trkpt lat="43.29551" lon="5.78763">
        <ele>556</ele>
        <time>2021-10-27T14:15:42Z</time>
      </trkpt>
      <trkpt lat="43.29547" lon="5.7876">
        <ele>555.7</ele>
        <time>2021-10-27T14:15:46Z</time>
      </trkpt>
      <trkpt lat="43.29543" lon="5.78756">
        <ele>555.4</ele>
        <time>2021-10-27T14:15:51Z</time>
      </trkpt>
      <trkpt lat="43.2954" lon="5.78751">
        <ele>555.3</ele>
        <time>2021-10-27T14:15:57Z</time>
      </trkpt>
      <trkpt lat="43.29537" lon="5.78746">
        <ele>555.1</ele>
        <time>2021-10-27T14:16:01Z</time>
      </trkpt>
      <trkpt lat="43.29533" lon="5.78741">
        <ele>554.9</ele>
        <time>2021-10-27T14:16:06Z</time>
      </trkpt>
      <trkpt lat="43.2953" lon="5.78735">
        <ele>554.8</ele>
        <time>2021-10-27T14:16:11Z</time>
      </trkpt>
      <trkpt lat="43.29527" lon="5.78729">
        <ele>554.7</ele>
        <time>2021-10-27T14:16:17Z</time>
      </trkpt>
      <trkpt lat="43.29525" lon="5.78722">
        <ele>554.9</ele>
        <time>2021-10-27T14:16:22Z</time>
      </trkpt>
      <trkpt lat="43.29525" lon="5.78716">
        <ele>555.1</ele>
        <time>2021-10-27T14:16:26Z</time>
      </trkpt>
      <trkpt lat="43.29524" lon="5.78709">
        <ele>555.3</ele>
        <time>2021-10-27T14:16:31Z</time>
      </trkpt>
      <trkpt lat="43.29523" lon="5.78702">
        <ele>555.6</ele>
        <time>2021-10-27T14:16:37Z</time>
      </trkpt>
      <trkpt lat="43.29521" lon="5.78696">
        <ele>555.7</ele>
        <time>2021-10-27T14:16:42Z</time>
      </trkpt>
      <trkpt lat="43.2952" lon="5.78689">
        <ele>555.8</ele>
        <time>2021-10-27T14:16:46Z</time>
      </trkpt>
      <trkpt lat="43.29519" lon="5.78681">
        <ele>556</ele>
        <time>2021-10-27T14:16:50Z</time>
      </trkpt>
      <trkpt lat="43.29518" lon="5.78674">
        <ele>556.1</ele>
        <time>2021-10-27T14:16:53Z</time>
      </trkpt>
      <trkpt lat="43.29517" lon="5.78667">
        <ele>556.2</ele>
        <time>2021-10-27T14:16:57Z</time>
      </trkpt>
      <trkpt lat="43.29515" lon="5.78661">
        <ele>556.2</ele>
        <time>2021-10-27T14:17:01Z</time>
      </trkpt>
      <trkpt lat="43.29513" lon="5.78654">
        <ele>556.1</ele>
        <time>2021-10-27T14:17:06Z</time>
      </trkpt>
      <trkpt lat="43.29509" lon="5.78649">
        <ele>555.9</ele>
        <time>2021-10-27T14:17:11Z</time>
      </trkpt>
      <trkpt lat="43.29506" lon="5.78643">
        <ele>555.6</ele>
        <time>2021-10-27T14:17:15Z</time>
      </trkpt>
      <trkpt lat="43.29503" lon="5.78637">
        <ele>555.3</ele>
        <time>2021-10-27T14:17:19Z</time>
      </trkpt>
      <trkpt lat="43.29499" lon="5.78632">
        <ele>554.9</ele>
        <time>2021-10-27T14:17:23Z</time>
      </trkpt>
      <trkpt lat="43.29496" lon="5.78628">
        <ele>554.6</ele>
        <time>2021-10-27T14:17:28Z</time>
      </trkpt>
      <trkpt lat="43.29492" lon="5.78624">
        <ele>554.3</ele>
        <time>2021-10-27T14:17:33Z</time>
      </trkpt>
      <trkpt lat="43.29488" lon="5.7862">
        <ele>553.8</ele>
        <time>2021-10-27T14:17:37Z</time>
      </trkpt>
      <trkpt lat="43.29484" lon="5.78614">
        <ele>553.3</ele>
        <time>2021-10-27T14:17:42Z</time>
      </trkpt>
      <trkpt lat="43.29481" lon="5.78609">
        <ele>552.8</ele>
        <time>2021-10-27T14:17:46Z</time>
      </trkpt>
      <trkpt lat="43.29477" lon="5.78604">
        <ele>552.1</ele>
        <time>2021-10-27T14:17:49Z</time>
      </trkpt>
      <trkpt lat="43.29473" lon="5.78599">
        <ele>551.3</ele>
        <time>2021-10-27T14:17:53Z</time>
      </trkpt>
      <trkpt lat="43.29471" lon="5.78592">
        <ele>550.5</ele>
        <time>2021-10-27T14:17:58Z</time>
      </trkpt>
      <trkpt lat="43.29469" lon="5.78587">
        <ele>550</ele>
        <time>2021-10-27T14:18:01Z</time>
      </trkpt>
      <trkpt lat="43.29468" lon="5.7858">
        <ele>549.8</ele>
        <time>2021-10-27T14:18:06Z</time>
      </trkpt>
      <trkpt lat="43.29467" lon="5.78574">
        <ele>549.9</ele>
        <time>2021-10-27T14:18:11Z</time>
      </trkpt>
      <trkpt lat="43.29466" lon="5.78566">
        <ele>550</ele>
        <time>2021-10-27T14:18:16Z</time>
      </trkpt>
      <trkpt lat="43.29464" lon="5.78559">
        <ele>550</ele>
        <time>2021-10-27T14:18:21Z</time>
      </trkpt>
      <trkpt lat="43.29463" lon="5.78552">
        <ele>550</ele>
        <time>2021-10-27T14:18:26Z</time>
      </trkpt>
      <trkpt lat="43.29464" lon="5.78546">
        <ele>550</ele>
        <time>2021-10-27T14:18:32Z</time>
      </trkpt>
      <trkpt lat="43.29463" lon="5.78539">
        <ele>549.8</ele>
        <time>2021-10-27T14:18:37Z</time>
      </trkpt>
      <trkpt lat="43.29461" lon="5.78531">
        <ele>549.5</ele>
        <time>2021-10-27T14:18:41Z</time>
      </trkpt>
      <trkpt lat="43.2946" lon="5.78524">
        <ele>549.1</ele>
        <time>2021-10-27T14:18:44Z</time>
      </trkpt>
      <trkpt lat="43.2946" lon="5.78517">
        <ele>549</ele>
        <time>2021-10-27T14:18:48Z</time>
      </trkpt>
      <trkpt lat="43.29459" lon="5.7851">
        <ele>548.9</ele>
        <time>2021-10-27T14:18:52Z</time>
      </trkpt>
      <trkpt lat="43.29456" lon="5.78503">
        <ele>548.2</ele>
        <time>2021-10-27T14:18:56Z</time>
      </trkpt>
      <trkpt lat="43.29455" lon="5.78497">
        <ele>547.7</ele>
        <time>2021-10-27T14:19:01Z</time>
      </trkpt>
      <trkpt lat="43.29453" lon="5.78491">
        <ele>547.2</ele>
        <time>2021-10-27T14:19:05Z</time>
      </trkpt>
      <trkpt lat="43.2945" lon="5.78485">
        <ele>546.4</ele>
        <time>2021-10-27T14:19:10Z</time>
      </trkpt>
      <trkpt lat="43.29446" lon="5.78484">
        <ele>545.7</ele>
        <time>2021-10-27T14:19:13Z</time>
      </trkpt>
      <trkpt lat="43.29441" lon="5.78483">
        <ele>544.9</ele>
        <time>2021-10-27T14:19:17Z</time>
      </trkpt>
      <trkpt lat="43.29436" lon="5.78483">
        <ele>544.2</ele>
        <time>2021-10-27T14:19:20Z</time>
      </trkpt>
      <trkpt lat="43.29431" lon="5.78483">
        <ele>543.6</ele>
        <time>2021-10-27T14:19:25Z</time>
      </trkpt>
      <trkpt lat="43.29426" lon="5.7848">
        <ele>542.9</ele>
        <time>2021-10-27T14:19:30Z</time>
      </trkpt>
      <trkpt lat="43.29422" lon="5.78479">
        <ele>542.2</ele>
        <time>2021-10-27T14:19:37Z</time>
      </trkpt>
      <trkpt lat="43.29417" lon="5.78478">
        <ele>541.5</ele>
        <time>2021-10-27T14:19:45Z</time>
      </trkpt>
      <trkpt lat="43.29416" lon="5.78472">
        <ele>540.9</ele>
        <time>2021-10-27T14:19:52Z</time>
      </trkpt>
      <trkpt lat="43.29417" lon="5.78465">
        <ele>540.5</ele>
        <time>2021-10-27T14:19:56Z</time>
      </trkpt>
      <trkpt lat="43.29417" lon="5.78457">
        <ele>540</ele>
        <time>2021-10-27T14:20:02Z</time>
      </trkpt>
      <trkpt lat="43.29414" lon="5.78451">
        <ele>539.3</ele>
        <time>2021-10-27T14:20:08Z</time>
      </trkpt>
      <trkpt lat="43.29412" lon="5.78445">
        <ele>538.9</ele>
        <time>2021-10-27T14:20:12Z</time>
      </trkpt>
      <trkpt lat="43.29409" lon="5.78439">
        <ele>538.6</ele>
        <time>2021-10-27T14:20:17Z</time>
      </trkpt>
      <trkpt lat="43.29408" lon="5.78433">
        <ele>538.3</ele>
        <time>2021-10-27T14:20:21Z</time>
      </trkpt>
      <trkpt lat="43.29404" lon="5.78427">
        <ele>537.9</ele>
        <time>2021-10-27T14:20:26Z</time>
      </trkpt>
      <trkpt lat="43.294" lon="5.78423">
        <ele>537.6</ele>
        <time>2021-10-27T14:20:31Z</time>
      </trkpt>
      <trkpt lat="43.29397" lon="5.78416">
        <ele>537.3</ele>
        <time>2021-10-27T14:20:36Z</time>
      </trkpt>
      <trkpt lat="43.29394" lon="5.78412">
        <ele>536.7</ele>
        <time>2021-10-27T14:20:42Z</time>
      </trkpt>
      <trkpt lat="43.2939" lon="5.78407">
        <ele>536</ele>
        <time>2021-10-27T14:20:46Z</time>
      </trkpt>
      <trkpt lat="43.29387" lon="5.78402">
        <ele>535.2</ele>
        <time>2021-10-27T14:20:50Z</time>
      </trkpt>
      <trkpt lat="43.29384" lon="5.78396">
        <ele>534.4</ele>
        <time>2021-10-27T14:20:55Z</time>
      </trkpt>
      <trkpt lat="43.29383" lon="5.7839">
        <ele>533.7</ele>
        <time>2021-10-27T14:20:59Z</time>
      </trkpt>
      <trkpt lat="43.29381" lon="5.78384">
        <ele>533.3</ele>
        <time>2021-10-27T14:21:04Z</time>
      </trkpt>
      <trkpt lat="43.29378" lon="5.78378">
        <ele>532.8</ele>
        <time>2021-10-27T14:21:09Z</time>
      </trkpt>
      <trkpt lat="43.29375" lon="5.78373">
        <ele>532.4</ele>
        <time>2021-10-27T14:21:14Z</time>
      </trkpt>
      <trkpt lat="43.2937" lon="5.78369">
        <ele>531.9</ele>
        <time>2021-10-27T14:21:18Z</time>
      </trkpt>
      <trkpt lat="43.29366" lon="5.78366">
        <ele>531.5</ele>
        <time>2021-10-27T14:21:22Z</time>
      </trkpt>
      <trkpt lat="43.29363" lon="5.7836">
        <ele>531.1</ele>
        <time>2021-10-27T14:21:27Z</time>
      </trkpt>
      <trkpt lat="43.29359" lon="5.78357">
        <ele>530.7</ele>
        <time>2021-10-27T14:21:31Z</time>
      </trkpt>
      <trkpt lat="43.29354" lon="5.78354">
        <ele>530.3</ele>
        <time>2021-10-27T14:21:35Z</time>
      </trkpt>
      <trkpt lat="43.29353" lon="5.78348">
        <ele>529.9</ele>
        <time>2021-10-27T14:21:40Z</time>
      </trkpt>
      <trkpt lat="43.29348" lon="5.78346">
        <ele>529.5</ele>
        <time>2021-10-27T14:21:45Z</time>
      </trkpt>
      <trkpt lat="43.2935" lon="5.78341">
        <ele>529.5</ele>
        <time>2021-10-27T14:22:56Z</time>
      </trkpt>
      <trkpt lat="43.29347" lon="5.78345">
        <ele>529.4</ele>
        <time>2021-10-27T14:23:14Z</time>
      </trkpt>
      <trkpt lat="43.29351" lon="5.78343">
        <ele>529.6</ele>
        <time>2021-10-27T14:23:53Z</time>
      </trkpt>
      <trkpt lat="43.29346" lon="5.78343">
        <ele>529.3</ele>
        <time>2021-10-27T14:24:11Z</time>
      </trkpt>
      <trkpt lat="43.29343" lon="5.78338">
        <ele>528.8</ele>
        <time>2021-10-27T14:27:15Z</time>
      </trkpt>
      <trkpt lat="43.2934" lon="5.78332">
        <ele>528.6</ele>
        <time>2021-10-27T14:27:19Z</time>
      </trkpt>
      <trkpt lat="43.29336" lon="5.78327">
        <ele>528.6</ele>
        <time>2021-10-27T14:27:25Z</time>
      </trkpt>
      <trkpt lat="43.29333" lon="5.78322">
        <ele>528.8</ele>
        <time>2021-10-27T14:27:30Z</time>
      </trkpt>
      <trkpt lat="43.2933" lon="5.78318">
        <ele>529</ele>
        <time>2021-10-27T14:27:34Z</time>
      </trkpt>
      <trkpt lat="43.29324" lon="5.78315">
        <ele>529</ele>
        <time>2021-10-27T14:27:39Z</time>
      </trkpt>
      <trkpt lat="43.2932" lon="5.78312">
        <ele>529</ele>
        <time>2021-10-27T14:27:45Z</time>
      </trkpt>
      <trkpt lat="43.29317" lon="5.78307">
        <ele>529.3</ele>
        <time>2021-10-27T14:27:50Z</time>
      </trkpt>
      <trkpt lat="43.29314" lon="5.78302">
        <ele>529.5</ele>
        <time>2021-10-27T14:27:54Z</time>
      </trkpt>
      <trkpt lat="43.2931" lon="5.78296">
        <ele>529.6</ele>
        <time>2021-10-27T14:27:58Z</time>
      </trkpt>
      <trkpt lat="43.29306" lon="5.78292">
        <ele>529.5</ele>
        <time>2021-10-27T14:28:03Z</time>
      </trkpt>
      <trkpt lat="43.29302" lon="5.78288">
        <ele>529.5</ele>
        <time>2021-10-27T14:28:07Z</time>
      </trkpt>
      <trkpt lat="43.29298" lon="5.78284">
        <ele>529.5</ele>
        <time>2021-10-27T14:28:12Z</time>
      </trkpt>
      <trkpt lat="43.29294" lon="5.78279">
        <ele>529.5</ele>
        <time>2021-10-27T14:28:17Z</time>
      </trkpt>
      <trkpt lat="43.2929" lon="5.78273">
        <ele>529.7</ele>
        <time>2021-10-27T14:28:22Z</time>
      </trkpt>
      <trkpt lat="43.29287" lon="5.78269">
        <ele>529.8</ele>
        <time>2021-10-27T14:28:28Z</time>
      </trkpt>
      <trkpt lat="43.29285" lon="5.78262">
        <ele>530</ele>
        <time>2021-10-27T14:28:33Z</time>
      </trkpt>
      <trkpt lat="43.29283" lon="5.78257">
        <ele>530.1</ele>
        <time>2021-10-27T14:28:37Z</time>
      </trkpt>
      <trkpt lat="43.29279" lon="5.78252">
        <ele>530</ele>
        <time>2021-10-27T14:28:42Z</time>
      </trkpt>
      <trkpt lat="43.29275" lon="5.78246">
        <ele>530</ele>
        <time>2021-10-27T14:28:47Z</time>
      </trkpt>
      <trkpt lat="43.29272" lon="5.7824">
        <ele>530.2</ele>
        <time>2021-10-27T14:28:52Z</time>
      </trkpt>
      <trkpt lat="43.2927" lon="5.78234">
        <ele>530.3</ele>
        <time>2021-10-27T14:28:57Z</time>
      </trkpt>
      <trkpt lat="43.29268" lon="5.78228">
        <ele>530.4</ele>
        <time>2021-10-27T14:29:03Z</time>
      </trkpt>
      <trkpt lat="43.29266" lon="5.78222">
        <ele>530.6</ele>
        <time>2021-10-27T14:29:07Z</time>
      </trkpt>
      <trkpt lat="43.29263" lon="5.78216">
        <ele>530.4</ele>
        <time>2021-10-27T14:29:11Z</time>
      </trkpt>
      <trkpt lat="43.29261" lon="5.7821">
        <ele>530.1</ele>
        <time>2021-10-27T14:29:16Z</time>
      </trkpt>
      <trkpt lat="43.29257" lon="5.78207">
        <ele>529.8</ele>
        <time>2021-10-27T14:29:20Z</time>
      </trkpt>
      <trkpt lat="43.29253" lon="5.78203">
        <ele>529.5</ele>
        <time>2021-10-27T14:29:25Z</time>
      </trkpt>
      <trkpt lat="43.29251" lon="5.78197">
        <ele>529.2</ele>
        <time>2021-10-27T14:29:31Z</time>
      </trkpt>
      <trkpt lat="43.29249" lon="5.78189">
        <ele>529</ele>
        <time>2021-10-27T14:29:36Z</time>
      </trkpt>
      <trkpt lat="43.29246" lon="5.78182">
        <ele>528.9</ele>
        <time>2021-10-27T14:29:41Z</time>
      </trkpt>
      <trkpt lat="43.29245" lon="5.78176">
        <ele>528.8</ele>
        <time>2021-10-27T14:29:45Z</time>
      </trkpt>
      <trkpt lat="43.29245" lon="5.78169">
        <ele>528.8</ele>
        <time>2021-10-27T14:29:50Z</time>
      </trkpt>
      <trkpt lat="43.29242" lon="5.78164">
        <ele>528.8</ele>
        <time>2021-10-27T14:29:55Z</time>
      </trkpt>
      <trkpt lat="43.29238" lon="5.7816">
        <ele>528.6</ele>
        <time>2021-10-27T14:29:58Z</time>
      </trkpt>
      <trkpt lat="43.29235" lon="5.78155">
        <ele>528.4</ele>
        <time>2021-10-27T14:30:02Z</time>
      </trkpt>
      <trkpt lat="43.29232" lon="5.7815">
        <ele>528.1</ele>
        <time>2021-10-27T14:30:07Z</time>
      </trkpt>
      <trkpt lat="43.29229" lon="5.78144">
        <ele>527.8</ele>
        <time>2021-10-27T14:30:12Z</time>
      </trkpt>
      <trkpt lat="43.29226" lon="5.78139">
        <ele>527.4</ele>
        <time>2021-10-27T14:30:17Z</time>
      </trkpt>
      <trkpt lat="43.29222" lon="5.78135">
        <ele>527.1</ele>
        <time>2021-10-27T14:30:21Z</time>
      </trkpt>
      <trkpt lat="43.29218" lon="5.78132">
        <ele>527.2</ele>
        <time>2021-10-27T14:30:26Z</time>
      </trkpt>
      <trkpt lat="43.29214" lon="5.78128">
        <ele>527.2</ele>
        <time>2021-10-27T14:30:31Z</time>
      </trkpt>
      <trkpt lat="43.2921" lon="5.78124">
        <ele>527.1</ele>
        <time>2021-10-27T14:30:35Z</time>
      </trkpt>
      <trkpt lat="43.29206" lon="5.7812">
        <ele>526.9</ele>
        <time>2021-10-27T14:30:39Z</time>
      </trkpt>
      <trkpt lat="43.29203" lon="5.78115">
        <ele>526.7</ele>
        <time>2021-10-27T14:30:43Z</time>
      </trkpt>
      <trkpt lat="43.29199" lon="5.78111">
        <ele>526.3</ele>
        <time>2021-10-27T14:30:49Z</time>
      </trkpt>
      <trkpt lat="43.29196" lon="5.78106">
        <ele>526.1</ele>
        <time>2021-10-27T14:30:58Z</time>
      </trkpt>
      <trkpt lat="43.29193" lon="5.78101">
        <ele>525.9</ele>
        <time>2021-10-27T14:31:03Z</time>
      </trkpt>
      <trkpt lat="43.29188" lon="5.78098">
        <ele>525.7</ele>
        <time>2021-10-27T14:31:07Z</time>
      </trkpt>
      <trkpt lat="43.29184" lon="5.78096">
        <ele>525.4</ele>
        <time>2021-10-27T14:31:11Z</time>
      </trkpt>
      <trkpt lat="43.29182" lon="5.7809">
        <ele>525.2</ele>
        <time>2021-10-27T14:31:17Z</time>
      </trkpt>
      <trkpt lat="43.29179" lon="5.78084">
        <ele>524.9</ele>
        <time>2021-10-27T14:31:23Z</time>
      </trkpt>
      <trkpt lat="43.29177" lon="5.78078">
        <ele>524.8</ele>
        <time>2021-10-27T14:31:31Z</time>
      </trkpt>
      <trkpt lat="43.29173" lon="5.78073">
        <ele>524.6</ele>
        <time>2021-10-27T14:31:38Z</time>
      </trkpt>
      <trkpt lat="43.2917" lon="5.78067">
        <ele>524.3</ele>
        <time>2021-10-27T14:31:45Z</time>
      </trkpt>
      <trkpt lat="43.29166" lon="5.78063">
        <ele>523.9</ele>
        <time>2021-10-27T14:31:49Z</time>
      </trkpt>
      <trkpt lat="43.29162" lon="5.78058">
        <ele>523.7</ele>
        <time>2021-10-27T14:31:53Z</time>
      </trkpt>
      <trkpt lat="43.29158" lon="5.78055">
        <ele>523.4</ele>
        <time>2021-10-27T14:32:01Z</time>
      </trkpt>
      <trkpt lat="43.29153" lon="5.78049">
        <ele>523.1</ele>
        <time>2021-10-27T14:32:07Z</time>
      </trkpt>
      <trkpt lat="43.29149" lon="5.78045">
        <ele>522.8</ele>
        <time>2021-10-27T14:32:10Z</time>
      </trkpt>
      <trkpt lat="43.29145" lon="5.7804">
        <ele>522.5</ele>
        <time>2021-10-27T14:32:14Z</time>
      </trkpt>
      <trkpt lat="43.29141" lon="5.78036">
        <ele>522.2</ele>
        <time>2021-10-27T14:32:18Z</time>
      </trkpt>
      <trkpt lat="43.29137" lon="5.78032">
        <ele>521.9</ele>
        <time>2021-10-27T14:32:25Z</time>
      </trkpt>
      <trkpt lat="43.29134" lon="5.78027">
        <ele>521.6</ele>
        <time>2021-10-27T14:32:30Z</time>
      </trkpt>
      <trkpt lat="43.29131" lon="5.78022">
        <ele>521.4</ele>
        <time>2021-10-27T14:32:35Z</time>
      </trkpt>
      <trkpt lat="43.29127" lon="5.78018">
        <ele>521.1</ele>
        <time>2021-10-27T14:32:39Z</time>
      </trkpt>
      <trkpt lat="43.29125" lon="5.78013">
        <ele>521</ele>
        <time>2021-10-27T14:32:46Z</time>
      </trkpt>
      <trkpt lat="43.29121" lon="5.78009">
        <ele>520.7</ele>
        <time>2021-10-27T14:32:51Z</time>
      </trkpt>
      <trkpt lat="43.29116" lon="5.78006">
        <ele>520.3</ele>
        <time>2021-10-27T14:32:55Z</time>
      </trkpt>
      <trkpt lat="43.29111" lon="5.78004">
        <ele>520</ele>
        <time>2021-10-27T14:33:00Z</time>
      </trkpt>
      <trkpt lat="43.29108" lon="5.78">
        <ele>519.8</ele>
        <time>2021-10-27T14:33:05Z</time>
      </trkpt>
      <trkpt lat="43.29103" lon="5.77996">
        <ele>519.4</ele>
        <time>2021-10-27T14:33:10Z</time>
      </trkpt>
      <trkpt lat="43.29099" lon="5.77993">
        <ele>519</ele>
        <time>2021-10-27T14:33:14Z</time>
      </trkpt>
      <trkpt lat="43.29094" lon="5.7799">
        <ele>518.6</ele>
        <time>2021-10-27T14:33:21Z</time>
      </trkpt>
      <trkpt lat="43.29091" lon="5.77985">
        <ele>518.2</ele>
        <time>2021-10-27T14:33:26Z</time>
      </trkpt>
      <trkpt lat="43.29086" lon="5.77981">
        <ele>517.6</ele>
        <time>2021-10-27T14:33:30Z</time>
      </trkpt>
      <trkpt lat="43.29082" lon="5.77976">
        <ele>517.1</ele>
        <time>2021-10-27T14:33:35Z</time>
      </trkpt>
      <trkpt lat="43.29078" lon="5.77972">
        <ele>516.6</ele>
        <time>2021-10-27T14:33:39Z</time>
      </trkpt>
      <trkpt lat="43.29075" lon="5.77967">
        <ele>516.3</ele>
        <time>2021-10-27T14:33:43Z</time>
      </trkpt>
      <trkpt lat="43.2907" lon="5.77964">
        <ele>515.9</ele>
        <time>2021-10-27T14:33:48Z</time>
      </trkpt>
      <trkpt lat="43.29066" lon="5.77961">
        <ele>515.5</ele>
        <time>2021-10-27T14:33:52Z</time>
      </trkpt>
      <trkpt lat="43.29062" lon="5.77957">
        <ele>515</ele>
        <time>2021-10-27T14:33:56Z</time>
      </trkpt>
      <trkpt lat="43.29059" lon="5.77952">
        <ele>514.6</ele>
        <time>2021-10-27T14:34:01Z</time>
      </trkpt>
      <trkpt lat="43.29056" lon="5.77946">
        <ele>514.1</ele>
        <time>2021-10-27T14:34:06Z</time>
      </trkpt>
      <trkpt lat="43.29053" lon="5.7794">
        <ele>513.8</ele>
        <time>2021-10-27T14:34:12Z</time>
      </trkpt>
      <trkpt lat="43.29052" lon="5.77932">
        <ele>513.6</ele>
        <time>2021-10-27T14:34:16Z</time>
      </trkpt>
      <trkpt lat="43.29049" lon="5.77927">
        <ele>513.4</ele>
        <time>2021-10-27T14:34:20Z</time>
      </trkpt>
      <trkpt lat="43.29046" lon="5.77921">
        <ele>513.1</ele>
        <time>2021-10-27T14:34:25Z</time>
      </trkpt>
      <trkpt lat="43.29044" lon="5.77916">
        <ele>512.8</ele>
        <time>2021-10-27T14:34:30Z</time>
      </trkpt>
      <trkpt lat="43.29044" lon="5.77909">
        <ele>512.6</ele>
        <time>2021-10-27T14:34:35Z</time>
      </trkpt>
      <trkpt lat="43.29041" lon="5.77902">
        <ele>512.2</ele>
        <time>2021-10-27T14:34:40Z</time>
      </trkpt>
      <trkpt lat="43.29036" lon="5.77901">
        <ele>511.7</ele>
        <time>2021-10-27T14:34:48Z</time>
      </trkpt>
      <trkpt lat="43.29034" lon="5.77895">
        <ele>511.5</ele>
        <time>2021-10-27T14:35:37Z</time>
      </trkpt>
      <trkpt lat="43.29032" lon="5.77889">
        <ele>511.3</ele>
        <time>2021-10-27T14:35:41Z</time>
      </trkpt>
      <trkpt lat="43.29031" lon="5.77883">
        <ele>511.3</ele>
        <time>2021-10-27T14:35:45Z</time>
      </trkpt>
      <trkpt lat="43.29031" lon="5.77875">
        <ele>511.2</ele>
        <time>2021-10-27T14:35:50Z</time>
      </trkpt>
      <trkpt lat="43.29028" lon="5.77869">
        <ele>511</ele>
        <time>2021-10-27T14:35:54Z</time>
      </trkpt>
      <trkpt lat="43.29025" lon="5.77862">
        <ele>510.9</ele>
        <time>2021-10-27T14:35:58Z</time>
      </trkpt>
      <trkpt lat="43.29023" lon="5.77856">
        <ele>510.8</ele>
        <time>2021-10-27T14:36:02Z</time>
      </trkpt>
      <trkpt lat="43.29021" lon="5.77848">
        <ele>510.8</ele>
        <time>2021-10-27T14:36:07Z</time>
      </trkpt>
      <trkpt lat="43.2902" lon="5.77841">
        <ele>510.7</ele>
        <time>2021-10-27T14:36:12Z</time>
      </trkpt>
      <trkpt lat="43.29018" lon="5.77835">
        <ele>510.6</ele>
        <time>2021-10-27T14:36:17Z</time>
      </trkpt>
      <trkpt lat="43.29016" lon="5.77828">
        <ele>510.7</ele>
        <time>2021-10-27T14:36:22Z</time>
      </trkpt>
      <trkpt lat="43.29014" lon="5.77822">
        <ele>510.7</ele>
        <time>2021-10-27T14:36:28Z</time>
      </trkpt>
      <trkpt lat="43.29013" lon="5.77815">
        <ele>510.8</ele>
        <time>2021-10-27T14:36:32Z</time>
      </trkpt>
      <trkpt lat="43.29011" lon="5.77807">
        <ele>510.8</ele>
        <time>2021-10-27T14:36:37Z</time>
      </trkpt>
      <trkpt lat="43.2901" lon="5.77801">
        <ele>510.8</ele>
        <time>2021-10-27T14:36:42Z</time>
      </trkpt>
      <trkpt lat="43.29009" lon="5.77794">
        <ele>510.9</ele>
        <time>2021-10-27T14:36:48Z</time>
      </trkpt>
      <trkpt lat="43.29007" lon="5.77787">
        <ele>511</ele>
        <time>2021-10-27T14:36:52Z</time>
      </trkpt>
      <trkpt lat="43.29004" lon="5.77781">
        <ele>511.1</ele>
        <time>2021-10-27T14:36:58Z</time>
      </trkpt>
      <trkpt lat="43.29004" lon="5.77774">
        <ele>511.3</ele>
        <time>2021-10-27T14:37:02Z</time>
      </trkpt>
      <trkpt lat="43.29003" lon="5.77768">
        <ele>511.4</ele>
        <time>2021-10-27T14:37:07Z</time>
      </trkpt>
      <trkpt lat="43.29" lon="5.77762">
        <ele>511.5</ele>
        <time>2021-10-27T14:37:13Z</time>
      </trkpt>
      <trkpt lat="43.28996" lon="5.77757">
        <ele>511.5</ele>
        <time>2021-10-27T14:37:17Z</time>
      </trkpt>
      <trkpt lat="43.28992" lon="5.77753">
        <ele>511.3</ele>
        <time>2021-10-27T14:37:21Z</time>
      </trkpt>
      <trkpt lat="43.28988" lon="5.77749">
        <ele>511.2</ele>
        <time>2021-10-27T14:37:27Z</time>
      </trkpt>
      <trkpt lat="43.28985" lon="5.77743">
        <ele>511.2</ele>
        <time>2021-10-27T14:37:32Z</time>
      </trkpt>
      <trkpt lat="43.28982" lon="5.77738">
        <ele>511.1</ele>
        <time>2021-10-27T14:37:37Z</time>
      </trkpt>
      <trkpt lat="43.28979" lon="5.77733">
        <ele>511.1</ele>
        <time>2021-10-27T14:37:43Z</time>
      </trkpt>
      <trkpt lat="43.28975" lon="5.7773">
        <ele>510.9</ele>
        <time>2021-10-27T14:37:49Z</time>
      </trkpt>
      <trkpt lat="43.28971" lon="5.77726">
        <ele>510.9</ele>
        <time>2021-10-27T14:37:57Z</time>
      </trkpt>
      <trkpt lat="43.28967" lon="5.77722">
        <ele>511</ele>
        <time>2021-10-27T14:38:05Z</time>
      </trkpt>
      <trkpt lat="43.28963" lon="5.77717">
        <ele>511.1</ele>
        <time>2021-10-27T14:38:10Z</time>
      </trkpt>
      <trkpt lat="43.2896" lon="5.77711">
        <ele>511.2</ele>
        <time>2021-01-01T09:59:27Z</time>
      </trkpt>
      <trkpt lat="43.28956" lon="5.77706">
        <ele>511.2</ele>
        <time>2021-10-27T14:38:20Z</time>
      </trkpt>
      <trkpt lat="43.28953" lon="5.777">
        <ele>511.2</ele>
        <time>2021-10-27T14:38:26Z</time>
      </trkpt>
      <trkpt lat="43.2895" lon="5.77694">
        <ele>511.2</ele>
        <time>2021-10-27T14:38:32Z</time>
      </trkpt>
      <trkpt lat="43.28947" lon="5.77689">
        <ele>511.1</ele>
        <time>2021-10-27T14:38:36Z</time>
      </trkpt>
      <trkpt lat="43.28944" lon="5.77684">
        <ele>511</ele>
        <time>2021-10-27T14:38:39Z</time>
      </trkpt>
      <trkpt lat="43.28942" lon="5.77678">
        <ele>511</ele>
        <time>2021-10-27T14:38:43Z</time>
      </trkpt>
      <trkpt lat="43.2894" lon="5.77671">
        <ele>511</ele>
        <time>2021-10-27T14:38:49Z</time>
      </trkpt>
      <trkpt lat="43.28938" lon="5.77666">
        <ele>511</ele>
        <time>2021-10-27T14:38:54Z</time>
      </trkpt>
      <trkpt lat="43.28936" lon="5.7766">
        <ele>511</ele>
        <time>2021-10-27T14:38:58Z</time>
      </trkpt>
      <trkpt lat="43.28934" lon="5.77653">
        <ele>511</ele>
        <time>2021-10-27T14:39:03Z</time>
      </trkpt>
      <trkpt lat="43.28933" lon="5.77647">
        <ele>511</ele>
        <time>2021-10-27T14:39:08Z</time>
      </trkpt>
      <trkpt lat="43.28932" lon="5.7764">
        <ele>511</ele>
        <time>2021-10-27T14:39:13Z</time>
      </trkpt>
      <trkpt lat="43.28933" lon="5.77632">
        <ele>510.7</ele>
        <time>2021-10-27T14:39:18Z</time>
      </trkpt>
      <trkpt lat="43.28934" lon="5.77625">
        <ele>510.5</ele>
        <time>2021-10-27T14:39:23Z</time>
      </trkpt>
      <trkpt lat="43.28935" lon="5.77618">
        <ele>510.3</ele>
        <time>2021-10-27T14:39:27Z</time>
      </trkpt>
      <trkpt lat="43.28935" lon="5.77612">
        <ele>510</ele>
        <time>2021-10-27T14:39:32Z</time>
      </trkpt>
      <trkpt lat="43.28935" lon="5.77604">
        <ele>509.8</ele>
        <time>2021-10-27T14:39:37Z</time>
      </trkpt>
      <trkpt lat="43.28934" lon="5.77598">
        <ele>509.5</ele>
        <time>2021-10-27T14:39:41Z</time>
      </trkpt>
      <trkpt lat="43.28933" lon="5.77592">
        <ele>509.3</ele>
        <time>2021-10-27T14:39:45Z</time>
      </trkpt>
      <trkpt lat="43.28932" lon="5.77585">
        <ele>509.1</ele>
        <time>2021-10-27T14:39:49Z</time>
      </trkpt>
      <trkpt lat="43.28932" lon="5.77579">
        <ele>508.7</ele>
        <time>2021-10-27T14:39:54Z</time>
      </trkpt>
      <trkpt lat="43.28931" lon="5.77572">
        <ele>508.2</ele>
        <time>2021-10-27T14:39:59Z</time>
      </trkpt>
      <trkpt lat="43.28927" lon="5.77567">
        <ele>507.6</ele>
        <time>2021-10-27T14:40:03Z</time>
      </trkpt>
      <trkpt lat="43.28922" lon="5.77562">
        <ele>507</ele>
        <time>2021-10-27T14:40:08Z</time>
      </trkpt>
      <trkpt lat="43.28919" lon="5.77557">
        <ele>506.3</ele>
        <time>2021-10-27T14:40:13Z</time>
      </trkpt>
      <trkpt lat="43.28915" lon="5.77552">
        <ele>506.3</ele>
        <time>2021-10-27T14:40:18Z</time>
      </trkpt>
      <trkpt lat="43.28911" lon="5.77547">
        <ele>506.7</ele>
        <time>2021-10-27T14:40:24Z</time>
      </trkpt>
      <trkpt lat="43.28907" lon="5.77541">
        <ele>507</ele>
        <time>2021-10-27T14:40:29Z</time>
      </trkpt>
      <trkpt lat="43.28905" lon="5.77536">
        <ele>507.1</ele>
        <time>2021-10-27T14:40:33Z</time>
      </trkpt>
      <trkpt lat="43.28904" lon="5.77529">
        <ele>507</ele>
        <time>2021-10-27T14:40:38Z</time>
      </trkpt>
      <trkpt lat="43.28902" lon="5.77522">
        <ele>507</ele>
        <time>2021-10-27T14:40:42Z</time>
      </trkpt>
      <trkpt lat="43.289" lon="5.77516">
        <ele>506.8</ele>
        <time>2021-10-27T14:40:47Z</time>
      </trkpt>
      <trkpt lat="43.28899" lon="5.7751">
        <ele>506.6</ele>
        <time>2021-10-27T14:40:51Z</time>
      </trkpt>
      <trkpt lat="43.28898" lon="5.77503">
        <ele>506.4</ele>
        <time>2021-10-27T14:40:55Z</time>
      </trkpt>
      <trkpt lat="43.28897" lon="5.77497">
        <ele>506.2</ele>
        <time>2021-10-27T14:41:00Z</time>
      </trkpt>
      <trkpt lat="43.28895" lon="5.7749">
        <ele>505.7</ele>
        <time>2021-10-27T14:41:05Z</time>
      </trkpt>
      <trkpt lat="43.28893" lon="5.77483">
        <ele>505.1</ele>
        <time>2021-10-27T14:41:10Z</time>
      </trkpt>
      <trkpt lat="43.28891" lon="5.77477">
        <ele>504.7</ele>
        <time>2021-10-27T14:41:14Z</time>
      </trkpt>
      <trkpt lat="43.28891" lon="5.7747">
        <ele>504.5</ele>
        <time>2021-10-27T14:41:19Z</time>
      </trkpt>
      <trkpt lat="43.28889" lon="5.77463">
        <ele>504.7</ele>
        <time>2021-10-27T14:41:24Z</time>
      </trkpt>
      <trkpt lat="43.28887" lon="5.77456">
        <ele>505.3</ele>
        <time>2021-10-27T14:41:29Z</time>
      </trkpt>
      <trkpt lat="43.28885" lon="5.77449">
        <ele>505.7</ele>
        <time>2021-10-27T14:41:33Z</time>
      </trkpt>
      <trkpt lat="43.28883" lon="5.77444">
        <ele>506</ele>
        <time>2021-10-27T14:41:37Z</time>
      </trkpt>
      <trkpt lat="43.2888" lon="5.77438">
        <ele>505.9</ele>
        <time>2021-10-27T14:41:42Z</time>
      </trkpt>
      <trkpt lat="43.28877" lon="5.77433">
        <ele>505.8</ele>
        <time>2021-10-27T14:41:46Z</time>
      </trkpt>
      <trkpt lat="43.28875" lon="5.77426">
        <ele>505.7</ele>
        <time>2021-10-27T14:41:50Z</time>
      </trkpt>
      <trkpt lat="43.28875" lon="5.77419">
        <ele>505.5</ele>
        <time>2021-10-27T14:41:55Z</time>
      </trkpt>
      <trkpt lat="43.28875" lon="5.77413">
        <ele>505.5</ele>
        <time>2021-10-27T14:42:03Z</time>
      </trkpt>
      <trkpt lat="43.28876" lon="5.77406">
        <ele>505.4</ele>
        <time>2021-10-27T14:42:07Z</time>
      </trkpt>
      <trkpt lat="43.28876" lon="5.77399">
        <ele>505.3</ele>
        <time>2021-10-27T14:42:11Z</time>
      </trkpt>
      <trkpt lat="43.28876" lon="5.77392">
        <ele>505.2</ele>
        <time>2021-10-27T14:42:16Z</time>
      </trkpt>
      <trkpt lat="43.28876" lon="5.77385">
        <ele>505.2</ele>
        <time>2021-10-27T14:42:21Z</time>
      </trkpt>
      <trkpt lat="43.28876" lon="5.77378">
        <ele>505.3</ele>
        <time>2021-10-27T14:42:27Z</time>
      </trkpt>
      <trkpt lat="43.28875" lon="5.77372">
        <ele>505.3</ele>
        <time>2021-10-27T14:42:32Z</time>
      </trkpt>
      <trkpt lat="43.28872" lon="5.77366">
        <ele>504.6</ele>
        <time>2021-10-27T14:42:37Z</time>
      </trkpt>
      <trkpt lat="43.28867" lon="5.77361">
        <ele>503.6</ele>
        <time>2021-10-27T14:42:41Z</time>
      </trkpt>
      <trkpt lat="43.28864" lon="5.77356">
        <ele>503.5</ele>
        <time>2021-10-27T14:42:44Z</time>
      </trkpt>
      <trkpt lat="43.28861" lon="5.7735">
        <ele>503.6</ele>
        <time>2021-10-27T14:42:49Z</time>
      </trkpt>
      <trkpt lat="43.28857" lon="5.77345">
        <ele>504</ele>
        <time>2021-10-27T14:42:55Z</time>
      </trkpt>
      <trkpt lat="43.28853" lon="5.77341">
        <ele>504.2</ele>
        <time>2021-10-27T14:42:59Z</time>
      </trkpt>
      <trkpt lat="43.28849" lon="5.77338">
        <ele>504.2</ele>
        <time>2021-10-27T14:43:04Z</time>
      </trkpt>
      <trkpt lat="43.28844" lon="5.77335">
        <ele>504</ele>
        <time>2021-10-27T14:43:08Z</time>
      </trkpt>
      <trkpt lat="43.2884" lon="5.77332">
        <ele>503.9</ele>
        <time>2021-10-27T14:43:14Z</time>
      </trkpt>
      <trkpt lat="43.28837" lon="5.77327">
        <ele>503.8</ele>
        <time>2021-10-27T14:43:20Z</time>
      </trkpt>
      <trkpt lat="43.28835" lon="5.77322">
        <ele>503.9</ele>
        <time>2021-10-27T14:43:27Z</time>
      </trkpt>
      <trkpt lat="43.28831" lon="5.77318">
        <ele>504.1</ele>
        <time>2021-10-27T14:43:49Z</time>
      </trkpt>
      <trkpt lat="43.28829" lon="5.77312">
        <ele>504.6</ele>
        <time>2021-10-27T14:44:00Z</time>
      </trkpt>
      <trkpt lat="43.28825" lon="5.7731">
        <ele>504.9</ele>
        <time>2021-10-27T14:44:46Z</time>
      </trkpt>
      <trkpt lat="43.28827" lon="5.77305">
        <ele>505.2</ele>
        <time>2021-10-27T14:49:26Z</time>
      </trkpt>
      <trkpt lat="43.28828" lon="5.77298">
        <ele>505.2</ele>
        <time>2021-10-27T14:49:31Z</time>
      </trkpt>
      <trkpt lat="43.2883" lon="5.77291">
        <ele>505.1</ele>
        <time>2021-10-27T14:49:36Z</time>
      </trkpt>
      <trkpt lat="43.28831" lon="5.77284">
        <ele>505.1</ele>
        <time>2021-10-27T14:49:41Z</time>
      </trkpt>
      <trkpt lat="43.28831" lon="5.77276">
        <ele>505.1</ele>
        <time>2021-10-27T14:49:45Z</time>
      </trkpt>
      <trkpt lat="43.28831" lon="5.77269">
        <ele>505.4</ele>
        <time>2021-10-27T14:49:50Z</time>
      </trkpt>
      <trkpt lat="43.28831" lon="5.77262">
        <ele>505.7</ele>
        <time>2021-10-27T14:49:55Z</time>
      </trkpt>
      <trkpt lat="43.28831" lon="5.77255">
        <ele>505.9</ele>
        <time>2021-10-27T14:49:59Z</time>
      </trkpt>
      <trkpt lat="43.28829" lon="5.77249">
        <ele>506.1</ele>
        <time>2021-10-27T14:50:03Z</time>
      </trkpt>
      <trkpt lat="43.28829" lon="5.77243">
        <ele>505.9</ele>
        <time>2021-10-27T14:50:08Z</time>
      </trkpt>
      <trkpt lat="43.28831" lon="5.77237">
        <ele>505.6</ele>
        <time>2021-10-27T14:50:13Z</time>
      </trkpt>
      <trkpt lat="43.28832" lon="5.7723">
        <ele>505.3</ele>
        <time>2021-10-27T14:50:19Z</time>
      </trkpt>
      <trkpt lat="43.28834" lon="5.77225">
        <ele>505.1</ele>
        <time>2021-10-27T14:50:23Z</time>
      </trkpt>
      <trkpt lat="43.28836" lon="5.7722">
        <ele>505.1</ele>
        <time>2021-10-27T14:50:26Z</time>
      </trkpt>
      <trkpt lat="43.28838" lon="5.77213">
        <ele>505.1</ele>
        <time>2021-10-27T14:50:29Z</time>
      </trkpt>
      <trkpt lat="43.2884" lon="5.77207">
        <ele>505</ele>
        <time>2021-10-27T14:50:33Z</time>
      </trkpt>
      <trkpt lat="43.28841" lon="5.772">
        <ele>504.8</ele>
        <time>2021-10-27T14:50:40Z</time>
      </trkpt>
      <trkpt lat="43.28843" lon="5.77195">
        <ele>504.7</ele>
        <time>2021-10-27T14:50:46Z</time>
      </trkpt>
      <trkpt lat="43.28844" lon="5.77188">
        <ele>504.2</ele>
        <time>2021-10-27T14:50:51Z</time>
      </trkpt>
      <trkpt lat="43.28843" lon="5.77181">
        <ele>503.8</ele>
        <time>2021-10-27T14:50:56Z</time>
      </trkpt>
      <trkpt lat="43.28844" lon="5.77175">
        <ele>503.5</ele>
        <time>2021-10-27T14:51:01Z</time>
      </trkpt>
      <trkpt lat="43.28845" lon="5.77168">
        <ele>503.1</ele>
        <time>2021-10-27T14:51:06Z</time>
      </trkpt>
      <trkpt lat="43.28847" lon="5.77162">
        <ele>502.8</ele>
        <time>2021-10-27T14:51:11Z</time>
      </trkpt>
      <trkpt lat="43.2885" lon="5.77156">
        <ele>502.4</ele>
        <time>2021-10-27T14:51:15Z</time>
      </trkpt>
      <trkpt lat="43.28854" lon="5.77151">
        <ele>502</ele>
        <time>2021-10-27T14:51:20Z</time>
      </trkpt>
      <trkpt lat="43.28857" lon="5.77146">
        <ele>501.6</ele>
        <time>2021-10-27T14:51:26Z</time>
      </trkpt>
      <trkpt lat="43.28858" lon="5.7714">
        <ele>501.2</ele>
        <time>2021-10-27T14:51:30Z</time>
      </trkpt>
      <trkpt lat="43.2886" lon="5.77133">
        <ele>500.9</ele>
        <time>2021-10-27T14:51:34Z</time>
      </trkpt>
      <trkpt lat="43.28861" lon="5.77127">
        <ele>500.6</ele>
        <time>2021-10-27T14:51:38Z</time>
      </trkpt>
      <trkpt lat="43.28863" lon="5.77121">
        <ele>500.4</ele>
        <time>2021-10-27T14:51:42Z</time>
      </trkpt>
      <trkpt lat="43.28864" lon="5.77115">
        <ele>500.2</ele>
        <time>2021-10-27T14:51:46Z</time>
      </trkpt>
      <trkpt lat="43.28865" lon="5.77108">
        <ele>500</ele>
        <time>2021-10-27T14:51:51Z</time>
      </trkpt>
      <trkpt lat="43.28864" lon="5.77102">
        <ele>499.8</ele>
        <time>2021-10-27T14:51:56Z</time>
      </trkpt>
      <trkpt lat="43.28864" lon="5.77095">
        <ele>499.5</ele>
        <time>2021-10-27T14:52:01Z</time>
      </trkpt>
      <trkpt lat="43.28861" lon="5.77087">
        <ele>499.2</ele>
        <time>2021-10-27T14:52:06Z</time>
      </trkpt>
      <trkpt lat="43.28859" lon="5.77081">
        <ele>498.9</ele>
        <time>2021-10-27T14:52:10Z</time>
      </trkpt>
      <trkpt lat="43.28857" lon="5.77074">
        <ele>498.4</ele>
        <time>2021-10-27T14:52:15Z</time>
      </trkpt>
      <trkpt lat="43.28857" lon="5.77066">
        <ele>497.9</ele>
        <time>2021-10-27T14:52:20Z</time>
      </trkpt>
      <trkpt lat="43.28856" lon="5.7706">
        <ele>497.5</ele>
        <time>2021-10-27T14:52:25Z</time>
      </trkpt>
      <trkpt lat="43.28854" lon="5.77054">
        <ele>497.2</ele>
        <time>2021-10-27T14:52:31Z</time>
      </trkpt>
      <trkpt lat="43.28853" lon="5.77048">
        <ele>497</ele>
        <time>2021-10-27T14:52:36Z</time>
      </trkpt>
      <trkpt lat="43.28852" lon="5.77041">
        <ele>496.8</ele>
        <time>2021-10-27T14:52:41Z</time>
      </trkpt>
      <trkpt lat="43.28851" lon="5.77034">
        <ele>496.6</ele>
        <time>2021-10-27T14:52:46Z</time>
      </trkpt>
      <trkpt lat="43.2885" lon="5.77027">
        <ele>496.4</ele>
        <time>2021-10-27T14:52:50Z</time>
      </trkpt>
      <trkpt lat="43.28849" lon="5.7702">
        <ele>496.4</ele>
        <time>2021-10-27T14:52:54Z</time>
      </trkpt>
      <trkpt lat="43.28847" lon="5.77014">
        <ele>496.2</ele>
        <time>2021-10-27T14:52:58Z</time>
      </trkpt>
      <trkpt lat="43.28844" lon="5.77009">
        <ele>496</ele>
        <time>2021-10-27T14:53:02Z</time>
      </trkpt>
      <trkpt lat="43.2884" lon="5.77004">
        <ele>495.7</ele>
        <time>2021-10-27T14:53:05Z</time>
      </trkpt>
      <trkpt lat="43.28836" lon="5.77001">
        <ele>495.2</ele>
        <time>2021-10-27T14:53:08Z</time>
      </trkpt>
      <trkpt lat="43.28832" lon="5.76996">
        <ele>494.9</ele>
        <time>2021-10-27T14:53:13Z</time>
      </trkpt>
      <trkpt lat="43.28829" lon="5.7699">
        <ele>494.6</ele>
        <time>2021-10-27T14:53:20Z</time>
      </trkpt>
      <trkpt lat="43.28827" lon="5.76984">
        <ele>494.3</ele>
        <time>2021-10-27T14:53:41Z</time>
      </trkpt>
      <trkpt lat="43.28829" lon="5.76979">
        <ele>494.1</ele>
        <time>2021-10-27T14:53:51Z</time>
      </trkpt>
      <trkpt lat="43.28828" lon="5.76972">
        <ele>493.8</ele>
        <time>2021-10-27T14:53:59Z</time>
      </trkpt>
      <trkpt lat="43.28829" lon="5.76966">
        <ele>494.1</ele>
        <time>2021-10-27T14:54:04Z</time>
      </trkpt>
      <trkpt lat="43.28828" lon="5.76959">
        <ele>494.3</ele>
        <time>2021-10-27T14:54:07Z</time>
      </trkpt>
      <trkpt lat="43.28828" lon="5.76953">
        <ele>494.5</ele>
        <time>2021-10-27T14:54:12Z</time>
      </trkpt>
      <trkpt lat="43.28828" lon="5.76946">
        <ele>494.7</ele>
        <time>2021-10-27T14:54:19Z</time>
      </trkpt>
      <trkpt lat="43.28826" lon="5.76938">
        <ele>495.2</ele>
        <time>2021-10-27T14:54:24Z</time>
      </trkpt>
      <trkpt lat="43.28825" lon="5.76932">
        <ele>495.6</ele>
        <time>2021-10-27T14:54:29Z</time>
      </trkpt>
      <trkpt lat="43.28823" lon="5.76926">
        <ele>496</ele>
        <time>2021-10-27T14:54:34Z</time>
      </trkpt>
      <trkpt lat="43.28821" lon="5.7692">
        <ele>496.3</ele>
        <time>2021-10-27T14:54:40Z</time>
      </trkpt>
      <trkpt lat="43.28818" lon="5.76915">
        <ele>496.5</ele>
        <time>2021-10-27T14:54:47Z</time>
      </trkpt>
      <trkpt lat="43.28815" lon="5.7691">
        <ele>496.6</ele>
        <time>2021-10-27T14:54:56Z</time>
      </trkpt>
      <trkpt lat="43.28813" lon="5.76904">
        <ele>496.7</ele>
        <time>2021-10-27T14:55:04Z</time>
      </trkpt>
      <trkpt lat="43.2881" lon="5.76897">
        <ele>496.8</ele>
        <time>2021-10-27T14:55:10Z</time>
      </trkpt>
      <trkpt lat="43.28807" lon="5.76892">
        <ele>496.9</ele>
        <time>2021-10-27T14:55:18Z</time>
      </trkpt>
      <trkpt lat="43.28803" lon="5.76891">
        <ele>496.6</ele>
        <time>2021-10-27T14:55:31Z</time>
      </trkpt>
      <trkpt lat="43.28799" lon="5.76895">
        <ele>496.1</ele>
        <time>2021-10-27T14:56:14Z</time>
      </trkpt>
      <trkpt lat="43.28796" lon="5.76891">
        <ele>495.9</ele>
        <time>2021-10-27T14:57:15Z</time>
      </trkpt>
      <trkpt lat="43.28791" lon="5.7689">
        <ele>495.4</ele>
        <time>2021-10-27T14:57:40Z</time>
      </trkpt>
      <trkpt lat="43.28786" lon="5.76888">
        <ele>494.9</ele>
        <time>2021-10-27T14:58:00Z</time>
      </trkpt>
      <trkpt lat="43.28781" lon="5.76888">
        <ele>494.4</ele>
        <time>2021-10-27T14:58:13Z</time>
      </trkpt>
      <trkpt lat="43.28778" lon="5.76884">
        <ele>494.3</ele>
        <time>2021-10-27T14:58:37Z</time>
      </trkpt>
      <trkpt lat="43.28774" lon="5.7688">
        <ele>493.8</ele>
        <time>2021-10-27T14:59:28Z</time>
      </trkpt>
      <trkpt lat="43.28771" lon="5.76874">
        <ele>493.5</ele>
        <time>2021-10-27T14:59:47Z</time>
      </trkpt>
      <trkpt lat="43.28767" lon="5.76878">
        <ele>492.4</ele>
        <time>2021-10-27T15:00:00Z</time>
      </trkpt>
      <trkpt lat="43.28762" lon="5.76877">
        <ele>491.4</ele>
        <time>2021-10-27T15:00:10Z</time>
      </trkpt>
      <trkpt lat="43.2876" lon="5.7687">
        <ele>490.7</ele>
        <time>2021-10-27T15:00:16Z</time>
      </trkpt>
      <trkpt lat="43.28755" lon="5.76867">
        <ele>489.6</ele>
        <time>2021-10-27T15:00:20Z</time>
      </trkpt>
      <trkpt lat="43.2875" lon="5.76865">
        <ele>488.2</ele>
        <time>2021-10-27T15:00:24Z</time>
      </trkpt>
      <trkpt lat="43.28746" lon="5.76863">
        <ele>488.6</ele>
        <time>2021-10-27T15:00:28Z</time>
      </trkpt>
      <trkpt lat="43.28742" lon="5.76858">
        <ele>489.1</ele>
        <time>2021-10-27T15:00:33Z</time>
      </trkpt>
      <trkpt lat="43.28739" lon="5.76852">
        <ele>489.6</ele>
        <time>2021-10-27T15:00:38Z</time>
      </trkpt>
      <trkpt lat="43.28736" lon="5.76847">
        <ele>489.8</ele>
        <time>2021-10-27T15:00:44Z</time>
      </trkpt>
      <trkpt lat="43.28734" lon="5.76842">
        <ele>489.5</ele>
        <time>2021-10-27T15:00:49Z</time>
      </trkpt>
      <trkpt lat="43.28729" lon="5.76838">
        <ele>488.8</ele>
        <time>2021-10-27T15:00:55Z</time>
      </trkpt>
      <trkpt lat="43.28727" lon="5.76833">
        <ele>488</ele>
        <time>2021-10-27T15:01:03Z</time>
      </trkpt>
      <trkpt lat="43.28726" lon="5.76826">
        <ele>487.6</ele>
        <time>2021-10-27T15:01:26Z</time>
      </trkpt>
      <trkpt lat="43.28721" lon="5.76824">
        <ele>486.9</ele>
        <time>2021-10-27T15:01:34Z</time>
      </trkpt>
      <trkpt lat="43.28718" lon="5.76819">
        <ele>487.4</ele>
        <time>2021-10-27T15:01:39Z</time>
      </trkpt>
      <trkpt lat="43.28718" lon="5.76812">
        <ele>487.1</ele>
        <time>2021-10-27T15:01:44Z</time>
      </trkpt>
      <trkpt lat="43.28715" lon="5.76807">
        <ele>487.4</ele>
        <time>2021-10-27T15:01:49Z</time>
      </trkpt>
      <trkpt lat="43.28712" lon="5.76802">
        <ele>487.7</ele>
        <time>2021-10-27T15:01:53Z</time>
      </trkpt>
      <trkpt lat="43.28709" lon="5.76798">
        <ele>487.9</ele>
        <time>2021-10-27T15:02:00Z</time>
      </trkpt>
      <trkpt lat="43.28706" lon="5.76792">
        <ele>487.7</ele>
        <time>2021-10-27T15:02:09Z</time>
      </trkpt>
      <trkpt lat="43.28703" lon="5.76787">
        <ele>487.1</ele>
        <time>2021-10-27T15:02:16Z</time>
      </trkpt>
      <trkpt lat="43.28701" lon="5.7678">
        <ele>486</ele>
        <time>2021-10-27T15:02:23Z</time>
      </trkpt>
      <trkpt lat="43.28699" lon="5.76774">
        <ele>485.6</ele>
        <time>2021-10-27T15:02:26Z</time>
      </trkpt>
      <trkpt lat="43.28701" lon="5.76768">
        <ele>485.8</ele>
        <time>2021-10-27T15:02:35Z</time>
      </trkpt>
      <trkpt lat="43.28702" lon="5.76761">
        <ele>486.2</ele>
        <time>2021-10-27T15:02:55Z</time>
      </trkpt>
      <trkpt lat="43.28699" lon="5.76758">
        <ele>485.6</ele>
        <time>2021-10-27T15:03:10Z</time>
      </trkpt>
      <trkpt lat="43.28694" lon="5.76759">
        <ele>485</ele>
        <time>2021-10-27T15:03:17Z</time>
      </trkpt>
      <trkpt lat="43.28688" lon="5.76761">
        <ele>484.6</ele>
        <time>2021-10-27T15:03:24Z</time>
      </trkpt>
      <trkpt lat="43.28685" lon="5.76765">
        <ele>484.3</ele>
        <time>2021-10-27T15:04:02Z</time>
      </trkpt>
      <trkpt lat="43.2868" lon="5.76765">
        <ele>483.9</ele>
        <time>2021-10-27T15:04:20Z</time>
      </trkpt>
      <trkpt lat="43.28676" lon="5.76761">
        <ele>483.8</ele>
        <time>2021-10-27T15:04:25Z</time>
      </trkpt>
      <trkpt lat="43.28671" lon="5.76759">
        <ele>483.6</ele>
        <time>2021-10-27T15:04:30Z</time>
      </trkpt>
      <trkpt lat="43.28666" lon="5.76759">
        <ele>483.3</ele>
        <time>2021-10-27T15:04:35Z</time>
      </trkpt>
      <trkpt lat="43.28661" lon="5.76757">
        <ele>483</ele>
        <time>2021-10-27T15:04:42Z</time>
      </trkpt>
      <trkpt lat="43.28657" lon="5.76759">
        <ele>482.4</ele>
        <time>2021-10-27T15:04:48Z</time>
      </trkpt>
      <trkpt lat="43.28651" lon="5.76761">
        <ele>481.8</ele>
        <time>2021-10-27T15:04:52Z</time>
      </trkpt>
      <trkpt lat="43.28646" lon="5.76763">
        <ele>481.2</ele>
        <time>2021-10-27T15:04:56Z</time>
      </trkpt>
      <trkpt lat="43.28641" lon="5.76765">
        <ele>480.7</ele>
        <time>2021-10-27T15:05:00Z</time>
      </trkpt>
      <trkpt lat="43.28637" lon="5.76764">
        <ele>480.7</ele>
        <time>2021-10-27T15:05:05Z</time>
      </trkpt>
      <trkpt lat="43.28632" lon="5.76762">
        <ele>480.9</ele>
        <time>2021-10-27T15:05:12Z</time>
      </trkpt>
      <trkpt lat="43.28629" lon="5.76756">
        <ele>480.7</ele>
        <time>2021-10-27T15:05:19Z</time>
      </trkpt>
      <trkpt lat="43.28628" lon="5.76749">
        <ele>480.2</ele>
        <time>2021-10-27T15:05:24Z</time>
      </trkpt>
      <trkpt lat="43.28625" lon="5.76742">
        <ele>480</ele>
        <time>2021-10-27T15:05:29Z</time>
      </trkpt>
      <trkpt lat="43.28621" lon="5.76736">
        <ele>479.2</ele>
        <time>2021-10-27T15:05:34Z</time>
      </trkpt>
      <trkpt lat="43.28619" lon="5.76731">
        <ele>478.4</ele>
        <time>2021-10-27T15:05:37Z</time>
      </trkpt>
      <trkpt lat="43.28617" lon="5.76724">
        <ele>477.2</ele>
        <time>2021-10-27T15:05:42Z</time>
      </trkpt>
      <trkpt lat="43.28615" lon="5.76718">
        <ele>476.6</ele>
        <time>2021-10-27T15:05:47Z</time>
      </trkpt>
      <trkpt lat="43.28613" lon="5.76711">
        <ele>476</ele>
        <time>2021-10-27T15:05:51Z</time>
      </trkpt>
      <trkpt lat="43.2861" lon="5.76706">
        <ele>476</ele>
        <time>2021-10-27T15:05:57Z</time>
      </trkpt>
      <trkpt lat="43.28606" lon="5.76702">
        <ele>476.9</ele>
        <time>2021-10-27T15:06:02Z</time>
      </trkpt>
      <trkpt lat="43.28604" lon="5.76695">
        <ele>477.1</ele>
        <time>2021-10-27T15:06:09Z</time>
      </trkpt>
      <trkpt lat="43.28603" lon="5.76689">
        <ele>477.3</ele>
        <time>2021-10-27T15:06:19Z</time>
      </trkpt>
      <trkpt lat="43.28599" lon="5.76684">
        <ele>477.3</ele>
        <time>2021-10-27T15:06:29Z</time>
      </trkpt>
      <trkpt lat="43.28596" lon="5.76679">
        <ele>476.8</ele>
        <time>2021-10-27T15:06:34Z</time>
      </trkpt>
      <trkpt lat="43.28594" lon="5.76673">
        <ele>475.9</ele>
        <time>2021-10-27T15:06:38Z</time>
      </trkpt>
      <trkpt lat="43.28591" lon="5.76667">
        <ele>474.3</ele>
        <time>2021-10-27T15:06:42Z</time>
      </trkpt>
      <trkpt lat="43.28589" lon="5.76661">
        <ele>473.6</ele>
        <time>2021-10-27T15:06:49Z</time>
      </trkpt>
      <trkpt lat="43.28586" lon="5.76655">
        <ele>472.7</ele>
        <time>2021-10-27T15:06:56Z</time>
      </trkpt>
      <trkpt lat="43.28583" lon="5.7665">
        <ele>472</ele>
        <time>2021-10-27T15:07:03Z</time>
      </trkpt>
      <trkpt lat="43.2858" lon="5.76645">
        <ele>472.8</ele>
        <time>2021-10-27T15:07:10Z</time>
      </trkpt>
      <trkpt lat="43.28579" lon="5.76638">
        <ele>472.8</ele>
        <time>2021-10-27T15:07:15Z</time>
      </trkpt>
      <trkpt lat="43.28577" lon="5.7663">
        <ele>473.6</ele>
        <time>2021-10-27T15:07:21Z</time>
      </trkpt>
      <trkpt lat="43.28576" lon="5.76623">
        <ele>473.9</ele>
        <time>2021-10-27T15:07:25Z</time>
      </trkpt>
      <trkpt lat="43.28573" lon="5.76618">
        <ele>473.8</ele>
        <time>2021-10-27T15:07:31Z</time>
      </trkpt>
      <trkpt lat="43.28568" lon="5.76615">
        <ele>473</ele>
        <time>2021-10-27T15:07:36Z</time>
      </trkpt>
      <trkpt lat="43.28564" lon="5.76612">
        <ele>471.9</ele>
        <time>2021-10-27T15:07:42Z</time>
      </trkpt>
      <trkpt lat="43.2856" lon="5.76609">
        <ele>471</ele>
        <time>2021-10-27T15:07:47Z</time>
      </trkpt>
      <trkpt lat="43.28555" lon="5.76605">
        <ele>470</ele>
        <time>2021-10-27T15:07:55Z</time>
      </trkpt>
      <trkpt lat="43.28551" lon="5.76601">
        <ele>470.3</ele>
        <time>2021-10-27T15:08:00Z</time>
      </trkpt>
      <trkpt lat="43.28548" lon="5.76596">
        <ele>470.2</ele>
        <time>2021-10-27T15:08:06Z</time>
      </trkpt>
      <trkpt lat="43.28545" lon="5.7659">
        <ele>469.6</ele>
        <time>2021-10-27T15:08:11Z</time>
      </trkpt>
      <trkpt lat="43.28542" lon="5.76585">
        <ele>468.8</ele>
        <time>2021-10-27T15:08:19Z</time>
      </trkpt>
      <trkpt lat="43.28538" lon="5.76579">
        <ele>468.8</ele>
        <time>2021-10-27T15:08:25Z</time>
      </trkpt>
      <trkpt lat="43.28535" lon="5.76574">
        <ele>469.2</ele>
        <time>2021-10-27T15:08:31Z</time>
      </trkpt>
      <trkpt lat="43.2853" lon="5.76573">
        <ele>468.8</ele>
        <time>2021-10-27T15:08:42Z</time>
      </trkpt>
      <trkpt lat="43.28526" lon="5.76569">
        <ele>469.1</ele>
        <time>2021-10-27T15:08:47Z</time>
      </trkpt>
      <trkpt lat="43.28521" lon="5.76566">
        <ele>469.2</ele>
        <time>2021-10-27T15:08:50Z</time>
      </trkpt>
      <trkpt lat="43.28517" lon="5.76562">
        <ele>469</ele>
        <time>2021-10-27T15:08:54Z</time>
      </trkpt>
      <trkpt lat="43.28513" lon="5.76559">
        <ele>468.5</ele>
        <time>2021-10-27T15:08:59Z</time>
      </trkpt>
      <trkpt lat="43.28509" lon="5.76554">
        <ele>467.7</ele>
        <time>2021-10-27T15:09:04Z</time>
      </trkpt>
      <trkpt lat="43.28507" lon="5.76549">
        <ele>467.4</ele>
        <time>2021-10-27T15:09:14Z</time>
      </trkpt>
      <trkpt lat="43.28504" lon="5.76544">
        <ele>466.5</ele>
        <time>2021-10-27T15:09:19Z</time>
      </trkpt>
      <trkpt lat="43.28502" lon="5.76538">
        <ele>466.1</ele>
        <time>2021-10-27T15:09:23Z</time>
      </trkpt>
      <trkpt lat="43.285" lon="5.76532">
        <ele>465.2</ele>
        <time>2021-10-27T15:09:27Z</time>
      </trkpt>
      <trkpt lat="43.28497" lon="5.76527">
        <ele>465.4</ele>
        <time>2021-10-27T15:09:34Z</time>
      </trkpt>
      <trkpt lat="43.28494" lon="5.76521">
        <ele>466</ele>
        <time>2021-10-27T15:09:39Z</time>
      </trkpt>
      <trkpt lat="43.28491" lon="5.76517">
        <ele>466</ele>
        <time>2021-10-27T15:09:45Z</time>
      </trkpt>
      <trkpt lat="43.28486" lon="5.76514">
        <ele>465.5</ele>
        <time>2021-10-27T15:09:50Z</time>
      </trkpt>
      <trkpt lat="43.28484" lon="5.76509">
        <ele>464.6</ele>
        <time>2021-10-27T15:09:57Z</time>
      </trkpt>
      <trkpt lat="43.2848" lon="5.76504">
        <ele>463.1</ele>
        <time>2021-10-27T15:10:03Z</time>
      </trkpt>
      <trkpt lat="43.28476" lon="5.765">
        <ele>461.3</ele>
        <time>2021-10-27T15:10:10Z</time>
      </trkpt>
      <trkpt lat="43.28474" lon="5.76494">
        <ele>460.7</ele>
        <time>2021-10-27T15:10:20Z</time>
      </trkpt>
      <trkpt lat="43.28473" lon="5.76487">
        <ele>460.5</ele>
        <time>2021-10-27T15:10:30Z</time>
      </trkpt>
      <trkpt lat="43.28472" lon="5.76481">
        <ele>460</ele>
        <time>2021-10-27T15:10:35Z</time>
      </trkpt>
      <trkpt lat="43.28471" lon="5.76474">
        <ele>460</ele>
        <time>2021-10-27T15:10:39Z</time>
      </trkpt>
      <trkpt lat="43.28468" lon="5.76469">
        <ele>460.2</ele>
        <time>2021-10-27T15:10:51Z</time>
      </trkpt>
      <trkpt lat="43.28464" lon="5.76465">
        <ele>460.1</ele>
        <time>2021-10-27T15:10:56Z</time>
      </trkpt>
      <trkpt lat="43.28461" lon="5.76461">
        <ele>459.7</ele>
        <time>2021-10-27T15:11:00Z</time>
      </trkpt>
      <trkpt lat="43.28458" lon="5.76457">
        <ele>459</ele>
        <time>2021-10-27T15:11:04Z</time>
      </trkpt>
      <trkpt lat="43.28454" lon="5.76452">
        <ele>457.9</ele>
        <time>2021-10-27T15:11:10Z</time>
      </trkpt>
      <trkpt lat="43.28449" lon="5.76449">
        <ele>456.2</ele>
        <time>2021-10-27T15:11:34Z</time>
      </trkpt>
      <trkpt lat="43.28444" lon="5.76447">
        <ele>454.5</ele>
        <time>2021-10-27T15:11:44Z</time>
      </trkpt>
      <trkpt lat="43.2844" lon="5.76443">
        <ele>454.1</ele>
        <time>2021-10-27T15:11:49Z</time>
      </trkpt>
      <trkpt lat="43.28436" lon="5.76439">
        <ele>454.3</ele>
        <time>2021-10-27T15:11:52Z</time>
      </trkpt>
      <trkpt lat="43.28432" lon="5.76435">
        <ele>453.9</ele>
        <time>2021-10-27T15:11:57Z</time>
      </trkpt>
      <trkpt lat="43.28428" lon="5.76431">
        <ele>453.1</ele>
        <time>2021-10-27T15:12:10Z</time>
      </trkpt>
      <trkpt lat="43.28424" lon="5.76427">
        <ele>451.5</ele>
        <time>2021-10-27T15:12:26Z</time>
      </trkpt>
      <trkpt lat="43.2842" lon="5.76421">
        <ele>449.4</ele>
        <time>2021-10-27T15:12:29Z</time>
      </trkpt>
      <trkpt lat="43.28417" lon="5.76416">
        <ele>447.1</ele>
        <time>2021-10-27T15:12:35Z</time>
      </trkpt>
      <trkpt lat="43.28415" lon="5.76409">
        <ele>448.5</ele>
        <time>2021-10-27T15:12:41Z</time>
      </trkpt>
      <trkpt lat="43.28413" lon="5.76404">
        <ele>449.2</ele>
        <time>2021-10-27T15:12:49Z</time>
      </trkpt>
      <trkpt lat="43.28408" lon="5.76401">
        <ele>449</ele>
        <time>2021-10-27T15:12:54Z</time>
      </trkpt>
      <trkpt lat="43.28403" lon="5.76398">
        <ele>448.4</ele>
        <time>2021-10-27T15:12:58Z</time>
      </trkpt>
      <trkpt lat="43.28399" lon="5.76397">
        <ele>447.6</ele>
        <time>2021-10-27T15:13:02Z</time>
      </trkpt>
      <trkpt lat="43.28394" lon="5.76399">
        <ele>447.2</ele>
        <time>2021-10-27T15:13:08Z</time>
      </trkpt>
      <trkpt lat="43.2839" lon="5.76402">
        <ele>447.7</ele>
        <time>2021-10-27T15:13:14Z</time>
      </trkpt>
      <trkpt lat="43.28386" lon="5.76398">
        <ele>447</ele>
        <time>2021-10-27T15:13:21Z</time>
      </trkpt>
      <trkpt lat="43.28383" lon="5.76392">
        <ele>445.5</ele>
        <time>2021-10-27T15:13:30Z</time>
      </trkpt>
      <trkpt lat="43.28381" lon="5.76385">
        <ele>445</ele>
        <time>2021-10-27T15:13:36Z</time>
      </trkpt>
      <trkpt lat="43.2838" lon="5.76378">
        <ele>445.1</ele>
        <time>2021-10-27T15:13:39Z</time>
      </trkpt>
      <trkpt lat="43.28378" lon="5.76372">
        <ele>444.6</ele>
        <time>2021-10-27T15:13:45Z</time>
      </trkpt>
      <trkpt lat="43.28374" lon="5.76368">
        <ele>443.2</ele>
        <time>2021-10-27T15:13:54Z</time>
      </trkpt>
      <trkpt lat="43.28371" lon="5.76363">
        <ele>440.8</ele>
        <time>2021-10-27T15:14:00Z</time>
      </trkpt>
      <trkpt lat="43.28366" lon="5.76359">
        <ele>438.5</ele>
        <time>2021-10-27T15:14:05Z</time>
      </trkpt>
      <trkpt lat="43.28361" lon="5.76358">
        <ele>436.7</ele>
        <time>2021-10-27T15:14:11Z</time>
      </trkpt>
      <trkpt lat="43.28359" lon="5.76351">
        <ele>437.9</ele>
        <time>2021-10-27T15:14:19Z</time>
      </trkpt>
      <trkpt lat="43.28354" lon="5.7635">
        <ele>438.2</ele>
        <time>2021-10-27T15:14:24Z</time>
      </trkpt>
      <trkpt lat="43.2835" lon="5.76345">
        <ele>438.3</ele>
        <time>2021-10-27T15:14:32Z</time>
      </trkpt>
      <trkpt lat="43.28346" lon="5.76341">
        <ele>437.8</ele>
        <time>2021-10-27T15:14:45Z</time>
      </trkpt>
      <trkpt lat="43.28345" lon="5.76335">
        <ele>437.1</ele>
        <time>2021-10-27T15:14:57Z</time>
      </trkpt>
      <trkpt lat="43.28346" lon="5.76328">
        <ele>436.8</ele>
        <time>2021-10-27T15:15:01Z</time>
      </trkpt>
      <trkpt lat="43.28348" lon="5.76322">
        <ele>436.6</ele>
        <time>2021-10-27T15:15:06Z</time>
      </trkpt>
      <trkpt lat="43.28344" lon="5.76318">
        <ele>434.8</ele>
        <time>2021-10-27T15:15:22Z</time>
      </trkpt>
      <trkpt lat="43.28341" lon="5.76311">
        <ele>432.7</ele>
        <time>2021-10-27T15:15:26Z</time>
      </trkpt>
      <trkpt lat="43.28337" lon="5.76308">
        <ele>430.1</ele>
        <time>2021-10-27T15:15:29Z</time>
      </trkpt>
      <trkpt lat="43.28332" lon="5.76306">
        <ele>428.3</ele>
        <time>2021-10-27T15:15:32Z</time>
      </trkpt>
      <trkpt lat="43.28328" lon="5.76304">
        <ele>429.3</ele>
        <time>2021-10-27T15:15:40Z</time>
      </trkpt>
      <trkpt lat="43.28325" lon="5.76299">
        <ele>429.6</ele>
        <time>2021-10-27T15:15:52Z</time>
      </trkpt>
      <trkpt lat="43.28321" lon="5.76295">
        <ele>429.3</ele>
        <time>2021-10-27T15:15:59Z</time>
      </trkpt>
      <trkpt lat="43.28319" lon="5.76289">
        <ele>428.3</ele>
        <time>2021-10-27T15:16:10Z</time>
      </trkpt>
      <trkpt lat="43.28317" lon="5.76284">
        <ele>426.8</ele>
        <time>2021-10-27T15:16:13Z</time>
      </trkpt>
      <trkpt lat="43.28314" lon="5.76278">
        <ele>424.5</ele>
        <time>2021-10-27T15:16:23Z</time>
      </trkpt>
      <trkpt lat="43.28312" lon="5.76272">
        <ele>423.5</ele>
        <time>2021-10-27T15:16:30Z</time>
      </trkpt>
      <trkpt lat="43.2831" lon="5.76266">
        <ele>422.5</ele>
        <time>2021-10-27T15:16:34Z</time>
      </trkpt>
      <trkpt lat="43.28308" lon="5.76261">
        <ele>421.3</ele>
        <time>2021-10-27T15:16:40Z</time>
      </trkpt>
      <trkpt lat="43.28307" lon="5.76254">
        <ele>420.9</ele>
        <time>2021-10-27T15:16:47Z</time>
      </trkpt>
      <trkpt lat="43.28303" lon="5.7625">
        <ele>419.5</ele>
        <time>2021-10-27T15:16:54Z</time>
      </trkpt>
      <trkpt lat="43.28299" lon="5.76251">
        <ele>418.4</ele>
        <time>2021-10-27T15:16:57Z</time>
      </trkpt>
      <trkpt lat="43.28294" lon="5.76252">
        <ele>417.4</ele>
        <time>2021-10-27T15:17:02Z</time>
      </trkpt>
      <trkpt lat="43.28289" lon="5.76252">
        <ele>416.3</ele>
        <time>2021-10-27T15:17:10Z</time>
      </trkpt>
      <trkpt lat="43.28285" lon="5.76255">
        <ele>416</ele>
        <time>2021-10-27T15:17:36Z</time>
      </trkpt>
      <trkpt lat="43.28279" lon="5.76256">
        <ele>415.4</ele>
        <time>2021-10-27T15:17:42Z</time>
      </trkpt>
      <trkpt lat="43.28275" lon="5.76257">
        <ele>415.5</ele>
        <time>2021-10-27T15:17:48Z</time>
      </trkpt>
      <trkpt lat="43.28271" lon="5.7626">
        <ele>417</ele>
        <time>2021-10-27T15:17:54Z</time>
      </trkpt>
      <trkpt lat="43.28267" lon="5.76259">
        <ele>416.5</ele>
        <time>2021-10-27T15:18:51Z</time>
      </trkpt>
      <trkpt lat="43.28262" lon="5.76256">
        <ele>415.4</ele>
        <time>2021-10-27T15:19:11Z</time>
      </trkpt>
      <trkpt lat="43.28259" lon="5.76253">
        <ele>413.6</ele>
        <time>2021-10-27T15:19:23Z</time>
      </trkpt>
      <trkpt lat="43.28254" lon="5.76252">
        <ele>413.2</ele>
        <time>2021-10-27T15:19:29Z</time>
      </trkpt>
      <trkpt lat="43.28248" lon="5.76252">
        <ele>412.9</ele>
        <time>2021-10-27T15:19:41Z</time>
      </trkpt>
      <trkpt lat="43.28243" lon="5.7625">
        <ele>411.9</ele>
        <time>2021-10-27T15:19:49Z</time>
      </trkpt>
      <trkpt lat="43.28239" lon="5.76248">
        <ele>412.4</ele>
        <time>2021-10-27T15:20:19Z</time>
      </trkpt>
      <trkpt lat="43.28234" lon="5.76246">
        <ele>413.2</ele>
        <time>2021-10-27T15:20:28Z</time>
      </trkpt>
      <trkpt lat="43.28229" lon="5.76245">
        <ele>413.3</ele>
        <time>2021-10-27T15:20:36Z</time>
      </trkpt>
      <trkpt lat="43.28225" lon="5.76244">
        <ele>414</ele>
        <time>2021-10-27T15:20:45Z</time>
      </trkpt>
      <trkpt lat="43.2822" lon="5.76247">
        <ele>413.3</ele>
        <time>2021-10-27T15:21:02Z</time>
      </trkpt>
      <trkpt lat="43.28216" lon="5.76249">
        <ele>414.3</ele>
        <time>2021-10-27T15:21:18Z</time>
      </trkpt>
      <trkpt lat="43.28211" lon="5.7625">
        <ele>416</ele>
        <time>2021-10-27T15:21:27Z</time>
      </trkpt>
      <trkpt lat="43.28207" lon="5.76254">
        <ele>417.2</ele>
        <time>2021-10-27T15:21:33Z</time>
      </trkpt>
      <trkpt lat="43.28203" lon="5.76257">
        <ele>417.7</ele>
        <time>2021-10-27T15:21:56Z</time>
      </trkpt>
      <trkpt lat="43.28199" lon="5.76262">
        <ele>416.6</ele>
        <time>2021-10-27T15:22:05Z</time>
      </trkpt>
      <trkpt lat="43.28196" lon="5.76268">
        <ele>413.8</ele>
        <time>2021-10-27T15:22:10Z</time>
      </trkpt>
      <trkpt lat="43.28192" lon="5.76272">
        <ele>411.8</ele>
        <time>2021-10-27T15:22:24Z</time>
      </trkpt>
      <trkpt lat="43.28188" lon="5.76272">
        <ele>412.8</ele>
        <time>2021-10-27T15:22:36Z</time>
      </trkpt>
      <trkpt lat="43.28183" lon="5.76273">
        <ele>413.2</ele>
        <time>2021-10-27T15:22:45Z</time>
      </trkpt>
      <trkpt lat="43.28179" lon="5.76275">
        <ele>413.2</ele>
        <time>2021-10-27T15:22:50Z</time>
      </trkpt>
      <trkpt lat="43.28175" lon="5.7628">
        <ele>412.2</ele>
        <time>2021-10-27T15:23:00Z</time>
      </trkpt>
      <trkpt lat="43.28171" lon="5.76283">
        <ele>412.6</ele>
        <time>2021-10-27T15:23:07Z</time>
      </trkpt>
      <trkpt lat="43.28167" lon="5.76286">
        <ele>412.3</ele>
        <time>2021-10-27T15:23:18Z</time>
      </trkpt>
      <trkpt lat="43.28162" lon="5.76287">
        <ele>413.2</ele>
        <time>2021-10-27T15:23:35Z</time>
      </trkpt>
      <trkpt lat="43.28157" lon="5.76289">
        <ele>413.6</ele>
        <time>2021-10-27T15:23:56Z</time>
      </trkpt>
      <trkpt lat="43.28153" lon="5.76289">
        <ele>414.5</ele>
        <time>2021-10-27T15:24:06Z</time>
      </trkpt>
      <trkpt lat="43.28148" lon="5.76291">
        <ele>414.1</ele>
        <time>2021-10-27T15:24:17Z</time>
      </trkpt>
      <trkpt lat="43.28143" lon="5.76294">
        <ele>413.1</ele>
        <time>2021-10-27T15:24:28Z</time>
      </trkpt>
      <trkpt lat="43.28137" lon="5.76294">
        <ele>412</ele>
        <time>2021-10-27T15:24:32Z</time>
      </trkpt>
      <trkpt lat="43.28133" lon="5.76298">
        <ele>408</ele>
        <time>2021-10-27T15:24:54Z</time>
      </trkpt>
      <trkpt lat="43.28129" lon="5.76298">
        <ele>406.2</ele>
        <time>2021-10-27T15:25:23Z</time>
      </trkpt>
      <trkpt lat="43.28124" lon="5.76296">
        <ele>405.2</ele>
        <time>2021-10-27T15:26:00Z</time>
      </trkpt>
      <trkpt lat="43.28121" lon="5.76291">
        <ele>405.1</ele>
        <time>2021-10-27T15:26:21Z</time>
      </trkpt>
      <trkpt lat="43.2812" lon="5.76285">
        <ele>405.7</ele>
        <time>2021-10-27T15:26:36Z</time>
      </trkpt>
      <trkpt lat="43.28118" lon="5.76279">
        <ele>404.8</ele>
        <time>2021-10-27T15:26:56Z</time>
      </trkpt>
      <trkpt lat="43.28116" lon="5.76274">
        <ele>404.9</ele>
        <time>2021-10-27T15:27:13Z</time>
      </trkpt>
      <trkpt lat="43.28113" lon="5.76269">
        <ele>403.9</ele>
        <time>2021-10-27T15:27:35Z</time>
      </trkpt>
      <trkpt lat="43.28109" lon="5.76266">
        <ele>402.6</ele>
        <time>2021-10-27T15:27:47Z</time>
      </trkpt>
      <trkpt lat="43.28104" lon="5.76264">
        <ele>401.8</ele>
        <time>2021-10-27T15:27:55Z</time>
      </trkpt>
      <trkpt lat="43.281" lon="5.7626">
        <ele>400.7</ele>
        <time>2021-10-27T15:28:05Z</time>
      </trkpt>
      <trkpt lat="43.28095" lon="5.76257">
        <ele>398.3</ele>
        <time>2021-10-27T15:28:14Z</time>
      </trkpt>
      <trkpt lat="43.28091" lon="5.76253">
        <ele>396.2</ele>
        <time>2021-10-27T15:28:33Z</time>
      </trkpt>
      <trkpt lat="43.28088" lon="5.76247">
        <ele>394.9</ele>
        <time>2021-10-27T15:29:24Z</time>
      </trkpt>
      <trkpt lat="43.28086" lon="5.76241">
        <ele>396.1</ele>
        <time>2021-10-27T15:29:28Z</time>
      </trkpt>
      <trkpt lat="43.28085" lon="5.76235">
        <ele>397.2</ele>
        <time>2021-10-27T15:29:41Z</time>
      </trkpt>
      <trkpt lat="43.2808" lon="5.76235">
        <ele>395.5</ele>
        <time>2021-10-27T15:29:55Z</time>
      </trkpt>
      <trkpt lat="43.28076" lon="5.76235">
        <ele>395.2</ele>
        <time>2021-10-27T15:30:35Z</time>
      </trkpt>
      <trkpt lat="43.28071" lon="5.76235">
        <ele>394.7</ele>
        <time>2021-10-27T15:30:45Z</time>
      </trkpt>
      <trkpt lat="43.28066" lon="5.76234">
        <ele>394.1</ele>
        <time>2021-10-27T15:30:53Z</time>
      </trkpt>
      <trkpt lat="43.2806" lon="5.76235">
        <ele>393.6</ele>
        <time>2021-10-27T15:30:57Z</time>
      </trkpt>
      <trkpt lat="43.28057" lon="5.76231">
        <ele>392.2</ele>
        <time>2021-10-27T15:31:08Z</time>
      </trkpt>
      <trkpt lat="43.28052" lon="5.76232">
        <ele>392.4</ele>
        <time>2021-10-27T15:31:16Z</time>
      </trkpt>
      <trkpt lat="43.28047" lon="5.76235">
        <ele>392.6</ele>
        <time>2021-10-27T15:31:22Z</time>
      </trkpt>
      <trkpt lat="43.28042" lon="5.76238">
        <ele>392.2</ele>
        <time>2021-10-27T15:31:27Z</time>
      </trkpt>
      <trkpt lat="43.28038" lon="5.76242">
        <ele>390.7</ele>
        <time>2021-10-27T15:31:32Z</time>
      </trkpt>
      <trkpt lat="43.28033" lon="5.76244">
        <ele>388.8</ele>
        <time>2021-10-27T15:31:43Z</time>
      </trkpt>
      <trkpt lat="43.28028" lon="5.76245">
        <ele>386.9</ele>
        <time>2021-10-27T15:31:49Z</time>
      </trkpt>
      <trkpt lat="43.28024" lon="5.76242">
        <ele>387.8</ele>
        <time>2021-10-27T15:31:55Z</time>
      </trkpt>
      <trkpt lat="43.28019" lon="5.7624">
        <ele>388.4</ele>
        <time>2021-10-27T15:32:01Z</time>
      </trkpt>
      <trkpt lat="43.28014" lon="5.76239">
        <ele>387.9</ele>
        <time>2021-10-27T15:32:05Z</time>
      </trkpt>
      <trkpt lat="43.28009" lon="5.76238">
        <ele>387.3</ele>
        <time>2021-10-27T15:32:09Z</time>
      </trkpt>
      <trkpt lat="43.28005" lon="5.76235">
        <ele>386.3</ele>
        <time>2021-10-27T15:32:16Z</time>
      </trkpt>
      <trkpt lat="43.28001" lon="5.76231">
        <ele>384.6</ele>
        <time>2021-10-27T15:32:25Z</time>
      </trkpt>
      <trkpt lat="43.28002" lon="5.76224">
        <ele>383.3</ele>
        <time>2021-10-27T15:32:32Z</time>
      </trkpt>
      <trkpt lat="43.28002" lon="5.76218">
        <ele>383.2</ele>
        <time>2021-10-27T15:32:38Z</time>
      </trkpt>
      <trkpt lat="43.28002" lon="5.76212">
        <ele>383.5</ele>
        <time>2021-10-27T15:32:45Z</time>
      </trkpt>
      <trkpt lat="43.28" lon="5.76205">
        <ele>382.8</ele>
        <time>2021-10-27T15:32:57Z</time>
      </trkpt>
      <trkpt lat="43.27998" lon="5.76199">
        <ele>383.9</ele>
        <time>2021-10-27T15:33:02Z</time>
      </trkpt>
      <trkpt lat="43.27995" lon="5.76194">
        <ele>384.9</ele>
        <time>2021-10-27T15:33:11Z</time>
      </trkpt>
      <trkpt lat="43.27992" lon="5.76188">
        <ele>386.3</ele>
        <time>2021-10-27T15:33:22Z</time>
      </trkpt>
      <trkpt lat="43.27991" lon="5.76183">
        <ele>387.1</ele>
        <time>2021-10-27T15:33:32Z</time>
      </trkpt>
      <trkpt lat="43.27987" lon="5.76178">
        <ele>387.4</ele>
        <time>2021-10-27T15:33:40Z</time>
      </trkpt>
      <trkpt lat="43.27985" lon="5.76172">
        <ele>387.1</ele>
        <time>2021-10-27T15:33:46Z</time>
      </trkpt>
      <trkpt lat="43.27984" lon="5.76165">
        <ele>386.6</ele>
        <time>2021-10-27T15:33:55Z</time>
      </trkpt>
      <trkpt lat="43.27981" lon="5.7616">
        <ele>385.8</ele>
        <time>2021-10-27T15:34:02Z</time>
      </trkpt>
      <trkpt lat="43.27978" lon="5.76155">
        <ele>384.6</ele>
        <time>2021-10-27T15:34:13Z</time>
      </trkpt>
      <trkpt lat="43.27974" lon="5.7615">
        <ele>382.5</ele>
        <time>2021-10-27T15:34:20Z</time>
      </trkpt>
      <trkpt lat="43.27975" lon="5.76143">
        <ele>382.3</ele>
        <time>2021-10-27T15:34:31Z</time>
      </trkpt>
      <trkpt lat="43.27972" lon="5.76138">
        <ele>380.3</ele>
        <time>2021-10-27T15:34:37Z</time>
      </trkpt>
      <trkpt lat="43.27968" lon="5.76134">
        <ele>381.5</ele>
        <time>2021-10-27T15:34:44Z</time>
      </trkpt>
      <trkpt lat="43.27966" lon="5.76128">
        <ele>382.4</ele>
        <time>2021-10-27T15:34:52Z</time>
      </trkpt>
      <trkpt lat="43.27964" lon="5.76121">
        <ele>382.8</ele>
        <time>2021-10-27T15:34:55Z</time>
      </trkpt>
      <trkpt lat="43.27963" lon="5.76115">
        <ele>382.9</ele>
        <time>2021-10-27T15:35:00Z</time>
      </trkpt>
      <trkpt lat="43.27958" lon="5.76111">
        <ele>381.9</ele>
        <time>2021-10-27T15:35:06Z</time>
      </trkpt>
      <trkpt lat="43.27953" lon="5.76109">
        <ele>381.5</ele>
        <time>2021-10-27T15:35:11Z</time>
      </trkpt>
      <trkpt lat="43.27949" lon="5.76108">
        <ele>381</ele>
        <time>2021-10-27T15:35:16Z</time>
      </trkpt>
      <trkpt lat="43.27945" lon="5.7611">
        <ele>379.3</ele>
        <time>2021-10-27T15:35:26Z</time>
      </trkpt>
      <trkpt lat="43.2794" lon="5.76111">
        <ele>379.2</ele>
        <time>2021-10-27T15:35:41Z</time>
      </trkpt>
      <trkpt lat="43.27935" lon="5.76111">
        <ele>379.1</ele>
        <time>2021-10-27T15:35:51Z</time>
      </trkpt>
      <trkpt lat="43.27931" lon="5.76111">
        <ele>379.1</ele>
        <time>2021-10-27T15:35:57Z</time>
      </trkpt>
      <trkpt lat="43.27926" lon="5.76113">
        <ele>379.2</ele>
        <time>2021-10-27T15:36:02Z</time>
      </trkpt>
      <trkpt lat="43.27922" lon="5.76117">
        <ele>379.3</ele>
        <time>2021-10-27T15:36:06Z</time>
      </trkpt>
      <trkpt lat="43.27916" lon="5.76119">
        <ele>379</ele>
        <time>2021-10-27T15:36:10Z</time>
      </trkpt>
      <trkpt lat="43.27912" lon="5.7612">
        <ele>379.2</ele>
        <time>2021-10-27T15:36:14Z</time>
      </trkpt>
      <trkpt lat="43.27907" lon="5.76118">
        <ele>379.5</ele>
        <time>2021-10-27T15:36:21Z</time>
      </trkpt>
      <trkpt lat="43.27903" lon="5.76115">
        <ele>380</ele>
        <time>2021-10-27T15:36:26Z</time>
      </trkpt>
      <trkpt lat="43.27899" lon="5.76116">
        <ele>380.3</ele>
        <time>2021-10-27T15:36:32Z</time>
      </trkpt>
      <trkpt lat="43.27895" lon="5.76122">
        <ele>379.4</ele>
        <time>2021-10-27T15:36:38Z</time>
      </trkpt>
      <trkpt lat="43.27893" lon="5.76128">
        <ele>378.5</ele>
        <time>2021-10-27T15:36:43Z</time>
      </trkpt>
      <trkpt lat="43.27889" lon="5.76132">
        <ele>377.6</ele>
        <time>2021-10-27T15:36:52Z</time>
      </trkpt>
      <trkpt lat="43.27884" lon="5.76134">
        <ele>378.3</ele>
        <time>2021-10-27T15:37:00Z</time>
      </trkpt>
      <trkpt lat="43.27879" lon="5.76137">
        <ele>378.2</ele>
        <time>2021-10-27T15:37:03Z</time>
      </trkpt>
      <trkpt lat="43.27875" lon="5.7614">
        <ele>378.5</ele>
        <time>2021-10-27T15:37:06Z</time>
      </trkpt>
      <trkpt lat="43.2787" lon="5.76143">
        <ele>379</ele>
        <time>2021-10-27T15:37:11Z</time>
      </trkpt>
      <trkpt lat="43.27866" lon="5.76147">
        <ele>379</ele>
        <time>2021-10-27T15:37:16Z</time>
      </trkpt>
      <trkpt lat="43.27862" lon="5.7615">
        <ele>378.9</ele>
        <time>2021-10-27T15:37:22Z</time>
      </trkpt>
      <trkpt lat="43.27856" lon="5.7615">
        <ele>379.7</ele>
        <time>2021-10-27T15:37:30Z</time>
      </trkpt>
      <trkpt lat="43.27853" lon="5.76153">
        <ele>379.4</ele>
        <time>2021-10-27T15:37:36Z</time>
      </trkpt>
      <trkpt lat="43.27848" lon="5.76156">
        <ele>379.1</ele>
        <time>2021-10-27T15:37:42Z</time>
      </trkpt>
      <trkpt lat="43.27843" lon="5.76159">
        <ele>378.2</ele>
        <time>2021-10-27T15:37:47Z</time>
      </trkpt>
      <trkpt lat="43.27839" lon="5.76162">
        <ele>377.1</ele>
        <time>2021-10-27T15:37:52Z</time>
      </trkpt>
      <trkpt lat="43.27834" lon="5.76163">
        <ele>376.7</ele>
        <time>2021-10-27T15:38:00Z</time>
      </trkpt>
      <trkpt lat="43.2783" lon="5.76163">
        <ele>376.4</ele>
        <time>2021-10-27T15:38:10Z</time>
      </trkpt>
      <trkpt lat="43.27825" lon="5.76163">
        <ele>376.2</ele>
        <time>2021-10-27T15:38:19Z</time>
      </trkpt>
      <trkpt lat="43.2782" lon="5.76162">
        <ele>376.3</ele>
        <time>2021-10-27T15:38:27Z</time>
      </trkpt>
      <trkpt lat="43.27816" lon="5.76164">
        <ele>375.4</ele>
        <time>2021-10-27T15:38:41Z</time>
      </trkpt>
      <trkpt lat="43.27811" lon="5.76165">
        <ele>374.7</ele>
        <time>2021-10-27T15:38:48Z</time>
      </trkpt>
      <trkpt lat="43.27806" lon="5.76164">
        <ele>374.9</ele>
        <time>2021-10-27T15:38:52Z</time>
      </trkpt>
      <trkpt lat="43.27801" lon="5.76161">
        <ele>375.7</ele>
        <time>2021-10-27T15:38:57Z</time>
      </trkpt>
      <trkpt lat="43.27797" lon="5.76158">
        <ele>376.1</ele>
        <time>2021-10-27T15:39:02Z</time>
      </trkpt>
      <trkpt lat="43.27792" lon="5.76156">
        <ele>376.1</ele>
        <time>2021-10-27T15:39:08Z</time>
      </trkpt>
      <trkpt lat="43.27788" lon="5.76151">
        <ele>376.1</ele>
        <time>2021-10-27T15:39:14Z</time>
      </trkpt>
      <trkpt lat="43.27785" lon="5.76147">
        <ele>375.9</ele>
        <time>2021-10-27T15:39:23Z</time>
      </trkpt>
      <trkpt lat="43.27781" lon="5.76142">
        <ele>375</ele>
        <time>2021-10-27T15:39:28Z</time>
      </trkpt>
      <trkpt lat="43.27777" lon="5.76138">
        <ele>374.1</ele>
        <time>2021-10-27T15:39:33Z</time>
      </trkpt>
      <trkpt lat="43.27772" lon="5.76135">
        <ele>374.3</ele>
        <time>2021-10-27T15:39:42Z</time>
      </trkpt>
      <trkpt lat="43.27772" lon="5.76129">
        <ele>374.9</ele>
        <time>2021-10-27T15:39:46Z</time>
      </trkpt>
      <trkpt lat="43.27772" lon="5.76122">
        <ele>375.4</ele>
        <time>2021-10-27T15:39:51Z</time>
      </trkpt>
      <trkpt lat="43.27771" lon="5.76116">
        <ele>375.9</ele>
        <time>2021-10-27T15:39:56Z</time>
      </trkpt>
      <trkpt lat="43.27768" lon="5.7611">
        <ele>376</ele>
        <time>2021-10-27T15:40:01Z</time>
      </trkpt>
      <trkpt lat="43.27764" lon="5.76106">
        <ele>376</ele>
        <time>2021-10-27T15:40:18Z</time>
      </trkpt>
      <trkpt lat="43.2776" lon="5.76103">
        <ele>375.9</ele>
        <time>2021-10-27T15:40:21Z</time>
      </trkpt>
      <trkpt lat="43.27755" lon="5.76101">
        <ele>375.7</ele>
        <time>2021-10-27T15:40:24Z</time>
      </trkpt>
      <trkpt lat="43.27751" lon="5.76097">
        <ele>375.7</ele>
        <time>2021-10-27T15:40:29Z</time>
      </trkpt>
      <trkpt lat="43.27748" lon="5.76092">
        <ele>375.9</ele>
        <time>2021-10-27T15:40:33Z</time>
      </trkpt>
      <trkpt lat="43.27744" lon="5.76088">
        <ele>375.8</ele>
        <time>2021-10-27T15:40:39Z</time>
      </trkpt>
      <trkpt lat="43.2774" lon="5.76084">
        <ele>375.6</ele>
        <time>2021-10-27T15:40:46Z</time>
      </trkpt>
      <trkpt lat="43.27737" lon="5.76079">
        <ele>375.4</ele>
        <time>2021-10-27T15:40:51Z</time>
      </trkpt>
      <trkpt lat="43.27735" lon="5.76074">
        <ele>375.1</ele>
        <time>2021-10-27T15:40:56Z</time>
      </trkpt>
      <trkpt lat="43.27733" lon="5.76067">
        <ele>374.9</ele>
        <time>2021-10-27T15:41:12Z</time>
      </trkpt>
      <trkpt lat="43.27729" lon="5.76064">
        <ele>373.9</ele>
        <time>2021-10-27T15:41:20Z</time>
      </trkpt>
      <trkpt lat="43.27725" lon="5.7606">
        <ele>373</ele>
        <time>2021-10-27T15:41:24Z</time>
      </trkpt>
      <trkpt lat="43.27722" lon="5.76054">
        <ele>372.1</ele>
        <time>2021-10-27T15:41:29Z</time>
      </trkpt>
      <trkpt lat="43.27719" lon="5.76048">
        <ele>372.8</ele>
        <time>2021-10-27T15:41:35Z</time>
      </trkpt>
      <trkpt lat="43.27718" lon="5.76042">
        <ele>373.1</ele>
        <time>2021-10-27T15:41:42Z</time>
      </trkpt>
      <trkpt lat="43.27718" lon="5.76036">
        <ele>373</ele>
        <time>2021-10-27T15:42:44Z</time>
      </trkpt>
      <trkpt lat="43.27714" lon="5.76031">
        <ele>373.1</ele>
        <time>2021-10-27T15:42:49Z</time>
      </trkpt>
      <trkpt lat="43.2771" lon="5.76028">
        <ele>373</ele>
        <time>2021-10-27T15:43:04Z</time>
      </trkpt>
      <trkpt lat="43.27704" lon="5.76029">
        <ele>373.2</ele>
        <time>2021-10-27T15:43:14Z</time>
      </trkpt>
      <trkpt lat="43.27699" lon="5.7603">
        <ele>373.3</ele>
        <time>2021-10-27T15:43:18Z</time>
      </trkpt>
      <trkpt lat="43.27693" lon="5.76028">
        <ele>373</ele>
        <time>2021-10-27T15:43:22Z</time>
      </trkpt>
      <trkpt lat="43.27689" lon="5.76026">
        <ele>372.7</ele>
        <time>2021-10-27T15:43:28Z</time>
      </trkpt>
      <trkpt lat="43.27684" lon="5.76024">
        <ele>372.4</ele>
        <time>2021-10-27T15:43:33Z</time>
      </trkpt>
      <trkpt lat="43.2768" lon="5.76024">
        <ele>372.3</ele>
        <time>2021-10-27T15:43:38Z</time>
      </trkpt>
      <trkpt lat="43.27674" lon="5.76027">
        <ele>372.2</ele>
        <time>2021-10-27T15:43:43Z</time>
      </trkpt>
      <trkpt lat="43.2767" lon="5.76029">
        <ele>372.4</ele>
        <time>2021-10-27T15:43:47Z</time>
      </trkpt>
      <trkpt lat="43.27665" lon="5.76031">
        <ele>372.7</ele>
        <time>2021-10-27T15:43:52Z</time>
      </trkpt>
      <trkpt lat="43.27659" lon="5.76033">
        <ele>372.9</ele>
        <time>2021-10-27T15:43:56Z</time>
      </trkpt>
      <trkpt lat="43.27655" lon="5.76036">
        <ele>372.9</ele>
        <time>2021-10-27T15:44:00Z</time>
      </trkpt>
      <trkpt lat="43.27651" lon="5.76039">
        <ele>372.9</ele>
        <time>2021-10-27T15:44:08Z</time>
      </trkpt>
      <trkpt lat="43.27649" lon="5.76045">
        <ele>373.3</ele>
        <time>2021-10-27T15:44:20Z</time>
      </trkpt>
      <trkpt lat="43.27649" lon="5.76038">
        <ele>372.5</ele>
        <time>2021-10-27T15:44:41Z</time>
      </trkpt>
      <trkpt lat="43.27645" lon="5.76034">
        <ele>371.7</ele>
        <time>2021-10-27T15:44:47Z</time>
      </trkpt>
      <trkpt lat="43.27649" lon="5.76029">
        <ele>371.5</ele>
        <time>2021-10-27T15:45:08Z</time>
      </trkpt>
      <trkpt lat="43.27651" lon="5.76023">
        <ele>371.2</ele>
        <time>2021-10-27T15:45:13Z</time>
      </trkpt>
      <trkpt lat="43.27652" lon="5.76017">
        <ele>371.1</ele>
        <time>2021-10-27T15:45:18Z</time>
      </trkpt>
      <trkpt lat="43.27654" lon="5.7601">
        <ele>370.9</ele>
        <time>2021-10-27T15:45:25Z</time>
      </trkpt>
      <trkpt lat="43.27655" lon="5.76002">
        <ele>370.7</ele>
        <time>2021-10-27T15:45:29Z</time>
      </trkpt>
      <trkpt lat="43.27656" lon="5.75995">
        <ele>370.9</ele>
        <time>2021-10-27T15:45:33Z</time>
      </trkpt>
      <trkpt lat="43.27652" lon="5.75991">
        <ele>371.1</ele>
        <time>2021-10-27T15:45:42Z</time>
      </trkpt>
      <trkpt lat="43.27647" lon="5.7599">
        <ele>371</ele>
        <time>2021-10-27T15:45:47Z</time>
      </trkpt>
      <trkpt lat="43.27643" lon="5.75989">
        <ele>370.9</ele>
        <time>2021-10-27T15:45:54Z</time>
      </trkpt>
      <trkpt lat="43.27638" lon="5.75989">
        <ele>370.8</ele>
        <time>2021-10-27T15:46:32Z</time>
      </trkpt>
      <trkpt lat="43.27633" lon="5.75992">
        <ele>370.6</ele>
        <time>2021-10-27T15:46:37Z</time>
      </trkpt>
      <trkpt lat="43.27628" lon="5.75995">
        <ele>370.3</ele>
        <time>2021-10-27T15:46:41Z</time>
      </trkpt>
      <trkpt lat="43.27623" lon="5.75997">
        <ele>369.9</ele>
        <time>2021-10-27T15:46:48Z</time>
      </trkpt>
      <trkpt lat="43.27618" lon="5.75999">
        <ele>369.4</ele>
        <time>2021-10-27T15:46:53Z</time>
      </trkpt>
      <trkpt lat="43.27614" lon="5.76003">
        <ele>369.2</ele>
        <time>2021-10-27T15:46:57Z</time>
      </trkpt>
      <trkpt lat="43.27609" lon="5.76005">
        <ele>369.4</ele>
        <time>2021-10-27T15:47:03Z</time>
      </trkpt>
      <trkpt lat="43.27604" lon="5.76007">
        <ele>369.7</ele>
        <time>2021-10-27T15:47:08Z</time>
      </trkpt>
      <trkpt lat="43.276" lon="5.76011">
        <ele>369.9</ele>
        <time>2021-10-27T15:47:13Z</time>
      </trkpt>
      <trkpt lat="43.27596" lon="5.76015">
        <ele>370</ele>
        <time>2021-10-27T15:47:18Z</time>
      </trkpt>
      <trkpt lat="43.27591" lon="5.76017">
        <ele>370</ele>
        <time>2021-10-27T15:47:23Z</time>
      </trkpt>
      <trkpt lat="43.27587" lon="5.76021">
        <ele>369.8</ele>
        <time>2021-10-27T15:47:28Z</time>
      </trkpt>
      <trkpt lat="43.27584" lon="5.76025">
        <ele>369.3</ele>
        <time>2021-10-27T15:47:33Z</time>
      </trkpt>
      <trkpt lat="43.27579" lon="5.76029">
        <ele>369.3</ele>
        <time>2021-10-27T15:47:38Z</time>
      </trkpt>
      <trkpt lat="43.27576" lon="5.76034">
        <ele>369.4</ele>
        <time>2021-10-27T15:47:43Z</time>
      </trkpt>
      <trkpt lat="43.27572" lon="5.76039">
        <ele>369.5</ele>
        <time>2021-10-27T15:47:48Z</time>
      </trkpt>
      <trkpt lat="43.27569" lon="5.76044">
        <ele>369.4</ele>
        <time>2021-10-27T15:47:55Z</time>
      </trkpt>
      <trkpt lat="43.27567" lon="5.76049">
        <ele>369.3</ele>
        <time>2021-10-27T15:48:00Z</time>
      </trkpt>
      <trkpt lat="43.27563" lon="5.76054">
        <ele>369.1</ele>
        <time>2021-10-27T15:48:06Z</time>
      </trkpt>
      <trkpt lat="43.27558" lon="5.76059">
        <ele>369</ele>
        <time>2021-10-27T15:48:11Z</time>
      </trkpt>
      <trkpt lat="43.27554" lon="5.76061">
        <ele>368.9</ele>
        <time>2021-10-27T15:48:14Z</time>
      </trkpt>
      <trkpt lat="43.27548" lon="5.76063">
        <ele>368.8</ele>
        <time>2021-10-27T15:48:19Z</time>
      </trkpt>
      <trkpt lat="43.27543" lon="5.76065">
        <ele>368.7</ele>
        <time>2021-10-27T15:48:23Z</time>
      </trkpt>
      <trkpt lat="43.27539" lon="5.76068">
        <ele>368.7</ele>
        <time>2021-10-27T15:48:27Z</time>
      </trkpt>
      <trkpt lat="43.27535" lon="5.76072">
        <ele>368.7</ele>
        <time>2021-10-27T15:48:33Z</time>
      </trkpt>
      <trkpt lat="43.27531" lon="5.76071">
        <ele>368.6</ele>
        <time>2021-10-27T15:48:39Z</time>
      </trkpt>
      <trkpt lat="43.27526" lon="5.76072">
        <ele>368.6</ele>
        <time>2021-10-27T15:48:46Z</time>
      </trkpt>
      <trkpt lat="43.27522" lon="5.76071">
        <ele>368.7</ele>
        <time>2021-10-27T15:48:59Z</time>
      </trkpt>
      <trkpt lat="43.27517" lon="5.76072">
        <ele>368.8</ele>
        <time>2021-10-27T15:49:27Z</time>
      </trkpt>
      <trkpt lat="43.27513" lon="5.76069">
        <ele>368.7</ele>
        <time>2021-10-27T15:49:37Z</time>
      </trkpt>
      <trkpt lat="43.27509" lon="5.76065">
        <ele>368.6</ele>
        <time>2021-10-27T15:49:47Z</time>
      </trkpt>
      <trkpt lat="43.27506" lon="5.76059">
        <ele>368.2</ele>
        <time>2021-10-27T15:49:53Z</time>
      </trkpt>
      <trkpt lat="43.27504" lon="5.76053">
        <ele>368</ele>
        <time>2021-10-27T15:50:00Z</time>
      </trkpt>
      <trkpt lat="43.27502" lon="5.76047">
        <ele>367.8</ele>
        <time>2021-10-27T15:50:03Z</time>
      </trkpt>
      <trkpt lat="43.27501" lon="5.7604">
        <ele>367.6</ele>
        <time>2021-10-27T15:50:08Z</time>
      </trkpt>
      <trkpt lat="43.27501" lon="5.76034">
        <ele>367.3</ele>
        <time>2021-10-27T15:50:13Z</time>
      </trkpt>
      <trkpt lat="43.27501" lon="5.76027">
        <ele>367.1</ele>
        <time>2021-10-27T15:50:18Z</time>
      </trkpt>
      <trkpt lat="43.27501" lon="5.7602">
        <ele>367.1</ele>
        <time>2021-10-27T15:50:22Z</time>
      </trkpt>
      <trkpt lat="43.275" lon="5.76014">
        <ele>367.1</ele>
        <time>2021-10-27T15:50:25Z</time>
      </trkpt>
      <trkpt lat="43.27499" lon="5.76006">
        <ele>367.1</ele>
        <time>2021-10-27T15:50:29Z</time>
      </trkpt>
      <trkpt lat="43.27497" lon="5.76">
        <ele>367.6</ele>
        <time>2021-10-27T15:50:33Z</time>
      </trkpt>
      <trkpt lat="43.27494" lon="5.75994">
        <ele>368.3</ele>
        <time>2021-10-27T15:50:38Z</time>
      </trkpt>
      <trkpt lat="43.27492" lon="5.75988">
        <ele>368.6</ele>
        <time>2021-10-27T15:50:44Z</time>
      </trkpt>
      <trkpt lat="43.27489" lon="5.75983">
        <ele>368.7</ele>
        <time>2021-10-27T15:50:48Z</time>
      </trkpt>
      <trkpt lat="43.27485" lon="5.75978">
        <ele>368.4</ele>
        <time>2021-10-27T15:50:53Z</time>
      </trkpt>
      <trkpt lat="43.27483" lon="5.75973">
        <ele>367.9</ele>
        <time>2021-10-27T15:50:58Z</time>
      </trkpt>
      <trkpt lat="43.2748" lon="5.75967">
        <ele>368</ele>
        <time>2021-10-27T15:51:03Z</time>
      </trkpt>
      <trkpt lat="43.27479" lon="5.75961">
        <ele>368.2</ele>
        <time>2021-10-27T15:51:08Z</time>
      </trkpt>
      <trkpt lat="43.27476" lon="5.75955">
        <ele>368.1</ele>
        <time>2021-10-27T15:51:12Z</time>
      </trkpt>
      <trkpt lat="43.27474" lon="5.7595">
        <ele>367.4</ele>
        <time>2021-10-27T15:51:15Z</time>
      </trkpt>
      <trkpt lat="43.27471" lon="5.75945">
        <ele>367.2</ele>
        <time>2021-10-27T15:51:19Z</time>
      </trkpt>
      <trkpt lat="43.27467" lon="5.7594">
        <ele>368.4</ele>
        <time>2021-10-27T15:51:24Z</time>
      </trkpt>
      <trkpt lat="43.27464" lon="5.75936">
        <ele>368.9</ele>
        <time>2021-10-27T15:51:29Z</time>
      </trkpt>
      <trkpt lat="43.27459" lon="5.75933">
        <ele>369</ele>
        <time>2021-10-27T15:51:35Z</time>
      </trkpt>
      <trkpt lat="43.27455" lon="5.7593">
        <ele>368.6</ele>
        <time>2021-10-27T15:51:38Z</time>
      </trkpt>
      <trkpt lat="43.27449" lon="5.75927">
        <ele>367.7</ele>
        <time>2021-10-27T15:51:41Z</time>
      </trkpt>
      <trkpt lat="43.27445" lon="5.75924">
        <ele>366.3</ele>
        <time>2021-10-27T15:51:45Z</time>
      </trkpt>
      <trkpt lat="43.27441" lon="5.7592">
        <ele>365.9</ele>
        <time>2021-10-27T15:51:50Z</time>
      </trkpt>
      <trkpt lat="43.27437" lon="5.75915">
        <ele>365.6</ele>
        <time>2021-10-27T15:51:57Z</time>
      </trkpt>
      <trkpt lat="43.27433" lon="5.75912">
        <ele>366.6</ele>
        <time>2021-10-27T15:52:01Z</time>
      </trkpt>
      <trkpt lat="43.27428" lon="5.7591">
        <ele>367.3</ele>
        <time>2021-10-27T15:52:05Z</time>
      </trkpt>
      <trkpt lat="43.27423" lon="5.7591">
        <ele>367.6</ele>
        <time>2021-10-27T15:52:09Z</time>
      </trkpt>
      <trkpt lat="43.27418" lon="5.75911">
        <ele>367.3</ele>
        <time>2021-10-27T15:52:12Z</time>
      </trkpt>
      <trkpt lat="43.27413" lon="5.75912">
        <ele>367.2</ele>
        <time>2021-10-27T15:52:15Z</time>
      </trkpt>
      <trkpt lat="43.27408" lon="5.75913">
        <ele>366.7</ele>
        <time>2021-10-27T15:52:19Z</time>
      </trkpt>
      <trkpt lat="43.27402" lon="5.75913">
        <ele>366.3</ele>
        <time>2021-10-27T15:52:26Z</time>
      </trkpt>
      <trkpt lat="43.27397" lon="5.75915">
        <ele>365.9</ele>
        <time>2021-10-27T15:52:29Z</time>
      </trkpt>
      <trkpt lat="43.27393" lon="5.75914">
        <ele>365.8</ele>
        <time>2021-10-27T15:52:32Z</time>
      </trkpt>
      <trkpt lat="43.27387" lon="5.75916">
        <ele>365.2</ele>
        <time>2021-10-27T15:52:36Z</time>
      </trkpt>
      <trkpt lat="43.27382" lon="5.75917">
        <ele>364.8</ele>
        <time>2021-10-27T15:52:40Z</time>
      </trkpt>
      <trkpt lat="43.27378" lon="5.75918">
        <ele>364.8</ele>
        <time>2021-10-27T15:52:44Z</time>
      </trkpt>
      <trkpt lat="43.27372" lon="5.75919">
        <ele>364.9</ele>
        <time>2021-10-27T15:52:48Z</time>
      </trkpt>
      <trkpt lat="43.27368" lon="5.75919">
        <ele>364.8</ele>
        <time>2021-10-27T15:52:52Z</time>
      </trkpt>
      <trkpt lat="43.27363" lon="5.7592">
        <ele>364.6</ele>
        <time>2021-10-27T15:52:57Z</time>
      </trkpt>
      <trkpt lat="43.27358" lon="5.75923">
        <ele>365.4</ele>
        <time>2021-10-27T15:53:01Z</time>
      </trkpt>
      <trkpt lat="43.27355" lon="5.75928">
        <ele>366.4</ele>
        <time>2021-10-27T15:53:04Z</time>
      </trkpt>
      <trkpt lat="43.2735" lon="5.75933">
        <ele>366.8</ele>
        <time>2021-10-27T15:53:08Z</time>
      </trkpt>
      <trkpt lat="43.27345" lon="5.75934">
        <ele>366.8</ele>
        <time>2021-10-27T15:53:14Z</time>
      </trkpt>
      <trkpt lat="43.2734" lon="5.75934">
        <ele>366.6</ele>
        <time>2021-10-27T15:53:19Z</time>
      </trkpt>
      <trkpt lat="43.27334" lon="5.75935">
        <ele>366.3</ele>
        <time>2021-10-27T15:53:23Z</time>
      </trkpt>
      <trkpt lat="43.27328" lon="5.75935">
        <ele>366.4</ele>
        <time>2021-10-27T15:53:27Z</time>
      </trkpt>
      <trkpt lat="43.27323" lon="5.75935">
        <ele>366.4</ele>
        <time>2021-10-27T15:53:31Z</time>
      </trkpt>
      <trkpt lat="43.27318" lon="5.75938">
        <ele>365.7</ele>
        <time>2021-10-27T15:53:36Z</time>
      </trkpt>
      <trkpt lat="43.27314" lon="5.75941">
        <ele>364.8</ele>
        <time>2021-10-27T15:53:41Z</time>
      </trkpt>
      <trkpt lat="43.27309" lon="5.75944">
        <ele>363.4</ele>
        <time>2021-10-27T15:53:46Z</time>
      </trkpt>
      <trkpt lat="43.27304" lon="5.75947">
        <ele>363.7</ele>
        <time>2021-10-27T15:53:51Z</time>
      </trkpt>
      <trkpt lat="43.27299" lon="5.75951">
        <ele>364.6</ele>
        <time>2021-10-27T15:53:56Z</time>
      </trkpt>
      <trkpt lat="43.27295" lon="5.75954">
        <ele>365</ele>
        <time>2021-10-27T15:53:59Z</time>
      </trkpt>
      <trkpt lat="43.27291" lon="5.75957">
        <ele>365.2</ele>
        <time>2021-10-27T15:54:03Z</time>
      </trkpt>
      <trkpt lat="43.27287" lon="5.75961">
        <ele>365</ele>
        <time>2021-10-27T15:54:08Z</time>
      </trkpt>
      <trkpt lat="43.27283" lon="5.75966">
        <ele>364.5</ele>
        <time>2021-10-27T15:54:13Z</time>
      </trkpt>
      <trkpt lat="43.27279" lon="5.75969">
        <ele>363.6</ele>
        <time>2021-10-27T15:54:20Z</time>
      </trkpt>
      <trkpt lat="43.27275" lon="5.75972">
        <ele>363</ele>
        <time>2021-10-27T15:54:23Z</time>
      </trkpt>
      <trkpt lat="43.27271" lon="5.75977">
        <ele>363.9</ele>
        <time>2021-10-27T15:54:26Z</time>
      </trkpt>
      <trkpt lat="43.27267" lon="5.7598">
        <ele>364.2</ele>
        <time>2021-10-27T15:54:31Z</time>
      </trkpt>
      <trkpt lat="43.27262" lon="5.75983">
        <ele>364.2</ele>
        <time>2021-10-27T15:54:34Z</time>
      </trkpt>
      <trkpt lat="43.27258" lon="5.75985">
        <ele>363.9</ele>
        <time>2021-10-27T15:54:37Z</time>
      </trkpt>
      <trkpt lat="43.27254" lon="5.75988">
        <ele>363.6</ele>
        <time>2021-10-27T15:54:41Z</time>
      </trkpt>
      <trkpt lat="43.2725" lon="5.75991">
        <ele>363</ele>
        <time>2021-10-27T15:54:45Z</time>
      </trkpt>
      <trkpt lat="43.27245" lon="5.75994">
        <ele>363</ele>
        <time>2021-10-27T15:54:49Z</time>
      </trkpt>
      <trkpt lat="43.2724" lon="5.75994">
        <ele>362.9</ele>
        <time>2021-10-27T15:54:53Z</time>
      </trkpt>
      <trkpt lat="43.27235" lon="5.75997">
        <ele>362.7</ele>
        <time>2021-10-27T15:54:58Z</time>
      </trkpt>
      <trkpt lat="43.27231" lon="5.76002">
        <ele>362.5</ele>
        <time>2021-10-27T15:55:02Z</time>
      </trkpt>
      <trkpt lat="43.27227" lon="5.76005">
        <ele>362.5</ele>
        <time>2021-10-27T15:55:06Z</time>
      </trkpt>
      <trkpt lat="43.27222" lon="5.7601">
        <ele>362.4</ele>
        <time>2021-10-27T15:55:10Z</time>
      </trkpt>
      <trkpt lat="43.27219" lon="5.76014">
        <ele>362.4</ele>
        <time>2021-10-27T15:55:14Z</time>
      </trkpt>
      <trkpt lat="43.27215" lon="5.76018">
        <ele>362.4</ele>
        <time>2021-10-27T15:55:19Z</time>
      </trkpt>
      <trkpt lat="43.27211" lon="5.76022">
        <ele>362.4</ele>
        <time>2021-10-27T15:55:25Z</time>
      </trkpt>
      <trkpt lat="43.27206" lon="5.76026">
        <ele>362.3</ele>
        <time>2021-10-27T15:55:30Z</time>
      </trkpt>
      <trkpt lat="43.27201" lon="5.7603">
        <ele>362.9</ele>
        <time>2021-10-27T15:55:34Z</time>
      </trkpt>
      <trkpt lat="43.27197" lon="5.76034">
        <ele>363.8</ele>
        <time>2021-10-27T15:55:38Z</time>
      </trkpt>
      <trkpt lat="43.27193" lon="5.76036">
        <ele>364.1</ele>
        <time>2021-10-27T15:55:43Z</time>
      </trkpt>
      <trkpt lat="43.27188" lon="5.76035">
        <ele>363.9</ele>
        <time>2021-10-27T15:55:48Z</time>
      </trkpt>
      <trkpt lat="43.27183" lon="5.76031">
        <ele>362.9</ele>
        <time>2021-10-27T15:55:53Z</time>
      </trkpt>
      <trkpt lat="43.27179" lon="5.76028">
        <ele>362.1</ele>
        <time>2021-10-27T15:55:57Z</time>
      </trkpt>
      <trkpt lat="43.27174" lon="5.76026">
        <ele>361.9</ele>
        <time>2021-10-27T15:56:01Z</time>
      </trkpt>
      <trkpt lat="43.27169" lon="5.76024">
        <ele>361.9</ele>
        <time>2021-10-27T15:56:05Z</time>
      </trkpt>
      <trkpt lat="43.27165" lon="5.76022">
        <ele>362.3</ele>
        <time>2021-10-27T15:56:09Z</time>
      </trkpt>
      <trkpt lat="43.27161" lon="5.7602">
        <ele>363.3</ele>
        <time>2021-10-27T15:56:14Z</time>
      </trkpt>
      <trkpt lat="43.27157" lon="5.76015">
        <ele>363.6</ele>
        <time>2021-10-27T15:56:19Z</time>
      </trkpt>
      <trkpt lat="43.27154" lon="5.7601">
        <ele>363.6</ele>
        <time>2021-10-27T15:56:23Z</time>
      </trkpt>
      <trkpt lat="43.27151" lon="5.76005">
        <ele>363.5</ele>
        <time>2021-10-27T15:56:28Z</time>
      </trkpt>
      <trkpt lat="43.27148" lon="5.75999">
        <ele>363</ele>
        <time>2021-10-27T15:56:34Z</time>
      </trkpt>
      <trkpt lat="43.27146" lon="5.75994">
        <ele>362.8</ele>
        <time>2021-10-27T15:56:39Z</time>
      </trkpt>
      <trkpt lat="43.27145" lon="5.75987">
        <ele>362.4</ele>
        <time>2021-10-27T15:56:43Z</time>
      </trkpt>
      <trkpt lat="43.27143" lon="5.7598">
        <ele>361.8</ele>
        <time>2021-10-27T15:56:48Z</time>
      </trkpt>
      <trkpt lat="43.27142" lon="5.75974">
        <ele>361.3</ele>
        <time>2021-10-27T15:56:52Z</time>
      </trkpt>
      <trkpt lat="43.27142" lon="5.75967">
        <ele>361.3</ele>
        <time>2021-10-27T15:56:57Z</time>
      </trkpt>
      <trkpt lat="43.27143" lon="5.7596">
        <ele>361.6</ele>
        <time>2021-10-27T15:57:02Z</time>
      </trkpt>
      <trkpt lat="43.27142" lon="5.75953">
        <ele>361.9</ele>
        <time>2021-10-27T15:57:08Z</time>
      </trkpt>
      <trkpt lat="43.27143" lon="5.75945">
        <ele>362.2</ele>
        <time>2021-10-27T15:57:13Z</time>
      </trkpt>
      <trkpt lat="43.27144" lon="5.75939">
        <ele>362.2</ele>
        <time>2021-10-27T15:57:19Z</time>
      </trkpt>
      <trkpt lat="43.27144" lon="5.75932">
        <ele>362</ele>
        <time>2021-10-27T15:57:24Z</time>
      </trkpt>
      <trkpt lat="43.27145" lon="5.75925">
        <ele>361.9</ele>
        <time>2021-10-27T15:57:29Z</time>
      </trkpt>
      <trkpt lat="43.27144" lon="5.75918">
        <ele>361.6</ele>
        <time>2021-10-27T15:57:33Z</time>
      </trkpt>
      <trkpt lat="43.27145" lon="5.7591">
        <ele>361.4</ele>
        <time>2021-10-27T15:57:37Z</time>
      </trkpt>
      <trkpt lat="43.27145" lon="5.75902">
        <ele>361</ele>
        <time>2021-10-27T15:57:41Z</time>
      </trkpt>
      <trkpt lat="43.27144" lon="5.75896">
        <ele>360.5</ele>
        <time>2021-10-27T15:57:44Z</time>
      </trkpt>
      <trkpt lat="43.27141" lon="5.7589">
        <ele>359.5</ele>
        <time>2021-10-27T15:57:48Z</time>
      </trkpt>
      <trkpt lat="43.27138" lon="5.75884">
        <ele>359.2</ele>
        <time>2021-10-27T15:57:52Z</time>
      </trkpt>
      <trkpt lat="43.27135" lon="5.75879">
        <ele>359.6</ele>
        <time>2021-10-27T15:57:57Z</time>
      </trkpt>
      <trkpt lat="43.27131" lon="5.75874">
        <ele>359.8</ele>
        <time>2021-10-27T15:58:02Z</time>
      </trkpt>
      <trkpt lat="43.27127" lon="5.75871">
        <ele>359.8</ele>
        <time>2021-10-27T15:58:06Z</time>
      </trkpt>
      <trkpt lat="43.27122" lon="5.75869">
        <ele>359.8</ele>
        <time>2021-10-27T15:58:10Z</time>
      </trkpt>
      <trkpt lat="43.27116" lon="5.75868">
        <ele>359.8</ele>
        <time>2021-10-27T15:58:14Z</time>
      </trkpt>
      <trkpt lat="43.27111" lon="5.75868">
        <ele>359.7</ele>
        <time>2021-10-27T15:58:18Z</time>
      </trkpt>
      <trkpt lat="43.27107" lon="5.75867">
        <ele>359.4</ele>
        <time>2021-10-27T15:58:22Z</time>
      </trkpt>
      <trkpt lat="43.27102" lon="5.75866">
        <ele>359.2</ele>
        <time>2021-10-27T15:58:25Z</time>
      </trkpt>
      <trkpt lat="43.27097" lon="5.75867">
        <ele>359</ele>
        <time>2021-10-27T15:58:29Z</time>
      </trkpt>
      <trkpt lat="43.27092" lon="5.75868">
        <ele>358.9</ele>
        <time>2021-10-27T15:58:32Z</time>
      </trkpt>
      <trkpt lat="43.27088" lon="5.75869">
        <ele>358.8</ele>
        <time>2021-10-27T15:58:37Z</time>
      </trkpt>
      <trkpt lat="43.27082" lon="5.75871">
        <ele>358.7</ele>
        <time>2021-10-27T15:58:42Z</time>
      </trkpt>
      <trkpt lat="43.27077" lon="5.75872">
        <ele>358.6</ele>
        <time>2021-10-27T15:58:47Z</time>
      </trkpt>
      <trkpt lat="43.27073" lon="5.75873">
        <ele>358.5</ele>
        <time>2021-10-27T15:58:52Z</time>
      </trkpt>
      <trkpt lat="43.27067" lon="5.75876">
        <ele>358.4</ele>
        <time>2021-10-27T15:58:56Z</time>
      </trkpt>
      <trkpt lat="43.27063" lon="5.75879">
        <ele>358.3</ele>
        <time>2021-10-27T15:58:59Z</time>
      </trkpt>
      <trkpt lat="43.27058" lon="5.75882">
        <ele>358.1</ele>
        <time>2021-10-27T15:59:03Z</time>
      </trkpt>
      <trkpt lat="43.27052" lon="5.75885">
        <ele>358</ele>
        <time>2021-10-27T15:59:09Z</time>
      </trkpt>
      <trkpt lat="43.27047" lon="5.75886">
        <ele>358</ele>
        <time>2021-10-27T15:59:15Z</time>
      </trkpt>
      <trkpt lat="43.27042" lon="5.75886">
        <ele>358.1</ele>
        <time>2021-10-27T15:59:19Z</time>
      </trkpt>
      <trkpt lat="43.27037" lon="5.75887">
        <ele>358</ele>
        <time>2021-10-27T15:59:24Z</time>
      </trkpt>
      <trkpt lat="43.27031" lon="5.75888">
        <ele>358</ele>
        <time>2021-10-27T15:59:28Z</time>
      </trkpt>
      <trkpt lat="43.27027" lon="5.7589">
        <ele>358.2</ele>
        <time>2021-10-27T15:59:32Z</time>
      </trkpt>
      <trkpt lat="43.27021" lon="5.75891">
        <ele>358.8</ele>
        <time>2021-10-27T15:59:41Z</time>
      </trkpt>
      <trkpt lat="43.27017" lon="5.75893">
        <ele>359.4</ele>
        <time>2021-10-27T15:59:45Z</time>
      </trkpt>
      <trkpt lat="43.27012" lon="5.75892">
        <ele>359.3</ele>
        <time>2021-10-27T15:59:49Z</time>
      </trkpt>
      <trkpt lat="43.27007" lon="5.75891">
        <ele>359.3</ele>
        <time>2021-10-27T15:59:54Z</time>
      </trkpt>
      <trkpt lat="43.27002" lon="5.7589">
        <ele>359.3</ele>
        <time>2021-10-27T15:59:58Z</time>
      </trkpt>
      <trkpt lat="43.26998" lon="5.75888">
        <ele>359</ele>
        <time>2021-10-27T16:00:02Z</time>
      </trkpt>
      <trkpt lat="43.26993" lon="5.75886">
        <ele>359</ele>
        <time>2021-10-27T16:00:06Z</time>
      </trkpt>
      <trkpt lat="43.26988" lon="5.75884">
        <ele>359</ele>
        <time>2021-10-27T16:00:10Z</time>
      </trkpt>
      <trkpt lat="43.26983" lon="5.75883">
        <ele>359</ele>
        <time>2021-10-27T16:00:15Z</time>
      </trkpt>
      <trkpt lat="43.26977" lon="5.75882">
        <ele>359</ele>
        <time>2021-10-27T16:00:20Z</time>
      </trkpt>
      <trkpt lat="43.26973" lon="5.75883">
        <ele>359</ele>
        <time>2021-10-27T16:00:24Z</time>
      </trkpt>
      <trkpt lat="43.26968" lon="5.75881">
        <ele>359.1</ele>
        <time>2021-10-27T16:00:27Z</time>
      </trkpt>
      <trkpt lat="43.26963" lon="5.75881">
        <ele>359.2</ele>
        <time>2021-10-27T16:00:32Z</time>
      </trkpt>
      <trkpt lat="43.26959" lon="5.7588">
        <ele>359.3</ele>
        <time>2021-10-27T16:00:36Z</time>
      </trkpt>
      <trkpt lat="43.26954" lon="5.7588">
        <ele>359.5</ele>
        <time>2021-10-27T16:00:39Z</time>
      </trkpt>
      <trkpt lat="43.26949" lon="5.75879">
        <ele>359.5</ele>
        <time>2021-10-27T16:00:42Z</time>
      </trkpt>
      <trkpt lat="43.26944" lon="5.75881">
        <ele>359.7</ele>
        <time>2021-10-27T16:00:45Z</time>
      </trkpt>
      <trkpt lat="43.26939" lon="5.75883">
        <ele>360</ele>
        <time>2021-10-27T16:00:50Z</time>
      </trkpt>
      <trkpt lat="43.26933" lon="5.75887">
        <ele>360.1</ele>
        <time>2021-10-27T16:00:54Z</time>
      </trkpt>
      <trkpt lat="43.26929" lon="5.75891">
        <ele>360.2</ele>
        <time>2021-10-27T16:00:59Z</time>
      </trkpt>
      <trkpt lat="43.26924" lon="5.75895">
        <ele>360.7</ele>
        <time>2021-10-27T16:01:04Z</time>
      </trkpt>
      <trkpt lat="43.2692" lon="5.75899">
        <ele>360.9</ele>
        <time>2021-10-27T16:01:08Z</time>
      </trkpt>
      <trkpt lat="43.26916" lon="5.75902">
        <ele>361</ele>
        <time>2021-10-27T16:01:15Z</time>
      </trkpt>
      <trkpt lat="43.26911" lon="5.75904">
        <ele>361.3</ele>
        <time>2021-10-27T16:01:22Z</time>
      </trkpt>
      <trkpt lat="43.26906" lon="5.75903">
        <ele>361.6</ele>
        <time>2021-10-27T16:01:30Z</time>
      </trkpt>
      <trkpt lat="43.26902" lon="5.75899">
        <ele>361.7</ele>
        <time>2021-10-27T16:01:35Z</time>
      </trkpt>
      <trkpt lat="43.26901" lon="5.75893">
        <ele>361.8</ele>
        <time>2021-10-27T16:01:42Z</time>
      </trkpt>
      <trkpt lat="43.269" lon="5.75887">
        <ele>362</ele>
        <time>2021-10-27T16:01:50Z</time>
      </trkpt>
      <trkpt lat="43.26898" lon="5.7588">
        <ele>363</ele>
        <time>2021-10-27T16:01:56Z</time>
      </trkpt>
      <trkpt lat="43.26896" lon="5.75873">
        <ele>364</ele>
        <time>2021-10-27T16:02:01Z</time>
      </trkpt>
      <trkpt lat="43.26892" lon="5.75867">
        <ele>364.9</ele>
        <time>2021-10-27T16:02:05Z</time>
      </trkpt>
      <trkpt lat="43.26888" lon="5.75864">
        <ele>365.7</ele>
        <time>2021-10-27T16:02:09Z</time>
      </trkpt>
      <trkpt lat="43.26884" lon="5.75862">
        <ele>366.3</ele>
        <time>2021-10-27T16:02:14Z</time>
      </trkpt>
      <trkpt lat="43.26879" lon="5.75859">
        <ele>367.5</ele>
        <time>2021-10-27T16:02:24Z</time>
      </trkpt>
      <trkpt lat="43.26875" lon="5.75855">
        <ele>368.8</ele>
        <time>2021-10-27T16:02:32Z</time>
      </trkpt>
      <trkpt lat="43.2687" lon="5.75853">
        <ele>369.6</ele>
        <time>2021-10-27T16:02:37Z</time>
      </trkpt>
      <trkpt lat="43.26865" lon="5.75852">
        <ele>370.1</ele>
        <time>2021-10-27T16:02:41Z</time>
      </trkpt>
      <trkpt lat="43.2686" lon="5.75853">
        <ele>370.3</ele>
        <time>2021-10-27T16:02:45Z</time>
      </trkpt>
      <trkpt lat="43.26855" lon="5.75853">
        <ele>371.4</ele>
        <time>2021-10-27T16:02:50Z</time>
      </trkpt>
      <trkpt lat="43.2685" lon="5.75854">
        <ele>372.3</ele>
        <time>2021-10-27T16:02:56Z</time>
      </trkpt>
      <trkpt lat="43.26847" lon="5.7586">
        <ele>371.8</ele>
        <time>2021-10-27T16:03:01Z</time>
      </trkpt>
      <trkpt lat="43.26843" lon="5.75865">
        <ele>372.9</ele>
        <time>2021-10-27T16:03:06Z</time>
      </trkpt>
      <trkpt lat="43.26842" lon="5.75872">
        <ele>373.8</ele>
        <time>2021-10-27T16:03:11Z</time>
      </trkpt>
      <trkpt lat="43.26841" lon="5.75879">
        <ele>374.7</ele>
        <time>2021-10-27T16:03:16Z</time>
      </trkpt>
      <trkpt lat="43.26842" lon="5.75886">
        <ele>375.3</ele>
        <time>2021-10-27T16:03:22Z</time>
      </trkpt>
      <trkpt lat="43.2684" lon="5.75892">
        <ele>376.3</ele>
        <time>2021-10-27T16:03:27Z</time>
      </trkpt>
      <trkpt lat="43.2684" lon="5.75898">
        <ele>377.3</ele>
        <time>2021-10-27T16:03:36Z</time>
      </trkpt>
      <trkpt lat="43.26839" lon="5.75905">
        <ele>378.6</ele>
        <time>2021-10-27T16:03:44Z</time>
      </trkpt>
      <trkpt lat="43.26839" lon="5.75911">
        <ele>379.1</ele>
        <time>2021-10-27T16:03:50Z</time>
      </trkpt>
      <trkpt lat="43.2684" lon="5.75918">
        <ele>379.8</ele>
        <time>2021-10-27T16:03:54Z</time>
      </trkpt>
      <trkpt lat="43.26839" lon="5.75924">
        <ele>380.7</ele>
        <time>2021-10-27T16:03:58Z</time>
      </trkpt>
      <trkpt lat="43.26838" lon="5.7593">
        <ele>381.7</ele>
        <time>2021-10-27T16:04:02Z</time>
      </trkpt>
      <trkpt lat="43.26836" lon="5.75936">
        <ele>383</ele>
        <time>2021-10-27T16:04:10Z</time>
      </trkpt>
      <trkpt lat="43.26835" lon="5.75942">
        <ele>384.2</ele>
        <time>2021-10-27T16:04:17Z</time>
      </trkpt>
      <trkpt lat="43.26835" lon="5.75949">
        <ele>384.7</ele>
        <time>2021-10-27T16:04:23Z</time>
      </trkpt>
      <trkpt lat="43.26837" lon="5.75956">
        <ele>384.6</ele>
        <time>2021-10-27T16:04:28Z</time>
      </trkpt>
      <trkpt lat="43.26838" lon="5.75963">
        <ele>384.9</ele>
        <time>2021-10-27T16:04:33Z</time>
      </trkpt>
      <trkpt lat="43.26835" lon="5.75957">
        <ele>385.2</ele>
        <time>2021-10-27T16:04:46Z</time>
      </trkpt>
      <trkpt lat="43.26836" lon="5.7595">
        <ele>384.4</ele>
        <time>2021-10-27T16:04:51Z</time>
      </trkpt>
      <trkpt lat="43.26834" lon="5.75945">
        <ele>384.8</ele>
        <time>2021-10-27T16:04:56Z</time>
      </trkpt>
      <trkpt lat="43.26832" lon="5.75939">
        <ele>384.7</ele>
        <time>2021-10-27T16:05:03Z</time>
      </trkpt>
      <trkpt lat="43.26828" lon="5.75935">
        <ele>385.4</ele>
        <time>2021-10-27T16:05:08Z</time>
      </trkpt>
      <trkpt lat="43.26823" lon="5.75939">
        <ele>387</ele>
        <time>2021-10-27T16:05:14Z</time>
      </trkpt>
      <trkpt lat="43.26822" lon="5.75945">
        <ele>388</ele>
        <time>2021-10-27T16:05:19Z</time>
      </trkpt>
      <trkpt lat="43.2682" lon="5.75952">
        <ele>388.8</ele>
        <time>2021-10-27T16:05:24Z</time>
      </trkpt>
      <trkpt lat="43.26816" lon="5.75958">
        <ele>390</ele>
        <time>2021-10-27T16:05:29Z</time>
      </trkpt>
      <trkpt lat="43.26813" lon="5.75963">
        <ele>390.9</ele>
        <time>2021-10-27T16:05:35Z</time>
      </trkpt>
      <trkpt lat="43.26812" lon="5.7597">
        <ele>391.6</ele>
        <time>2021-10-27T16:05:42Z</time>
      </trkpt>
      <trkpt lat="43.26811" lon="5.75976">
        <ele>391.9</ele>
        <time>2021-10-27T16:05:46Z</time>
      </trkpt>
      <trkpt lat="43.2681" lon="5.75983">
        <ele>392</ele>
        <time>2021-10-27T16:05:50Z</time>
      </trkpt>
      <trkpt lat="43.26809" lon="5.75989">
        <ele>392.2</ele>
        <time>2021-10-27T16:05:55Z</time>
      </trkpt>
      <trkpt lat="43.26806" lon="5.75994">
        <ele>393</ele>
        <time>2021-10-27T16:06:05Z</time>
      </trkpt>
      <trkpt lat="43.26801" lon="5.75997">
        <ele>393.8</ele>
        <time>2021-10-27T16:06:10Z</time>
      </trkpt>
      <trkpt lat="43.268" lon="5.76004">
        <ele>393.8</ele>
        <time>2021-10-27T16:06:16Z</time>
      </trkpt>
      <trkpt lat="43.26797" lon="5.76009">
        <ele>394.1</ele>
        <time>2021-10-27T16:06:22Z</time>
      </trkpt>
      <trkpt lat="43.26793" lon="5.76013">
        <ele>394.5</ele>
        <time>2021-10-27T16:06:26Z</time>
      </trkpt>
      <trkpt lat="43.26789" lon="5.76014">
        <ele>395.2</ele>
        <time>2021-10-27T16:06:31Z</time>
      </trkpt>
      <trkpt lat="43.26784" lon="5.76014">
        <ele>396</ele>
        <time>2021-10-27T16:06:38Z</time>
      </trkpt>
      <trkpt lat="43.2678" lon="5.7601">
        <ele>396.9</ele>
        <time>2021-10-27T16:06:43Z</time>
      </trkpt>
      <trkpt lat="43.26777" lon="5.76005">
        <ele>397.7</ele>
        <time>2021-10-27T16:06:49Z</time>
      </trkpt>
      <trkpt lat="43.26774" lon="5.76">
        <ele>398.6</ele>
        <time>2021-10-27T16:06:57Z</time>
      </trkpt>
      <trkpt lat="43.26772" lon="5.75994">
        <ele>399.2</ele>
        <time>2021-10-27T16:07:03Z</time>
      </trkpt>
      <trkpt lat="43.2677" lon="5.75988">
        <ele>399.9</ele>
        <time>2021-10-27T16:07:09Z</time>
      </trkpt>
      <trkpt lat="43.26769" lon="5.75979">
        <ele>400.6</ele>
        <time>2021-10-27T16:07:14Z</time>
      </trkpt>
      <trkpt lat="43.26766" lon="5.75972">
        <ele>401.5</ele>
        <time>2021-10-27T16:07:18Z</time>
      </trkpt>
      <trkpt lat="43.26764" lon="5.75966">
        <ele>402.2</ele>
        <time>2021-10-27T16:07:22Z</time>
      </trkpt>
      <trkpt lat="43.26765" lon="5.75958">
        <ele>402.4</ele>
        <time>2021-10-27T16:07:28Z</time>
      </trkpt>
      <trkpt lat="43.26767" lon="5.75953">
        <ele>402</ele>
        <time>2021-10-27T16:07:32Z</time>
      </trkpt>
      <trkpt lat="43.26767" lon="5.75946">
        <ele>402.3</ele>
        <time>2021-10-27T16:07:37Z</time>
      </trkpt>
      <trkpt lat="43.26767" lon="5.75939">
        <ele>402.2</ele>
        <time>2021-10-27T16:07:44Z</time>
      </trkpt>
      <trkpt lat="43.26765" lon="5.75933">
        <ele>402.4</ele>
        <time>2021-10-27T16:07:51Z</time>
      </trkpt>
      <trkpt lat="43.26762" lon="5.75928">
        <ele>402.8</ele>
        <time>2021-10-27T16:07:55Z</time>
      </trkpt>
      <trkpt lat="43.26758" lon="5.75923">
        <ele>403.2</ele>
        <time>2021-10-27T16:08:00Z</time>
      </trkpt>
      <trkpt lat="43.26753" lon="5.75926">
        <ele>404.1</ele>
        <time>2021-10-27T16:08:05Z</time>
      </trkpt>
      <trkpt lat="43.26748" lon="5.75925">
        <ele>404.7</ele>
        <time>2021-10-27T16:08:10Z</time>
      </trkpt>
      <trkpt lat="43.26743" lon="5.75923">
        <ele>404.6</ele>
        <time>2021-10-27T16:08:15Z</time>
      </trkpt>
      <trkpt lat="43.26739" lon="5.75922">
        <ele>404.7</ele>
        <time>2021-10-27T16:08:20Z</time>
      </trkpt>
      <trkpt lat="43.26733" lon="5.75921">
        <ele>404.8</ele>
        <time>2021-10-27T16:08:25Z</time>
      </trkpt>
      <trkpt lat="43.26728" lon="5.75922">
        <ele>405</ele>
        <time>2021-10-27T16:08:29Z</time>
      </trkpt>
      <trkpt lat="43.26724" lon="5.75925">
        <ele>405.3</ele>
        <time>2021-10-27T16:08:35Z</time>
      </trkpt>
      <trkpt lat="43.26721" lon="5.7593">
        <ele>405.5</ele>
        <time>2021-10-27T16:08:43Z</time>
      </trkpt>
      <trkpt lat="43.26717" lon="5.75934">
        <ele>405.8</ele>
        <time>2021-10-27T16:08:47Z</time>
      </trkpt>
      <trkpt lat="43.26713" lon="5.75936">
        <ele>406</ele>
        <time>2021-10-27T16:08:54Z</time>
      </trkpt>
      <trkpt lat="43.2671" lon="5.75942">
        <ele>406.4</ele>
        <time>2021-10-27T16:09:01Z</time>
      </trkpt>
      <trkpt lat="43.26714" lon="5.75942">
        <ele>406.2</ele>
        <time>2021-10-27T16:10:03Z</time>
      </trkpt>
      <trkpt lat="43.26712" lon="5.75948">
        <ele>406.4</ele>
        <time>2021-10-27T16:11:04Z</time>
      </trkpt>
      <trkpt lat="43.26709" lon="5.75953">
        <ele>406.6</ele>
        <time>2021-10-27T16:11:11Z</time>
      </trkpt>
      <trkpt lat="43.26708" lon="5.75959">
        <ele>406.8</ele>
        <time>2021-10-27T16:11:19Z</time>
      </trkpt>
      <trkpt lat="43.26708" lon="5.75966">
        <ele>406.9</ele>
        <time>2021-10-27T16:11:24Z</time>
      </trkpt>
      <trkpt lat="43.26708" lon="5.75972">
        <ele>407</ele>
        <time>2021-10-27T16:11:30Z</time>
      </trkpt>
      <trkpt lat="43.26709" lon="5.75979">
        <ele>407</ele>
        <time>2021-10-27T16:11:35Z</time>
      </trkpt>
      <trkpt lat="43.26706" lon="5.75985">
        <ele>407.1</ele>
        <time>2021-10-27T16:11:41Z</time>
      </trkpt>
      <trkpt lat="43.26704" lon="5.7599">
        <ele>407.3</ele>
        <time>2021-10-27T16:11:47Z</time>
      </trkpt>
      <trkpt lat="43.26701" lon="5.75996">
        <ele>407.5</ele>
        <time>2021-10-27T16:11:52Z</time>
      </trkpt>
      <trkpt lat="43.26699" lon="5.76002">
        <ele>407.6</ele>
        <time>2021-10-27T16:11:57Z</time>
      </trkpt>
      <trkpt lat="43.26697" lon="5.76009">
        <ele>407.8</ele>
        <time>2021-10-27T16:12:03Z</time>
      </trkpt>
      <trkpt lat="43.26697" lon="5.76015">
        <ele>407.8</ele>
        <time>2021-10-27T16:12:07Z</time>
      </trkpt>
      <trkpt lat="43.26695" lon="5.76022">
        <ele>407.9</ele>
        <time>2021-10-27T16:12:13Z</time>
      </trkpt>
      <trkpt lat="43.26693" lon="5.76028">
        <ele>408.1</ele>
        <time>2021-10-27T16:12:17Z</time>
      </trkpt>
      <trkpt lat="43.26693" lon="5.76034">
        <ele>408.1</ele>
        <time>2021-10-27T16:12:21Z</time>
      </trkpt>
      <trkpt lat="43.26692" lon="5.76041">
        <ele>408.1</ele>
        <time>2021-10-27T16:12:26Z</time>
      </trkpt>
      <trkpt lat="43.2669" lon="5.76046">
        <ele>408.3</ele>
        <time>2021-10-27T16:12:32Z</time>
      </trkpt>
      <trkpt lat="43.26689" lon="5.76053">
        <ele>408.4</ele>
        <time>2021-10-27T16:12:38Z</time>
      </trkpt>
      <trkpt lat="43.26687" lon="5.76059">
        <ele>408.5</ele>
        <time>2021-10-27T16:12:43Z</time>
      </trkpt>
      <trkpt lat="43.26685" lon="5.76065">
        <ele>408.6</ele>
        <time>2021-10-27T16:12:48Z</time>
      </trkpt>
      <trkpt lat="43.26683" lon="5.76071">
        <ele>408.6</ele>
        <time>2021-10-27T16:12:52Z</time>
      </trkpt>
      <trkpt lat="43.26681" lon="5.76078">
        <ele>408.6</ele>
        <time>2021-10-27T16:12:56Z</time>
      </trkpt>
      <trkpt lat="43.2668" lon="5.76085">
        <ele>408.6</ele>
        <time>2021-10-27T16:13:00Z</time>
      </trkpt>
      <trkpt lat="43.26679" lon="5.76092">
        <ele>408.9</ele>
        <time>2021-10-27T16:13:04Z</time>
      </trkpt>
      <trkpt lat="43.26677" lon="5.76099">
        <ele>409.2</ele>
        <time>2021-10-27T16:13:10Z</time>
      </trkpt>
      <trkpt lat="43.26675" lon="5.76106">
        <ele>409.5</ele>
        <time>2021-10-27T16:13:14Z</time>
      </trkpt>
      <trkpt lat="43.26672" lon="5.76112">
        <ele>409.8</ele>
        <time>2021-10-27T16:13:18Z</time>
      </trkpt>
      <trkpt lat="43.2667" lon="5.76118">
        <ele>409.7</ele>
        <time>2021-10-27T16:13:22Z</time>
      </trkpt>
      <trkpt lat="43.26668" lon="5.76124">
        <ele>409.5</ele>
        <time>2021-10-27T16:13:26Z</time>
      </trkpt>
      <trkpt lat="43.26667" lon="5.7613">
        <ele>409.3</ele>
        <time>2021-10-27T16:13:30Z</time>
      </trkpt>
      <trkpt lat="43.26666" lon="5.76136">
        <ele>409.1</ele>
        <time>2021-10-27T16:13:36Z</time>
      </trkpt>
      <trkpt lat="43.26666" lon="5.76144">
        <ele>409</ele>
        <time>2021-10-27T16:13:40Z</time>
      </trkpt>
      <trkpt lat="43.26664" lon="5.7615">
        <ele>409.1</ele>
        <time>2021-10-27T16:13:44Z</time>
      </trkpt>
      <trkpt lat="43.26664" lon="5.76157">
        <ele>409.1</ele>
        <time>2021-10-27T16:13:48Z</time>
      </trkpt>
      <trkpt lat="43.26665" lon="5.76163">
        <ele>409.1</ele>
        <time>2021-10-27T16:13:53Z</time>
      </trkpt>
      <trkpt lat="43.26665" lon="5.76169">
        <ele>409.1</ele>
        <time>2021-10-27T16:13:57Z</time>
      </trkpt>
      <trkpt lat="43.26665" lon="5.76175">
        <ele>409.1</ele>
        <time>2021-10-27T16:14:01Z</time>
      </trkpt>
      <trkpt lat="43.26664" lon="5.76182">
        <ele>409.1</ele>
        <time>2021-10-27T16:14:05Z</time>
      </trkpt>
      <trkpt lat="43.26663" lon="5.7619">
        <ele>409.1</ele>
        <time>2021-10-27T16:14:10Z</time>
      </trkpt>
      <trkpt lat="43.26661" lon="5.76196">
        <ele>409.2</ele>
        <time>2021-10-27T16:14:14Z</time>
      </trkpt>
      <trkpt lat="43.2666" lon="5.76203">
        <ele>409.2</ele>
        <time>2021-10-27T16:14:19Z</time>
      </trkpt>
      <trkpt lat="43.26661" lon="5.76209">
        <ele>409.2</ele>
        <time>2021-10-27T16:14:22Z</time>
      </trkpt>
      <trkpt lat="43.2666" lon="5.76216">
        <ele>409.3</ele>
        <time>2021-10-27T16:14:26Z</time>
      </trkpt>
      <trkpt lat="43.26659" lon="5.76224">
        <ele>409.3</ele>
        <time>2021-10-27T16:14:31Z</time>
      </trkpt>
      <trkpt lat="43.26658" lon="5.7623">
        <ele>409.3</ele>
        <time>2021-10-27T16:14:35Z</time>
      </trkpt>
      <trkpt lat="43.26655" lon="5.76236">
        <ele>409.4</ele>
        <time>2021-10-27T16:14:39Z</time>
      </trkpt>
      <trkpt lat="43.26653" lon="5.76243">
        <ele>409.5</ele>
        <time>2021-10-27T16:14:45Z</time>
      </trkpt>
      <trkpt lat="43.26651" lon="5.76249">
        <ele>409.6</ele>
        <time>2021-10-27T16:14:49Z</time>
      </trkpt>
      <trkpt lat="43.2665" lon="5.76256">
        <ele>409.5</ele>
        <time>2021-10-27T16:14:55Z</time>
      </trkpt>
      <trkpt lat="43.26649" lon="5.76263">
        <ele>409.3</ele>
        <time>2021-10-27T16:14:59Z</time>
      </trkpt>
      <trkpt lat="43.26648" lon="5.7627">
        <ele>409.2</ele>
        <time>2021-10-27T16:15:03Z</time>
      </trkpt>
      <trkpt lat="43.26645" lon="5.76275">
        <ele>409.1</ele>
        <time>2021-10-27T16:15:06Z</time>
      </trkpt>
      <trkpt lat="43.26641" lon="5.7628">
        <ele>409</ele>
        <time>2021-10-27T16:15:10Z</time>
      </trkpt>
      <trkpt lat="43.26637" lon="5.76285">
        <ele>409</ele>
        <time>2021-10-27T16:15:14Z</time>
      </trkpt>
      <trkpt lat="43.26633" lon="5.7629">
        <ele>409</ele>
        <time>2021-10-27T16:15:18Z</time>
      </trkpt>
      <trkpt lat="43.2663" lon="5.76294">
        <ele>409</ele>
        <time>2021-10-27T16:15:22Z</time>
      </trkpt>
      <trkpt lat="43.26626" lon="5.76298">
        <ele>409</ele>
        <time>2021-10-27T16:15:26Z</time>
      </trkpt>
      <trkpt lat="43.26623" lon="5.76302">
        <ele>409</ele>
        <time>2021-10-27T16:15:30Z</time>
      </trkpt>
      <trkpt lat="43.2662" lon="5.76309">
        <ele>409</ele>
        <time>2021-10-27T16:15:36Z</time>
      </trkpt>
      <trkpt lat="43.26618" lon="5.76315">
        <ele>409</ele>
        <time>2021-10-27T16:15:40Z</time>
      </trkpt>
      <trkpt lat="43.26616" lon="5.76321">
        <ele>409</ele>
        <time>2021-10-27T16:15:45Z</time>
      </trkpt>
      <trkpt lat="43.26614" lon="5.76327">
        <ele>409</ele>
        <time>2021-10-27T16:15:49Z</time>
      </trkpt>
      <trkpt lat="43.26611" lon="5.76334">
        <ele>409</ele>
        <time>2021-10-27T16:15:53Z</time>
      </trkpt>
      <trkpt lat="43.2661" lon="5.76341">
        <ele>409.3</ele>
        <time>2021-10-27T16:15:58Z</time>
      </trkpt>
      <trkpt lat="43.26607" lon="5.76347">
        <ele>409.5</ele>
        <time>2021-10-27T16:16:03Z</time>
      </trkpt>
      <trkpt lat="43.26603" lon="5.76352">
        <ele>409.7</ele>
        <time>2021-10-27T16:16:08Z</time>
      </trkpt>
      <trkpt lat="43.26601" lon="5.76358">
        <ele>409.9</ele>
        <time>2021-10-27T16:16:13Z</time>
      </trkpt>
      <trkpt lat="43.26599" lon="5.76364">
        <ele>410</ele>
        <time>2021-10-27T16:16:18Z</time>
      </trkpt>
      <trkpt lat="43.26596" lon="5.7637">
        <ele>410.2</ele>
        <time>2021-10-27T16:16:21Z</time>
      </trkpt>
      <trkpt lat="43.26592" lon="5.76373">
        <ele>410.3</ele>
        <time>2021-10-27T16:16:24Z</time>
      </trkpt>
      <trkpt lat="43.26588" lon="5.76377">
        <ele>410.5</ele>
        <time>2021-10-27T16:16:29Z</time>
      </trkpt>
      <trkpt lat="43.26585" lon="5.76383">
        <ele>410.7</ele>
        <time>2021-10-27T16:16:34Z</time>
      </trkpt>
      <trkpt lat="43.26583" lon="5.76388">
        <ele>411</ele>
        <time>2021-10-27T16:16:38Z</time>
      </trkpt>
      <trkpt lat="43.26581" lon="5.76394">
        <ele>410.7</ele>
        <time>2021-10-27T16:16:42Z</time>
      </trkpt>
      <trkpt lat="43.26577" lon="5.76399">
        <ele>410.6</ele>
        <time>2021-10-27T16:16:46Z</time>
      </trkpt>
      <trkpt lat="43.26572" lon="5.76403">
        <ele>410.5</ele>
        <time>2021-10-27T16:16:50Z</time>
      </trkpt>
      <trkpt lat="43.26568" lon="5.76408">
        <ele>410.5</ele>
        <time>2021-10-27T16:16:55Z</time>
      </trkpt>
      <trkpt lat="43.26564" lon="5.76412">
        <ele>410.6</ele>
        <time>2021-10-27T16:16:59Z</time>
      </trkpt>
      <trkpt lat="43.26558" lon="5.76415">
        <ele>410.9</ele>
        <time>2021-10-27T16:17:03Z</time>
      </trkpt>
      <trkpt lat="43.26553" lon="5.76417">
        <ele>411</ele>
        <time>2021-10-27T16:17:06Z</time>
      </trkpt>
      <trkpt lat="43.26549" lon="5.7642">
        <ele>410.9</ele>
        <time>2021-10-27T16:17:10Z</time>
      </trkpt>
      <trkpt lat="43.26544" lon="5.76425">
        <ele>410.9</ele>
        <time>2021-10-27T16:17:15Z</time>
      </trkpt>
      <trkpt lat="43.26541" lon="5.7643">
        <ele>411</ele>
        <time>2021-10-27T16:17:20Z</time>
      </trkpt>
      <trkpt lat="43.26537" lon="5.76433">
        <ele>411.2</ele>
        <time>2021-10-27T16:17:26Z</time>
      </trkpt>
      <trkpt lat="43.26531" lon="5.76435">
        <ele>411.5</ele>
        <time>2021-10-27T16:17:31Z</time>
      </trkpt>
      <trkpt lat="43.26526" lon="5.76438">
        <ele>411.8</ele>
        <time>2021-10-27T16:17:35Z</time>
      </trkpt>
      <trkpt lat="43.26522" lon="5.76441">
        <ele>412.1</ele>
        <time>2021-10-27T16:17:38Z</time>
      </trkpt>
      <trkpt lat="43.26518" lon="5.76447">
        <ele>412.3</ele>
        <time>2021-10-27T16:17:44Z</time>
      </trkpt>
      <trkpt lat="43.26514" lon="5.76452">
        <ele>412.4</ele>
        <time>2021-10-27T16:17:49Z</time>
      </trkpt>
      <trkpt lat="43.2651" lon="5.76455">
        <ele>412.5</ele>
        <time>2021-10-27T16:17:53Z</time>
      </trkpt>
      <trkpt lat="43.26505" lon="5.76457">
        <ele>412.7</ele>
        <time>2021-10-27T16:17:57Z</time>
      </trkpt>
      <trkpt lat="43.26501" lon="5.7646">
        <ele>413</ele>
        <time>2021-10-27T16:17:59Z</time>
      </trkpt>
      <trkpt lat="43.26496" lon="5.76463">
        <ele>413.1</ele>
        <time>2021-10-27T16:18:02Z</time>
      </trkpt>
      <trkpt lat="43.26492" lon="5.76467">
        <ele>413.2</ele>
        <time>2021-10-27T16:18:07Z</time>
      </trkpt>
      <trkpt lat="43.26487" lon="5.76471">
        <ele>413.4</ele>
        <time>2021-10-27T16:18:13Z</time>
      </trkpt>
      <trkpt lat="43.26483" lon="5.76475">
        <ele>413.6</ele>
        <time>2021-10-27T16:18:19Z</time>
      </trkpt>
      <trkpt lat="43.26479" lon="5.76478">
        <ele>413.7</ele>
        <time>2021-10-27T16:18:26Z</time>
      </trkpt>
      <trkpt lat="43.26474" lon="5.76482">
        <ele>413.9</ele>
        <time>2021-10-27T16:18:29Z</time>
      </trkpt>
      <trkpt lat="43.2647" lon="5.76486">
        <ele>414</ele>
        <time>2021-10-27T16:18:32Z</time>
      </trkpt>
      <trkpt lat="43.26466" lon="5.76489">
        <ele>414</ele>
        <time>2021-10-27T16:18:36Z</time>
      </trkpt>
      <trkpt lat="43.26462" lon="5.76492">
        <ele>414</ele>
        <time>2021-10-27T16:18:42Z</time>
      </trkpt>
      <trkpt lat="43.26457" lon="5.76492">
        <ele>414</ele>
        <time>2021-10-27T16:18:46Z</time>
      </trkpt>
      <trkpt lat="43.26452" lon="5.76494">
        <ele>414</ele>
        <time>2021-10-27T16:18:52Z</time>
      </trkpt>
      <trkpt lat="43.26449" lon="5.76499">
        <ele>414</ele>
        <time>2021-10-27T16:18:56Z</time>
      </trkpt>
      <trkpt lat="43.26445" lon="5.76503">
        <ele>414</ele>
        <time>2021-10-27T16:18:59Z</time>
      </trkpt>
      <trkpt lat="43.26441" lon="5.76508">
        <ele>414.1</ele>
        <time>2021-10-27T16:19:03Z</time>
      </trkpt>
      <trkpt lat="43.26437" lon="5.76512">
        <ele>414.3</ele>
        <time>2021-10-27T16:19:07Z</time>
      </trkpt>
      <trkpt lat="43.26433" lon="5.76515">
        <ele>414.4</ele>
        <time>2021-10-27T16:19:12Z</time>
      </trkpt>
      <trkpt lat="43.26428" lon="5.76519">
        <ele>414.6</ele>
        <time>2021-10-27T16:19:17Z</time>
      </trkpt>
      <trkpt lat="43.26423" lon="5.76522">
        <ele>414.8</ele>
        <time>2021-10-27T16:19:23Z</time>
      </trkpt>
      <trkpt lat="43.26419" lon="5.76524">
        <ele>414.9</ele>
        <time>2021-10-27T16:19:42Z</time>
      </trkpt>
    </trkseg>
  </trk>
</gpx>